<?xml version="1.0" encoding="UTF-8" standalone="no" ?>
<gpx xmlns="http://www.topografix.com/GPX/1/1" xmlns:xsi="http://www.w3.org/2001/XMLSchema-instance" xsi:schemaLocation="http://www.topografix.com/GPX/1/1 http://www.topografix.com/GPX/1/1/gpx.xsd" version="1.1" creator="VisuGPX - https://www.visugpx.com">
  <metadata>
    <name>La Courbaisse Tournefort</name>
    <desc><![CDATA[Petite boucle matinale à partir de la Courbaisse.
NB cette boucle peut se combiner harmonieusement avec la sortie "Villars" en faisant :
La Courbaisse Tournefort massoin Villars Le lac (au dessus de Bayrol) retour Tournefort et descente par le GR sur le pont de Tournefort. Très belle boucle !]]></desc>
  </metadata>
  <trk>
    <name><![CDATA[Tournefort Cyclisme]]></name>
    <trkseg>
      <trkpt lat="43.92556" lon="7.18631">
        <ele>228.19999694824</ele>
        <time>2019-06-01T07:41:08.000Z</time>
      </trkpt>
      <trkpt lat="43.92555" lon="7.1863">
        <ele>228.39999389648</ele>
        <time>2019-06-01T07:41:21.000Z</time>
      </trkpt>
      <trkpt lat="43.92555" lon="7.18631">
        <ele>228.19999694824</ele>
        <time>2019-06-01T07:41:25.000Z</time>
      </trkpt>
      <trkpt lat="43.92556" lon="7.18631">
        <ele>228.39999389648</ele>
        <time>2019-06-01T07:41:27.000Z</time>
      </trkpt>
      <trkpt lat="43.92557" lon="7.18625">
        <ele>228.19999694824</ele>
        <time>2019-06-01T07:41:31.000Z</time>
      </trkpt>
      <trkpt lat="43.92556" lon="7.18608">
        <ele>228.80000305176</ele>
        <time>2019-06-01T07:41:36.000Z</time>
      </trkpt>
      <trkpt lat="43.92554" lon="7.18596">
        <ele>229.39999389648</ele>
        <time>2019-06-01T07:41:39.000Z</time>
      </trkpt>
      <trkpt lat="43.92551" lon="7.18588">
        <ele>229.80000305176</ele>
        <time>2019-06-01T07:41:41.000Z</time>
      </trkpt>
      <trkpt lat="43.92544" lon="7.18575">
        <ele>230.60000610352</ele>
        <time>2019-06-01T07:41:45.000Z</time>
      </trkpt>
      <trkpt lat="43.92543" lon="7.18566">
        <ele>230.80000305176</ele>
        <time>2019-06-01T07:41:47.000Z</time>
      </trkpt>
      <trkpt lat="43.92548" lon="7.1855">
        <ele>231.39999389648</ele>
        <time>2019-06-01T07:41:51.000Z</time>
      </trkpt>
      <trkpt lat="43.92551" lon="7.1854">
        <ele>231.60000610352</ele>
        <time>2019-06-01T07:41:53.000Z</time>
      </trkpt>
      <trkpt lat="43.92554" lon="7.18522">
        <ele>231.39999389648</ele>
        <time>2019-06-01T07:41:56.000Z</time>
      </trkpt>
      <trkpt lat="43.9256" lon="7.185">
        <ele>231</ele>
        <time>2019-06-01T07:42:00.000Z</time>
      </trkpt>
      <trkpt lat="43.92567" lon="7.18484">
        <ele>231.19999694824</ele>
        <time>2019-06-01T07:42:03.000Z</time>
      </trkpt>
      <trkpt lat="43.92584" lon="7.18448">
        <ele>231.60000610352</ele>
        <time>2019-06-01T07:42:10.000Z</time>
      </trkpt>
      <trkpt lat="43.92596" lon="7.18406">
        <ele>232.19999694824</ele>
        <time>2019-06-01T07:42:17.000Z</time>
      </trkpt>
      <trkpt lat="43.92606" lon="7.18354">
        <ele>232</ele>
        <time>2019-06-01T07:42:25.000Z</time>
      </trkpt>
      <trkpt lat="43.92619" lon="7.18312">
        <ele>232.39999389648</ele>
        <time>2019-06-01T07:42:33.000Z</time>
      </trkpt>
      <trkpt lat="43.92622" lon="7.18306">
        <ele>232.60000610352</ele>
        <time>2019-06-01T07:42:35.000Z</time>
      </trkpt>
      <trkpt lat="43.92632" lon="7.1829">
        <ele>232.80000305176</ele>
        <time>2019-06-01T07:42:41.000Z</time>
      </trkpt>
      <trkpt lat="43.92642" lon="7.1828">
        <ele>233.60000610352</ele>
        <time>2019-06-01T07:42:46.000Z</time>
      </trkpt>
      <trkpt lat="43.92645" lon="7.18278">
        <ele>233.80000305176</ele>
        <time>2019-06-01T07:42:47.000Z</time>
      </trkpt>
      <trkpt lat="43.9266" lon="7.18261">
        <ele>233.19999694824</ele>
        <time>2019-06-01T07:42:54.000Z</time>
      </trkpt>
      <trkpt lat="43.92673" lon="7.1824">
        <ele>233.39999389648</ele>
        <time>2019-06-01T07:43:01.000Z</time>
      </trkpt>
      <trkpt lat="43.92694" lon="7.18215">
        <ele>233.60000610352</ele>
        <time>2019-06-01T07:43:08.000Z</time>
      </trkpt>
      <trkpt lat="43.92726" lon="7.18181">
        <ele>233.80000305176</ele>
        <time>2019-06-01T07:43:17.000Z</time>
      </trkpt>
      <trkpt lat="43.92757" lon="7.18161">
        <ele>233.80000305176</ele>
        <time>2019-06-01T07:43:24.000Z</time>
      </trkpt>
      <trkpt lat="43.92788" lon="7.18141">
        <ele>233.60000610352</ele>
        <time>2019-06-01T07:43:31.000Z</time>
      </trkpt>
      <trkpt lat="43.92823" lon="7.18122">
        <ele>233.80000305176</ele>
        <time>2019-06-01T07:43:39.000Z</time>
      </trkpt>
      <trkpt lat="43.92869" lon="7.18097">
        <ele>234.19999694824</ele>
        <time>2019-06-01T07:43:50.000Z</time>
      </trkpt>
      <trkpt lat="43.92901" lon="7.18085">
        <ele>234.39999389648</ele>
        <time>2019-06-01T07:43:58.000Z</time>
      </trkpt>
      <trkpt lat="43.92929" lon="7.18083">
        <ele>234.60000610352</ele>
        <time>2019-06-01T07:44:05.000Z</time>
      </trkpt>
      <trkpt lat="43.92941" lon="7.18084">
        <ele>234.80000305176</ele>
        <time>2019-06-01T07:44:08.000Z</time>
      </trkpt>
      <trkpt lat="43.92949" lon="7.18082">
        <ele>235</ele>
        <time>2019-06-01T07:44:10.000Z</time>
      </trkpt>
      <trkpt lat="43.92969" lon="7.18074">
        <ele>235.60000610352</ele>
        <time>2019-06-01T07:44:15.000Z</time>
      </trkpt>
      <trkpt lat="43.92999" lon="7.18054">
        <ele>235.39999389648</ele>
        <time>2019-06-01T07:44:23.000Z</time>
      </trkpt>
      <trkpt lat="43.93008" lon="7.18045">
        <ele>235.80000305176</ele>
        <time>2019-06-01T07:44:26.000Z</time>
      </trkpt>
      <trkpt lat="43.93013" lon="7.18036">
        <ele>236</ele>
        <time>2019-06-01T07:44:28.000Z</time>
      </trkpt>
      <trkpt lat="43.93023" lon="7.18012">
        <ele>235.80000305176</ele>
        <time>2019-06-01T07:44:34.000Z</time>
      </trkpt>
      <trkpt lat="43.93032" lon="7.17989">
        <ele>236</ele>
        <time>2019-06-01T07:44:41.000Z</time>
      </trkpt>
      <trkpt lat="43.9304" lon="7.17968">
        <ele>235.80000305176</ele>
        <time>2019-06-01T07:44:46.000Z</time>
      </trkpt>
      <trkpt lat="43.93059" lon="7.17916">
        <ele>236.19999694824</ele>
        <time>2019-06-01T07:44:56.000Z</time>
      </trkpt>
      <trkpt lat="43.93069" lon="7.17895">
        <ele>236.19999694824</ele>
        <time>2019-06-01T07:45:01.000Z</time>
      </trkpt>
      <trkpt lat="43.93073" lon="7.17883">
        <ele>236.19999694824</ele>
        <time>2019-06-01T07:45:06.000Z</time>
      </trkpt>
      <trkpt lat="43.93078" lon="7.17865">
        <ele>236.39999389648</ele>
        <time>2019-06-01T07:45:11.000Z</time>
      </trkpt>
      <trkpt lat="43.93088" lon="7.17838">
        <ele>236.60000610352</ele>
        <time>2019-06-01T07:45:17.000Z</time>
      </trkpt>
      <trkpt lat="43.93107" lon="7.17792">
        <ele>236.80000305176</ele>
        <time>2019-06-01T07:45:26.000Z</time>
      </trkpt>
      <trkpt lat="43.93122" lon="7.1776">
        <ele>237</ele>
        <time>2019-06-01T07:45:32.000Z</time>
      </trkpt>
      <trkpt lat="43.93127" lon="7.17751">
        <ele>237</ele>
        <time>2019-06-01T07:45:34.000Z</time>
      </trkpt>
      <trkpt lat="43.93146" lon="7.17713">
        <ele>237.39999389648</ele>
        <time>2019-06-01T07:45:42.000Z</time>
      </trkpt>
      <trkpt lat="43.9315" lon="7.17698">
        <ele>237.60000610352</ele>
        <time>2019-06-01T07:45:45.000Z</time>
      </trkpt>
      <trkpt lat="43.9315" lon="7.17691">
        <ele>237.39999389648</ele>
        <time>2019-06-01T07:45:46.000Z</time>
      </trkpt>
      <trkpt lat="43.93151" lon="7.17685">
        <ele>237.19999694824</ele>
        <time>2019-06-01T07:45:47.000Z</time>
      </trkpt>
      <trkpt lat="43.93155" lon="7.17667">
        <ele>237</ele>
        <time>2019-06-01T07:45:50.000Z</time>
      </trkpt>
      <trkpt lat="43.93157" lon="7.17661">
        <ele>237.19999694824</ele>
        <time>2019-06-01T07:45:51.000Z</time>
      </trkpt>
      <trkpt lat="43.93162" lon="7.17644">
        <ele>237.80000305176</ele>
        <time>2019-06-01T07:45:54.000Z</time>
      </trkpt>
      <trkpt lat="43.93169" lon="7.17627">
        <ele>238</ele>
        <time>2019-06-01T07:45:57.000Z</time>
      </trkpt>
      <trkpt lat="43.93172" lon="7.17616">
        <ele>237.80000305176</ele>
        <time>2019-06-01T07:45:59.000Z</time>
      </trkpt>
      <trkpt lat="43.93179" lon="7.17597">
        <ele>238</ele>
        <time>2019-06-01T07:46:02.000Z</time>
      </trkpt>
      <trkpt lat="43.93185" lon="7.17586">
        <ele>238.19999694824</ele>
        <time>2019-06-01T07:46:04.000Z</time>
      </trkpt>
      <trkpt lat="43.93193" lon="7.17576">
        <ele>238</ele>
        <time>2019-06-01T07:46:06.000Z</time>
      </trkpt>
      <trkpt lat="43.93211" lon="7.17552">
        <ele>238.19999694824</ele>
        <time>2019-06-01T07:46:11.000Z</time>
      </trkpt>
      <trkpt lat="43.93223" lon="7.17519">
        <ele>238.19999694824</ele>
        <time>2019-06-01T07:46:16.000Z</time>
      </trkpt>
      <trkpt lat="43.93235" lon="7.17478">
        <ele>238</ele>
        <time>2019-06-01T07:46:22.000Z</time>
      </trkpt>
      <trkpt lat="43.93238" lon="7.17471">
        <ele>238</ele>
        <time>2019-06-01T07:46:23.000Z</time>
      </trkpt>
      <trkpt lat="43.93246" lon="7.17448">
        <ele>238</ele>
        <time>2019-06-01T07:46:26.000Z</time>
      </trkpt>
      <trkpt lat="43.93249" lon="7.1744">
        <ele>238</ele>
        <time>2019-06-01T07:46:27.000Z</time>
      </trkpt>
      <trkpt lat="43.93262" lon="7.17413">
        <ele>237.80000305176</ele>
        <time>2019-06-01T07:46:31.000Z</time>
      </trkpt>
      <trkpt lat="43.9327" lon="7.174">
        <ele>237.60000610352</ele>
        <time>2019-06-01T07:46:33.000Z</time>
      </trkpt>
      <trkpt lat="43.933" lon="7.17375">
        <ele>237.80000305176</ele>
        <time>2019-06-01T07:46:39.000Z</time>
      </trkpt>
      <trkpt lat="43.9334" lon="7.17346">
        <ele>237.39999389648</ele>
        <time>2019-06-01T07:46:47.000Z</time>
      </trkpt>
      <trkpt lat="43.9337" lon="7.1732">
        <ele>237.19999694824</ele>
        <time>2019-06-01T07:46:55.000Z</time>
      </trkpt>
      <trkpt lat="43.93385" lon="7.17303">
        <ele>237.60000610352</ele>
        <time>2019-06-01T07:46:59.000Z</time>
      </trkpt>
      <trkpt lat="43.93387" lon="7.17299">
        <ele>237.60000610352</ele>
        <time>2019-06-01T07:47:00.000Z</time>
      </trkpt>
      <trkpt lat="43.93391" lon="7.17293">
        <ele>237.60000610352</ele>
        <time>2019-06-01T07:47:01.000Z</time>
      </trkpt>
      <trkpt lat="43.93399" lon="7.17268">
        <ele>237.60000610352</ele>
        <time>2019-06-01T07:47:05.000Z</time>
      </trkpt>
      <trkpt lat="43.93403" lon="7.17253">
        <ele>237.60000610352</ele>
        <time>2019-06-01T07:47:07.000Z</time>
      </trkpt>
      <trkpt lat="43.93411" lon="7.17227">
        <ele>237.39999389648</ele>
        <time>2019-06-01T07:47:11.000Z</time>
      </trkpt>
      <trkpt lat="43.93413" lon="7.17221">
        <ele>237.19999694824</ele>
        <time>2019-06-01T07:47:12.000Z</time>
      </trkpt>
      <trkpt lat="43.93424" lon="7.17206">
        <ele>237.19999694824</ele>
        <time>2019-06-01T07:47:15.000Z</time>
      </trkpt>
      <trkpt lat="43.9345" lon="7.17181">
        <ele>237.39999389648</ele>
        <time>2019-06-01T07:47:21.000Z</time>
      </trkpt>
      <trkpt lat="43.93476" lon="7.17172">
        <ele>237.19999694824</ele>
        <time>2019-06-01T07:47:26.000Z</time>
      </trkpt>
      <trkpt lat="43.93491" lon="7.17169">
        <ele>237</ele>
        <time>2019-06-01T07:47:29.000Z</time>
      </trkpt>
      <trkpt lat="43.93513" lon="7.17169">
        <ele>236.80000305176</ele>
        <time>2019-06-01T07:47:33.000Z</time>
      </trkpt>
      <trkpt lat="43.93545" lon="7.17177">
        <ele>236.80000305176</ele>
        <time>2019-06-01T07:47:39.000Z</time>
      </trkpt>
      <trkpt lat="43.93554" lon="7.1718">
        <ele>236.80000305176</ele>
        <time>2019-06-01T07:47:41.000Z</time>
      </trkpt>
      <trkpt lat="43.93567" lon="7.17179">
        <ele>237</ele>
        <time>2019-06-01T07:47:44.000Z</time>
      </trkpt>
      <trkpt lat="43.93584" lon="7.17173">
        <ele>237</ele>
        <time>2019-06-01T07:47:49.000Z</time>
      </trkpt>
      <trkpt lat="43.93593" lon="7.17172">
        <ele>236.80000305176</ele>
        <time>2019-06-01T07:47:53.000Z</time>
      </trkpt>
      <trkpt lat="43.93604" lon="7.17172">
        <ele>237</ele>
        <time>2019-06-01T07:47:58.000Z</time>
      </trkpt>
      <trkpt lat="43.93623" lon="7.17162">
        <ele>237.19999694824</ele>
        <time>2019-06-01T07:48:03.000Z</time>
      </trkpt>
      <trkpt lat="43.93663" lon="7.17146">
        <ele>236.80000305176</ele>
        <time>2019-06-01T07:48:07.000Z</time>
      </trkpt>
      <trkpt lat="43.93701" lon="7.17128">
        <ele>236.80000305176</ele>
        <time>2019-06-01T07:48:12.000Z</time>
      </trkpt>
      <trkpt lat="43.93708" lon="7.17125">
        <ele>236.60000610352</ele>
        <time>2019-06-01T07:48:13.000Z</time>
      </trkpt>
      <trkpt lat="43.93737" lon="7.17108">
        <ele>236.80000305176</ele>
        <time>2019-06-01T07:48:18.000Z</time>
      </trkpt>
      <trkpt lat="43.93741" lon="7.17104">
        <ele>236.80000305176</ele>
        <time>2019-06-01T07:48:19.000Z</time>
      </trkpt>
      <trkpt lat="43.93761" lon="7.1709">
        <ele>236.80000305176</ele>
        <time>2019-06-01T07:48:23.000Z</time>
      </trkpt>
      <trkpt lat="43.93767" lon="7.17085">
        <ele>236.80000305176</ele>
        <time>2019-06-01T07:48:24.000Z</time>
      </trkpt>
      <trkpt lat="43.93774" lon="7.17056">
        <ele>237</ele>
        <time>2019-06-01T07:48:28.000Z</time>
      </trkpt>
      <trkpt lat="43.93768" lon="7.17041">
        <ele>237</ele>
        <time>2019-06-01T07:48:30.000Z</time>
      </trkpt>
      <trkpt lat="43.93762" lon="7.17027">
        <ele>237</ele>
        <time>2019-06-01T07:48:32.000Z</time>
      </trkpt>
      <trkpt lat="43.93753" lon="7.17006">
        <ele>236.80000305176</ele>
        <time>2019-06-01T07:48:37.000Z</time>
      </trkpt>
      <trkpt lat="43.93748" lon="7.17005">
        <ele>237.19999694824</ele>
        <time>2019-06-01T07:48:42.000Z</time>
      </trkpt>
      <trkpt lat="43.93739" lon="7.17">
        <ele>237</ele>
        <time>2019-06-01T07:48:48.000Z</time>
      </trkpt>
      <trkpt lat="43.93729" lon="7.16986">
        <ele>237.19999694824</ele>
        <time>2019-06-01T07:48:53.000Z</time>
      </trkpt>
      <trkpt lat="43.93717" lon="7.16967">
        <ele>236.80000305176</ele>
        <time>2019-06-01T07:48:57.000Z</time>
      </trkpt>
      <trkpt lat="43.9371" lon="7.16937">
        <ele>236.19999694824</ele>
        <time>2019-06-01T07:49:01.000Z</time>
      </trkpt>
      <trkpt lat="43.9371" lon="7.16928">
        <ele>236.19999694824</ele>
        <time>2019-06-01T07:49:02.000Z</time>
      </trkpt>
      <trkpt lat="43.93707" lon="7.1686">
        <ele>237.19999694824</ele>
        <time>2019-06-01T07:49:10.000Z</time>
      </trkpt>
      <trkpt lat="43.93705" lon="7.16808">
        <ele>237.39999389648</ele>
        <time>2019-06-01T07:49:16.000Z</time>
      </trkpt>
      <trkpt lat="43.93706" lon="7.16799">
        <ele>237.60000610352</ele>
        <time>2019-06-01T07:49:17.000Z</time>
      </trkpt>
      <trkpt lat="43.93709" lon="7.16775">
        <ele>237.80000305176</ele>
        <time>2019-06-01T07:49:20.000Z</time>
      </trkpt>
      <trkpt lat="43.93715" lon="7.16757">
        <ele>237.80000305176</ele>
        <time>2019-06-01T07:49:22.000Z</time>
      </trkpt>
      <trkpt lat="43.93729" lon="7.16731">
        <ele>237.80000305176</ele>
        <time>2019-06-01T07:49:25.000Z</time>
      </trkpt>
      <trkpt lat="43.93737" lon="7.16716">
        <ele>238</ele>
        <time>2019-06-01T07:49:27.000Z</time>
      </trkpt>
      <trkpt lat="43.93751" lon="7.16697">
        <ele>238.39999389648</ele>
        <time>2019-06-01T07:49:30.000Z</time>
      </trkpt>
      <trkpt lat="43.93758" lon="7.16683">
        <ele>238.60000610352</ele>
        <time>2019-06-01T07:49:32.000Z</time>
      </trkpt>
      <trkpt lat="43.93767" lon="7.16661">
        <ele>238.80000305176</ele>
        <time>2019-06-01T07:49:35.000Z</time>
      </trkpt>
      <trkpt lat="43.93769" lon="7.16653">
        <ele>239</ele>
        <time>2019-06-01T07:49:36.000Z</time>
      </trkpt>
      <trkpt lat="43.93776" lon="7.1663">
        <ele>239</ele>
        <time>2019-06-01T07:49:39.000Z</time>
      </trkpt>
      <trkpt lat="43.93787" lon="7.16591">
        <ele>239.39999389648</ele>
        <time>2019-06-01T07:49:44.000Z</time>
      </trkpt>
      <trkpt lat="43.93799" lon="7.16555">
        <ele>239.80000305176</ele>
        <time>2019-06-01T07:49:49.000Z</time>
      </trkpt>
      <trkpt lat="43.93808" lon="7.16544">
        <ele>240.19999694824</ele>
        <time>2019-06-01T07:49:51.000Z</time>
      </trkpt>
      <trkpt lat="43.93827" lon="7.1653">
        <ele>240.39999389648</ele>
        <time>2019-06-01T07:49:55.000Z</time>
      </trkpt>
      <trkpt lat="43.93832" lon="7.16528">
        <ele>240.39999389648</ele>
        <time>2019-06-01T07:49:56.000Z</time>
      </trkpt>
      <trkpt lat="43.93857" lon="7.16516">
        <ele>240.80000305176</ele>
        <time>2019-06-01T07:50:02.000Z</time>
      </trkpt>
      <trkpt lat="43.9386" lon="7.16513">
        <ele>240.80000305176</ele>
        <time>2019-06-01T07:50:03.000Z</time>
      </trkpt>
      <trkpt lat="43.93871" lon="7.16489">
        <ele>241</ele>
        <time>2019-06-01T07:50:08.000Z</time>
      </trkpt>
      <trkpt lat="43.93873" lon="7.16483">
        <ele>241</ele>
        <time>2019-06-01T07:50:09.000Z</time>
      </trkpt>
      <trkpt lat="43.93874" lon="7.16471">
        <ele>241.19999694824</ele>
        <time>2019-06-01T07:50:11.000Z</time>
      </trkpt>
      <trkpt lat="43.93874" lon="7.16458">
        <ele>241.39999389648</ele>
        <time>2019-06-01T07:50:13.000Z</time>
      </trkpt>
      <trkpt lat="43.93873" lon="7.16446">
        <ele>241.39999389648</ele>
        <time>2019-06-01T07:50:15.000Z</time>
      </trkpt>
      <trkpt lat="43.93864" lon="7.16411">
        <ele>241.60000610352</ele>
        <time>2019-06-01T07:50:20.000Z</time>
      </trkpt>
      <trkpt lat="43.9386" lon="7.16387">
        <ele>241.80000305176</ele>
        <time>2019-06-01T07:50:24.000Z</time>
      </trkpt>
      <trkpt lat="43.93858" lon="7.16376">
        <ele>242</ele>
        <time>2019-06-01T07:50:26.000Z</time>
      </trkpt>
      <trkpt lat="43.93856" lon="7.16364">
        <ele>242.19999694824</ele>
        <time>2019-06-01T07:50:28.000Z</time>
      </trkpt>
      <trkpt lat="43.93849" lon="7.16319">
        <ele>243</ele>
        <time>2019-06-01T07:50:36.000Z</time>
      </trkpt>
      <trkpt lat="43.93846" lon="7.16298">
        <ele>243.19999694824</ele>
        <time>2019-06-01T07:50:40.000Z</time>
      </trkpt>
      <trkpt lat="43.93842" lon="7.16271">
        <ele>243.80000305176</ele>
        <time>2019-06-01T07:50:45.000Z</time>
      </trkpt>
      <trkpt lat="43.93843" lon="7.16254">
        <ele>244</ele>
        <time>2019-06-01T07:50:48.000Z</time>
      </trkpt>
      <trkpt lat="43.93845" lon="7.16238">
        <ele>244.19999694824</ele>
        <time>2019-06-01T07:50:51.000Z</time>
      </trkpt>
      <trkpt lat="43.9386" lon="7.16199">
        <ele>245</ele>
        <time>2019-06-01T07:50:59.000Z</time>
      </trkpt>
      <trkpt lat="43.93865" lon="7.16191">
        <ele>245.39999389648</ele>
        <time>2019-06-01T07:51:01.000Z</time>
      </trkpt>
      <trkpt lat="43.93877" lon="7.1617">
        <ele>245.60000610352</ele>
        <time>2019-06-01T07:51:06.000Z</time>
      </trkpt>
      <trkpt lat="43.93886" lon="7.16154">
        <ele>246.19999694824</ele>
        <time>2019-06-01T07:51:10.000Z</time>
      </trkpt>
      <trkpt lat="43.93888" lon="7.1615">
        <ele>246.19999694824</ele>
        <time>2019-06-01T07:51:11.000Z</time>
      </trkpt>
      <trkpt lat="43.93891" lon="7.16146">
        <ele>246.39999389648</ele>
        <time>2019-06-01T07:51:12.000Z</time>
      </trkpt>
      <trkpt lat="43.93906" lon="7.16127">
        <ele>246.80000305176</ele>
        <time>2019-06-01T07:51:17.000Z</time>
      </trkpt>
      <trkpt lat="43.93909" lon="7.16123">
        <ele>246.80000305176</ele>
        <time>2019-06-01T07:51:18.000Z</time>
      </trkpt>
      <trkpt lat="43.93921" lon="7.16112">
        <ele>247.39999389648</ele>
        <time>2019-06-01T07:51:22.000Z</time>
      </trkpt>
      <trkpt lat="43.93924" lon="7.1611">
        <ele>247.60000610352</ele>
        <time>2019-06-01T07:51:23.000Z</time>
      </trkpt>
      <trkpt lat="43.93939" lon="7.16102">
        <ele>248.80000305176</ele>
        <time>2019-06-01T07:51:28.000Z</time>
      </trkpt>
      <trkpt lat="43.93952" lon="7.16102">
        <ele>248.60000610352</ele>
        <time>2019-06-01T07:51:32.000Z</time>
      </trkpt>
      <trkpt lat="43.93961" lon="7.16107">
        <ele>248.19999694824</ele>
        <time>2019-06-01T07:51:36.000Z</time>
      </trkpt>
      <trkpt lat="43.93971" lon="7.1611">
        <ele>248.39999389648</ele>
        <time>2019-06-01T07:51:39.000Z</time>
      </trkpt>
      <trkpt lat="43.93974" lon="7.16111">
        <ele>248.39999389648</ele>
        <time>2019-06-01T07:51:40.000Z</time>
      </trkpt>
      <trkpt lat="43.93995" lon="7.16119">
        <ele>249</ele>
        <time>2019-06-01T07:51:46.000Z</time>
      </trkpt>
      <trkpt lat="43.94023" lon="7.16126">
        <ele>248.80000305176</ele>
        <time>2019-06-01T07:51:52.000Z</time>
      </trkpt>
      <trkpt lat="43.94081" lon="7.16134">
        <ele>249.39999389648</ele>
        <time>2019-06-01T07:52:03.000Z</time>
      </trkpt>
      <trkpt lat="43.9412" lon="7.16138">
        <ele>249.60000610352</ele>
        <time>2019-06-01T07:52:11.000Z</time>
      </trkpt>
      <trkpt lat="43.94126" lon="7.16141">
        <ele>249.80000305176</ele>
        <time>2019-06-01T07:52:13.000Z</time>
      </trkpt>
      <trkpt lat="43.94136" lon="7.16145">
        <ele>249.80000305176</ele>
        <time>2019-06-01T07:52:16.000Z</time>
      </trkpt>
      <trkpt lat="43.94144" lon="7.16147">
        <ele>249.80000305176</ele>
        <time>2019-06-01T07:52:18.000Z</time>
      </trkpt>
      <trkpt lat="43.94151" lon="7.16151">
        <ele>250.19999694824</ele>
        <time>2019-06-01T07:52:20.000Z</time>
      </trkpt>
      <trkpt lat="43.94158" lon="7.16156">
        <ele>250.60000610352</ele>
        <time>2019-06-01T07:52:22.000Z</time>
      </trkpt>
      <trkpt lat="43.94165" lon="7.16162">
        <ele>250.60000610352</ele>
        <time>2019-06-01T07:52:24.000Z</time>
      </trkpt>
      <trkpt lat="43.9418" lon="7.16177">
        <ele>250.39999389648</ele>
        <time>2019-06-01T07:52:28.000Z</time>
      </trkpt>
      <trkpt lat="43.94206" lon="7.16201">
        <ele>250.60000610352</ele>
        <time>2019-06-01T07:52:35.000Z</time>
      </trkpt>
      <trkpt lat="43.9421" lon="7.16204">
        <ele>250.60000610352</ele>
        <time>2019-06-01T07:52:36.000Z</time>
      </trkpt>
      <trkpt lat="43.94217" lon="7.1621">
        <ele>250.80000305176</ele>
        <time>2019-06-01T07:52:38.000Z</time>
      </trkpt>
      <trkpt lat="43.94232" lon="7.16223">
        <ele>251</ele>
        <time>2019-06-01T07:52:42.000Z</time>
      </trkpt>
      <trkpt lat="43.9425" lon="7.16237">
        <ele>251</ele>
        <time>2019-06-01T07:52:48.000Z</time>
      </trkpt>
      <trkpt lat="43.94271" lon="7.16247">
        <ele>251</ele>
        <time>2019-06-01T07:52:55.000Z</time>
      </trkpt>
      <trkpt lat="43.94278" lon="7.16247">
        <ele>251</ele>
        <time>2019-06-01T07:52:58.000Z</time>
      </trkpt>
      <trkpt lat="43.9428" lon="7.16245">
        <ele>251</ele>
        <time>2019-06-01T07:52:59.000Z</time>
      </trkpt>
      <trkpt lat="43.94281" lon="7.16245">
        <ele>250.80000305176</ele>
        <time>2019-06-01T07:53:03.000Z</time>
      </trkpt>
      <trkpt lat="43.94281" lon="7.16245">
        <ele>250.80000305176</ele>
        <time>2019-06-01T07:53:11.000Z</time>
      </trkpt>
      <trkpt lat="43.94279" lon="7.16247">
        <ele>251</ele>
        <time>2019-06-01T07:53:35.000Z</time>
      </trkpt>
      <trkpt lat="43.94278" lon="7.16249">
        <ele>251</ele>
        <time>2019-06-01T07:54:05.000Z</time>
      </trkpt>
      <trkpt lat="43.94278" lon="7.1625">
        <ele>251.19999694824</ele>
        <time>2019-06-01T07:54:36.000Z</time>
      </trkpt>
      <trkpt lat="43.94278" lon="7.1625">
        <ele>251</ele>
        <time>2019-06-01T07:54:51.000Z</time>
      </trkpt>
      <trkpt lat="43.94278" lon="7.16251">
        <ele>251</ele>
        <time>2019-06-01T07:55:05.000Z</time>
      </trkpt>
      <trkpt lat="43.94278" lon="7.16251">
        <ele>251.19999694824</ele>
        <time>2019-06-01T07:55:30.000Z</time>
      </trkpt>
      <trkpt lat="43.94278" lon="7.16252">
        <ele>251.19999694824</ele>
        <time>2019-06-01T07:55:54.000Z</time>
      </trkpt>
      <trkpt lat="43.94277" lon="7.16252">
        <ele>251</ele>
        <time>2019-06-01T07:56:10.000Z</time>
      </trkpt>
      <trkpt lat="43.94274" lon="7.16251">
        <ele>251.19999694824</ele>
        <time>2019-06-01T07:56:12.000Z</time>
      </trkpt>
      <trkpt lat="43.94269" lon="7.16249">
        <ele>251</ele>
        <time>2019-06-01T07:56:15.000Z</time>
      </trkpt>
      <trkpt lat="43.94264" lon="7.16246">
        <ele>250.80000305176</ele>
        <time>2019-06-01T07:56:17.000Z</time>
      </trkpt>
      <trkpt lat="43.94248" lon="7.16236">
        <ele>250.80000305176</ele>
        <time>2019-06-01T07:56:22.000Z</time>
      </trkpt>
      <trkpt lat="43.94223" lon="7.16211">
        <ele>250.60000610352</ele>
        <time>2019-06-01T07:56:29.000Z</time>
      </trkpt>
      <trkpt lat="43.94196" lon="7.16183">
        <ele>250.19999694824</ele>
        <time>2019-06-01T07:56:36.000Z</time>
      </trkpt>
      <trkpt lat="43.94159" lon="7.16149">
        <ele>250</ele>
        <time>2019-06-01T07:56:45.000Z</time>
      </trkpt>
      <trkpt lat="43.94132" lon="7.16141">
        <ele>250</ele>
        <time>2019-06-01T07:56:50.000Z</time>
      </trkpt>
      <trkpt lat="43.94109" lon="7.16137">
        <ele>249.80000305176</ele>
        <time>2019-06-01T07:56:54.000Z</time>
      </trkpt>
      <trkpt lat="43.94085" lon="7.16134">
        <ele>249.60000610352</ele>
        <time>2019-06-01T07:56:58.000Z</time>
      </trkpt>
      <trkpt lat="43.9403" lon="7.16121">
        <ele>249</ele>
        <time>2019-06-01T07:57:07.000Z</time>
      </trkpt>
      <trkpt lat="43.94024" lon="7.1612">
        <ele>248.80000305176</ele>
        <time>2019-06-01T07:57:08.000Z</time>
      </trkpt>
      <trkpt lat="43.94013" lon="7.16116">
        <ele>248.60000610352</ele>
        <time>2019-06-01T07:57:10.000Z</time>
      </trkpt>
      <trkpt lat="43.93976" lon="7.16106">
        <ele>247.80000305176</ele>
        <time>2019-06-01T07:57:16.000Z</time>
      </trkpt>
      <trkpt lat="43.9394" lon="7.16104">
        <ele>247.60000610352</ele>
        <time>2019-06-01T07:57:22.000Z</time>
      </trkpt>
      <trkpt lat="43.93933" lon="7.16106">
        <ele>247.60000610352</ele>
        <time>2019-06-01T07:57:23.000Z</time>
      </trkpt>
      <trkpt lat="43.9391" lon="7.16117">
        <ele>247.39999389648</ele>
        <time>2019-06-01T07:57:27.000Z</time>
      </trkpt>
      <trkpt lat="43.939" lon="7.16127">
        <ele>247.19999694824</ele>
        <time>2019-06-01T07:57:29.000Z</time>
      </trkpt>
      <trkpt lat="43.93891" lon="7.16138">
        <ele>247</ele>
        <time>2019-06-01T07:57:31.000Z</time>
      </trkpt>
      <trkpt lat="43.93886" lon="7.16145">
        <ele>246.80000305176</ele>
        <time>2019-06-01T07:57:32.000Z</time>
      </trkpt>
      <trkpt lat="43.93878" lon="7.16158">
        <ele>246.39999389648</ele>
        <time>2019-06-01T07:57:34.000Z</time>
      </trkpt>
      <trkpt lat="43.93861" lon="7.16185">
        <ele>246</ele>
        <time>2019-06-01T07:57:38.000Z</time>
      </trkpt>
      <trkpt lat="43.93846" lon="7.16214">
        <ele>245.39999389648</ele>
        <time>2019-06-01T07:57:42.000Z</time>
      </trkpt>
      <trkpt lat="43.93843" lon="7.16223">
        <ele>245.19999694824</ele>
        <time>2019-06-01T07:57:43.000Z</time>
      </trkpt>
      <trkpt lat="43.93841" lon="7.16232">
        <ele>245.19999694824</ele>
        <time>2019-06-01T07:57:44.000Z</time>
      </trkpt>
      <trkpt lat="43.93835" lon="7.16257">
        <ele>244.60000610352</ele>
        <time>2019-06-01T07:57:47.000Z</time>
      </trkpt>
      <trkpt lat="43.93834" lon="7.16266">
        <ele>244.39999389648</ele>
        <time>2019-06-01T07:57:48.000Z</time>
      </trkpt>
      <trkpt lat="43.93834" lon="7.16275">
        <ele>244.39999389648</ele>
        <time>2019-06-01T07:57:49.000Z</time>
      </trkpt>
      <trkpt lat="43.93837" lon="7.16303">
        <ele>243.80000305176</ele>
        <time>2019-06-01T07:57:52.000Z</time>
      </trkpt>
      <trkpt lat="43.93839" lon="7.16322">
        <ele>243.39999389648</ele>
        <time>2019-06-01T07:57:54.000Z</time>
      </trkpt>
      <trkpt lat="43.9384" lon="7.16331">
        <ele>243.39999389648</ele>
        <time>2019-06-01T07:57:55.000Z</time>
      </trkpt>
      <trkpt lat="43.93846" lon="7.16376">
        <ele>242.39999389648</ele>
        <time>2019-06-01T07:58:00.000Z</time>
      </trkpt>
      <trkpt lat="43.9385" lon="7.16412">
        <ele>241.80000305176</ele>
        <time>2019-06-01T07:58:04.000Z</time>
      </trkpt>
      <trkpt lat="43.93854" lon="7.16456">
        <ele>241.39999389648</ele>
        <time>2019-06-01T07:58:09.000Z</time>
      </trkpt>
      <trkpt lat="43.93854" lon="7.16465">
        <ele>241.19999694824</ele>
        <time>2019-06-01T07:58:10.000Z</time>
      </trkpt>
      <trkpt lat="43.93854" lon="7.16474">
        <ele>241.19999694824</ele>
        <time>2019-06-01T07:58:11.000Z</time>
      </trkpt>
      <trkpt lat="43.93852" lon="7.16483">
        <ele>241</ele>
        <time>2019-06-01T07:58:12.000Z</time>
      </trkpt>
      <trkpt lat="43.93839" lon="7.16513">
        <ele>241</ele>
        <time>2019-06-01T07:58:16.000Z</time>
      </trkpt>
      <trkpt lat="43.93817" lon="7.16528">
        <ele>240.60000610352</ele>
        <time>2019-06-01T07:58:20.000Z</time>
      </trkpt>
      <trkpt lat="43.93805" lon="7.16531">
        <ele>240.39999389648</ele>
        <time>2019-06-01T07:58:22.000Z</time>
      </trkpt>
      <trkpt lat="43.93781" lon="7.16536">
        <ele>240.39999389648</ele>
        <time>2019-06-01T07:58:26.000Z</time>
      </trkpt>
      <trkpt lat="43.93765" lon="7.16555">
        <ele>240.60000610352</ele>
        <time>2019-06-01T07:58:30.000Z</time>
      </trkpt>
      <trkpt lat="43.93761" lon="7.1657">
        <ele>240.39999389648</ele>
        <time>2019-06-01T07:58:32.000Z</time>
      </trkpt>
      <trkpt lat="43.93756" lon="7.16594">
        <ele>240.19999694824</ele>
        <time>2019-06-01T07:58:35.000Z</time>
      </trkpt>
      <trkpt lat="43.93751" lon="7.16637">
        <ele>239.80000305176</ele>
        <time>2019-06-01T07:58:40.000Z</time>
      </trkpt>
      <trkpt lat="43.93746" lon="7.16673">
        <ele>239</ele>
        <time>2019-06-01T07:58:44.000Z</time>
      </trkpt>
      <trkpt lat="43.93744" lon="7.1668">
        <ele>239</ele>
        <time>2019-06-01T07:58:45.000Z</time>
      </trkpt>
      <trkpt lat="43.93725" lon="7.16724">
        <ele>238.39999389648</ele>
        <time>2019-06-01T07:58:51.000Z</time>
      </trkpt>
      <trkpt lat="43.93714" lon="7.16761">
        <ele>238</ele>
        <time>2019-06-01T07:58:56.000Z</time>
      </trkpt>
      <trkpt lat="43.93713" lon="7.16769">
        <ele>238</ele>
        <time>2019-06-01T07:58:57.000Z</time>
      </trkpt>
      <trkpt lat="43.93713" lon="7.16786">
        <ele>238</ele>
        <time>2019-06-01T07:58:59.000Z</time>
      </trkpt>
      <trkpt lat="43.93717" lon="7.16812">
        <ele>238</ele>
        <time>2019-06-01T07:59:02.000Z</time>
      </trkpt>
      <trkpt lat="43.93724" lon="7.16871">
        <ele>237.80000305176</ele>
        <time>2019-06-01T07:59:09.000Z</time>
      </trkpt>
      <trkpt lat="43.93726" lon="7.16943">
        <ele>237.60000610352</ele>
        <time>2019-06-01T07:59:18.000Z</time>
      </trkpt>
      <trkpt lat="43.93728" lon="7.16965">
        <ele>237.60000610352</ele>
        <time>2019-06-01T07:59:21.000Z</time>
      </trkpt>
      <trkpt lat="43.93736" lon="7.16986">
        <ele>237.60000610352</ele>
        <time>2019-06-01T07:59:24.000Z</time>
      </trkpt>
      <trkpt lat="43.93743" lon="7.16999">
        <ele>237.60000610352</ele>
        <time>2019-06-01T07:59:26.000Z</time>
      </trkpt>
      <trkpt lat="43.93753" lon="7.17019">
        <ele>237.19999694824</ele>
        <time>2019-06-01T07:59:29.000Z</time>
      </trkpt>
      <trkpt lat="43.93759" lon="7.17034">
        <ele>237</ele>
        <time>2019-06-01T07:59:31.000Z</time>
      </trkpt>
      <trkpt lat="43.9377" lon="7.17071">
        <ele>236.60000610352</ele>
        <time>2019-06-01T07:59:36.000Z</time>
      </trkpt>
      <trkpt lat="43.93766" lon="7.17094">
        <ele>236.60000610352</ele>
        <time>2019-06-01T07:59:39.000Z</time>
      </trkpt>
      <trkpt lat="43.93745" lon="7.17111">
        <ele>236.39999389648</ele>
        <time>2019-06-01T07:59:43.000Z</time>
      </trkpt>
      <trkpt lat="43.93727" lon="7.17122">
        <ele>236.39999389648</ele>
        <time>2019-06-01T07:59:46.000Z</time>
      </trkpt>
      <trkpt lat="43.93716" lon="7.1713">
        <ele>236.39999389648</ele>
        <time>2019-06-01T07:59:48.000Z</time>
      </trkpt>
      <trkpt lat="43.9368" lon="7.17147">
        <ele>236.60000610352</ele>
        <time>2019-06-01T07:59:53.000Z</time>
      </trkpt>
      <trkpt lat="43.93643" lon="7.17154">
        <ele>236.60000610352</ele>
        <time>2019-06-01T07:59:57.000Z</time>
      </trkpt>
      <trkpt lat="43.93609" lon="7.1716">
        <ele>236.60000610352</ele>
        <time>2019-06-01T08:00:02.000Z</time>
      </trkpt>
      <trkpt lat="43.93593" lon="7.17166">
        <ele>236.39999389648</ele>
        <time>2019-06-01T08:00:06.000Z</time>
      </trkpt>
      <trkpt lat="43.93592" lon="7.17181">
        <ele>236.39999389648</ele>
        <time>2019-06-01T08:00:10.000Z</time>
      </trkpt>
      <trkpt lat="43.93584" lon="7.17195">
        <ele>236.60000610352</ele>
        <time>2019-06-01T08:00:14.000Z</time>
      </trkpt>
      <trkpt lat="43.93578" lon="7.17202">
        <ele>236.60000610352</ele>
        <time>2019-06-01T08:00:16.000Z</time>
      </trkpt>
      <trkpt lat="43.93554" lon="7.17203">
        <ele>236.39999389648</ele>
        <time>2019-06-01T08:00:20.000Z</time>
      </trkpt>
      <trkpt lat="43.93547" lon="7.17201">
        <ele>236.19999694824</ele>
        <time>2019-06-01T08:00:21.000Z</time>
      </trkpt>
      <trkpt lat="43.93517" lon="7.17197">
        <ele>236.39999389648</ele>
        <time>2019-06-01T08:00:26.000Z</time>
      </trkpt>
      <trkpt lat="43.935" lon="7.17198">
        <ele>236.80000305176</ele>
        <time>2019-06-01T08:00:29.000Z</time>
      </trkpt>
      <trkpt lat="43.93455" lon="7.17212">
        <ele>236.80000305176</ele>
        <time>2019-06-01T08:00:37.000Z</time>
      </trkpt>
      <trkpt lat="43.93431" lon="7.1723">
        <ele>236.60000610352</ele>
        <time>2019-06-01T08:00:42.000Z</time>
      </trkpt>
      <trkpt lat="43.93407" lon="7.17261">
        <ele>236.80000305176</ele>
        <time>2019-06-01T08:00:48.000Z</time>
      </trkpt>
      <trkpt lat="43.93398" lon="7.1728">
        <ele>237</ele>
        <time>2019-06-01T08:00:51.000Z</time>
      </trkpt>
      <trkpt lat="43.93393" lon="7.17292">
        <ele>236.80000305176</ele>
        <time>2019-06-01T08:00:53.000Z</time>
      </trkpt>
      <trkpt lat="43.93385" lon="7.1732">
        <ele>237</ele>
        <time>2019-06-01T08:00:58.000Z</time>
      </trkpt>
      <trkpt lat="43.93379" lon="7.1733">
        <ele>237.19999694824</ele>
        <time>2019-06-01T08:01:00.000Z</time>
      </trkpt>
      <trkpt lat="43.93367" lon="7.17344">
        <ele>237.19999694824</ele>
        <time>2019-06-01T08:01:03.000Z</time>
      </trkpt>
      <trkpt lat="43.93362" lon="7.17346">
        <ele>237.19999694824</ele>
        <time>2019-06-01T08:01:04.000Z</time>
      </trkpt>
      <trkpt lat="43.93357" lon="7.17349">
        <ele>237.19999694824</ele>
        <time>2019-06-01T08:01:05.000Z</time>
      </trkpt>
      <trkpt lat="43.9331" lon="7.17385">
        <ele>237.19999694824</ele>
        <time>2019-06-01T08:01:15.000Z</time>
      </trkpt>
      <trkpt lat="43.93305" lon="7.17389">
        <ele>237.19999694824</ele>
        <time>2019-06-01T08:01:16.000Z</time>
      </trkpt>
      <trkpt lat="43.93255" lon="7.17434">
        <ele>237.80000305176</ele>
        <time>2019-06-01T08:01:27.000Z</time>
      </trkpt>
      <trkpt lat="43.93248" lon="7.17444">
        <ele>237.80000305176</ele>
        <time>2019-06-01T08:01:29.000Z</time>
      </trkpt>
      <trkpt lat="43.93246" lon="7.17449">
        <ele>238</ele>
        <time>2019-06-01T08:01:30.000Z</time>
      </trkpt>
      <trkpt lat="43.93242" lon="7.17462">
        <ele>238</ele>
        <time>2019-06-01T08:01:32.000Z</time>
      </trkpt>
      <trkpt lat="43.93232" lon="7.17496">
        <ele>238</ele>
        <time>2019-06-01T08:01:37.000Z</time>
      </trkpt>
      <trkpt lat="43.93231" lon="7.1751">
        <ele>238</ele>
        <time>2019-06-01T08:01:39.000Z</time>
      </trkpt>
      <trkpt lat="43.9323" lon="7.17556">
        <ele>238.19999694824</ele>
        <time>2019-06-01T08:01:45.000Z</time>
      </trkpt>
      <trkpt lat="43.93228" lon="7.17564">
        <ele>238.19999694824</ele>
        <time>2019-06-01T08:01:46.000Z</time>
      </trkpt>
      <trkpt lat="43.93218" lon="7.17588">
        <ele>238.39999389648</ele>
        <time>2019-06-01T08:01:50.000Z</time>
      </trkpt>
      <trkpt lat="43.93211" lon="7.17599">
        <ele>238.39999389648</ele>
        <time>2019-06-01T08:01:52.000Z</time>
      </trkpt>
      <trkpt lat="43.932" lon="7.17622">
        <ele>238.39999389648</ele>
        <time>2019-06-01T08:01:56.000Z</time>
      </trkpt>
      <trkpt lat="43.93198" lon="7.17636">
        <ele>238.60000610352</ele>
        <time>2019-06-01T08:01:58.000Z</time>
      </trkpt>
      <trkpt lat="43.93191" lon="7.1769">
        <ele>238.60000610352</ele>
        <time>2019-06-01T08:02:05.000Z</time>
      </trkpt>
      <trkpt lat="43.93195" lon="7.17744">
        <ele>238.60000610352</ele>
        <time>2019-06-01T08:02:11.000Z</time>
      </trkpt>
      <trkpt lat="43.93181" lon="7.17769">
        <ele>238</ele>
        <time>2019-06-01T08:02:15.000Z</time>
      </trkpt>
      <trkpt lat="43.93176" lon="7.17775">
        <ele>238</ele>
        <time>2019-06-01T08:02:16.000Z</time>
      </trkpt>
      <trkpt lat="43.93141" lon="7.17814">
        <ele>237.80000305176</ele>
        <time>2019-06-01T08:02:23.000Z</time>
      </trkpt>
      <trkpt lat="43.93105" lon="7.17859">
        <ele>237.80000305176</ele>
        <time>2019-06-01T08:02:31.000Z</time>
      </trkpt>
      <trkpt lat="43.93078" lon="7.17916">
        <ele>237.39999389648</ele>
        <time>2019-06-01T08:02:39.000Z</time>
      </trkpt>
      <trkpt lat="43.93059" lon="7.17951">
        <ele>237</ele>
        <time>2019-06-01T08:02:44.000Z</time>
      </trkpt>
      <trkpt lat="43.9305" lon="7.17974">
        <ele>236.80000305176</ele>
        <time>2019-06-01T08:02:47.000Z</time>
      </trkpt>
      <trkpt lat="43.9303" lon="7.18018">
        <ele>236.80000305176</ele>
        <time>2019-06-01T08:02:53.000Z</time>
      </trkpt>
      <trkpt lat="43.93026" lon="7.18025">
        <ele>236.80000305176</ele>
        <time>2019-06-01T08:02:54.000Z</time>
      </trkpt>
      <trkpt lat="43.93012" lon="7.18052">
        <ele>236.39999389648</ele>
        <time>2019-06-01T08:02:58.000Z</time>
      </trkpt>
      <trkpt lat="43.93009" lon="7.18057">
        <ele>236.19999694824</ele>
        <time>2019-06-01T08:02:59.000Z</time>
      </trkpt>
      <trkpt lat="43.92996" lon="7.18071">
        <ele>236.19999694824</ele>
        <time>2019-06-01T08:03:02.000Z</time>
      </trkpt>
      <trkpt lat="43.92991" lon="7.18075">
        <ele>236.19999694824</ele>
        <time>2019-06-01T08:03:03.000Z</time>
      </trkpt>
      <trkpt lat="43.9297" lon="7.18078">
        <ele>236.19999694824</ele>
        <time>2019-06-01T08:03:06.000Z</time>
      </trkpt>
      <trkpt lat="43.92932" lon="7.18076">
        <ele>236</ele>
        <time>2019-06-01T08:03:11.000Z</time>
      </trkpt>
      <trkpt lat="43.92923" lon="7.18076">
        <ele>235.80000305176</ele>
        <time>2019-06-01T08:03:12.000Z</time>
      </trkpt>
      <trkpt lat="43.92896" lon="7.18082">
        <ele>235.80000305176</ele>
        <time>2019-06-01T08:03:16.000Z</time>
      </trkpt>
      <trkpt lat="43.92882" lon="7.18086">
        <ele>235.80000305176</ele>
        <time>2019-06-01T08:03:18.000Z</time>
      </trkpt>
      <trkpt lat="43.9283" lon="7.18114">
        <ele>235.60000610352</ele>
        <time>2019-06-01T08:03:27.000Z</time>
      </trkpt>
      <trkpt lat="43.92824" lon="7.18117">
        <ele>235.60000610352</ele>
        <time>2019-06-01T08:03:28.000Z</time>
      </trkpt>
      <trkpt lat="43.92769" lon="7.18149">
        <ele>235</ele>
        <time>2019-06-01T08:03:38.000Z</time>
      </trkpt>
      <trkpt lat="43.92759" lon="7.18157">
        <ele>235</ele>
        <time>2019-06-01T08:03:40.000Z</time>
      </trkpt>
      <trkpt lat="43.92718" lon="7.18189">
        <ele>235.39999389648</ele>
        <time>2019-06-01T08:03:48.000Z</time>
      </trkpt>
      <trkpt lat="43.92676" lon="7.18236">
        <ele>235.19999694824</ele>
        <time>2019-06-01T08:03:57.000Z</time>
      </trkpt>
      <trkpt lat="43.92645" lon="7.18275">
        <ele>234.80000305176</ele>
        <time>2019-06-01T08:04:04.000Z</time>
      </trkpt>
      <trkpt lat="43.92641" lon="7.1828">
        <ele>234.60000610352</ele>
        <time>2019-06-01T08:04:05.000Z</time>
      </trkpt>
      <trkpt lat="43.92623" lon="7.18299">
        <ele>234.60000610352</ele>
        <time>2019-06-01T08:04:09.000Z</time>
      </trkpt>
      <trkpt lat="43.92619" lon="7.183">
        <ele>234.60000610352</ele>
        <time>2019-06-01T08:04:10.000Z</time>
      </trkpt>
      <trkpt lat="43.92609" lon="7.18294">
        <ele>235</ele>
        <time>2019-06-01T08:04:13.000Z</time>
      </trkpt>
      <trkpt lat="43.92603" lon="7.18278">
        <ele>235.80000305176</ele>
        <time>2019-06-01T08:04:17.000Z</time>
      </trkpt>
      <trkpt lat="43.92602" lon="7.1827">
        <ele>236</ele>
        <time>2019-06-01T08:04:19.000Z</time>
      </trkpt>
      <trkpt lat="43.92607" lon="7.18251">
        <ele>236.39999389648</ele>
        <time>2019-06-01T08:04:24.000Z</time>
      </trkpt>
      <trkpt lat="43.92611" lon="7.18244">
        <ele>236.39999389648</ele>
        <time>2019-06-01T08:04:28.000Z</time>
      </trkpt>
      <trkpt lat="43.9261" lon="7.18245">
        <ele>236.39999389648</ele>
        <time>2019-06-01T08:04:37.000Z</time>
      </trkpt>
      <trkpt lat="43.92606" lon="7.18256">
        <ele>236.39999389648</ele>
        <time>2019-06-01T08:04:42.000Z</time>
      </trkpt>
      <trkpt lat="43.92604" lon="7.18273">
        <ele>236.39999389648</ele>
        <time>2019-06-01T08:04:46.000Z</time>
      </trkpt>
      <trkpt lat="43.92607" lon="7.18287">
        <ele>236.39999389648</ele>
        <time>2019-06-01T08:04:49.000Z</time>
      </trkpt>
      <trkpt lat="43.9261" lon="7.18297">
        <ele>236.39999389648</ele>
        <time>2019-06-01T08:04:51.000Z</time>
      </trkpt>
      <trkpt lat="43.92612" lon="7.18303">
        <ele>236.19999694824</ele>
        <time>2019-06-01T08:04:52.000Z</time>
      </trkpt>
      <trkpt lat="43.92613" lon="7.18327">
        <ele>235.39999389648</ele>
        <time>2019-06-01T08:04:56.000Z</time>
      </trkpt>
      <trkpt lat="43.9261" lon="7.1834">
        <ele>235.19999694824</ele>
        <time>2019-06-01T08:04:58.000Z</time>
      </trkpt>
      <trkpt lat="43.92602" lon="7.18377">
        <ele>234.80000305176</ele>
        <time>2019-06-01T08:05:04.000Z</time>
      </trkpt>
      <trkpt lat="43.92597" lon="7.18394">
        <ele>234.60000610352</ele>
        <time>2019-06-01T08:05:07.000Z</time>
      </trkpt>
      <trkpt lat="43.92593" lon="7.18412">
        <ele>234.80000305176</ele>
        <time>2019-06-01T08:05:10.000Z</time>
      </trkpt>
      <trkpt lat="43.92584" lon="7.1844">
        <ele>234.60000610352</ele>
        <time>2019-06-01T08:05:15.000Z</time>
      </trkpt>
      <trkpt lat="43.92579" lon="7.18451">
        <ele>234.60000610352</ele>
        <time>2019-06-01T08:05:17.000Z</time>
      </trkpt>
      <trkpt lat="43.92559" lon="7.18491">
        <ele>234.39999389648</ele>
        <time>2019-06-01T08:05:25.000Z</time>
      </trkpt>
      <trkpt lat="43.92553" lon="7.18509">
        <ele>234.39999389648</ele>
        <time>2019-06-01T08:05:28.000Z</time>
      </trkpt>
      <trkpt lat="43.92547" lon="7.18534">
        <ele>234</ele>
        <time>2019-06-01T08:05:32.000Z</time>
      </trkpt>
      <trkpt lat="43.92543" lon="7.18546">
        <ele>234</ele>
        <time>2019-06-01T08:05:34.000Z</time>
      </trkpt>
      <trkpt lat="43.92535" lon="7.18562">
        <ele>234</ele>
        <time>2019-06-01T08:05:37.000Z</time>
      </trkpt>
      <trkpt lat="43.92508" lon="7.18605">
        <ele>233.60000610352</ele>
        <time>2019-06-01T08:05:46.000Z</time>
      </trkpt>
      <trkpt lat="43.92496" lon="7.18624">
        <ele>233.60000610352</ele>
        <time>2019-06-01T08:05:50.000Z</time>
      </trkpt>
      <trkpt lat="43.92489" lon="7.18633">
        <ele>233.39999389648</ele>
        <time>2019-06-01T08:05:52.000Z</time>
      </trkpt>
      <trkpt lat="43.92468" lon="7.18646">
        <ele>232.60000610352</ele>
        <time>2019-06-01T08:05:57.000Z</time>
      </trkpt>
      <trkpt lat="43.92458" lon="7.18647">
        <ele>232.60000610352</ele>
        <time>2019-06-01T08:05:59.000Z</time>
      </trkpt>
      <trkpt lat="43.92437" lon="7.18646">
        <ele>232.80000305176</ele>
        <time>2019-06-01T08:06:03.000Z</time>
      </trkpt>
      <trkpt lat="43.92397" lon="7.18643">
        <ele>232.60000610352</ele>
        <time>2019-06-01T08:06:11.000Z</time>
      </trkpt>
      <trkpt lat="43.92384" lon="7.18639">
        <ele>232.60000610352</ele>
        <time>2019-06-01T08:06:14.000Z</time>
      </trkpt>
      <trkpt lat="43.92379" lon="7.18632">
        <ele>232.60000610352</ele>
        <time>2019-06-01T08:06:16.000Z</time>
      </trkpt>
      <trkpt lat="43.92373" lon="7.18625">
        <ele>232.80000305176</ele>
        <time>2019-06-01T08:06:20.000Z</time>
      </trkpt>
      <trkpt lat="43.92367" lon="7.18622">
        <ele>234</ele>
        <time>2019-06-01T08:06:24.000Z</time>
      </trkpt>
      <trkpt lat="43.92363" lon="7.1862">
        <ele>234.60000610352</ele>
        <time>2019-06-01T08:06:27.000Z</time>
      </trkpt>
      <trkpt lat="43.92361" lon="7.1862">
        <ele>235</ele>
        <time>2019-06-01T08:06:28.000Z</time>
      </trkpt>
      <trkpt lat="43.92354" lon="7.18617">
        <ele>236</ele>
        <time>2019-06-01T08:06:33.000Z</time>
      </trkpt>
      <trkpt lat="43.92352" lon="7.18616">
        <ele>236.19999694824</ele>
        <time>2019-06-01T08:06:34.000Z</time>
      </trkpt>
      <trkpt lat="43.92349" lon="7.18613">
        <ele>237.19999694824</ele>
        <time>2019-06-01T08:06:37.000Z</time>
      </trkpt>
      <trkpt lat="43.92346" lon="7.18612">
        <ele>237.80000305176</ele>
        <time>2019-06-01T08:06:39.000Z</time>
      </trkpt>
      <trkpt lat="43.92341" lon="7.18608">
        <ele>238.39999389648</ele>
        <time>2019-06-01T08:06:43.000Z</time>
      </trkpt>
      <trkpt lat="43.9234" lon="7.18607">
        <ele>238.80000305176</ele>
        <time>2019-06-01T08:06:46.000Z</time>
      </trkpt>
      <trkpt lat="43.92338" lon="7.18606">
        <ele>239.19999694824</ele>
        <time>2019-06-01T08:06:54.000Z</time>
      </trkpt>
      <trkpt lat="43.92337" lon="7.18606">
        <ele>239.39999389648</ele>
        <time>2019-06-01T08:06:57.000Z</time>
      </trkpt>
      <trkpt lat="43.92334" lon="7.18605">
        <ele>239.39999389648</ele>
        <time>2019-06-01T08:07:00.000Z</time>
      </trkpt>
      <trkpt lat="43.92326" lon="7.186">
        <ele>240</ele>
        <time>2019-06-01T08:07:08.000Z</time>
      </trkpt>
      <trkpt lat="43.92326" lon="7.18595">
        <ele>240.39999389648</ele>
        <time>2019-06-01T08:07:12.000Z</time>
      </trkpt>
      <trkpt lat="43.92325" lon="7.18594">
        <ele>240.39999389648</ele>
        <time>2019-06-01T08:07:13.000Z</time>
      </trkpt>
      <trkpt lat="43.92325" lon="7.18593">
        <ele>241</ele>
        <time>2019-06-01T08:07:16.000Z</time>
      </trkpt>
      <trkpt lat="43.92325" lon="7.18594">
        <ele>241</ele>
        <time>2019-06-01T08:07:17.000Z</time>
      </trkpt>
      <trkpt lat="43.9233" lon="7.18592">
        <ele>241</ele>
        <time>2019-06-01T08:07:24.000Z</time>
      </trkpt>
      <trkpt lat="43.92337" lon="7.18593">
        <ele>241.39999389648</ele>
        <time>2019-06-01T08:07:28.000Z</time>
      </trkpt>
      <trkpt lat="43.92341" lon="7.18595">
        <ele>241.80000305176</ele>
        <time>2019-06-01T08:07:31.000Z</time>
      </trkpt>
      <trkpt lat="43.92344" lon="7.18595">
        <ele>242</ele>
        <time>2019-06-01T08:07:33.000Z</time>
      </trkpt>
      <trkpt lat="43.92349" lon="7.18594">
        <ele>242.60000610352</ele>
        <time>2019-06-01T08:07:36.000Z</time>
      </trkpt>
      <trkpt lat="43.92355" lon="7.18593">
        <ele>243.39999389648</ele>
        <time>2019-06-01T08:07:40.000Z</time>
      </trkpt>
      <trkpt lat="43.92357" lon="7.18593">
        <ele>243.60000610352</ele>
        <time>2019-06-01T08:07:41.000Z</time>
      </trkpt>
      <trkpt lat="43.92364" lon="7.1859">
        <ele>244.60000610352</ele>
        <time>2019-06-01T08:07:46.000Z</time>
      </trkpt>
      <trkpt lat="43.92367" lon="7.18589">
        <ele>245</ele>
        <time>2019-06-01T08:07:48.000Z</time>
      </trkpt>
      <trkpt lat="43.92372" lon="7.18586">
        <ele>245.60000610352</ele>
        <time>2019-06-01T08:07:52.000Z</time>
      </trkpt>
      <trkpt lat="43.92373" lon="7.18585">
        <ele>246.19999694824</ele>
        <time>2019-06-01T08:07:54.000Z</time>
      </trkpt>
      <trkpt lat="43.92376" lon="7.18584">
        <ele>246.80000305176</ele>
        <time>2019-06-01T08:07:56.000Z</time>
      </trkpt>
      <trkpt lat="43.92379" lon="7.18582">
        <ele>247.60000610352</ele>
        <time>2019-06-01T08:08:00.000Z</time>
      </trkpt>
      <trkpt lat="43.92381" lon="7.18581">
        <ele>247.80000305176</ele>
        <time>2019-06-01T08:08:01.000Z</time>
      </trkpt>
      <trkpt lat="43.92387" lon="7.18579">
        <ele>248.80000305176</ele>
        <time>2019-06-01T08:08:06.000Z</time>
      </trkpt>
      <trkpt lat="43.92388" lon="7.18578">
        <ele>249</ele>
        <time>2019-06-01T08:08:07.000Z</time>
      </trkpt>
      <trkpt lat="43.92394" lon="7.18576">
        <ele>249.80000305176</ele>
        <time>2019-06-01T08:08:11.000Z</time>
      </trkpt>
      <trkpt lat="43.924" lon="7.18574">
        <ele>250.60000610352</ele>
        <time>2019-06-01T08:08:15.000Z</time>
      </trkpt>
      <trkpt lat="43.92403" lon="7.18573">
        <ele>251</ele>
        <time>2019-06-01T08:08:17.000Z</time>
      </trkpt>
      <trkpt lat="43.92409" lon="7.18571">
        <ele>252</ele>
        <time>2019-06-01T08:08:22.000Z</time>
      </trkpt>
      <trkpt lat="43.92411" lon="7.18571">
        <ele>252.19999694824</ele>
        <time>2019-06-01T08:08:23.000Z</time>
      </trkpt>
      <trkpt lat="43.92417" lon="7.1857">
        <ele>253.19999694824</ele>
        <time>2019-06-01T08:08:28.000Z</time>
      </trkpt>
      <trkpt lat="43.92421" lon="7.18568">
        <ele>253.80000305176</ele>
        <time>2019-06-01T08:08:31.000Z</time>
      </trkpt>
      <trkpt lat="43.92426" lon="7.18567">
        <ele>254.19999694824</ele>
        <time>2019-06-01T08:08:34.000Z</time>
      </trkpt>
      <trkpt lat="43.92432" lon="7.18565">
        <ele>255.19999694824</ele>
        <time>2019-06-01T08:08:39.000Z</time>
      </trkpt>
      <trkpt lat="43.9244" lon="7.18559">
        <ele>256.20001220703</ele>
        <time>2019-06-01T08:08:45.000Z</time>
      </trkpt>
      <trkpt lat="43.92441" lon="7.18557">
        <ele>256.39999389648</ele>
        <time>2019-06-01T08:08:46.000Z</time>
      </trkpt>
      <trkpt lat="43.92443" lon="7.18542">
        <ele>257.39999389648</ele>
        <time>2019-06-01T08:08:53.000Z</time>
      </trkpt>
      <trkpt lat="43.92443" lon="7.18527">
        <ele>258.39999389648</ele>
        <time>2019-06-01T08:09:00.000Z</time>
      </trkpt>
      <trkpt lat="43.92442" lon="7.18525">
        <ele>258.39999389648</ele>
        <time>2019-06-01T08:09:01.000Z</time>
      </trkpt>
      <trkpt lat="43.92442" lon="7.18514">
        <ele>259.39999389648</ele>
        <time>2019-06-01T08:09:06.000Z</time>
      </trkpt>
      <trkpt lat="43.92442" lon="7.1851">
        <ele>259.79998779297</ele>
        <time>2019-06-01T08:09:08.000Z</time>
      </trkpt>
      <trkpt lat="43.92443" lon="7.18501">
        <ele>260.60000610352</ele>
        <time>2019-06-01T08:09:12.000Z</time>
      </trkpt>
      <trkpt lat="43.92445" lon="7.18493">
        <ele>261.20001220703</ele>
        <time>2019-06-01T08:09:16.000Z</time>
      </trkpt>
      <trkpt lat="43.92448" lon="7.18488">
        <ele>261.60000610352</ele>
        <time>2019-06-01T08:09:19.000Z</time>
      </trkpt>
      <trkpt lat="43.92452" lon="7.18483">
        <ele>262</ele>
        <time>2019-06-01T08:09:22.000Z</time>
      </trkpt>
      <trkpt lat="43.92456" lon="7.18477">
        <ele>262.79998779297</ele>
        <time>2019-06-01T08:09:26.000Z</time>
      </trkpt>
      <trkpt lat="43.9246" lon="7.18473">
        <ele>263.39999389648</ele>
        <time>2019-06-01T08:09:29.000Z</time>
      </trkpt>
      <trkpt lat="43.92463" lon="7.18468">
        <ele>263.79998779297</ele>
        <time>2019-06-01T08:09:32.000Z</time>
      </trkpt>
      <trkpt lat="43.92466" lon="7.1846">
        <ele>264.39999389648</ele>
        <time>2019-06-01T08:09:36.000Z</time>
      </trkpt>
      <trkpt lat="43.92468" lon="7.18455">
        <ele>264.79998779297</ele>
        <time>2019-06-01T08:09:39.000Z</time>
      </trkpt>
      <trkpt lat="43.92468" lon="7.18454">
        <ele>265</ele>
        <time>2019-06-01T08:09:40.000Z</time>
      </trkpt>
      <trkpt lat="43.9247" lon="7.18448">
        <ele>265.39999389648</ele>
        <time>2019-06-01T08:09:43.000Z</time>
      </trkpt>
      <trkpt lat="43.92472" lon="7.18443">
        <ele>266</ele>
        <time>2019-06-01T08:09:46.000Z</time>
      </trkpt>
      <trkpt lat="43.92473" lon="7.18441">
        <ele>266.20001220703</ele>
        <time>2019-06-01T08:09:47.000Z</time>
      </trkpt>
      <trkpt lat="43.92476" lon="7.18426">
        <ele>267</ele>
        <time>2019-06-01T08:09:54.000Z</time>
      </trkpt>
      <trkpt lat="43.92479" lon="7.1842">
        <ele>267.39999389648</ele>
        <time>2019-06-01T08:09:57.000Z</time>
      </trkpt>
      <trkpt lat="43.9248" lon="7.18416">
        <ele>267.79998779297</ele>
        <time>2019-06-01T08:09:59.000Z</time>
      </trkpt>
      <trkpt lat="43.92482" lon="7.18408">
        <ele>268.20001220703</ele>
        <time>2019-06-01T08:10:02.000Z</time>
      </trkpt>
      <trkpt lat="43.92484" lon="7.18401">
        <ele>268.60000610352</ele>
        <time>2019-06-01T08:10:05.000Z</time>
      </trkpt>
      <trkpt lat="43.92485" lon="7.18398">
        <ele>268.79998779297</ele>
        <time>2019-06-01T08:10:06.000Z</time>
      </trkpt>
      <trkpt lat="43.92487" lon="7.18391">
        <ele>269.20001220703</ele>
        <time>2019-06-01T08:10:09.000Z</time>
      </trkpt>
      <trkpt lat="43.9249" lon="7.18378">
        <ele>270.20001220703</ele>
        <time>2019-06-01T08:10:15.000Z</time>
      </trkpt>
      <trkpt lat="43.92491" lon="7.18375">
        <ele>270.39999389648</ele>
        <time>2019-06-01T08:10:16.000Z</time>
      </trkpt>
      <trkpt lat="43.92494" lon="7.18364">
        <ele>271</ele>
        <time>2019-06-01T08:10:21.000Z</time>
      </trkpt>
      <trkpt lat="43.92495" lon="7.18362">
        <ele>271.39999389648</ele>
        <time>2019-06-01T08:10:22.000Z</time>
      </trkpt>
      <trkpt lat="43.92498" lon="7.18349">
        <ele>272.39999389648</ele>
        <time>2019-06-01T08:10:28.000Z</time>
      </trkpt>
      <trkpt lat="43.92498" lon="7.18346">
        <ele>272.39999389648</ele>
        <time>2019-06-01T08:10:29.000Z</time>
      </trkpt>
      <trkpt lat="43.92502" lon="7.18332">
        <ele>273.60000610352</ele>
        <time>2019-06-01T08:10:36.000Z</time>
      </trkpt>
      <trkpt lat="43.92504" lon="7.1832">
        <ele>274.60000610352</ele>
        <time>2019-06-01T08:10:41.000Z</time>
      </trkpt>
      <trkpt lat="43.92504" lon="7.18318">
        <ele>274.79998779297</ele>
        <time>2019-06-01T08:10:42.000Z</time>
      </trkpt>
      <trkpt lat="43.92506" lon="7.18305">
        <ele>275.79998779297</ele>
        <time>2019-06-01T08:10:48.000Z</time>
      </trkpt>
      <trkpt lat="43.92506" lon="7.18303">
        <ele>276</ele>
        <time>2019-06-01T08:10:49.000Z</time>
      </trkpt>
      <trkpt lat="43.92507" lon="7.18298">
        <ele>276.39999389648</ele>
        <time>2019-06-01T08:10:51.000Z</time>
      </trkpt>
      <trkpt lat="43.92507" lon="7.18291">
        <ele>276.79998779297</ele>
        <time>2019-06-01T08:10:54.000Z</time>
      </trkpt>
      <trkpt lat="43.9251" lon="7.18272">
        <ele>277.79998779297</ele>
        <time>2019-06-01T08:11:02.000Z</time>
      </trkpt>
      <trkpt lat="43.9251" lon="7.1827">
        <ele>278</ele>
        <time>2019-06-01T08:11:03.000Z</time>
      </trkpt>
      <trkpt lat="43.92512" lon="7.18257">
        <ele>279.20001220703</ele>
        <time>2019-06-01T08:11:09.000Z</time>
      </trkpt>
      <trkpt lat="43.92517" lon="7.18241">
        <ele>280.20001220703</ele>
        <time>2019-06-01T08:11:16.000Z</time>
      </trkpt>
      <trkpt lat="43.92518" lon="7.18239">
        <ele>280.20001220703</ele>
        <time>2019-06-01T08:11:17.000Z</time>
      </trkpt>
      <trkpt lat="43.92525" lon="7.18228">
        <ele>281.39999389648</ele>
        <time>2019-06-01T08:11:23.000Z</time>
      </trkpt>
      <trkpt lat="43.92526" lon="7.18226">
        <ele>281.60000610352</ele>
        <time>2019-06-01T08:11:24.000Z</time>
      </trkpt>
      <trkpt lat="43.9253" lon="7.1822">
        <ele>282.39999389648</ele>
        <time>2019-06-01T08:11:28.000Z</time>
      </trkpt>
      <trkpt lat="43.92533" lon="7.18212">
        <ele>283.20001220703</ele>
        <time>2019-06-01T08:11:32.000Z</time>
      </trkpt>
      <trkpt lat="43.92533" lon="7.1821">
        <ele>283.39999389648</ele>
        <time>2019-06-01T08:11:33.000Z</time>
      </trkpt>
      <trkpt lat="43.92536" lon="7.18198">
        <ele>284.39999389648</ele>
        <time>2019-06-01T08:11:38.000Z</time>
      </trkpt>
      <trkpt lat="43.92536" lon="7.18194">
        <ele>284.79998779297</ele>
        <time>2019-06-01T08:11:40.000Z</time>
      </trkpt>
      <trkpt lat="43.92539" lon="7.18178">
        <ele>285.39999389648</ele>
        <time>2019-06-01T08:11:46.000Z</time>
      </trkpt>
      <trkpt lat="43.92541" lon="7.18169">
        <ele>286</ele>
        <time>2019-06-01T08:11:50.000Z</time>
      </trkpt>
      <trkpt lat="43.92542" lon="7.18161">
        <ele>286.60000610352</ele>
        <time>2019-06-01T08:11:53.000Z</time>
      </trkpt>
      <trkpt lat="43.9254" lon="7.1815">
        <ele>287.79998779297</ele>
        <time>2019-06-01T08:11:58.000Z</time>
      </trkpt>
      <trkpt lat="43.9254" lon="7.18148">
        <ele>288</ele>
        <time>2019-06-01T08:11:59.000Z</time>
      </trkpt>
      <trkpt lat="43.92537" lon="7.18136">
        <ele>288.79998779297</ele>
        <time>2019-06-01T08:12:04.000Z</time>
      </trkpt>
      <trkpt lat="43.92537" lon="7.18129">
        <ele>289.39999389648</ele>
        <time>2019-06-01T08:12:07.000Z</time>
      </trkpt>
      <trkpt lat="43.92537" lon="7.18122">
        <ele>290</ele>
        <time>2019-06-01T08:12:10.000Z</time>
      </trkpt>
      <trkpt lat="43.9254" lon="7.18114">
        <ele>290.39999389648</ele>
        <time>2019-06-01T08:12:14.000Z</time>
      </trkpt>
      <trkpt lat="43.92542" lon="7.18111">
        <ele>291</ele>
        <time>2019-06-01T08:12:16.000Z</time>
      </trkpt>
      <trkpt lat="43.9255" lon="7.18102">
        <ele>291.60000610352</ele>
        <time>2019-06-01T08:12:22.000Z</time>
      </trkpt>
      <trkpt lat="43.92554" lon="7.18098">
        <ele>292</ele>
        <time>2019-06-01T08:12:25.000Z</time>
      </trkpt>
      <trkpt lat="43.92561" lon="7.1809">
        <ele>292.79998779297</ele>
        <time>2019-06-01T08:12:31.000Z</time>
      </trkpt>
      <trkpt lat="43.92563" lon="7.18088">
        <ele>293</ele>
        <time>2019-06-01T08:12:33.000Z</time>
      </trkpt>
      <trkpt lat="43.92572" lon="7.1808">
        <ele>293.60000610352</ele>
        <time>2019-06-01T08:12:39.000Z</time>
      </trkpt>
      <trkpt lat="43.92576" lon="7.18078">
        <ele>294.20001220703</ele>
        <time>2019-06-01T08:12:42.000Z</time>
      </trkpt>
      <trkpt lat="43.92583" lon="7.18074">
        <ele>295.20001220703</ele>
        <time>2019-06-01T08:12:47.000Z</time>
      </trkpt>
      <trkpt lat="43.92585" lon="7.18073">
        <ele>295.39999389648</ele>
        <time>2019-06-01T08:12:48.000Z</time>
      </trkpt>
      <trkpt lat="43.92594" lon="7.18069">
        <ele>296.39999389648</ele>
        <time>2019-06-01T08:12:54.000Z</time>
      </trkpt>
      <trkpt lat="43.92604" lon="7.18063">
        <ele>297.39999389648</ele>
        <time>2019-06-01T08:13:01.000Z</time>
      </trkpt>
      <trkpt lat="43.92606" lon="7.18062">
        <ele>297.60000610352</ele>
        <time>2019-06-01T08:13:02.000Z</time>
      </trkpt>
      <trkpt lat="43.92616" lon="7.18057">
        <ele>298.60000610352</ele>
        <time>2019-06-01T08:13:08.000Z</time>
      </trkpt>
      <trkpt lat="43.92617" lon="7.18056">
        <ele>299</ele>
        <time>2019-06-01T08:13:09.000Z</time>
      </trkpt>
      <trkpt lat="43.92621" lon="7.18052">
        <ele>299.60000610352</ele>
        <time>2019-06-01T08:13:12.000Z</time>
      </trkpt>
      <trkpt lat="43.92626" lon="7.18042">
        <ele>300.39999389648</ele>
        <time>2019-06-01T08:13:18.000Z</time>
      </trkpt>
      <trkpt lat="43.92627" lon="7.1804">
        <ele>300.60000610352</ele>
        <time>2019-06-01T08:13:19.000Z</time>
      </trkpt>
      <trkpt lat="43.92628" lon="7.18024">
        <ele>301.79998779297</ele>
        <time>2019-06-01T08:13:26.000Z</time>
      </trkpt>
      <trkpt lat="43.92631" lon="7.18008">
        <ele>302.79998779297</ele>
        <time>2019-06-01T08:13:33.000Z</time>
      </trkpt>
      <trkpt lat="43.92633" lon="7.18005">
        <ele>303</ele>
        <time>2019-06-01T08:13:34.000Z</time>
      </trkpt>
      <trkpt lat="43.92641" lon="7.17997">
        <ele>303.60000610352</ele>
        <time>2019-06-01T08:13:39.000Z</time>
      </trkpt>
      <trkpt lat="43.92642" lon="7.17997">
        <ele>303.79998779297</ele>
        <time>2019-06-01T08:13:40.000Z</time>
      </trkpt>
      <trkpt lat="43.9265" lon="7.17996">
        <ele>304.79998779297</ele>
        <time>2019-06-01T08:13:45.000Z</time>
      </trkpt>
      <trkpt lat="43.92653" lon="7.17995">
        <ele>305</ele>
        <time>2019-06-01T08:13:47.000Z</time>
      </trkpt>
      <trkpt lat="43.92663" lon="7.17991">
        <ele>306</ele>
        <time>2019-06-01T08:13:53.000Z</time>
      </trkpt>
      <trkpt lat="43.92669" lon="7.17989">
        <ele>306.79998779297</ele>
        <time>2019-06-01T08:13:57.000Z</time>
      </trkpt>
      <trkpt lat="43.92672" lon="7.17988">
        <ele>307.20001220703</ele>
        <time>2019-06-01T08:13:59.000Z</time>
      </trkpt>
      <trkpt lat="43.92683" lon="7.17985">
        <ele>308</ele>
        <time>2019-06-01T08:14:06.000Z</time>
      </trkpt>
      <trkpt lat="43.92684" lon="7.17985">
        <ele>308.20001220703</ele>
        <time>2019-06-01T08:14:07.000Z</time>
      </trkpt>
      <trkpt lat="43.92692" lon="7.1798">
        <ele>309.20001220703</ele>
        <time>2019-06-01T08:14:12.000Z</time>
      </trkpt>
      <trkpt lat="43.92694" lon="7.17978">
        <ele>309.60000610352</ele>
        <time>2019-06-01T08:14:14.000Z</time>
      </trkpt>
      <trkpt lat="43.92702" lon="7.17965">
        <ele>310.20001220703</ele>
        <time>2019-06-01T08:14:21.000Z</time>
      </trkpt>
      <trkpt lat="43.92702" lon="7.17963">
        <ele>310.39999389648</ele>
        <time>2019-06-01T08:14:22.000Z</time>
      </trkpt>
      <trkpt lat="43.92706" lon="7.17953">
        <ele>311.20001220703</ele>
        <time>2019-06-01T08:14:27.000Z</time>
      </trkpt>
      <trkpt lat="43.92706" lon="7.17949">
        <ele>311.60000610352</ele>
        <time>2019-06-01T08:14:29.000Z</time>
      </trkpt>
      <trkpt lat="43.92707" lon="7.17937">
        <ele>312.39999389648</ele>
        <time>2019-06-01T08:14:34.000Z</time>
      </trkpt>
      <trkpt lat="43.92707" lon="7.17933">
        <ele>312.79998779297</ele>
        <time>2019-06-01T08:14:36.000Z</time>
      </trkpt>
      <trkpt lat="43.92705" lon="7.17919">
        <ele>313.60000610352</ele>
        <time>2019-06-01T08:14:42.000Z</time>
      </trkpt>
      <trkpt lat="43.92705" lon="7.17917">
        <ele>313.79998779297</ele>
        <time>2019-06-01T08:14:43.000Z</time>
      </trkpt>
      <trkpt lat="43.92701" lon="7.17906">
        <ele>314.60000610352</ele>
        <time>2019-06-01T08:14:48.000Z</time>
      </trkpt>
      <trkpt lat="43.92699" lon="7.17892">
        <ele>315.60000610352</ele>
        <time>2019-06-01T08:14:54.000Z</time>
      </trkpt>
      <trkpt lat="43.92697" lon="7.17876">
        <ele>316.79998779297</ele>
        <time>2019-06-01T08:15:01.000Z</time>
      </trkpt>
      <trkpt lat="43.92696" lon="7.17871">
        <ele>317</ele>
        <time>2019-06-01T08:15:03.000Z</time>
      </trkpt>
      <trkpt lat="43.92695" lon="7.1786">
        <ele>318</ele>
        <time>2019-06-01T08:15:08.000Z</time>
      </trkpt>
      <trkpt lat="43.92693" lon="7.17852">
        <ele>318.39999389648</ele>
        <time>2019-06-01T08:15:11.000Z</time>
      </trkpt>
      <trkpt lat="43.92692" lon="7.17847">
        <ele>319</ele>
        <time>2019-06-01T08:15:13.000Z</time>
      </trkpt>
      <trkpt lat="43.9269" lon="7.17833">
        <ele>320</ele>
        <time>2019-06-01T08:15:19.000Z</time>
      </trkpt>
      <trkpt lat="43.92691" lon="7.17817">
        <ele>320.60000610352</ele>
        <time>2019-06-01T08:15:25.000Z</time>
      </trkpt>
      <trkpt lat="43.92692" lon="7.17812">
        <ele>321</ele>
        <time>2019-06-01T08:15:27.000Z</time>
      </trkpt>
      <trkpt lat="43.92697" lon="7.17803">
        <ele>321.60000610352</ele>
        <time>2019-06-01T08:15:31.000Z</time>
      </trkpt>
      <trkpt lat="43.92704" lon="7.17794">
        <ele>322.20001220703</ele>
        <time>2019-06-01T08:15:36.000Z</time>
      </trkpt>
      <trkpt lat="43.92707" lon="7.17791">
        <ele>322.39999389648</ele>
        <time>2019-06-01T08:15:38.000Z</time>
      </trkpt>
      <trkpt lat="43.92713" lon="7.17787">
        <ele>323.20001220703</ele>
        <time>2019-06-01T08:15:42.000Z</time>
      </trkpt>
      <trkpt lat="43.92718" lon="7.17785">
        <ele>323.79998779297</ele>
        <time>2019-06-01T08:15:45.000Z</time>
      </trkpt>
      <trkpt lat="43.92724" lon="7.17785">
        <ele>324.39999389648</ele>
        <time>2019-06-01T08:15:48.000Z</time>
      </trkpt>
      <trkpt lat="43.92732" lon="7.17786">
        <ele>325.39999389648</ele>
        <time>2019-06-01T08:15:53.000Z</time>
      </trkpt>
      <trkpt lat="43.92734" lon="7.17787">
        <ele>325.60000610352</ele>
        <time>2019-06-01T08:15:54.000Z</time>
      </trkpt>
      <trkpt lat="43.92744" lon="7.17791">
        <ele>326.60000610352</ele>
        <time>2019-06-01T08:16:00.000Z</time>
      </trkpt>
      <trkpt lat="43.92747" lon="7.17793">
        <ele>327</ele>
        <time>2019-06-01T08:16:02.000Z</time>
      </trkpt>
      <trkpt lat="43.92755" lon="7.17798">
        <ele>327.79998779297</ele>
        <time>2019-06-01T08:16:07.000Z</time>
      </trkpt>
      <trkpt lat="43.9276" lon="7.17801">
        <ele>328.39999389648</ele>
        <time>2019-06-01T08:16:10.000Z</time>
      </trkpt>
      <trkpt lat="43.92763" lon="7.17803">
        <ele>329</ele>
        <time>2019-06-01T08:16:12.000Z</time>
      </trkpt>
      <trkpt lat="43.92773" lon="7.17809">
        <ele>330.20001220703</ele>
        <time>2019-06-01T08:16:18.000Z</time>
      </trkpt>
      <trkpt lat="43.92775" lon="7.17809">
        <ele>330.39999389648</ele>
        <time>2019-06-01T08:16:19.000Z</time>
      </trkpt>
      <trkpt lat="43.92788" lon="7.17809">
        <ele>331.20001220703</ele>
        <time>2019-06-01T08:16:26.000Z</time>
      </trkpt>
      <trkpt lat="43.9279" lon="7.17809">
        <ele>331.39999389648</ele>
        <time>2019-06-01T08:16:27.000Z</time>
      </trkpt>
      <trkpt lat="43.92802" lon="7.17804">
        <ele>332.20001220703</ele>
        <time>2019-06-01T08:16:33.000Z</time>
      </trkpt>
      <trkpt lat="43.92807" lon="7.17801">
        <ele>332.79998779297</ele>
        <time>2019-06-01T08:16:36.000Z</time>
      </trkpt>
      <trkpt lat="43.92811" lon="7.178">
        <ele>333.39999389648</ele>
        <time>2019-06-01T08:16:39.000Z</time>
      </trkpt>
      <trkpt lat="43.92821" lon="7.17799">
        <ele>334.60000610352</ele>
        <time>2019-06-01T08:16:45.000Z</time>
      </trkpt>
      <trkpt lat="43.92834" lon="7.178">
        <ele>335.60000610352</ele>
        <time>2019-06-01T08:16:52.000Z</time>
      </trkpt>
      <trkpt lat="43.92838" lon="7.17801">
        <ele>336</ele>
        <time>2019-06-01T08:16:54.000Z</time>
      </trkpt>
      <trkpt lat="43.92846" lon="7.17803">
        <ele>336.79998779297</ele>
        <time>2019-06-01T08:16:59.000Z</time>
      </trkpt>
      <trkpt lat="43.92854" lon="7.17804">
        <ele>337.60000610352</ele>
        <time>2019-06-01T08:17:03.000Z</time>
      </trkpt>
      <trkpt lat="43.92856" lon="7.17803">
        <ele>337.79998779297</ele>
        <time>2019-06-01T08:17:04.000Z</time>
      </trkpt>
      <trkpt lat="43.92874" lon="7.17804">
        <ele>339</ele>
        <time>2019-06-01T08:17:12.000Z</time>
      </trkpt>
      <trkpt lat="43.92889" lon="7.17808">
        <ele>340</ele>
        <time>2019-06-01T08:17:19.000Z</time>
      </trkpt>
      <trkpt lat="43.92893" lon="7.1781">
        <ele>340.20001220703</ele>
        <time>2019-06-01T08:17:21.000Z</time>
      </trkpt>
      <trkpt lat="43.92906" lon="7.17817">
        <ele>341.20001220703</ele>
        <time>2019-06-01T08:17:28.000Z</time>
      </trkpt>
      <trkpt lat="43.92911" lon="7.17819">
        <ele>341.60000610352</ele>
        <time>2019-06-01T08:17:31.000Z</time>
      </trkpt>
      <trkpt lat="43.92914" lon="7.17819">
        <ele>342.20001220703</ele>
        <time>2019-06-01T08:17:33.000Z</time>
      </trkpt>
      <trkpt lat="43.92915" lon="7.17817">
        <ele>342.20001220703</ele>
        <time>2019-06-01T08:17:34.000Z</time>
      </trkpt>
      <trkpt lat="43.92915" lon="7.17813">
        <ele>342.39999389648</ele>
        <time>2019-06-01T08:17:36.000Z</time>
      </trkpt>
      <trkpt lat="43.92914" lon="7.17807">
        <ele>343.20001220703</ele>
        <time>2019-06-01T08:17:40.000Z</time>
      </trkpt>
      <trkpt lat="43.92912" lon="7.17806">
        <ele>343.39999389648</ele>
        <time>2019-06-01T08:17:41.000Z</time>
      </trkpt>
      <trkpt lat="43.92909" lon="7.17808">
        <ele>343.60000610352</ele>
        <time>2019-06-01T08:17:46.000Z</time>
      </trkpt>
      <trkpt lat="43.9291" lon="7.17809">
        <ele>343.60000610352</ele>
        <time>2019-06-01T08:17:48.000Z</time>
      </trkpt>
      <trkpt lat="43.9291" lon="7.17809">
        <ele>343.60000610352</ele>
        <time>2019-06-01T08:17:50.000Z</time>
      </trkpt>
      <trkpt lat="43.92912" lon="7.17806">
        <ele>343.60000610352</ele>
        <time>2019-06-01T08:17:55.000Z</time>
      </trkpt>
      <trkpt lat="43.92913" lon="7.17804">
        <ele>343.39999389648</ele>
        <time>2019-06-01T08:18:01.000Z</time>
      </trkpt>
      <trkpt lat="43.92913" lon="7.17804">
        <ele>343.20001220703</ele>
        <time>2019-06-01T08:18:13.000Z</time>
      </trkpt>
      <trkpt lat="43.9291" lon="7.17805">
        <ele>343.39999389648</ele>
        <time>2019-06-01T08:18:24.000Z</time>
      </trkpt>
      <trkpt lat="43.9291" lon="7.17807">
        <ele>343.60000610352</ele>
        <time>2019-06-01T08:18:26.000Z</time>
      </trkpt>
      <trkpt lat="43.92908" lon="7.17807">
        <ele>343.60000610352</ele>
        <time>2019-06-01T08:18:29.000Z</time>
      </trkpt>
      <trkpt lat="43.92906" lon="7.17806">
        <ele>344</ele>
        <time>2019-06-01T08:18:34.000Z</time>
      </trkpt>
      <trkpt lat="43.92905" lon="7.17805">
        <ele>343.79998779297</ele>
        <time>2019-06-01T08:18:43.000Z</time>
      </trkpt>
      <trkpt lat="43.92901" lon="7.17801">
        <ele>343.79998779297</ele>
        <time>2019-06-01T08:18:47.000Z</time>
      </trkpt>
      <trkpt lat="43.92893" lon="7.17796">
        <ele>344.20001220703</ele>
        <time>2019-06-01T08:18:52.000Z</time>
      </trkpt>
      <trkpt lat="43.9289" lon="7.17793">
        <ele>344.39999389648</ele>
        <time>2019-06-01T08:18:54.000Z</time>
      </trkpt>
      <trkpt lat="43.92876" lon="7.17783">
        <ele>345.39999389648</ele>
        <time>2019-06-01T08:19:02.000Z</time>
      </trkpt>
      <trkpt lat="43.92874" lon="7.17782">
        <ele>345.60000610352</ele>
        <time>2019-06-01T08:19:03.000Z</time>
      </trkpt>
      <trkpt lat="43.92861" lon="7.17772">
        <ele>346.39999389648</ele>
        <time>2019-06-01T08:19:11.000Z</time>
      </trkpt>
      <trkpt lat="43.92849" lon="7.17765">
        <ele>347.39999389648</ele>
        <time>2019-06-01T08:19:17.000Z</time>
      </trkpt>
      <trkpt lat="43.92843" lon="7.17762">
        <ele>348.39999389648</ele>
        <time>2019-06-01T08:19:21.000Z</time>
      </trkpt>
      <trkpt lat="43.9284" lon="7.17762">
        <ele>348.60000610352</ele>
        <time>2019-06-01T08:19:22.000Z</time>
      </trkpt>
      <trkpt lat="43.92831" lon="7.17757">
        <ele>349.60000610352</ele>
        <time>2019-06-01T08:19:27.000Z</time>
      </trkpt>
      <trkpt lat="43.92828" lon="7.17756">
        <ele>350.20001220703</ele>
        <time>2019-06-01T08:19:29.000Z</time>
      </trkpt>
      <trkpt lat="43.92823" lon="7.17754">
        <ele>350.79998779297</ele>
        <time>2019-06-01T08:19:32.000Z</time>
      </trkpt>
      <trkpt lat="43.92814" lon="7.17751">
        <ele>351.60000610352</ele>
        <time>2019-06-01T08:19:37.000Z</time>
      </trkpt>
      <trkpt lat="43.92811" lon="7.1775">
        <ele>352</ele>
        <time>2019-06-01T08:19:39.000Z</time>
      </trkpt>
      <trkpt lat="43.92802" lon="7.17745">
        <ele>353</ele>
        <time>2019-06-01T08:19:44.000Z</time>
      </trkpt>
      <trkpt lat="43.9279" lon="7.1774">
        <ele>354.20001220703</ele>
        <time>2019-06-01T08:19:51.000Z</time>
      </trkpt>
      <trkpt lat="43.92788" lon="7.17739">
        <ele>354.39999389648</ele>
        <time>2019-06-01T08:19:52.000Z</time>
      </trkpt>
      <trkpt lat="43.92777" lon="7.17738">
        <ele>355.39999389648</ele>
        <time>2019-06-01T08:19:58.000Z</time>
      </trkpt>
      <trkpt lat="43.92764" lon="7.17735">
        <ele>356.39999389648</ele>
        <time>2019-06-01T08:20:05.000Z</time>
      </trkpt>
      <trkpt lat="43.92754" lon="7.1773">
        <ele>357.60000610352</ele>
        <time>2019-06-01T08:20:11.000Z</time>
      </trkpt>
      <trkpt lat="43.92749" lon="7.17726">
        <ele>358</ele>
        <time>2019-06-01T08:20:14.000Z</time>
      </trkpt>
      <trkpt lat="43.92743" lon="7.17719">
        <ele>358.60000610352</ele>
        <time>2019-06-01T08:20:18.000Z</time>
      </trkpt>
      <trkpt lat="43.92735" lon="7.17711">
        <ele>359.60000610352</ele>
        <time>2019-06-01T08:20:23.000Z</time>
      </trkpt>
      <trkpt lat="43.92732" lon="7.17708">
        <ele>359.79998779297</ele>
        <time>2019-06-01T08:20:25.000Z</time>
      </trkpt>
      <trkpt lat="43.92721" lon="7.17697">
        <ele>360.79998779297</ele>
        <time>2019-06-01T08:20:32.000Z</time>
      </trkpt>
      <trkpt lat="43.92712" lon="7.17687">
        <ele>362</ele>
        <time>2019-06-01T08:20:39.000Z</time>
      </trkpt>
      <trkpt lat="43.92702" lon="7.17677">
        <ele>363</ele>
        <time>2019-06-01T08:20:46.000Z</time>
      </trkpt>
      <trkpt lat="43.92699" lon="7.17674">
        <ele>363.39999389648</ele>
        <time>2019-06-01T08:20:48.000Z</time>
      </trkpt>
      <trkpt lat="43.9269" lon="7.17668">
        <ele>364.20001220703</ele>
        <time>2019-06-01T08:20:53.000Z</time>
      </trkpt>
      <trkpt lat="43.92682" lon="7.17662">
        <ele>365</ele>
        <time>2019-06-01T08:20:58.000Z</time>
      </trkpt>
      <trkpt lat="43.92681" lon="7.17661">
        <ele>365.39999389648</ele>
        <time>2019-06-01T08:20:59.000Z</time>
      </trkpt>
      <trkpt lat="43.92671" lon="7.17655">
        <ele>366.39999389648</ele>
        <time>2019-06-01T08:21:05.000Z</time>
      </trkpt>
      <trkpt lat="43.92667" lon="7.17654">
        <ele>366.79998779297</ele>
        <time>2019-06-01T08:21:07.000Z</time>
      </trkpt>
      <trkpt lat="43.92661" lon="7.17652">
        <ele>367.39999389648</ele>
        <time>2019-06-01T08:21:10.000Z</time>
      </trkpt>
      <trkpt lat="43.92652" lon="7.17651">
        <ele>368.20001220703</ele>
        <time>2019-06-01T08:21:15.000Z</time>
      </trkpt>
      <trkpt lat="43.92649" lon="7.17652">
        <ele>368.60000610352</ele>
        <time>2019-06-01T08:21:16.000Z</time>
      </trkpt>
      <trkpt lat="43.92639" lon="7.17654">
        <ele>369.60000610352</ele>
        <time>2019-06-01T08:21:21.000Z</time>
      </trkpt>
      <trkpt lat="43.92635" lon="7.17655">
        <ele>370</ele>
        <time>2019-06-01T08:21:23.000Z</time>
      </trkpt>
      <trkpt lat="43.92627" lon="7.17656">
        <ele>370.60000610352</ele>
        <time>2019-06-01T08:21:27.000Z</time>
      </trkpt>
      <trkpt lat="43.92621" lon="7.17655">
        <ele>371.20001220703</ele>
        <time>2019-06-01T08:21:30.000Z</time>
      </trkpt>
      <trkpt lat="43.92616" lon="7.17655">
        <ele>371.79998779297</ele>
        <time>2019-06-01T08:21:33.000Z</time>
      </trkpt>
      <trkpt lat="43.92605" lon="7.17653">
        <ele>372.79998779297</ele>
        <time>2019-06-01T08:21:39.000Z</time>
      </trkpt>
      <trkpt lat="43.92591" lon="7.17654">
        <ele>374</ele>
        <time>2019-06-01T08:21:46.000Z</time>
      </trkpt>
      <trkpt lat="43.92589" lon="7.17654">
        <ele>374</ele>
        <time>2019-06-01T08:21:47.000Z</time>
      </trkpt>
      <trkpt lat="43.92575" lon="7.17655">
        <ele>375.20001220703</ele>
        <time>2019-06-01T08:21:54.000Z</time>
      </trkpt>
      <trkpt lat="43.9257" lon="7.17656">
        <ele>375.79998779297</ele>
        <time>2019-06-01T08:21:57.000Z</time>
      </trkpt>
      <trkpt lat="43.92566" lon="7.17657">
        <ele>376.20001220703</ele>
        <time>2019-06-01T08:21:59.000Z</time>
      </trkpt>
      <trkpt lat="43.92557" lon="7.17659">
        <ele>377.20001220703</ele>
        <time>2019-06-01T08:22:04.000Z</time>
      </trkpt>
      <trkpt lat="43.92553" lon="7.17659">
        <ele>377.39999389648</ele>
        <time>2019-06-01T08:22:06.000Z</time>
      </trkpt>
      <trkpt lat="43.92545" lon="7.17663">
        <ele>378.20001220703</ele>
        <time>2019-06-01T08:22:11.000Z</time>
      </trkpt>
      <trkpt lat="43.92539" lon="7.17666">
        <ele>378.79998779297</ele>
        <time>2019-06-01T08:22:14.000Z</time>
      </trkpt>
      <trkpt lat="43.92533" lon="7.17669">
        <ele>379.20001220703</ele>
        <time>2019-06-01T08:22:17.000Z</time>
      </trkpt>
      <trkpt lat="43.92526" lon="7.17675">
        <ele>380.20001220703</ele>
        <time>2019-06-01T08:22:22.000Z</time>
      </trkpt>
      <trkpt lat="43.92524" lon="7.17676">
        <ele>380.39999389648</ele>
        <time>2019-06-01T08:22:23.000Z</time>
      </trkpt>
      <trkpt lat="43.92515" lon="7.17687">
        <ele>381.39999389648</ele>
        <time>2019-06-01T08:22:30.000Z</time>
      </trkpt>
      <trkpt lat="43.92513" lon="7.17689">
        <ele>381.79998779297</ele>
        <time>2019-06-01T08:22:31.000Z</time>
      </trkpt>
      <trkpt lat="43.92504" lon="7.177">
        <ele>382.60000610352</ele>
        <time>2019-06-01T08:22:38.000Z</time>
      </trkpt>
      <trkpt lat="43.92501" lon="7.17703">
        <ele>383</ele>
        <time>2019-06-01T08:22:40.000Z</time>
      </trkpt>
      <trkpt lat="43.92495" lon="7.17709">
        <ele>383.79998779297</ele>
        <time>2019-06-01T08:22:44.000Z</time>
      </trkpt>
      <trkpt lat="43.92489" lon="7.17716">
        <ele>384.60000610352</ele>
        <time>2019-06-01T08:22:49.000Z</time>
      </trkpt>
      <trkpt lat="43.92488" lon="7.17718">
        <ele>384.79998779297</ele>
        <time>2019-06-01T08:22:50.000Z</time>
      </trkpt>
      <trkpt lat="43.92479" lon="7.17729">
        <ele>385.79998779297</ele>
        <time>2019-06-01T08:22:57.000Z</time>
      </trkpt>
      <trkpt lat="43.9247" lon="7.17741">
        <ele>387</ele>
        <time>2019-06-01T08:23:04.000Z</time>
      </trkpt>
      <trkpt lat="43.92469" lon="7.17743">
        <ele>387.20001220703</ele>
        <time>2019-06-01T08:23:05.000Z</time>
      </trkpt>
      <trkpt lat="43.92464" lon="7.17748">
        <ele>388.20001220703</ele>
        <time>2019-06-01T08:23:09.000Z</time>
      </trkpt>
      <trkpt lat="43.92461" lon="7.17753">
        <ele>388.79998779297</ele>
        <time>2019-06-01T08:23:12.000Z</time>
      </trkpt>
      <trkpt lat="43.92457" lon="7.17758">
        <ele>389.20001220703</ele>
        <time>2019-06-01T08:23:15.000Z</time>
      </trkpt>
      <trkpt lat="43.92454" lon="7.17765">
        <ele>389.60000610352</ele>
        <time>2019-06-01T08:23:18.000Z</time>
      </trkpt>
      <trkpt lat="43.92451" lon="7.17777">
        <ele>390.39999389648</ele>
        <time>2019-06-01T08:23:23.000Z</time>
      </trkpt>
      <trkpt lat="43.9245" lon="7.17785">
        <ele>391.39999389648</ele>
        <time>2019-06-01T08:23:26.000Z</time>
      </trkpt>
      <trkpt lat="43.9245" lon="7.17787">
        <ele>391.60000610352</ele>
        <time>2019-06-01T08:23:27.000Z</time>
      </trkpt>
      <trkpt lat="43.92448" lon="7.17806">
        <ele>392.79998779297</ele>
        <time>2019-06-01T08:23:34.000Z</time>
      </trkpt>
      <trkpt lat="43.92447" lon="7.17811">
        <ele>393</ele>
        <time>2019-06-01T08:23:36.000Z</time>
      </trkpt>
      <trkpt lat="43.92446" lon="7.17828">
        <ele>393.79998779297</ele>
        <time>2019-06-01T08:23:42.000Z</time>
      </trkpt>
      <trkpt lat="43.92446" lon="7.1783">
        <ele>394</ele>
        <time>2019-06-01T08:23:43.000Z</time>
      </trkpt>
      <trkpt lat="43.92446" lon="7.17842">
        <ele>395</ele>
        <time>2019-06-01T08:23:48.000Z</time>
      </trkpt>
      <trkpt lat="43.92445" lon="7.17849">
        <ele>395.60000610352</ele>
        <time>2019-06-01T08:23:51.000Z</time>
      </trkpt>
      <trkpt lat="43.92445" lon="7.17858">
        <ele>396</ele>
        <time>2019-06-01T08:23:54.000Z</time>
      </trkpt>
      <trkpt lat="43.92444" lon="7.17873">
        <ele>397</ele>
        <time>2019-06-01T08:23:59.000Z</time>
      </trkpt>
      <trkpt lat="43.92444" lon="7.17879">
        <ele>397.20001220703</ele>
        <time>2019-06-01T08:24:01.000Z</time>
      </trkpt>
      <trkpt lat="43.92445" lon="7.1789">
        <ele>398.20001220703</ele>
        <time>2019-06-01T08:24:05.000Z</time>
      </trkpt>
      <trkpt lat="43.92446" lon="7.17899">
        <ele>398.79998779297</ele>
        <time>2019-06-01T08:24:08.000Z</time>
      </trkpt>
      <trkpt lat="43.92447" lon="7.1791">
        <ele>399.39999389648</ele>
        <time>2019-06-01T08:24:12.000Z</time>
      </trkpt>
      <trkpt lat="43.92448" lon="7.17922">
        <ele>400</ele>
        <time>2019-06-01T08:24:16.000Z</time>
      </trkpt>
      <trkpt lat="43.92448" lon="7.17927">
        <ele>400.60000610352</ele>
        <time>2019-06-01T08:24:18.000Z</time>
      </trkpt>
      <trkpt lat="43.92445" lon="7.17941">
        <ele>401</ele>
        <time>2019-06-01T08:24:24.000Z</time>
      </trkpt>
      <trkpt lat="43.92439" lon="7.17939">
        <ele>401.60000610352</ele>
        <time>2019-06-01T08:24:28.000Z</time>
      </trkpt>
      <trkpt lat="43.92439" lon="7.17928">
        <ele>402.39999389648</ele>
        <time>2019-06-01T08:24:33.000Z</time>
      </trkpt>
      <trkpt lat="43.92439" lon="7.17926">
        <ele>402.60000610352</ele>
        <time>2019-06-01T08:24:34.000Z</time>
      </trkpt>
      <trkpt lat="43.92439" lon="7.17913">
        <ele>403.79998779297</ele>
        <time>2019-06-01T08:24:39.000Z</time>
      </trkpt>
      <trkpt lat="43.92438" lon="7.17908">
        <ele>404</ele>
        <time>2019-06-01T08:24:41.000Z</time>
      </trkpt>
      <trkpt lat="43.92435" lon="7.17897">
        <ele>404.79998779297</ele>
        <time>2019-06-01T08:24:46.000Z</time>
      </trkpt>
      <trkpt lat="43.92433" lon="7.1789">
        <ele>405.20001220703</ele>
        <time>2019-06-01T08:24:49.000Z</time>
      </trkpt>
      <trkpt lat="43.92429" lon="7.17878">
        <ele>405.79998779297</ele>
        <time>2019-06-01T08:24:54.000Z</time>
      </trkpt>
      <trkpt lat="43.92427" lon="7.1787">
        <ele>406.79998779297</ele>
        <time>2019-06-01T08:24:58.000Z</time>
      </trkpt>
      <trkpt lat="43.92426" lon="7.17865">
        <ele>407</ele>
        <time>2019-06-01T08:25:00.000Z</time>
      </trkpt>
      <trkpt lat="43.92424" lon="7.17851">
        <ele>408.20001220703</ele>
        <time>2019-06-01T08:25:06.000Z</time>
      </trkpt>
      <trkpt lat="43.92422" lon="7.17839">
        <ele>409.39999389648</ele>
        <time>2019-06-01T08:25:11.000Z</time>
      </trkpt>
      <trkpt lat="43.92421" lon="7.17831">
        <ele>410.20001220703</ele>
        <time>2019-06-01T08:25:14.000Z</time>
      </trkpt>
      <trkpt lat="43.92419" lon="7.17826">
        <ele>410.60000610352</ele>
        <time>2019-06-01T08:25:16.000Z</time>
      </trkpt>
      <trkpt lat="43.92416" lon="7.17815">
        <ele>411.39999389648</ele>
        <time>2019-06-01T08:25:21.000Z</time>
      </trkpt>
      <trkpt lat="43.92415" lon="7.17813">
        <ele>411.60000610352</ele>
        <time>2019-06-01T08:25:22.000Z</time>
      </trkpt>
      <trkpt lat="43.9241" lon="7.17799">
        <ele>412.60000610352</ele>
        <time>2019-06-01T08:25:28.000Z</time>
      </trkpt>
      <trkpt lat="43.92409" lon="7.17796">
        <ele>412.79998779297</ele>
        <time>2019-06-01T08:25:29.000Z</time>
      </trkpt>
      <trkpt lat="43.92407" lon="7.17789">
        <ele>413.60000610352</ele>
        <time>2019-06-01T08:25:32.000Z</time>
      </trkpt>
      <trkpt lat="43.92403" lon="7.1778">
        <ele>414.60000610352</ele>
        <time>2019-06-01T08:25:36.000Z</time>
      </trkpt>
      <trkpt lat="43.92397" lon="7.17768">
        <ele>415.79998779297</ele>
        <time>2019-06-01T08:25:42.000Z</time>
      </trkpt>
      <trkpt lat="43.92394" lon="7.17762">
        <ele>416.39999389648</ele>
        <time>2019-06-01T08:25:45.000Z</time>
      </trkpt>
      <trkpt lat="43.92393" lon="7.17757">
        <ele>416.79998779297</ele>
        <time>2019-06-01T08:25:47.000Z</time>
      </trkpt>
      <trkpt lat="43.92391" lon="7.17741">
        <ele>417.60000610352</ele>
        <time>2019-06-01T08:25:53.000Z</time>
      </trkpt>
      <trkpt lat="43.92391" lon="7.17737">
        <ele>418</ele>
        <time>2019-06-01T08:25:55.000Z</time>
      </trkpt>
      <trkpt lat="43.92393" lon="7.17726">
        <ele>419</ele>
        <time>2019-06-01T08:26:00.000Z</time>
      </trkpt>
      <trkpt lat="43.92394" lon="7.17723">
        <ele>419.20001220703</ele>
        <time>2019-06-01T08:26:01.000Z</time>
      </trkpt>
      <trkpt lat="43.92399" lon="7.17714">
        <ele>420.20001220703</ele>
        <time>2019-06-01T08:26:06.000Z</time>
      </trkpt>
      <trkpt lat="43.924" lon="7.17712">
        <ele>420.39999389648</ele>
        <time>2019-06-01T08:26:07.000Z</time>
      </trkpt>
      <trkpt lat="43.92404" lon="7.17708">
        <ele>421.39999389648</ele>
        <time>2019-06-01T08:26:10.000Z</time>
      </trkpt>
      <trkpt lat="43.9241" lon="7.17701">
        <ele>422</ele>
        <time>2019-06-01T08:26:15.000Z</time>
      </trkpt>
      <trkpt lat="43.92412" lon="7.17697">
        <ele>422.39999389648</ele>
        <time>2019-06-01T08:26:17.000Z</time>
      </trkpt>
      <trkpt lat="43.92417" lon="7.1769">
        <ele>423.60000610352</ele>
        <time>2019-06-01T08:26:21.000Z</time>
      </trkpt>
      <trkpt lat="43.9242" lon="7.17686">
        <ele>424</ele>
        <time>2019-06-01T08:26:23.000Z</time>
      </trkpt>
      <trkpt lat="43.92423" lon="7.17681">
        <ele>424.60000610352</ele>
        <time>2019-06-01T08:26:26.000Z</time>
      </trkpt>
      <trkpt lat="43.92429" lon="7.1767">
        <ele>425.39999389648</ele>
        <time>2019-06-01T08:26:32.000Z</time>
      </trkpt>
      <trkpt lat="43.92429" lon="7.17668">
        <ele>425.60000610352</ele>
        <time>2019-06-01T08:26:33.000Z</time>
      </trkpt>
      <trkpt lat="43.9243" lon="7.17663">
        <ele>426.20001220703</ele>
        <time>2019-06-01T08:26:36.000Z</time>
      </trkpt>
      <trkpt lat="43.92429" lon="7.17661">
        <ele>426.60000610352</ele>
        <time>2019-06-01T08:26:37.000Z</time>
      </trkpt>
      <trkpt lat="43.92428" lon="7.17659">
        <ele>427</ele>
        <time>2019-06-01T08:26:38.000Z</time>
      </trkpt>
      <trkpt lat="43.92419" lon="7.17656">
        <ele>427.60000610352</ele>
        <time>2019-06-01T08:26:44.000Z</time>
      </trkpt>
      <trkpt lat="43.92416" lon="7.17658">
        <ele>428</ele>
        <time>2019-06-01T08:26:46.000Z</time>
      </trkpt>
      <trkpt lat="43.92408" lon="7.17663">
        <ele>428.39999389648</ele>
        <time>2019-06-01T08:26:50.000Z</time>
      </trkpt>
      <trkpt lat="43.92399" lon="7.17665">
        <ele>428.60000610352</ele>
        <time>2019-06-01T08:26:54.000Z</time>
      </trkpt>
      <trkpt lat="43.92397" lon="7.17665">
        <ele>428.60000610352</ele>
        <time>2019-06-01T08:26:55.000Z</time>
      </trkpt>
      <trkpt lat="43.92395" lon="7.17664">
        <ele>428.79998779297</ele>
        <time>2019-06-01T08:26:56.000Z</time>
      </trkpt>
      <trkpt lat="43.9239" lon="7.17656">
        <ele>429.60000610352</ele>
        <time>2019-06-01T08:27:01.000Z</time>
      </trkpt>
      <trkpt lat="43.92389" lon="7.17654">
        <ele>429.79998779297</ele>
        <time>2019-06-01T08:27:02.000Z</time>
      </trkpt>
      <trkpt lat="43.92386" lon="7.17644">
        <ele>430.60000610352</ele>
        <time>2019-06-01T08:27:07.000Z</time>
      </trkpt>
      <trkpt lat="43.92385" lon="7.1764">
        <ele>430.79998779297</ele>
        <time>2019-06-01T08:27:09.000Z</time>
      </trkpt>
      <trkpt lat="43.92384" lon="7.17627">
        <ele>431.39999389648</ele>
        <time>2019-06-01T08:27:14.000Z</time>
      </trkpt>
      <trkpt lat="43.92384" lon="7.17619">
        <ele>432</ele>
        <time>2019-06-01T08:27:17.000Z</time>
      </trkpt>
      <trkpt lat="43.92382" lon="7.17609">
        <ele>433</ele>
        <time>2019-06-01T08:27:21.000Z</time>
      </trkpt>
      <trkpt lat="43.92382" lon="7.17606">
        <ele>433.20001220703</ele>
        <time>2019-06-01T08:27:22.000Z</time>
      </trkpt>
      <trkpt lat="43.92381" lon="7.17596">
        <ele>433.79998779297</ele>
        <time>2019-06-01T08:27:27.000Z</time>
      </trkpt>
      <trkpt lat="43.92379" lon="7.17592">
        <ele>434.20001220703</ele>
        <time>2019-06-01T08:27:29.000Z</time>
      </trkpt>
      <trkpt lat="43.92377" lon="7.17583">
        <ele>434.60000610352</ele>
        <time>2019-06-01T08:27:33.000Z</time>
      </trkpt>
      <trkpt lat="43.92374" lon="7.17574">
        <ele>435.39999389648</ele>
        <time>2019-06-01T08:27:37.000Z</time>
      </trkpt>
      <trkpt lat="43.92373" lon="7.17567">
        <ele>435.79998779297</ele>
        <time>2019-06-01T08:27:40.000Z</time>
      </trkpt>
      <trkpt lat="43.92371" lon="7.17559">
        <ele>436.39999389648</ele>
        <time>2019-06-01T08:27:43.000Z</time>
      </trkpt>
      <trkpt lat="43.9237" lon="7.17547">
        <ele>437.20001220703</ele>
        <time>2019-06-01T08:27:48.000Z</time>
      </trkpt>
      <trkpt lat="43.92369" lon="7.17543">
        <ele>437.60000610352</ele>
        <time>2019-06-01T08:27:50.000Z</time>
      </trkpt>
      <trkpt lat="43.92368" lon="7.17531">
        <ele>438.39999389648</ele>
        <time>2019-06-01T08:27:55.000Z</time>
      </trkpt>
      <trkpt lat="43.92368" lon="7.17528">
        <ele>438.60000610352</ele>
        <time>2019-06-01T08:27:56.000Z</time>
      </trkpt>
      <trkpt lat="43.92367" lon="7.17512">
        <ele>439.60000610352</ele>
        <time>2019-06-01T08:28:03.000Z</time>
      </trkpt>
      <trkpt lat="43.92367" lon="7.17494">
        <ele>440.79998779297</ele>
        <time>2019-06-01T08:28:10.000Z</time>
      </trkpt>
      <trkpt lat="43.92373" lon="7.17479">
        <ele>441.60000610352</ele>
        <time>2019-06-01T08:28:16.000Z</time>
      </trkpt>
      <trkpt lat="43.92375" lon="7.17475">
        <ele>442</ele>
        <time>2019-06-01T08:28:18.000Z</time>
      </trkpt>
      <trkpt lat="43.92383" lon="7.17465">
        <ele>442.79998779297</ele>
        <time>2019-06-01T08:28:24.000Z</time>
      </trkpt>
      <trkpt lat="43.92384" lon="7.17464">
        <ele>443</ele>
        <time>2019-06-01T08:28:25.000Z</time>
      </trkpt>
      <trkpt lat="43.92391" lon="7.17459">
        <ele>444</ele>
        <time>2019-06-01T08:28:30.000Z</time>
      </trkpt>
      <trkpt lat="43.92401" lon="7.17453">
        <ele>445.20001220703</ele>
        <time>2019-06-01T08:28:37.000Z</time>
      </trkpt>
      <trkpt lat="43.92408" lon="7.17451">
        <ele>445.79998779297</ele>
        <time>2019-06-01T08:28:41.000Z</time>
      </trkpt>
      <trkpt lat="43.92414" lon="7.1745">
        <ele>446.20001220703</ele>
        <time>2019-06-01T08:28:45.000Z</time>
      </trkpt>
      <trkpt lat="43.92422" lon="7.17447">
        <ele>447</ele>
        <time>2019-06-01T08:28:50.000Z</time>
      </trkpt>
      <trkpt lat="43.92424" lon="7.17446">
        <ele>447.20001220703</ele>
        <time>2019-06-01T08:28:51.000Z</time>
      </trkpt>
      <trkpt lat="43.92435" lon="7.17442">
        <ele>448.20001220703</ele>
        <time>2019-06-01T08:28:57.000Z</time>
      </trkpt>
      <trkpt lat="43.92437" lon="7.17441">
        <ele>448.20001220703</ele>
        <time>2019-06-01T08:28:58.000Z</time>
      </trkpt>
      <trkpt lat="43.92449" lon="7.17435">
        <ele>449.20001220703</ele>
        <time>2019-06-01T08:29:05.000Z</time>
      </trkpt>
      <trkpt lat="43.92462" lon="7.17429">
        <ele>450.20001220703</ele>
        <time>2019-06-01T08:29:12.000Z</time>
      </trkpt>
      <trkpt lat="43.92481" lon="7.17426">
        <ele>451.39999389648</ele>
        <time>2019-06-01T08:29:21.000Z</time>
      </trkpt>
      <trkpt lat="43.92496" lon="7.17428">
        <ele>452.39999389648</ele>
        <time>2019-06-01T08:29:29.000Z</time>
      </trkpt>
      <trkpt lat="43.92498" lon="7.17428">
        <ele>452.39999389648</ele>
        <time>2019-06-01T08:29:30.000Z</time>
      </trkpt>
      <trkpt lat="43.92512" lon="7.1743">
        <ele>453.39999389648</ele>
        <time>2019-06-01T08:29:37.000Z</time>
      </trkpt>
      <trkpt lat="43.92516" lon="7.1743">
        <ele>453.79998779297</ele>
        <time>2019-06-01T08:29:39.000Z</time>
      </trkpt>
      <trkpt lat="43.92524" lon="7.17431">
        <ele>454.39999389648</ele>
        <time>2019-06-01T08:29:43.000Z</time>
      </trkpt>
      <trkpt lat="43.92533" lon="7.17432">
        <ele>455.20001220703</ele>
        <time>2019-06-01T08:29:48.000Z</time>
      </trkpt>
      <trkpt lat="43.92537" lon="7.17432">
        <ele>455.60000610352</ele>
        <time>2019-06-01T08:29:50.000Z</time>
      </trkpt>
      <trkpt lat="43.92551" lon="7.17435">
        <ele>456.39999389648</ele>
        <time>2019-06-01T08:29:57.000Z</time>
      </trkpt>
      <trkpt lat="43.92553" lon="7.17436">
        <ele>456.60000610352</ele>
        <time>2019-06-01T08:29:58.000Z</time>
      </trkpt>
      <trkpt lat="43.92567" lon="7.17442">
        <ele>457.60000610352</ele>
        <time>2019-06-01T08:30:06.000Z</time>
      </trkpt>
      <trkpt lat="43.92579" lon="7.17445">
        <ele>458.60000610352</ele>
        <time>2019-06-01T08:30:13.000Z</time>
      </trkpt>
      <trkpt lat="43.92581" lon="7.17443">
        <ele>459</ele>
        <time>2019-06-01T08:30:15.000Z</time>
      </trkpt>
      <trkpt lat="43.92582" lon="7.17442">
        <ele>459.20001220703</ele>
        <time>2019-06-01T08:30:16.000Z</time>
      </trkpt>
      <trkpt lat="43.92581" lon="7.17436">
        <ele>459.79998779297</ele>
        <time>2019-06-01T08:30:19.000Z</time>
      </trkpt>
      <trkpt lat="43.92571" lon="7.17432">
        <ele>460.60000610352</ele>
        <time>2019-06-01T08:30:24.000Z</time>
      </trkpt>
      <trkpt lat="43.92563" lon="7.17429">
        <ele>460.79998779297</ele>
        <time>2019-06-01T08:30:28.000Z</time>
      </trkpt>
      <trkpt lat="43.92555" lon="7.17423">
        <ele>461.20001220703</ele>
        <time>2019-06-01T08:30:32.000Z</time>
      </trkpt>
      <trkpt lat="43.92547" lon="7.17418">
        <ele>462</ele>
        <time>2019-06-01T08:30:37.000Z</time>
      </trkpt>
      <trkpt lat="43.92539" lon="7.17412">
        <ele>462.60000610352</ele>
        <time>2019-06-01T08:30:42.000Z</time>
      </trkpt>
      <trkpt lat="43.92535" lon="7.17409">
        <ele>463</ele>
        <time>2019-06-01T08:30:45.000Z</time>
      </trkpt>
      <trkpt lat="43.92526" lon="7.17403">
        <ele>463.79998779297</ele>
        <time>2019-06-01T08:30:51.000Z</time>
      </trkpt>
      <trkpt lat="43.92521" lon="7.174">
        <ele>464.20001220703</ele>
        <time>2019-06-01T08:30:54.000Z</time>
      </trkpt>
      <trkpt lat="43.92514" lon="7.17395">
        <ele>465.20001220703</ele>
        <time>2019-06-01T08:30:59.000Z</time>
      </trkpt>
      <trkpt lat="43.92513" lon="7.17394">
        <ele>465.39999389648</ele>
        <time>2019-06-01T08:31:00.000Z</time>
      </trkpt>
      <trkpt lat="43.92503" lon="7.17386">
        <ele>466.39999389648</ele>
        <time>2019-06-01T08:31:06.000Z</time>
      </trkpt>
      <trkpt lat="43.92495" lon="7.17377">
        <ele>467.60000610352</ele>
        <time>2019-06-01T08:31:12.000Z</time>
      </trkpt>
      <trkpt lat="43.92493" lon="7.17374">
        <ele>468</ele>
        <time>2019-06-01T08:31:14.000Z</time>
      </trkpt>
      <trkpt lat="43.92488" lon="7.17367">
        <ele>468.60000610352</ele>
        <time>2019-06-01T08:31:18.000Z</time>
      </trkpt>
      <trkpt lat="43.92483" lon="7.17361">
        <ele>469.20001220703</ele>
        <time>2019-06-01T08:31:22.000Z</time>
      </trkpt>
      <trkpt lat="43.92481" lon="7.17357">
        <ele>469.60000610352</ele>
        <time>2019-06-01T08:31:24.000Z</time>
      </trkpt>
      <trkpt lat="43.92472" lon="7.17349">
        <ele>470.60000610352</ele>
        <time>2019-06-01T08:31:30.000Z</time>
      </trkpt>
      <trkpt lat="43.9246" lon="7.17346">
        <ele>471.60000610352</ele>
        <time>2019-06-01T08:31:36.000Z</time>
      </trkpt>
      <trkpt lat="43.92458" lon="7.17346">
        <ele>471.79998779297</ele>
        <time>2019-06-01T08:31:37.000Z</time>
      </trkpt>
      <trkpt lat="43.92449" lon="7.17347">
        <ele>472.79998779297</ele>
        <time>2019-06-01T08:31:42.000Z</time>
      </trkpt>
      <trkpt lat="43.92444" lon="7.17349">
        <ele>473.20001220703</ele>
        <time>2019-06-01T08:31:45.000Z</time>
      </trkpt>
      <trkpt lat="43.92437" lon="7.17351">
        <ele>473.79998779297</ele>
        <time>2019-06-01T08:31:49.000Z</time>
      </trkpt>
      <trkpt lat="43.92428" lon="7.17353">
        <ele>474.39999389648</ele>
        <time>2019-06-01T08:31:54.000Z</time>
      </trkpt>
      <trkpt lat="43.92422" lon="7.17354">
        <ele>474.79998779297</ele>
        <time>2019-06-01T08:31:57.000Z</time>
      </trkpt>
      <trkpt lat="43.92409" lon="7.17352">
        <ele>475.79998779297</ele>
        <time>2019-06-01T08:32:04.000Z</time>
      </trkpt>
      <trkpt lat="43.92408" lon="7.17352">
        <ele>476</ele>
        <time>2019-06-01T08:32:05.000Z</time>
      </trkpt>
      <trkpt lat="43.92395" lon="7.1735">
        <ele>476.79998779297</ele>
        <time>2019-06-01T08:32:11.000Z</time>
      </trkpt>
      <trkpt lat="43.92389" lon="7.17349">
        <ele>477.39999389648</ele>
        <time>2019-06-01T08:32:14.000Z</time>
      </trkpt>
      <trkpt lat="43.92385" lon="7.17349">
        <ele>478</ele>
        <time>2019-06-01T08:32:16.000Z</time>
      </trkpt>
      <trkpt lat="43.92375" lon="7.17348">
        <ele>479</ele>
        <time>2019-06-01T08:32:21.000Z</time>
      </trkpt>
      <trkpt lat="43.92372" lon="7.17348">
        <ele>479.39999389648</ele>
        <time>2019-06-01T08:32:23.000Z</time>
      </trkpt>
      <trkpt lat="43.92365" lon="7.17348">
        <ele>480</ele>
        <time>2019-06-01T08:32:27.000Z</time>
      </trkpt>
      <trkpt lat="43.92359" lon="7.17349">
        <ele>480.60000610352</ele>
        <time>2019-06-01T08:32:31.000Z</time>
      </trkpt>
      <trkpt lat="43.92354" lon="7.1735">
        <ele>481.20001220703</ele>
        <time>2019-06-01T08:32:34.000Z</time>
      </trkpt>
      <trkpt lat="43.92346" lon="7.17354">
        <ele>482</ele>
        <time>2019-06-01T08:32:39.000Z</time>
      </trkpt>
      <trkpt lat="43.92343" lon="7.17354">
        <ele>482.20001220703</ele>
        <time>2019-06-01T08:32:41.000Z</time>
      </trkpt>
      <trkpt lat="43.92336" lon="7.17352">
        <ele>482.79998779297</ele>
        <time>2019-06-01T08:32:45.000Z</time>
      </trkpt>
      <trkpt lat="43.92335" lon="7.1735">
        <ele>482.79998779297</ele>
        <time>2019-06-01T08:32:46.000Z</time>
      </trkpt>
      <trkpt lat="43.92334" lon="7.17341">
        <ele>483.39999389648</ele>
        <time>2019-06-01T08:32:50.000Z</time>
      </trkpt>
      <trkpt lat="43.92334" lon="7.17338">
        <ele>483.39999389648</ele>
        <time>2019-06-01T08:32:51.000Z</time>
      </trkpt>
      <trkpt lat="43.92334" lon="7.17337">
        <ele>483.60000610352</ele>
        <time>2019-06-01T08:32:56.000Z</time>
      </trkpt>
      <trkpt lat="43.92334" lon="7.17337">
        <ele>483.79998779297</ele>
        <time>2019-06-01T08:33:04.000Z</time>
      </trkpt>
      <trkpt lat="43.92334" lon="7.17337">
        <ele>483.79998779297</ele>
        <time>2019-06-01T08:33:12.000Z</time>
      </trkpt>
      <trkpt lat="43.92334" lon="7.17337">
        <ele>484.20001220703</ele>
        <time>2019-06-01T08:33:22.000Z</time>
      </trkpt>
      <trkpt lat="43.92334" lon="7.17337">
        <ele>484</ele>
        <time>2019-06-01T08:33:33.000Z</time>
      </trkpt>
      <trkpt lat="43.92334" lon="7.17337">
        <ele>483.79998779297</ele>
        <time>2019-06-01T08:33:40.000Z</time>
      </trkpt>
      <trkpt lat="43.92333" lon="7.17336">
        <ele>484.20001220703</ele>
        <time>2019-06-01T08:33:49.000Z</time>
      </trkpt>
      <trkpt lat="43.92333" lon="7.17336">
        <ele>484</ele>
        <time>2019-06-01T08:33:55.000Z</time>
      </trkpt>
      <trkpt lat="43.92333" lon="7.17326">
        <ele>484</ele>
        <time>2019-06-01T08:34:00.000Z</time>
      </trkpt>
      <trkpt lat="43.92331" lon="7.17316">
        <ele>484.39999389648</ele>
        <time>2019-06-01T08:34:04.000Z</time>
      </trkpt>
      <trkpt lat="43.92328" lon="7.17308">
        <ele>484.60000610352</ele>
        <time>2019-06-01T08:34:07.000Z</time>
      </trkpt>
      <trkpt lat="43.92323" lon="7.17295">
        <ele>485</ele>
        <time>2019-06-01T08:34:11.000Z</time>
      </trkpt>
      <trkpt lat="43.92317" lon="7.17279">
        <ele>485.20001220703</ele>
        <time>2019-06-01T08:34:16.000Z</time>
      </trkpt>
      <trkpt lat="43.92313" lon="7.17267">
        <ele>485.39999389648</ele>
        <time>2019-06-01T08:34:19.000Z</time>
      </trkpt>
      <trkpt lat="43.92306" lon="7.17247">
        <ele>485.60000610352</ele>
        <time>2019-06-01T08:34:24.000Z</time>
      </trkpt>
      <trkpt lat="43.92304" lon="7.17219">
        <ele>485.79998779297</ele>
        <time>2019-06-01T08:34:31.000Z</time>
      </trkpt>
      <trkpt lat="43.92316" lon="7.17199">
        <ele>486.39999389648</ele>
        <time>2019-06-01T08:34:37.000Z</time>
      </trkpt>
      <trkpt lat="43.92319" lon="7.17196">
        <ele>486.39999389648</ele>
        <time>2019-06-01T08:34:38.000Z</time>
      </trkpt>
      <trkpt lat="43.92333" lon="7.17173">
        <ele>486.39999389648</ele>
        <time>2019-06-01T08:34:45.000Z</time>
      </trkpt>
      <trkpt lat="43.92347" lon="7.17143">
        <ele>485.79998779297</ele>
        <time>2019-06-01T08:34:51.000Z</time>
      </trkpt>
      <trkpt lat="43.92351" lon="7.1713">
        <ele>485.39999389648</ele>
        <time>2019-06-01T08:34:53.000Z</time>
      </trkpt>
      <trkpt lat="43.92357" lon="7.17105">
        <ele>484.20001220703</ele>
        <time>2019-06-01T08:34:57.000Z</time>
      </trkpt>
      <trkpt lat="43.92359" lon="7.17092">
        <ele>484.20001220703</ele>
        <time>2019-06-01T08:34:59.000Z</time>
      </trkpt>
      <trkpt lat="43.92361" lon="7.17067">
        <ele>484</ele>
        <time>2019-06-01T08:35:03.000Z</time>
      </trkpt>
      <trkpt lat="43.92359" lon="7.1705">
        <ele>484</ele>
        <time>2019-06-01T08:35:06.000Z</time>
      </trkpt>
      <trkpt lat="43.92355" lon="7.17035">
        <ele>484.39999389648</ele>
        <time>2019-06-01T08:35:09.000Z</time>
      </trkpt>
      <trkpt lat="43.92348" lon="7.1702">
        <ele>484.60000610352</ele>
        <time>2019-06-01T08:35:12.000Z</time>
      </trkpt>
      <trkpt lat="43.92345" lon="7.1701">
        <ele>484.79998779297</ele>
        <time>2019-06-01T08:35:14.000Z</time>
      </trkpt>
      <trkpt lat="43.92342" lon="7.16993">
        <ele>484.39999389648</ele>
        <time>2019-06-01T08:35:18.000Z</time>
      </trkpt>
      <trkpt lat="43.92344" lon="7.16986">
        <ele>484.20001220703</ele>
        <time>2019-06-01T08:35:22.000Z</time>
      </trkpt>
      <trkpt lat="43.92349" lon="7.16977">
        <ele>484.60000610352</ele>
        <time>2019-06-01T08:35:28.000Z</time>
      </trkpt>
      <trkpt lat="43.92355" lon="7.16966">
        <ele>485.20001220703</ele>
        <time>2019-06-01T08:35:33.000Z</time>
      </trkpt>
      <trkpt lat="43.92357" lon="7.16964">
        <ele>485.39999389648</ele>
        <time>2019-06-01T08:35:34.000Z</time>
      </trkpt>
      <trkpt lat="43.92364" lon="7.16956">
        <ele>486.39999389648</ele>
        <time>2019-06-01T08:35:39.000Z</time>
      </trkpt>
      <trkpt lat="43.92373" lon="7.1695">
        <ele>486.79998779297</ele>
        <time>2019-06-01T08:35:44.000Z</time>
      </trkpt>
      <trkpt lat="43.9238" lon="7.16943">
        <ele>487.39999389648</ele>
        <time>2019-06-01T08:35:48.000Z</time>
      </trkpt>
      <trkpt lat="43.92387" lon="7.16935">
        <ele>488</ele>
        <time>2019-06-01T08:35:52.000Z</time>
      </trkpt>
      <trkpt lat="43.92391" lon="7.16931">
        <ele>488.79998779297</ele>
        <time>2019-06-01T08:35:55.000Z</time>
      </trkpt>
      <trkpt lat="43.92397" lon="7.16923">
        <ele>489.39999389648</ele>
        <time>2019-06-01T08:36:00.000Z</time>
      </trkpt>
      <trkpt lat="43.92403" lon="7.16917">
        <ele>490</ele>
        <time>2019-06-01T08:36:04.000Z</time>
      </trkpt>
      <trkpt lat="43.92405" lon="7.16914">
        <ele>490.39999389648</ele>
        <time>2019-06-01T08:36:06.000Z</time>
      </trkpt>
      <trkpt lat="43.92411" lon="7.16908">
        <ele>491</ele>
        <time>2019-06-01T08:36:09.000Z</time>
      </trkpt>
      <trkpt lat="43.9242" lon="7.16897">
        <ele>491.20001220703</ele>
        <time>2019-06-01T08:36:14.000Z</time>
      </trkpt>
      <trkpt lat="43.92426" lon="7.16889">
        <ele>492</ele>
        <time>2019-06-01T08:36:18.000Z</time>
      </trkpt>
      <trkpt lat="43.92434" lon="7.16877">
        <ele>493</ele>
        <time>2019-06-01T08:36:24.000Z</time>
      </trkpt>
      <trkpt lat="43.92435" lon="7.16875">
        <ele>493.20001220703</ele>
        <time>2019-06-01T08:36:25.000Z</time>
      </trkpt>
      <trkpt lat="43.92444" lon="7.16862">
        <ele>494.20001220703</ele>
        <time>2019-06-01T08:36:31.000Z</time>
      </trkpt>
      <trkpt lat="43.92445" lon="7.16859">
        <ele>494.20001220703</ele>
        <time>2019-06-01T08:36:32.000Z</time>
      </trkpt>
      <trkpt lat="43.92455" lon="7.16847">
        <ele>495.20001220703</ele>
        <time>2019-06-01T08:36:40.000Z</time>
      </trkpt>
      <trkpt lat="43.92457" lon="7.16847">
        <ele>495.39999389648</ele>
        <time>2019-06-01T08:36:41.000Z</time>
      </trkpt>
      <trkpt lat="43.9246" lon="7.16851">
        <ele>495.60000610352</ele>
        <time>2019-06-01T08:36:44.000Z</time>
      </trkpt>
      <trkpt lat="43.92458" lon="7.16858">
        <ele>496.20001220703</ele>
        <time>2019-06-01T08:36:47.000Z</time>
      </trkpt>
      <trkpt lat="43.92456" lon="7.1686">
        <ele>496.39999389648</ele>
        <time>2019-06-01T08:36:48.000Z</time>
      </trkpt>
      <trkpt lat="43.92447" lon="7.16871">
        <ele>497</ele>
        <time>2019-06-01T08:36:55.000Z</time>
      </trkpt>
      <trkpt lat="43.92444" lon="7.16876">
        <ele>497.20001220703</ele>
        <time>2019-06-01T08:36:57.000Z</time>
      </trkpt>
      <trkpt lat="43.9244" lon="7.16888">
        <ele>498</ele>
        <time>2019-06-01T08:37:02.000Z</time>
      </trkpt>
      <trkpt lat="43.92439" lon="7.16893">
        <ele>498.39999389648</ele>
        <time>2019-06-01T08:37:04.000Z</time>
      </trkpt>
      <trkpt lat="43.92432" lon="7.16909">
        <ele>499.39999389648</ele>
        <time>2019-06-01T08:37:11.000Z</time>
      </trkpt>
      <trkpt lat="43.9243" lon="7.16913">
        <ele>499.60000610352</ele>
        <time>2019-06-01T08:37:13.000Z</time>
      </trkpt>
      <trkpt lat="43.92425" lon="7.1692">
        <ele>500.39999389648</ele>
        <time>2019-06-01T08:37:17.000Z</time>
      </trkpt>
      <trkpt lat="43.92422" lon="7.16925">
        <ele>501</ele>
        <time>2019-06-01T08:37:20.000Z</time>
      </trkpt>
      <trkpt lat="43.9242" lon="7.16928">
        <ele>501.39999389648</ele>
        <time>2019-06-01T08:37:22.000Z</time>
      </trkpt>
      <trkpt lat="43.92412" lon="7.16938">
        <ele>502</ele>
        <time>2019-06-01T08:37:28.000Z</time>
      </trkpt>
      <trkpt lat="43.92408" lon="7.16944">
        <ele>502.39999389648</ele>
        <time>2019-06-01T08:37:31.000Z</time>
      </trkpt>
      <trkpt lat="43.92402" lon="7.16952">
        <ele>503.20001220703</ele>
        <time>2019-06-01T08:37:36.000Z</time>
      </trkpt>
      <trkpt lat="43.924" lon="7.16955">
        <ele>503.39999389648</ele>
        <time>2019-06-01T08:37:38.000Z</time>
      </trkpt>
      <trkpt lat="43.92395" lon="7.16963">
        <ele>503.79998779297</ele>
        <time>2019-06-01T08:37:42.000Z</time>
      </trkpt>
      <trkpt lat="43.92389" lon="7.16971">
        <ele>504.39999389648</ele>
        <time>2019-06-01T08:37:46.000Z</time>
      </trkpt>
      <trkpt lat="43.92386" lon="7.16977">
        <ele>504.79998779297</ele>
        <time>2019-06-01T08:37:49.000Z</time>
      </trkpt>
      <trkpt lat="43.92383" lon="7.16985">
        <ele>505.60000610352</ele>
        <time>2019-06-01T08:37:53.000Z</time>
      </trkpt>
      <trkpt lat="43.92381" lon="7.16993">
        <ele>506</ele>
        <time>2019-06-01T08:37:56.000Z</time>
      </trkpt>
      <trkpt lat="43.92381" lon="7.17006">
        <ele>506.60000610352</ele>
        <time>2019-06-01T08:38:01.000Z</time>
      </trkpt>
      <trkpt lat="43.92382" lon="7.17013">
        <ele>507.39999389648</ele>
        <time>2019-06-01T08:38:04.000Z</time>
      </trkpt>
      <trkpt lat="43.92382" lon="7.17018">
        <ele>507.79998779297</ele>
        <time>2019-06-01T08:38:06.000Z</time>
      </trkpt>
      <trkpt lat="43.92384" lon="7.17031">
        <ele>508.39999389648</ele>
        <time>2019-06-01T08:38:11.000Z</time>
      </trkpt>
      <trkpt lat="43.92384" lon="7.17039">
        <ele>508.79998779297</ele>
        <time>2019-06-01T08:38:14.000Z</time>
      </trkpt>
      <trkpt lat="43.92386" lon="7.17049">
        <ele>509.60000610352</ele>
        <time>2019-06-01T08:38:18.000Z</time>
      </trkpt>
      <trkpt lat="43.92386" lon="7.17057">
        <ele>509.79998779297</ele>
        <time>2019-06-01T08:38:21.000Z</time>
      </trkpt>
      <trkpt lat="43.92388" lon="7.1707">
        <ele>510.20001220703</ele>
        <time>2019-06-01T08:38:26.000Z</time>
      </trkpt>
      <trkpt lat="43.92388" lon="7.17081">
        <ele>511</ele>
        <time>2019-06-01T08:38:31.000Z</time>
      </trkpt>
      <trkpt lat="43.92389" lon="7.17083">
        <ele>511.20001220703</ele>
        <time>2019-06-01T08:38:32.000Z</time>
      </trkpt>
      <trkpt lat="43.92391" lon="7.17085">
        <ele>511.39999389648</ele>
        <time>2019-06-01T08:38:34.000Z</time>
      </trkpt>
      <trkpt lat="43.92395" lon="7.17083">
        <ele>511.60000610352</ele>
        <time>2019-06-01T08:38:37.000Z</time>
      </trkpt>
      <trkpt lat="43.92396" lon="7.17076">
        <ele>512</ele>
        <time>2019-06-01T08:38:40.000Z</time>
      </trkpt>
      <trkpt lat="43.92395" lon="7.17072">
        <ele>512.40002441406</ele>
        <time>2019-06-01T08:38:42.000Z</time>
      </trkpt>
      <trkpt lat="43.92394" lon="7.17058">
        <ele>513.20001220703</ele>
        <time>2019-06-01T08:38:48.000Z</time>
      </trkpt>
      <trkpt lat="43.92393" lon="7.1705">
        <ele>513.59997558594</ele>
        <time>2019-06-01T08:38:51.000Z</time>
      </trkpt>
      <trkpt lat="43.92392" lon="7.17037">
        <ele>514.20001220703</ele>
        <time>2019-06-01T08:38:56.000Z</time>
      </trkpt>
      <trkpt lat="43.92391" lon="7.1703">
        <ele>514.40002441406</ele>
        <time>2019-06-01T08:38:59.000Z</time>
      </trkpt>
      <trkpt lat="43.92391" lon="7.1702">
        <ele>515.20001220703</ele>
        <time>2019-06-01T08:39:03.000Z</time>
      </trkpt>
      <trkpt lat="43.92392" lon="7.17007">
        <ele>516</ele>
        <time>2019-06-01T08:39:08.000Z</time>
      </trkpt>
      <trkpt lat="43.92393" lon="7.17003">
        <ele>516.40002441406</ele>
        <time>2019-06-01T08:39:10.000Z</time>
      </trkpt>
      <trkpt lat="43.92397" lon="7.16995">
        <ele>517.20001220703</ele>
        <time>2019-06-01T08:39:15.000Z</time>
      </trkpt>
      <trkpt lat="43.924" lon="7.1699">
        <ele>517.59997558594</ele>
        <time>2019-06-01T08:39:18.000Z</time>
      </trkpt>
      <trkpt lat="43.92407" lon="7.16982">
        <ele>518.40002441406</ele>
        <time>2019-06-01T08:39:24.000Z</time>
      </trkpt>
      <trkpt lat="43.9241" lon="7.1698">
        <ele>518.59997558594</ele>
        <time>2019-06-01T08:39:26.000Z</time>
      </trkpt>
      <trkpt lat="43.92419" lon="7.16973">
        <ele>519.79998779297</ele>
        <time>2019-06-01T08:39:32.000Z</time>
      </trkpt>
      <trkpt lat="43.92432" lon="7.16965">
        <ele>520.79998779297</ele>
        <time>2019-06-01T08:39:40.000Z</time>
      </trkpt>
      <trkpt lat="43.92434" lon="7.16964">
        <ele>520.79998779297</ele>
        <time>2019-06-01T08:39:41.000Z</time>
      </trkpt>
      <trkpt lat="43.92443" lon="7.1696">
        <ele>521.79998779297</ele>
        <time>2019-06-01T08:39:46.000Z</time>
      </trkpt>
      <trkpt lat="43.9245" lon="7.16957">
        <ele>522.59997558594</ele>
        <time>2019-06-01T08:39:50.000Z</time>
      </trkpt>
      <trkpt lat="43.92453" lon="7.16956">
        <ele>522.79998779297</ele>
        <time>2019-06-01T08:39:52.000Z</time>
      </trkpt>
      <trkpt lat="43.92465" lon="7.16951">
        <ele>524</ele>
        <time>2019-06-01T08:39:59.000Z</time>
      </trkpt>
      <trkpt lat="43.92477" lon="7.16947">
        <ele>524.79998779297</ele>
        <time>2019-06-01T08:40:06.000Z</time>
      </trkpt>
      <trkpt lat="43.92478" lon="7.16945">
        <ele>525.20001220703</ele>
        <time>2019-06-01T08:40:07.000Z</time>
      </trkpt>
      <trkpt lat="43.92485" lon="7.16934">
        <ele>526</ele>
        <time>2019-06-01T08:40:12.000Z</time>
      </trkpt>
      <trkpt lat="43.92488" lon="7.16931">
        <ele>526.20001220703</ele>
        <time>2019-06-01T08:40:14.000Z</time>
      </trkpt>
      <trkpt lat="43.92493" lon="7.16924">
        <ele>526.79998779297</ele>
        <time>2019-06-01T08:40:18.000Z</time>
      </trkpt>
      <trkpt lat="43.92498" lon="7.16917">
        <ele>527.40002441406</ele>
        <time>2019-06-01T08:40:22.000Z</time>
      </trkpt>
      <trkpt lat="43.925" lon="7.16914">
        <ele>527.79998779297</ele>
        <time>2019-06-01T08:40:24.000Z</time>
      </trkpt>
      <trkpt lat="43.92504" lon="7.16906">
        <ele>528.40002441406</ele>
        <time>2019-06-01T08:40:28.000Z</time>
      </trkpt>
      <trkpt lat="43.92506" lon="7.16902">
        <ele>528.59997558594</ele>
        <time>2019-06-01T08:40:30.000Z</time>
      </trkpt>
      <trkpt lat="43.92513" lon="7.16888">
        <ele>529.40002441406</ele>
        <time>2019-06-01T08:40:37.000Z</time>
      </trkpt>
      <trkpt lat="43.92514" lon="7.16886">
        <ele>529.59997558594</ele>
        <time>2019-06-01T08:40:38.000Z</time>
      </trkpt>
      <trkpt lat="43.92521" lon="7.16874">
        <ele>530.79998779297</ele>
        <time>2019-06-01T08:40:45.000Z</time>
      </trkpt>
      <trkpt lat="43.9253" lon="7.16866">
        <ele>531.79998779297</ele>
        <time>2019-06-01T08:40:52.000Z</time>
      </trkpt>
      <trkpt lat="43.92531" lon="7.16865">
        <ele>531.79998779297</ele>
        <time>2019-06-01T08:40:53.000Z</time>
      </trkpt>
      <trkpt lat="43.92538" lon="7.16859">
        <ele>532.59997558594</ele>
        <time>2019-06-01T08:40:59.000Z</time>
      </trkpt>
      <trkpt lat="43.9254" lon="7.16859">
        <ele>533</ele>
        <time>2019-06-01T08:41:00.000Z</time>
      </trkpt>
      <trkpt lat="43.92548" lon="7.16855">
        <ele>533.79998779297</ele>
        <time>2019-06-01T08:41:06.000Z</time>
      </trkpt>
      <trkpt lat="43.92551" lon="7.16855">
        <ele>534.20001220703</ele>
        <time>2019-06-01T08:41:08.000Z</time>
      </trkpt>
      <trkpt lat="43.9256" lon="7.16852">
        <ele>535</ele>
        <time>2019-06-01T08:41:14.000Z</time>
      </trkpt>
      <trkpt lat="43.92564" lon="7.1685">
        <ele>535.40002441406</ele>
        <time>2019-06-01T08:41:17.000Z</time>
      </trkpt>
      <trkpt lat="43.92569" lon="7.16845">
        <ele>536</ele>
        <time>2019-06-01T08:41:21.000Z</time>
      </trkpt>
      <trkpt lat="43.92575" lon="7.16837">
        <ele>536.40002441406</ele>
        <time>2019-06-01T08:41:26.000Z</time>
      </trkpt>
      <trkpt lat="43.92577" lon="7.16834">
        <ele>536.79998779297</ele>
        <time>2019-06-01T08:41:28.000Z</time>
      </trkpt>
      <trkpt lat="43.92582" lon="7.16824">
        <ele>537.59997558594</ele>
        <time>2019-06-01T08:41:34.000Z</time>
      </trkpt>
      <trkpt lat="43.92583" lon="7.16822">
        <ele>537.59997558594</ele>
        <time>2019-06-01T08:41:35.000Z</time>
      </trkpt>
      <trkpt lat="43.92587" lon="7.16812">
        <ele>538.59997558594</ele>
        <time>2019-06-01T08:41:40.000Z</time>
      </trkpt>
      <trkpt lat="43.92588" lon="7.16809">
        <ele>538.59997558594</ele>
        <time>2019-06-01T08:41:41.000Z</time>
      </trkpt>
      <trkpt lat="43.92593" lon="7.16794">
        <ele>539.40002441406</ele>
        <time>2019-06-01T08:41:48.000Z</time>
      </trkpt>
      <trkpt lat="43.92594" lon="7.16793">
        <ele>539.59997558594</ele>
        <time>2019-06-01T08:41:49.000Z</time>
      </trkpt>
      <trkpt lat="43.92595" lon="7.16791">
        <ele>540</ele>
        <time>2019-06-01T08:41:51.000Z</time>
      </trkpt>
      <trkpt lat="43.92596" lon="7.16791">
        <ele>540.40002441406</ele>
        <time>2019-06-01T08:41:54.000Z</time>
      </trkpt>
      <trkpt lat="43.92597" lon="7.16789">
        <ele>540.59997558594</ele>
        <time>2019-06-01T08:42:01.000Z</time>
      </trkpt>
      <trkpt lat="43.92597" lon="7.16788">
        <ele>540.59997558594</ele>
        <time>2019-06-01T08:42:04.000Z</time>
      </trkpt>
      <trkpt lat="43.92597" lon="7.16787">
        <ele>540.40002441406</ele>
        <time>2019-06-01T08:42:08.000Z</time>
      </trkpt>
      <trkpt lat="43.92598" lon="7.16787">
        <ele>540.79998779297</ele>
        <time>2019-06-01T08:42:15.000Z</time>
      </trkpt>
      <trkpt lat="43.92598" lon="7.16786">
        <ele>541.20001220703</ele>
        <time>2019-06-01T08:42:20.000Z</time>
      </trkpt>
      <trkpt lat="43.926" lon="7.16782">
        <ele>541.59997558594</ele>
        <time>2019-06-01T08:42:27.000Z</time>
      </trkpt>
      <trkpt lat="43.926" lon="7.16781">
        <ele>541.79998779297</ele>
        <time>2019-06-01T08:42:28.000Z</time>
      </trkpt>
      <trkpt lat="43.92602" lon="7.16773">
        <ele>541.59997558594</ele>
        <time>2019-06-01T08:42:35.000Z</time>
      </trkpt>
      <trkpt lat="43.92602" lon="7.16772">
        <ele>542</ele>
        <time>2019-06-01T08:42:42.000Z</time>
      </trkpt>
      <trkpt lat="43.92603" lon="7.16767">
        <ele>542</ele>
        <time>2019-06-01T08:42:54.000Z</time>
      </trkpt>
      <trkpt lat="43.92605" lon="7.1676">
        <ele>542.40002441406</ele>
        <time>2019-06-01T08:43:01.000Z</time>
      </trkpt>
      <trkpt lat="43.92606" lon="7.16758">
        <ele>542.79998779297</ele>
        <time>2019-06-01T08:43:06.000Z</time>
      </trkpt>
      <trkpt lat="43.92606" lon="7.16757">
        <ele>542.79998779297</ele>
        <time>2019-06-01T08:43:08.000Z</time>
      </trkpt>
      <trkpt lat="43.92607" lon="7.16754">
        <ele>542.79998779297</ele>
        <time>2019-06-01T08:43:13.000Z</time>
      </trkpt>
      <trkpt lat="43.92609" lon="7.16748">
        <ele>542.79998779297</ele>
        <time>2019-06-01T08:43:17.000Z</time>
      </trkpt>
      <trkpt lat="43.9261" lon="7.16741">
        <ele>543.20001220703</ele>
        <time>2019-06-01T08:43:20.000Z</time>
      </trkpt>
      <trkpt lat="43.92607" lon="7.16726">
        <ele>543.79998779297</ele>
        <time>2019-06-01T08:43:26.000Z</time>
      </trkpt>
      <trkpt lat="43.92607" lon="7.16724">
        <ele>544</ele>
        <time>2019-06-01T08:43:27.000Z</time>
      </trkpt>
      <trkpt lat="43.92609" lon="7.16708">
        <ele>545</ele>
        <time>2019-06-01T08:43:34.000Z</time>
      </trkpt>
      <trkpt lat="43.92616" lon="7.16696">
        <ele>546</ele>
        <time>2019-06-01T08:43:41.000Z</time>
      </trkpt>
      <trkpt lat="43.92617" lon="7.16694">
        <ele>546.20001220703</ele>
        <time>2019-06-01T08:43:42.000Z</time>
      </trkpt>
      <trkpt lat="43.92621" lon="7.16689">
        <ele>546.79998779297</ele>
        <time>2019-06-01T08:43:46.000Z</time>
      </trkpt>
      <trkpt lat="43.92623" lon="7.16684">
        <ele>547.20001220703</ele>
        <time>2019-06-01T08:43:49.000Z</time>
      </trkpt>
      <trkpt lat="43.92627" lon="7.16678">
        <ele>547.40002441406</ele>
        <time>2019-06-01T08:43:52.000Z</time>
      </trkpt>
      <trkpt lat="43.92642" lon="7.16657">
        <ele>548.40002441406</ele>
        <time>2019-06-01T08:44:02.000Z</time>
      </trkpt>
      <trkpt lat="43.92649" lon="7.16647">
        <ele>549</ele>
        <time>2019-06-01T08:44:07.000Z</time>
      </trkpt>
      <trkpt lat="43.92651" lon="7.16642">
        <ele>549.59997558594</ele>
        <time>2019-06-01T08:44:09.000Z</time>
      </trkpt>
      <trkpt lat="43.92655" lon="7.16632">
        <ele>550</ele>
        <time>2019-06-01T08:44:13.000Z</time>
      </trkpt>
      <trkpt lat="43.92657" lon="7.16624">
        <ele>550.59997558594</ele>
        <time>2019-06-01T08:44:17.000Z</time>
      </trkpt>
      <trkpt lat="43.92657" lon="7.16622">
        <ele>551</ele>
        <time>2019-06-01T08:44:18.000Z</time>
      </trkpt>
      <trkpt lat="43.92659" lon="7.16611">
        <ele>551.79998779297</ele>
        <time>2019-06-01T08:44:23.000Z</time>
      </trkpt>
      <trkpt lat="43.92659" lon="7.16608">
        <ele>551.79998779297</ele>
        <time>2019-06-01T08:44:24.000Z</time>
      </trkpt>
      <trkpt lat="43.92664" lon="7.16591">
        <ele>552.79998779297</ele>
        <time>2019-06-01T08:44:31.000Z</time>
      </trkpt>
      <trkpt lat="43.92665" lon="7.16588">
        <ele>553</ele>
        <time>2019-06-01T08:44:32.000Z</time>
      </trkpt>
      <trkpt lat="43.92667" lon="7.16579">
        <ele>553.79998779297</ele>
        <time>2019-06-01T08:44:36.000Z</time>
      </trkpt>
      <trkpt lat="43.9267" lon="7.1657">
        <ele>554.59997558594</ele>
        <time>2019-06-01T08:44:40.000Z</time>
      </trkpt>
      <trkpt lat="43.92671" lon="7.16563">
        <ele>555</ele>
        <time>2019-06-01T08:44:43.000Z</time>
      </trkpt>
      <trkpt lat="43.92672" lon="7.16552">
        <ele>556</ele>
        <time>2019-06-01T08:44:47.000Z</time>
      </trkpt>
      <trkpt lat="43.92676" lon="7.16535">
        <ele>557</ele>
        <time>2019-06-01T08:44:54.000Z</time>
      </trkpt>
      <trkpt lat="43.92677" lon="7.16534">
        <ele>557.40002441406</ele>
        <time>2019-06-01T08:44:55.000Z</time>
      </trkpt>
      <trkpt lat="43.92679" lon="7.16524">
        <ele>558.40002441406</ele>
        <time>2019-06-01T08:45:00.000Z</time>
      </trkpt>
      <trkpt lat="43.92681" lon="7.16513">
        <ele>559.40002441406</ele>
        <time>2019-06-01T08:45:05.000Z</time>
      </trkpt>
      <trkpt lat="43.92681" lon="7.1651">
        <ele>559.59997558594</ele>
        <time>2019-06-01T08:45:06.000Z</time>
      </trkpt>
      <trkpt lat="43.92684" lon="7.16495">
        <ele>560.40002441406</ele>
        <time>2019-06-01T08:45:13.000Z</time>
      </trkpt>
      <trkpt lat="43.92685" lon="7.16488">
        <ele>560.79998779297</ele>
        <time>2019-06-01T08:45:16.000Z</time>
      </trkpt>
      <trkpt lat="43.92687" lon="7.16481">
        <ele>561.40002441406</ele>
        <time>2019-06-01T08:45:19.000Z</time>
      </trkpt>
      <trkpt lat="43.92691" lon="7.16468">
        <ele>562.59997558594</ele>
        <time>2019-06-01T08:45:25.000Z</time>
      </trkpt>
      <trkpt lat="43.92695" lon="7.16451">
        <ele>563.59997558594</ele>
        <time>2019-06-01T08:45:32.000Z</time>
      </trkpt>
      <trkpt lat="43.92696" lon="7.16448">
        <ele>563.59997558594</ele>
        <time>2019-06-01T08:45:33.000Z</time>
      </trkpt>
      <trkpt lat="43.927" lon="7.1643">
        <ele>564.79998779297</ele>
        <time>2019-06-01T08:45:40.000Z</time>
      </trkpt>
      <trkpt lat="43.92703" lon="7.1642">
        <ele>565.79998779297</ele>
        <time>2019-06-01T08:45:45.000Z</time>
      </trkpt>
      <trkpt lat="43.92705" lon="7.16415">
        <ele>566.20001220703</ele>
        <time>2019-06-01T08:45:47.000Z</time>
      </trkpt>
      <trkpt lat="43.92708" lon="7.16408">
        <ele>566.79998779297</ele>
        <time>2019-06-01T08:45:51.000Z</time>
      </trkpt>
      <trkpt lat="43.92711" lon="7.16398">
        <ele>567.59997558594</ele>
        <time>2019-06-01T08:45:56.000Z</time>
      </trkpt>
      <trkpt lat="43.92712" lon="7.16395">
        <ele>568</ele>
        <time>2019-06-01T08:45:58.000Z</time>
      </trkpt>
      <trkpt lat="43.92717" lon="7.16385">
        <ele>569</ele>
        <time>2019-06-01T08:46:04.000Z</time>
      </trkpt>
      <trkpt lat="43.92721" lon="7.16374">
        <ele>570.20001220703</ele>
        <time>2019-06-01T08:46:11.000Z</time>
      </trkpt>
      <trkpt lat="43.92722" lon="7.16372">
        <ele>570.40002441406</ele>
        <time>2019-06-01T08:46:12.000Z</time>
      </trkpt>
      <trkpt lat="43.92724" lon="7.16366">
        <ele>571.20001220703</ele>
        <time>2019-06-01T08:46:16.000Z</time>
      </trkpt>
      <trkpt lat="43.92725" lon="7.16361">
        <ele>571.79998779297</ele>
        <time>2019-06-01T08:46:19.000Z</time>
      </trkpt>
      <trkpt lat="43.92726" lon="7.16354">
        <ele>572.40002441406</ele>
        <time>2019-06-01T08:46:23.000Z</time>
      </trkpt>
      <trkpt lat="43.92726" lon="7.16351">
        <ele>572.79998779297</ele>
        <time>2019-06-01T08:46:25.000Z</time>
      </trkpt>
      <trkpt lat="43.92727" lon="7.16338">
        <ele>573.40002441406</ele>
        <time>2019-06-01T08:46:31.000Z</time>
      </trkpt>
      <trkpt lat="43.92728" lon="7.16325">
        <ele>574.40002441406</ele>
        <time>2019-06-01T08:46:38.000Z</time>
      </trkpt>
      <trkpt lat="43.92725" lon="7.16312">
        <ele>575.20001220703</ele>
        <time>2019-06-01T08:46:45.000Z</time>
      </trkpt>
      <trkpt lat="43.92725" lon="7.16307">
        <ele>575.40002441406</ele>
        <time>2019-06-01T08:46:47.000Z</time>
      </trkpt>
      <trkpt lat="43.92723" lon="7.16297">
        <ele>576.20001220703</ele>
        <time>2019-06-01T08:46:52.000Z</time>
      </trkpt>
      <trkpt lat="43.92722" lon="7.16293">
        <ele>576.40002441406</ele>
        <time>2019-06-01T08:46:54.000Z</time>
      </trkpt>
      <trkpt lat="43.92721" lon="7.16284">
        <ele>577.20001220703</ele>
        <time>2019-06-01T08:46:59.000Z</time>
      </trkpt>
      <trkpt lat="43.92721" lon="7.1628">
        <ele>577.59997558594</ele>
        <time>2019-06-01T08:47:01.000Z</time>
      </trkpt>
      <trkpt lat="43.92722" lon="7.16269">
        <ele>578.40002441406</ele>
        <time>2019-06-01T08:47:06.000Z</time>
      </trkpt>
      <trkpt lat="43.92723" lon="7.16268">
        <ele>578.59997558594</ele>
        <time>2019-06-01T08:47:07.000Z</time>
      </trkpt>
      <trkpt lat="43.92728" lon="7.16261">
        <ele>579.20001220703</ele>
        <time>2019-06-01T08:47:12.000Z</time>
      </trkpt>
      <trkpt lat="43.9273" lon="7.1626">
        <ele>579.79998779297</ele>
        <time>2019-06-01T08:47:14.000Z</time>
      </trkpt>
      <trkpt lat="43.92738" lon="7.16256">
        <ele>580.59997558594</ele>
        <time>2019-06-01T08:47:20.000Z</time>
      </trkpt>
      <trkpt lat="43.92739" lon="7.16256">
        <ele>580.79998779297</ele>
        <time>2019-06-01T08:47:21.000Z</time>
      </trkpt>
      <trkpt lat="43.92746" lon="7.16253">
        <ele>581.40002441406</ele>
        <time>2019-06-01T08:47:26.000Z</time>
      </trkpt>
      <trkpt lat="43.92751" lon="7.1625">
        <ele>582</ele>
        <time>2019-06-01T08:47:30.000Z</time>
      </trkpt>
      <trkpt lat="43.92756" lon="7.16247">
        <ele>582.40002441406</ele>
        <time>2019-06-01T08:47:33.000Z</time>
      </trkpt>
      <trkpt lat="43.92762" lon="7.16242">
        <ele>583</ele>
        <time>2019-06-01T08:47:38.000Z</time>
      </trkpt>
      <trkpt lat="43.92765" lon="7.16239">
        <ele>583.20001220703</ele>
        <time>2019-06-01T08:47:40.000Z</time>
      </trkpt>
      <trkpt lat="43.92774" lon="7.1623">
        <ele>583.79998779297</ele>
        <time>2019-06-01T08:47:47.000Z</time>
      </trkpt>
      <trkpt lat="43.92776" lon="7.16227">
        <ele>584.20001220703</ele>
        <time>2019-06-01T08:47:49.000Z</time>
      </trkpt>
      <trkpt lat="43.92784" lon="7.16217">
        <ele>585.20001220703</ele>
        <time>2019-06-01T08:47:56.000Z</time>
      </trkpt>
      <trkpt lat="43.92791" lon="7.16206">
        <ele>586</ele>
        <time>2019-06-01T08:48:03.000Z</time>
      </trkpt>
      <trkpt lat="43.92792" lon="7.16204">
        <ele>586.20001220703</ele>
        <time>2019-06-01T08:48:04.000Z</time>
      </trkpt>
      <trkpt lat="43.92799" lon="7.1619">
        <ele>587.20001220703</ele>
        <time>2019-06-01T08:48:12.000Z</time>
      </trkpt>
      <trkpt lat="43.928" lon="7.16189">
        <ele>587.20001220703</ele>
        <time>2019-06-01T08:48:13.000Z</time>
      </trkpt>
      <trkpt lat="43.92808" lon="7.16181">
        <ele>588.20001220703</ele>
        <time>2019-06-01T08:48:19.000Z</time>
      </trkpt>
      <trkpt lat="43.92818" lon="7.16176">
        <ele>589.20001220703</ele>
        <time>2019-06-01T08:48:25.000Z</time>
      </trkpt>
      <trkpt lat="43.9282" lon="7.16176">
        <ele>589.40002441406</ele>
        <time>2019-06-01T08:48:26.000Z</time>
      </trkpt>
      <trkpt lat="43.92833" lon="7.16177">
        <ele>590.40002441406</ele>
        <time>2019-06-01T08:48:34.000Z</time>
      </trkpt>
      <trkpt lat="43.92841" lon="7.1618">
        <ele>591.20001220703</ele>
        <time>2019-06-01T08:48:39.000Z</time>
      </trkpt>
      <trkpt lat="43.92843" lon="7.16181">
        <ele>591.40002441406</ele>
        <time>2019-06-01T08:48:41.000Z</time>
      </trkpt>
      <trkpt lat="43.92851" lon="7.16183">
        <ele>592</ele>
        <time>2019-06-01T08:48:47.000Z</time>
      </trkpt>
      <trkpt lat="43.92856" lon="7.16185">
        <ele>592.40002441406</ele>
        <time>2019-06-01T08:48:51.000Z</time>
      </trkpt>
      <trkpt lat="43.92859" lon="7.16185">
        <ele>592.79998779297</ele>
        <time>2019-06-01T08:48:53.000Z</time>
      </trkpt>
      <trkpt lat="43.92868" lon="7.16189">
        <ele>593.59997558594</ele>
        <time>2019-06-01T08:49:00.000Z</time>
      </trkpt>
      <trkpt lat="43.92881" lon="7.16194">
        <ele>594.59997558594</ele>
        <time>2019-06-01T08:49:09.000Z</time>
      </trkpt>
      <trkpt lat="43.92882" lon="7.16194">
        <ele>594.79998779297</ele>
        <time>2019-06-01T08:49:10.000Z</time>
      </trkpt>
      <trkpt lat="43.92895" lon="7.16194">
        <ele>595.79998779297</ele>
        <time>2019-06-01T08:49:18.000Z</time>
      </trkpt>
      <trkpt lat="43.92896" lon="7.16194">
        <ele>595.79998779297</ele>
        <time>2019-06-01T08:49:19.000Z</time>
      </trkpt>
      <trkpt lat="43.92906" lon="7.16191">
        <ele>596.79998779297</ele>
        <time>2019-06-01T08:49:26.000Z</time>
      </trkpt>
      <trkpt lat="43.92917" lon="7.16187">
        <ele>597.79998779297</ele>
        <time>2019-06-01T08:49:34.000Z</time>
      </trkpt>
      <trkpt lat="43.9293" lon="7.16181">
        <ele>599.20001220703</ele>
        <time>2019-06-01T08:49:43.000Z</time>
      </trkpt>
      <trkpt lat="43.92943" lon="7.16174">
        <ele>600.20001220703</ele>
        <time>2019-06-01T08:49:51.000Z</time>
      </trkpt>
      <trkpt lat="43.92953" lon="7.16172">
        <ele>601.20001220703</ele>
        <time>2019-06-01T08:49:57.000Z</time>
      </trkpt>
      <trkpt lat="43.92956" lon="7.16172">
        <ele>601.59997558594</ele>
        <time>2019-06-01T08:49:59.000Z</time>
      </trkpt>
      <trkpt lat="43.92967" lon="7.1617">
        <ele>602</ele>
        <time>2019-06-01T08:50:05.000Z</time>
      </trkpt>
      <trkpt lat="43.9297" lon="7.16173">
        <ele>602.20001220703</ele>
        <time>2019-06-01T08:50:07.000Z</time>
      </trkpt>
      <trkpt lat="43.92971" lon="7.16177">
        <ele>602.40002441406</ele>
        <time>2019-06-01T08:50:09.000Z</time>
      </trkpt>
      <trkpt lat="43.92966" lon="7.16183">
        <ele>602.79998779297</ele>
        <time>2019-06-01T08:50:13.000Z</time>
      </trkpt>
      <trkpt lat="43.92964" lon="7.16183">
        <ele>603.20001220703</ele>
        <time>2019-06-01T08:50:15.000Z</time>
      </trkpt>
      <trkpt lat="43.9296" lon="7.16184">
        <ele>603.59997558594</ele>
        <time>2019-06-01T08:50:18.000Z</time>
      </trkpt>
      <trkpt lat="43.92958" lon="7.16184">
        <ele>604</ele>
        <time>2019-06-01T08:50:20.000Z</time>
      </trkpt>
      <trkpt lat="43.92954" lon="7.16185">
        <ele>604.59997558594</ele>
        <time>2019-06-01T08:50:23.000Z</time>
      </trkpt>
      <trkpt lat="43.92951" lon="7.16186">
        <ele>605</ele>
        <time>2019-06-01T08:50:26.000Z</time>
      </trkpt>
      <trkpt lat="43.92948" lon="7.16187">
        <ele>605</ele>
        <time>2019-06-01T08:50:28.000Z</time>
      </trkpt>
      <trkpt lat="43.92942" lon="7.16188">
        <ele>605.59997558594</ele>
        <time>2019-06-01T08:50:33.000Z</time>
      </trkpt>
      <trkpt lat="43.92931" lon="7.16191">
        <ele>606.40002441406</ele>
        <time>2019-06-01T08:50:41.000Z</time>
      </trkpt>
      <trkpt lat="43.92928" lon="7.16192">
        <ele>606.59997558594</ele>
        <time>2019-06-01T08:50:43.000Z</time>
      </trkpt>
      <trkpt lat="43.9292" lon="7.16196">
        <ele>607.59997558594</ele>
        <time>2019-06-01T08:50:49.000Z</time>
      </trkpt>
      <trkpt lat="43.92919" lon="7.16197">
        <ele>607.59997558594</ele>
        <time>2019-06-01T08:50:50.000Z</time>
      </trkpt>
      <trkpt lat="43.92912" lon="7.16205">
        <ele>608.20001220703</ele>
        <time>2019-06-01T08:50:56.000Z</time>
      </trkpt>
      <trkpt lat="43.92908" lon="7.16208">
        <ele>609</ele>
        <time>2019-06-01T08:51:00.000Z</time>
      </trkpt>
      <trkpt lat="43.92903" lon="7.1621">
        <ele>609.20001220703</ele>
        <time>2019-06-01T08:51:03.000Z</time>
      </trkpt>
      <trkpt lat="43.92897" lon="7.16214">
        <ele>610</ele>
        <time>2019-06-01T08:51:08.000Z</time>
      </trkpt>
      <trkpt lat="43.92893" lon="7.16216">
        <ele>610.40002441406</ele>
        <time>2019-06-01T08:51:11.000Z</time>
      </trkpt>
      <trkpt lat="43.92888" lon="7.16217">
        <ele>611</ele>
        <time>2019-06-01T08:51:15.000Z</time>
      </trkpt>
      <trkpt lat="43.92885" lon="7.16218">
        <ele>611.40002441406</ele>
        <time>2019-06-01T08:51:17.000Z</time>
      </trkpt>
      <trkpt lat="43.92878" lon="7.16223">
        <ele>612</ele>
        <time>2019-06-01T08:51:23.000Z</time>
      </trkpt>
      <trkpt lat="43.92871" lon="7.16225">
        <ele>613</ele>
        <time>2019-06-01T08:51:29.000Z</time>
      </trkpt>
      <trkpt lat="43.92867" lon="7.16225">
        <ele>613.20001220703</ele>
        <time>2019-06-01T08:51:32.000Z</time>
      </trkpt>
      <trkpt lat="43.92863" lon="7.16225">
        <ele>613.59997558594</ele>
        <time>2019-06-01T08:51:35.000Z</time>
      </trkpt>
      <trkpt lat="43.92857" lon="7.16225">
        <ele>614.40002441406</ele>
        <time>2019-06-01T08:51:40.000Z</time>
      </trkpt>
      <trkpt lat="43.92853" lon="7.16225">
        <ele>614.59997558594</ele>
        <time>2019-06-01T08:51:43.000Z</time>
      </trkpt>
      <trkpt lat="43.92845" lon="7.16226">
        <ele>615.40002441406</ele>
        <time>2019-06-01T08:51:48.000Z</time>
      </trkpt>
      <trkpt lat="43.92842" lon="7.16228">
        <ele>615.79998779297</ele>
        <time>2019-06-01T08:51:51.000Z</time>
      </trkpt>
      <trkpt lat="43.92834" lon="7.16232">
        <ele>616.40002441406</ele>
        <time>2019-06-01T08:51:57.000Z</time>
      </trkpt>
      <trkpt lat="43.92833" lon="7.16233">
        <ele>616.59997558594</ele>
        <time>2019-06-01T08:51:58.000Z</time>
      </trkpt>
      <trkpt lat="43.92826" lon="7.16242">
        <ele>617.59997558594</ele>
        <time>2019-06-01T08:52:04.000Z</time>
      </trkpt>
      <trkpt lat="43.92825" lon="7.16244">
        <ele>617.79998779297</ele>
        <time>2019-06-01T08:52:05.000Z</time>
      </trkpt>
      <trkpt lat="43.92821" lon="7.16254">
        <ele>618.40002441406</ele>
        <time>2019-06-01T08:52:10.000Z</time>
      </trkpt>
      <trkpt lat="43.92818" lon="7.16262">
        <ele>618.79998779297</ele>
        <time>2019-06-01T08:52:14.000Z</time>
      </trkpt>
      <trkpt lat="43.92816" lon="7.16267">
        <ele>619.40002441406</ele>
        <time>2019-06-01T08:52:17.000Z</time>
      </trkpt>
      <trkpt lat="43.92814" lon="7.16274">
        <ele>619.79998779297</ele>
        <time>2019-06-01T08:52:21.000Z</time>
      </trkpt>
      <trkpt lat="43.92811" lon="7.16282">
        <ele>620.20001220703</ele>
        <time>2019-06-01T08:52:25.000Z</time>
      </trkpt>
      <trkpt lat="43.92807" lon="7.16291">
        <ele>621</ele>
        <time>2019-06-01T08:52:30.000Z</time>
      </trkpt>
      <trkpt lat="43.92805" lon="7.16296">
        <ele>621.40002441406</ele>
        <time>2019-06-01T08:52:33.000Z</time>
      </trkpt>
      <trkpt lat="43.92802" lon="7.16306">
        <ele>622</ele>
        <time>2019-06-01T08:52:38.000Z</time>
      </trkpt>
      <trkpt lat="43.92801" lon="7.1631">
        <ele>622.20001220703</ele>
        <time>2019-06-01T08:52:40.000Z</time>
      </trkpt>
      <trkpt lat="43.92796" lon="7.16324">
        <ele>623</ele>
        <time>2019-06-01T08:52:47.000Z</time>
      </trkpt>
      <trkpt lat="43.92795" lon="7.1633">
        <ele>623.20001220703</ele>
        <time>2019-06-01T08:52:50.000Z</time>
      </trkpt>
      <trkpt lat="43.92793" lon="7.16343">
        <ele>624</ele>
        <time>2019-06-01T08:52:57.000Z</time>
      </trkpt>
      <trkpt lat="43.92793" lon="7.16348">
        <ele>624.40002441406</ele>
        <time>2019-06-01T08:53:00.000Z</time>
      </trkpt>
      <trkpt lat="43.92792" lon="7.16359">
        <ele>625</ele>
        <time>2019-06-01T08:53:06.000Z</time>
      </trkpt>
      <trkpt lat="43.92792" lon="7.16362">
        <ele>625.20001220703</ele>
        <time>2019-06-01T08:53:08.000Z</time>
      </trkpt>
      <trkpt lat="43.92797" lon="7.16373">
        <ele>626.20001220703</ele>
        <time>2019-06-01T08:53:15.000Z</time>
      </trkpt>
      <trkpt lat="43.92798" lon="7.16375">
        <ele>626.20001220703</ele>
        <time>2019-06-01T08:53:16.000Z</time>
      </trkpt>
      <trkpt lat="43.92802" lon="7.1638">
        <ele>626.79998779297</ele>
        <time>2019-06-01T08:53:21.000Z</time>
      </trkpt>
      <trkpt lat="43.92806" lon="7.16383">
        <ele>627.20001220703</ele>
        <time>2019-06-01T08:53:24.000Z</time>
      </trkpt>
      <trkpt lat="43.92809" lon="7.16389">
        <ele>628</ele>
        <time>2019-06-01T08:53:29.000Z</time>
      </trkpt>
      <trkpt lat="43.9281" lon="7.16393">
        <ele>628.20001220703</ele>
        <time>2019-06-01T08:53:32.000Z</time>
      </trkpt>
      <trkpt lat="43.92813" lon="7.164">
        <ele>628.59997558594</ele>
        <time>2019-06-01T08:53:36.000Z</time>
      </trkpt>
      <trkpt lat="43.92816" lon="7.16411">
        <ele>629.40002441406</ele>
        <time>2019-06-01T08:53:41.000Z</time>
      </trkpt>
      <trkpt lat="43.92816" lon="7.16413">
        <ele>629.59997558594</ele>
        <time>2019-06-01T08:53:42.000Z</time>
      </trkpt>
      <trkpt lat="43.92814" lon="7.16428">
        <ele>630.59997558594</ele>
        <time>2019-06-01T08:53:49.000Z</time>
      </trkpt>
      <trkpt lat="43.92812" lon="7.16437">
        <ele>631.40002441406</ele>
        <time>2019-06-01T08:53:55.000Z</time>
      </trkpt>
      <trkpt lat="43.92811" lon="7.1644">
        <ele>631.59997558594</ele>
        <time>2019-06-01T08:53:57.000Z</time>
      </trkpt>
      <trkpt lat="43.92809" lon="7.1645">
        <ele>632.40002441406</ele>
        <time>2019-06-01T08:54:03.000Z</time>
      </trkpt>
      <trkpt lat="43.92808" lon="7.16455">
        <ele>632.79998779297</ele>
        <time>2019-06-01T08:54:06.000Z</time>
      </trkpt>
      <trkpt lat="43.92806" lon="7.16462">
        <ele>633.20001220703</ele>
        <time>2019-06-01T08:54:10.000Z</time>
      </trkpt>
      <trkpt lat="43.92804" lon="7.16472">
        <ele>633.79998779297</ele>
        <time>2019-06-01T08:54:16.000Z</time>
      </trkpt>
      <trkpt lat="43.92804" lon="7.16475">
        <ele>634</ele>
        <time>2019-06-01T08:54:18.000Z</time>
      </trkpt>
      <trkpt lat="43.92803" lon="7.16486">
        <ele>634.79998779297</ele>
        <time>2019-06-01T08:54:25.000Z</time>
      </trkpt>
      <trkpt lat="43.92803" lon="7.16488">
        <ele>635</ele>
        <time>2019-06-01T08:54:26.000Z</time>
      </trkpt>
      <trkpt lat="43.92803" lon="7.16493">
        <ele>635.40002441406</ele>
        <time>2019-06-01T08:54:29.000Z</time>
      </trkpt>
      <trkpt lat="43.92802" lon="7.16499">
        <ele>635.59997558594</ele>
        <time>2019-06-01T08:54:32.000Z</time>
      </trkpt>
      <trkpt lat="43.92799" lon="7.16512">
        <ele>636</ele>
        <time>2019-06-01T08:54:38.000Z</time>
      </trkpt>
      <trkpt lat="43.92799" lon="7.16514">
        <ele>636.40002441406</ele>
        <time>2019-06-01T08:54:39.000Z</time>
      </trkpt>
      <trkpt lat="43.92798" lon="7.16521">
        <ele>637.20001220703</ele>
        <time>2019-06-01T08:54:44.000Z</time>
      </trkpt>
      <trkpt lat="43.92798" lon="7.16521">
        <ele>637.59997558594</ele>
        <time>2019-06-01T08:54:45.000Z</time>
      </trkpt>
      <trkpt lat="43.92797" lon="7.16524">
        <ele>637.20001220703</ele>
        <time>2019-06-01T08:54:51.000Z</time>
      </trkpt>
      <trkpt lat="43.92797" lon="7.16526">
        <ele>638.40002441406</ele>
        <time>2019-06-01T08:54:54.000Z</time>
      </trkpt>
      <trkpt lat="43.92797" lon="7.16527">
        <ele>639.79998779297</ele>
        <time>2019-06-01T08:54:55.000Z</time>
      </trkpt>
      <trkpt lat="43.92798" lon="7.16529">
        <ele>640.40002441406</ele>
        <time>2019-06-01T08:54:58.000Z</time>
      </trkpt>
      <trkpt lat="43.92799" lon="7.16535">
        <ele>640.20001220703</ele>
        <time>2019-06-01T08:55:04.000Z</time>
      </trkpt>
      <trkpt lat="43.92801" lon="7.16536">
        <ele>640.79998779297</ele>
        <time>2019-06-01T08:55:08.000Z</time>
      </trkpt>
      <trkpt lat="43.92801" lon="7.16536">
        <ele>641.20001220703</ele>
        <time>2019-06-01T08:55:10.000Z</time>
      </trkpt>
      <trkpt lat="43.92802" lon="7.16537">
        <ele>641.20001220703</ele>
        <time>2019-06-01T08:55:23.000Z</time>
      </trkpt>
      <trkpt lat="43.92802" lon="7.16538">
        <ele>641.40002441406</ele>
        <time>2019-06-01T08:55:44.000Z</time>
      </trkpt>
      <trkpt lat="43.92803" lon="7.16539">
        <ele>641.40002441406</ele>
        <time>2019-06-01T08:56:05.000Z</time>
      </trkpt>
      <trkpt lat="43.92803" lon="7.16539">
        <ele>641</ele>
        <time>2019-06-01T08:56:25.000Z</time>
      </trkpt>
      <trkpt lat="43.92804" lon="7.1654">
        <ele>641.20001220703</ele>
        <time>2019-06-01T08:56:38.000Z</time>
      </trkpt>
      <trkpt lat="43.92804" lon="7.1654">
        <ele>641.20001220703</ele>
        <time>2019-06-01T08:56:59.000Z</time>
      </trkpt>
      <trkpt lat="43.92804" lon="7.16539">
        <ele>641</ele>
        <time>2019-06-01T08:57:19.000Z</time>
      </trkpt>
      <trkpt lat="43.92804" lon="7.1654">
        <ele>641.40002441406</ele>
        <time>2019-06-01T08:57:33.000Z</time>
      </trkpt>
      <trkpt lat="43.92804" lon="7.1654">
        <ele>641.40002441406</ele>
        <time>2019-06-01T08:57:47.000Z</time>
      </trkpt>
      <trkpt lat="43.92804" lon="7.1654">
        <ele>641.40002441406</ele>
        <time>2019-06-01T08:58:07.000Z</time>
      </trkpt>
      <trkpt lat="43.92805" lon="7.16541">
        <ele>641.40002441406</ele>
        <time>2019-06-01T08:58:29.000Z</time>
      </trkpt>
      <trkpt lat="43.92805" lon="7.16541">
        <ele>641.40002441406</ele>
        <time>2019-06-01T08:58:37.000Z</time>
      </trkpt>
      <trkpt lat="43.92805" lon="7.1654">
        <ele>641.20001220703</ele>
        <time>2019-06-01T08:58:45.000Z</time>
      </trkpt>
      <trkpt lat="43.92805" lon="7.16539">
        <ele>641.20001220703</ele>
        <time>2019-06-01T08:58:51.000Z</time>
      </trkpt>
      <trkpt lat="43.92806" lon="7.16536">
        <ele>641.20001220703</ele>
        <time>2019-06-01T08:58:53.000Z</time>
      </trkpt>
      <trkpt lat="43.92807" lon="7.16533">
        <ele>641</ele>
        <time>2019-06-01T08:58:55.000Z</time>
      </trkpt>
      <trkpt lat="43.92811" lon="7.16526">
        <ele>642</ele>
        <time>2019-06-01T08:59:00.000Z</time>
      </trkpt>
      <trkpt lat="43.92812" lon="7.16524">
        <ele>642</ele>
        <time>2019-06-01T08:59:01.000Z</time>
      </trkpt>
      <trkpt lat="43.92817" lon="7.16517">
        <ele>642.79998779297</ele>
        <time>2019-06-01T08:59:06.000Z</time>
      </trkpt>
      <trkpt lat="43.92819" lon="7.1651">
        <ele>643</ele>
        <time>2019-06-01T08:59:08.000Z</time>
      </trkpt>
      <trkpt lat="43.92822" lon="7.16502">
        <ele>642.79998779297</ele>
        <time>2019-06-01T08:59:10.000Z</time>
      </trkpt>
      <trkpt lat="43.92826" lon="7.16493">
        <ele>641.79998779297</ele>
        <time>2019-06-01T08:59:14.000Z</time>
      </trkpt>
      <trkpt lat="43.92827" lon="7.16491">
        <ele>642</ele>
        <time>2019-06-01T08:59:15.000Z</time>
      </trkpt>
      <trkpt lat="43.92831" lon="7.16477">
        <ele>643</ele>
        <time>2019-06-01T08:59:21.000Z</time>
      </trkpt>
      <trkpt lat="43.92833" lon="7.16471">
        <ele>643.40002441406</ele>
        <time>2019-06-01T08:59:24.000Z</time>
      </trkpt>
      <trkpt lat="43.92836" lon="7.16463">
        <ele>644</ele>
        <time>2019-06-01T08:59:28.000Z</time>
      </trkpt>
      <trkpt lat="43.92838" lon="7.16456">
        <ele>644.59997558594</ele>
        <time>2019-06-01T08:59:31.000Z</time>
      </trkpt>
      <trkpt lat="43.92841" lon="7.16448">
        <ele>645.20001220703</ele>
        <time>2019-06-01T08:59:35.000Z</time>
      </trkpt>
      <trkpt lat="43.92843" lon="7.16443">
        <ele>645.59997558594</ele>
        <time>2019-06-01T08:59:38.000Z</time>
      </trkpt>
      <trkpt lat="43.92845" lon="7.16435">
        <ele>646.40002441406</ele>
        <time>2019-06-01T08:59:42.000Z</time>
      </trkpt>
      <trkpt lat="43.92848" lon="7.16428">
        <ele>647</ele>
        <time>2019-06-01T08:59:46.000Z</time>
      </trkpt>
      <trkpt lat="43.92852" lon="7.16418">
        <ele>647.40002441406</ele>
        <time>2019-06-01T08:59:51.000Z</time>
      </trkpt>
      <trkpt lat="43.92853" lon="7.16414">
        <ele>648</ele>
        <time>2019-06-01T08:59:53.000Z</time>
      </trkpt>
      <trkpt lat="43.92857" lon="7.16407">
        <ele>648.40002441406</ele>
        <time>2019-06-01T08:59:57.000Z</time>
      </trkpt>
      <trkpt lat="43.92861" lon="7.16401">
        <ele>649.20001220703</ele>
        <time>2019-06-01T09:00:01.000Z</time>
      </trkpt>
      <trkpt lat="43.92866" lon="7.16391">
        <ele>649.59997558594</ele>
        <time>2019-06-01T09:00:06.000Z</time>
      </trkpt>
      <trkpt lat="43.92869" lon="7.16387">
        <ele>650</ele>
        <time>2019-06-01T09:00:08.000Z</time>
      </trkpt>
      <trkpt lat="43.92873" lon="7.1638">
        <ele>650.59997558594</ele>
        <time>2019-06-01T09:00:11.000Z</time>
      </trkpt>
      <trkpt lat="43.92879" lon="7.16372">
        <ele>651.20001220703</ele>
        <time>2019-06-01T09:00:16.000Z</time>
      </trkpt>
      <trkpt lat="43.92882" lon="7.16368">
        <ele>651.59997558594</ele>
        <time>2019-06-01T09:00:18.000Z</time>
      </trkpt>
      <trkpt lat="43.92893" lon="7.16355">
        <ele>652.59997558594</ele>
        <time>2019-06-01T09:00:26.000Z</time>
      </trkpt>
      <trkpt lat="43.92903" lon="7.16343">
        <ele>653.59997558594</ele>
        <time>2019-06-01T09:00:33.000Z</time>
      </trkpt>
      <trkpt lat="43.92904" lon="7.16342">
        <ele>653.79998779297</ele>
        <time>2019-06-01T09:00:34.000Z</time>
      </trkpt>
      <trkpt lat="43.92913" lon="7.16333">
        <ele>654.79998779297</ele>
        <time>2019-06-01T09:00:40.000Z</time>
      </trkpt>
      <trkpt lat="43.92916" lon="7.16331">
        <ele>655</ele>
        <time>2019-06-01T09:00:42.000Z</time>
      </trkpt>
      <trkpt lat="43.92922" lon="7.16327">
        <ele>655.79998779297</ele>
        <time>2019-06-01T09:00:46.000Z</time>
      </trkpt>
      <trkpt lat="43.92931" lon="7.16322">
        <ele>656.40002441406</ele>
        <time>2019-06-01T09:00:51.000Z</time>
      </trkpt>
      <trkpt lat="43.92934" lon="7.1632">
        <ele>656.79998779297</ele>
        <time>2019-06-01T09:00:53.000Z</time>
      </trkpt>
      <trkpt lat="43.92946" lon="7.1631">
        <ele>657.79998779297</ele>
        <time>2019-06-01T09:01:01.000Z</time>
      </trkpt>
      <trkpt lat="43.92947" lon="7.16309">
        <ele>658.20001220703</ele>
        <time>2019-06-01T09:01:02.000Z</time>
      </trkpt>
      <trkpt lat="43.92954" lon="7.16301">
        <ele>659.40002441406</ele>
        <time>2019-06-01T09:01:07.000Z</time>
      </trkpt>
      <trkpt lat="43.92959" lon="7.16295">
        <ele>659.59997558594</ele>
        <time>2019-06-01T09:01:10.000Z</time>
      </trkpt>
      <trkpt lat="43.92967" lon="7.16286">
        <ele>660.40002441406</ele>
        <time>2019-06-01T09:01:16.000Z</time>
      </trkpt>
      <trkpt lat="43.92969" lon="7.16285">
        <ele>660.59997558594</ele>
        <time>2019-06-01T09:01:18.000Z</time>
      </trkpt>
      <trkpt lat="43.92972" lon="7.16286">
        <ele>660.79998779297</ele>
        <time>2019-06-01T09:01:21.000Z</time>
      </trkpt>
      <trkpt lat="43.92972" lon="7.16286">
        <ele>661.40002441406</ele>
        <time>2019-06-01T09:01:23.000Z</time>
      </trkpt>
      <trkpt lat="43.92972" lon="7.16287">
        <ele>661.40002441406</ele>
        <time>2019-06-01T09:01:24.000Z</time>
      </trkpt>
      <trkpt lat="43.92973" lon="7.16291">
        <ele>662.20001220703</ele>
        <time>2019-06-01T09:01:29.000Z</time>
      </trkpt>
      <trkpt lat="43.92972" lon="7.16294">
        <ele>662.59997558594</ele>
        <time>2019-06-01T09:01:31.000Z</time>
      </trkpt>
      <trkpt lat="43.92967" lon="7.16304">
        <ele>663.20001220703</ele>
        <time>2019-06-01T09:01:37.000Z</time>
      </trkpt>
      <trkpt lat="43.92964" lon="7.16307">
        <ele>663.59997558594</ele>
        <time>2019-06-01T09:01:39.000Z</time>
      </trkpt>
      <trkpt lat="43.92957" lon="7.16313">
        <ele>664</ele>
        <time>2019-06-01T09:01:44.000Z</time>
      </trkpt>
      <trkpt lat="43.9295" lon="7.16323">
        <ele>664.79998779297</ele>
        <time>2019-06-01T09:01:50.000Z</time>
      </trkpt>
      <trkpt lat="43.92948" lon="7.16324">
        <ele>664.79998779297</ele>
        <time>2019-06-01T09:01:51.000Z</time>
      </trkpt>
      <trkpt lat="43.92939" lon="7.16339">
        <ele>665.59997558594</ele>
        <time>2019-06-01T09:01:57.000Z</time>
      </trkpt>
      <trkpt lat="43.92938" lon="7.16341">
        <ele>665.79998779297</ele>
        <time>2019-06-01T09:01:58.000Z</time>
      </trkpt>
      <trkpt lat="43.92932" lon="7.16353">
        <ele>666.79998779297</ele>
        <time>2019-06-01T09:02:03.000Z</time>
      </trkpt>
      <trkpt lat="43.92932" lon="7.16355">
        <ele>667</ele>
        <time>2019-06-01T09:02:04.000Z</time>
      </trkpt>
      <trkpt lat="43.92925" lon="7.16371">
        <ele>668.20001220703</ele>
        <time>2019-06-01T09:02:10.000Z</time>
      </trkpt>
      <trkpt lat="43.92921" lon="7.16379">
        <ele>669.20001220703</ele>
        <time>2019-06-01T09:02:14.000Z</time>
      </trkpt>
      <trkpt lat="43.9292" lon="7.16382">
        <ele>669.40002441406</ele>
        <time>2019-06-01T09:02:16.000Z</time>
      </trkpt>
      <trkpt lat="43.92914" lon="7.16394">
        <ele>670.20001220703</ele>
        <time>2019-06-01T09:02:22.000Z</time>
      </trkpt>
      <trkpt lat="43.92913" lon="7.16396">
        <ele>670.40002441406</ele>
        <time>2019-06-01T09:02:23.000Z</time>
      </trkpt>
      <trkpt lat="43.92908" lon="7.1641">
        <ele>671.20001220703</ele>
        <time>2019-06-01T09:02:29.000Z</time>
      </trkpt>
      <trkpt lat="43.92907" lon="7.16412">
        <ele>671.40002441406</ele>
        <time>2019-06-01T09:02:30.000Z</time>
      </trkpt>
      <trkpt lat="43.92903" lon="7.16426">
        <ele>672.40002441406</ele>
        <time>2019-06-01T09:02:35.000Z</time>
      </trkpt>
      <trkpt lat="43.92901" lon="7.16434">
        <ele>672.79998779297</ele>
        <time>2019-06-01T09:02:38.000Z</time>
      </trkpt>
      <trkpt lat="43.92898" lon="7.16444">
        <ele>673.40002441406</ele>
        <time>2019-06-01T09:02:42.000Z</time>
      </trkpt>
      <trkpt lat="43.92897" lon="7.16447">
        <ele>673.59997558594</ele>
        <time>2019-06-01T09:02:43.000Z</time>
      </trkpt>
      <trkpt lat="43.92894" lon="7.16457">
        <ele>674.40002441406</ele>
        <time>2019-06-01T09:02:48.000Z</time>
      </trkpt>
      <trkpt lat="43.92892" lon="7.16461">
        <ele>674.79998779297</ele>
        <time>2019-06-01T09:02:50.000Z</time>
      </trkpt>
      <trkpt lat="43.92889" lon="7.16469">
        <ele>675.59997558594</ele>
        <time>2019-06-01T09:02:55.000Z</time>
      </trkpt>
      <trkpt lat="43.92889" lon="7.16469">
        <ele>676</ele>
        <time>2019-06-01T09:02:57.000Z</time>
      </trkpt>
      <trkpt lat="43.92888" lon="7.16474">
        <ele>676.20001220703</ele>
        <time>2019-06-01T09:03:03.000Z</time>
      </trkpt>
      <trkpt lat="43.92887" lon="7.16476">
        <ele>676.59997558594</ele>
        <time>2019-06-01T09:03:06.000Z</time>
      </trkpt>
      <trkpt lat="43.92886" lon="7.1648">
        <ele>677.59997558594</ele>
        <time>2019-06-01T09:03:11.000Z</time>
      </trkpt>
      <trkpt lat="43.92885" lon="7.16481">
        <ele>677.79998779297</ele>
        <time>2019-06-01T09:03:12.000Z</time>
      </trkpt>
      <trkpt lat="43.92885" lon="7.16484">
        <ele>678.59997558594</ele>
        <time>2019-06-01T09:03:17.000Z</time>
      </trkpt>
      <trkpt lat="43.92885" lon="7.16485">
        <ele>679</ele>
        <time>2019-06-01T09:03:19.000Z</time>
      </trkpt>
      <trkpt lat="43.92883" lon="7.16488">
        <ele>679</ele>
        <time>2019-06-01T09:03:23.000Z</time>
      </trkpt>
      <trkpt lat="43.92876" lon="7.16502">
        <ele>679.59997558594</ele>
        <time>2019-06-01T09:03:30.000Z</time>
      </trkpt>
      <trkpt lat="43.92872" lon="7.16509">
        <ele>680.20001220703</ele>
        <time>2019-06-01T09:03:33.000Z</time>
      </trkpt>
      <trkpt lat="43.92868" lon="7.16513">
        <ele>680.59997558594</ele>
        <time>2019-06-01T09:03:35.000Z</time>
      </trkpt>
      <trkpt lat="43.92863" lon="7.16519">
        <ele>681.40002441406</ele>
        <time>2019-06-01T09:03:38.000Z</time>
      </trkpt>
      <trkpt lat="43.92855" lon="7.16527">
        <ele>682.20001220703</ele>
        <time>2019-06-01T09:03:43.000Z</time>
      </trkpt>
      <trkpt lat="43.92854" lon="7.16529">
        <ele>682.40002441406</ele>
        <time>2019-06-01T09:03:44.000Z</time>
      </trkpt>
      <trkpt lat="43.9285" lon="7.16541">
        <ele>683.40002441406</ele>
        <time>2019-06-01T09:03:49.000Z</time>
      </trkpt>
      <trkpt lat="43.92848" lon="7.1656">
        <ele>684.59997558594</ele>
        <time>2019-06-01T09:03:56.000Z</time>
      </trkpt>
      <trkpt lat="43.92846" lon="7.16576">
        <ele>685.59997558594</ele>
        <time>2019-06-01T09:04:02.000Z</time>
      </trkpt>
      <trkpt lat="43.92846" lon="7.16582">
        <ele>685.79998779297</ele>
        <time>2019-06-01T09:04:04.000Z</time>
      </trkpt>
      <trkpt lat="43.92844" lon="7.16593">
        <ele>686.59997558594</ele>
        <time>2019-06-01T09:04:08.000Z</time>
      </trkpt>
      <trkpt lat="43.92843" lon="7.16602">
        <ele>687.20001220703</ele>
        <time>2019-06-01T09:04:11.000Z</time>
      </trkpt>
      <trkpt lat="43.92842" lon="7.16611">
        <ele>688</ele>
        <time>2019-06-01T09:04:14.000Z</time>
      </trkpt>
      <trkpt lat="43.92841" lon="7.16618">
        <ele>688.40002441406</ele>
        <time>2019-06-01T09:04:17.000Z</time>
      </trkpt>
      <trkpt lat="43.92839" lon="7.16626">
        <ele>689</ele>
        <time>2019-06-01T09:04:20.000Z</time>
      </trkpt>
      <trkpt lat="43.92838" lon="7.16639">
        <ele>689.59997558594</ele>
        <time>2019-06-01T09:04:25.000Z</time>
      </trkpt>
      <trkpt lat="43.92838" lon="7.16645">
        <ele>690</ele>
        <time>2019-06-01T09:04:27.000Z</time>
      </trkpt>
      <trkpt lat="43.92839" lon="7.16658">
        <ele>690.79998779297</ele>
        <time>2019-06-01T09:04:32.000Z</time>
      </trkpt>
      <trkpt lat="43.92839" lon="7.1666">
        <ele>691.20001220703</ele>
        <time>2019-06-01T09:04:33.000Z</time>
      </trkpt>
      <trkpt lat="43.92842" lon="7.16677">
        <ele>691.79998779297</ele>
        <time>2019-06-01T09:04:39.000Z</time>
      </trkpt>
      <trkpt lat="43.92843" lon="7.16684">
        <ele>692.40002441406</ele>
        <time>2019-06-01T09:04:42.000Z</time>
      </trkpt>
      <trkpt lat="43.92844" lon="7.16695">
        <ele>693.59997558594</ele>
        <time>2019-06-01T09:04:46.000Z</time>
      </trkpt>
      <trkpt lat="43.92845" lon="7.16718">
        <ele>694.59997558594</ele>
        <time>2019-06-01T09:04:54.000Z</time>
      </trkpt>
      <trkpt lat="43.92844" lon="7.1672">
        <ele>694.79998779297</ele>
        <time>2019-06-01T09:04:55.000Z</time>
      </trkpt>
      <trkpt lat="43.92844" lon="7.16736">
        <ele>695.79998779297</ele>
        <time>2019-06-01T09:05:01.000Z</time>
      </trkpt>
      <trkpt lat="43.92844" lon="7.16739">
        <ele>695.79998779297</ele>
        <time>2019-06-01T09:05:02.000Z</time>
      </trkpt>
      <trkpt lat="43.92844" lon="7.16742">
        <ele>696.20001220703</ele>
        <time>2019-06-01T09:05:04.000Z</time>
      </trkpt>
      <trkpt lat="43.92849" lon="7.16741">
        <ele>696.59997558594</ele>
        <time>2019-06-01T09:05:07.000Z</time>
      </trkpt>
      <trkpt lat="43.9285" lon="7.16739">
        <ele>696.79998779297</ele>
        <time>2019-06-01T09:05:08.000Z</time>
      </trkpt>
      <trkpt lat="43.92851" lon="7.16731">
        <ele>697.20001220703</ele>
        <time>2019-06-01T09:05:11.000Z</time>
      </trkpt>
      <trkpt lat="43.92851" lon="7.16726">
        <ele>697.59997558594</ele>
        <time>2019-06-01T09:05:13.000Z</time>
      </trkpt>
      <trkpt lat="43.92852" lon="7.16723">
        <ele>697.79998779297</ele>
        <time>2019-06-01T09:05:14.000Z</time>
      </trkpt>
      <trkpt lat="43.92852" lon="7.16711">
        <ele>698.59997558594</ele>
        <time>2019-06-01T09:05:19.000Z</time>
      </trkpt>
      <trkpt lat="43.92852" lon="7.16708">
        <ele>698.79998779297</ele>
        <time>2019-06-01T09:05:20.000Z</time>
      </trkpt>
      <trkpt lat="43.92854" lon="7.16693">
        <ele>699.59997558594</ele>
        <time>2019-06-01T09:05:26.000Z</time>
      </trkpt>
      <trkpt lat="43.92854" lon="7.1669">
        <ele>699.79998779297</ele>
        <time>2019-06-01T09:05:27.000Z</time>
      </trkpt>
      <trkpt lat="43.92855" lon="7.16676">
        <ele>700.79998779297</ele>
        <time>2019-06-01T09:05:33.000Z</time>
      </trkpt>
      <trkpt lat="43.92855" lon="7.16668">
        <ele>701.40002441406</ele>
        <time>2019-06-01T09:05:36.000Z</time>
      </trkpt>
      <trkpt lat="43.92854" lon="7.16665">
        <ele>701.59997558594</ele>
        <time>2019-06-01T09:05:37.000Z</time>
      </trkpt>
      <trkpt lat="43.92856" lon="7.16658">
        <ele>702</ele>
        <time>2019-06-01T09:05:40.000Z</time>
      </trkpt>
      <trkpt lat="43.92857" lon="7.16656">
        <ele>702</ele>
        <time>2019-06-01T09:05:41.000Z</time>
      </trkpt>
      <trkpt lat="43.92859" lon="7.16646">
        <ele>703</ele>
        <time>2019-06-01T09:05:45.000Z</time>
      </trkpt>
      <trkpt lat="43.92861" lon="7.1664">
        <ele>703.20001220703</ele>
        <time>2019-06-01T09:05:47.000Z</time>
      </trkpt>
      <trkpt lat="43.92866" lon="7.16632">
        <ele>704.20001220703</ele>
        <time>2019-06-01T09:05:51.000Z</time>
      </trkpt>
      <trkpt lat="43.92872" lon="7.16625">
        <ele>705</ele>
        <time>2019-06-01T09:05:55.000Z</time>
      </trkpt>
      <trkpt lat="43.92876" lon="7.16619">
        <ele>705.40002441406</ele>
        <time>2019-06-01T09:05:58.000Z</time>
      </trkpt>
      <trkpt lat="43.92883" lon="7.1661">
        <ele>706.20001220703</ele>
        <time>2019-06-01T09:06:03.000Z</time>
      </trkpt>
      <trkpt lat="43.92884" lon="7.16608">
        <ele>706.59997558594</ele>
        <time>2019-06-01T09:06:04.000Z</time>
      </trkpt>
      <trkpt lat="43.92894" lon="7.16595">
        <ele>707.79998779297</ele>
        <time>2019-06-01T09:06:12.000Z</time>
      </trkpt>
      <trkpt lat="43.929" lon="7.16581">
        <ele>708.59997558594</ele>
        <time>2019-06-01T09:06:18.000Z</time>
      </trkpt>
      <trkpt lat="43.92902" lon="7.16577">
        <ele>709.20001220703</ele>
        <time>2019-06-01T09:06:20.000Z</time>
      </trkpt>
      <trkpt lat="43.92907" lon="7.1656">
        <ele>710.20001220703</ele>
        <time>2019-06-01T09:06:27.000Z</time>
      </trkpt>
      <trkpt lat="43.92907" lon="7.16557">
        <ele>710.40002441406</ele>
        <time>2019-06-01T09:06:28.000Z</time>
      </trkpt>
      <trkpt lat="43.92911" lon="7.16542">
        <ele>711.40002441406</ele>
        <time>2019-06-01T09:06:34.000Z</time>
      </trkpt>
      <trkpt lat="43.92915" lon="7.16526">
        <ele>712.59997558594</ele>
        <time>2019-06-01T09:06:41.000Z</time>
      </trkpt>
      <trkpt lat="43.92918" lon="7.16511">
        <ele>713.59997558594</ele>
        <time>2019-06-01T09:06:48.000Z</time>
      </trkpt>
      <trkpt lat="43.92919" lon="7.16508">
        <ele>714</ele>
        <time>2019-06-01T09:06:49.000Z</time>
      </trkpt>
      <trkpt lat="43.92924" lon="7.16497">
        <ele>714.79998779297</ele>
        <time>2019-06-01T09:06:55.000Z</time>
      </trkpt>
      <trkpt lat="43.92927" lon="7.16492">
        <ele>715.20001220703</ele>
        <time>2019-06-01T09:06:58.000Z</time>
      </trkpt>
      <trkpt lat="43.92934" lon="7.16484">
        <ele>716</ele>
        <time>2019-06-01T09:07:04.000Z</time>
      </trkpt>
      <trkpt lat="43.92937" lon="7.1648">
        <ele>716.40002441406</ele>
        <time>2019-06-01T09:07:07.000Z</time>
      </trkpt>
      <trkpt lat="43.92943" lon="7.16473">
        <ele>717.20001220703</ele>
        <time>2019-06-01T09:07:12.000Z</time>
      </trkpt>
      <trkpt lat="43.92948" lon="7.16467">
        <ele>717.59997558594</ele>
        <time>2019-06-01T09:07:15.000Z</time>
      </trkpt>
      <trkpt lat="43.92954" lon="7.16458">
        <ele>718.20001220703</ele>
        <time>2019-06-01T09:07:19.000Z</time>
      </trkpt>
      <trkpt lat="43.9296" lon="7.16452">
        <ele>719.40002441406</ele>
        <time>2019-06-01T09:07:23.000Z</time>
      </trkpt>
      <trkpt lat="43.92968" lon="7.16441">
        <ele>720.40002441406</ele>
        <time>2019-06-01T09:07:30.000Z</time>
      </trkpt>
      <trkpt lat="43.9297" lon="7.16439">
        <ele>720.40002441406</ele>
        <time>2019-06-01T09:07:31.000Z</time>
      </trkpt>
      <trkpt lat="43.92979" lon="7.16431">
        <ele>721.40002441406</ele>
        <time>2019-06-01T09:07:38.000Z</time>
      </trkpt>
      <trkpt lat="43.92987" lon="7.16425">
        <ele>722.20001220703</ele>
        <time>2019-06-01T09:07:44.000Z</time>
      </trkpt>
      <trkpt lat="43.92989" lon="7.16424">
        <ele>722.40002441406</ele>
        <time>2019-06-01T09:07:46.000Z</time>
      </trkpt>
      <trkpt lat="43.92991" lon="7.16423">
        <ele>722.59997558594</ele>
        <time>2019-06-01T09:07:48.000Z</time>
      </trkpt>
      <trkpt lat="43.92993" lon="7.16423">
        <ele>722.79998779297</ele>
        <time>2019-06-01T09:07:50.000Z</time>
      </trkpt>
      <trkpt lat="43.93001" lon="7.16421">
        <ele>723.59997558594</ele>
        <time>2019-06-01T09:07:55.000Z</time>
      </trkpt>
      <trkpt lat="43.93002" lon="7.16421">
        <ele>723.59997558594</ele>
        <time>2019-06-01T09:07:56.000Z</time>
      </trkpt>
      <trkpt lat="43.93009" lon="7.16419">
        <ele>724</ele>
        <time>2019-06-01T09:08:01.000Z</time>
      </trkpt>
      <trkpt lat="43.93011" lon="7.16419">
        <ele>723.79998779297</ele>
        <time>2019-06-01T09:08:02.000Z</time>
      </trkpt>
      <trkpt lat="43.93014" lon="7.16419">
        <ele>723.79998779297</ele>
        <time>2019-06-01T09:08:05.000Z</time>
      </trkpt>
      <trkpt lat="43.93014" lon="7.16419">
        <ele>723.79998779297</ele>
        <time>2019-06-01T09:08:07.000Z</time>
      </trkpt>
      <trkpt lat="43.93015" lon="7.16418">
        <ele>723.59997558594</ele>
        <time>2019-06-01T09:08:13.000Z</time>
      </trkpt>
      <trkpt lat="43.93016" lon="7.16418">
        <ele>723.40002441406</ele>
        <time>2019-06-01T09:08:25.000Z</time>
      </trkpt>
      <trkpt lat="43.93016" lon="7.16418">
        <ele>723.59997558594</ele>
        <time>2019-06-01T09:08:40.000Z</time>
      </trkpt>
      <trkpt lat="43.93017" lon="7.16418">
        <ele>723.79998779297</ele>
        <time>2019-06-01T09:09:03.000Z</time>
      </trkpt>
      <trkpt lat="43.93017" lon="7.16419">
        <ele>723.79998779297</ele>
        <time>2019-06-01T09:09:16.000Z</time>
      </trkpt>
      <trkpt lat="43.93017" lon="7.16418">
        <ele>723.79998779297</ele>
        <time>2019-06-01T09:09:35.000Z</time>
      </trkpt>
      <trkpt lat="43.93018" lon="7.16418">
        <ele>723.79998779297</ele>
        <time>2019-06-01T09:09:41.000Z</time>
      </trkpt>
      <trkpt lat="43.93017" lon="7.16418">
        <ele>724</ele>
        <time>2019-06-01T09:09:53.000Z</time>
      </trkpt>
      <trkpt lat="43.93018" lon="7.16417">
        <ele>723.79998779297</ele>
        <time>2019-06-01T09:10:03.000Z</time>
      </trkpt>
      <trkpt lat="43.93019" lon="7.16418">
        <ele>724</ele>
        <time>2019-06-01T09:10:09.000Z</time>
      </trkpt>
      <trkpt lat="43.9302" lon="7.16419">
        <ele>724</ele>
        <time>2019-06-01T09:10:10.000Z</time>
      </trkpt>
      <trkpt lat="43.93027" lon="7.16426">
        <ele>723.79998779297</ele>
        <time>2019-06-01T09:10:13.000Z</time>
      </trkpt>
      <trkpt lat="43.9303" lon="7.16432">
        <ele>722.59997558594</ele>
        <time>2019-06-01T09:10:17.000Z</time>
      </trkpt>
      <trkpt lat="43.9303" lon="7.16433">
        <ele>722.20001220703</ele>
        <time>2019-06-01T09:10:18.000Z</time>
      </trkpt>
      <trkpt lat="43.93033" lon="7.16438">
        <ele>721.79998779297</ele>
        <time>2019-06-01T09:10:24.000Z</time>
      </trkpt>
      <trkpt lat="43.93035" lon="7.16447">
        <ele>721.79998779297</ele>
        <time>2019-06-01T09:10:27.000Z</time>
      </trkpt>
      <trkpt lat="43.93037" lon="7.16453">
        <ele>721.79998779297</ele>
        <time>2019-06-01T09:10:29.000Z</time>
      </trkpt>
      <trkpt lat="43.93038" lon="7.1646">
        <ele>721</ele>
        <time>2019-06-01T09:10:31.000Z</time>
      </trkpt>
      <trkpt lat="43.93039" lon="7.16462">
        <ele>719.59997558594</ele>
        <time>2019-06-01T09:10:33.000Z</time>
      </trkpt>
      <trkpt lat="43.9304" lon="7.16461">
        <ele>718.40002441406</ele>
        <time>2019-06-01T09:10:34.000Z</time>
      </trkpt>
      <trkpt lat="43.93047" lon="7.16455">
        <ele>716.79998779297</ele>
        <time>2019-06-01T09:10:36.000Z</time>
      </trkpt>
      <trkpt lat="43.93052" lon="7.16452">
        <ele>715.79998779297</ele>
        <time>2019-06-01T09:10:37.000Z</time>
      </trkpt>
      <trkpt lat="43.93055" lon="7.1645">
        <ele>714.59997558594</ele>
        <time>2019-06-01T09:10:38.000Z</time>
      </trkpt>
      <trkpt lat="43.93057" lon="7.16445">
        <ele>713.40002441406</ele>
        <time>2019-06-01T09:10:39.000Z</time>
      </trkpt>
      <trkpt lat="43.9306" lon="7.16439">
        <ele>711.79998779297</ele>
        <time>2019-06-01T09:10:40.000Z</time>
      </trkpt>
      <trkpt lat="43.93064" lon="7.16434">
        <ele>710.20001220703</ele>
        <time>2019-06-01T09:10:41.000Z</time>
      </trkpt>
      <trkpt lat="43.93068" lon="7.16429">
        <ele>709</ele>
        <time>2019-06-01T09:10:42.000Z</time>
      </trkpt>
      <trkpt lat="43.93072" lon="7.16424">
        <ele>708</ele>
        <time>2019-06-01T09:10:43.000Z</time>
      </trkpt>
      <trkpt lat="43.93079" lon="7.1641">
        <ele>706.79998779297</ele>
        <time>2019-06-01T09:10:45.000Z</time>
      </trkpt>
      <trkpt lat="43.93084" lon="7.16403">
        <ele>705.40002441406</ele>
        <time>2019-06-01T09:10:47.000Z</time>
      </trkpt>
      <trkpt lat="43.93086" lon="7.16386">
        <ele>704.59997558594</ele>
        <time>2019-06-01T09:10:51.000Z</time>
      </trkpt>
      <trkpt lat="43.93084" lon="7.16381">
        <ele>704.20001220703</ele>
        <time>2019-06-01T09:10:52.000Z</time>
      </trkpt>
      <trkpt lat="43.93079" lon="7.1637">
        <ele>703.59997558594</ele>
        <time>2019-06-01T09:10:54.000Z</time>
      </trkpt>
      <trkpt lat="43.9308" lon="7.16356">
        <ele>703</ele>
        <time>2019-06-01T09:10:56.000Z</time>
      </trkpt>
      <trkpt lat="43.93081" lon="7.16348">
        <ele>702.79998779297</ele>
        <time>2019-06-01T09:10:57.000Z</time>
      </trkpt>
      <trkpt lat="43.93082" lon="7.16336">
        <ele>701.20001220703</ele>
        <time>2019-06-01T09:10:59.000Z</time>
      </trkpt>
      <trkpt lat="43.93081" lon="7.16329">
        <ele>699.79998779297</ele>
        <time>2019-06-01T09:11:00.000Z</time>
      </trkpt>
      <trkpt lat="43.93081" lon="7.16323">
        <ele>698.40002441406</ele>
        <time>2019-06-01T09:11:01.000Z</time>
      </trkpt>
      <trkpt lat="43.9308" lon="7.16313">
        <ele>696.79998779297</ele>
        <time>2019-06-01T09:11:02.000Z</time>
      </trkpt>
      <trkpt lat="43.93081" lon="7.16305">
        <ele>695.20001220703</ele>
        <time>2019-06-01T09:11:03.000Z</time>
      </trkpt>
      <trkpt lat="43.93082" lon="7.16298">
        <ele>693</ele>
        <time>2019-06-01T09:11:04.000Z</time>
      </trkpt>
      <trkpt lat="43.93084" lon="7.16281">
        <ele>691.20001220703</ele>
        <time>2019-06-01T09:11:06.000Z</time>
      </trkpt>
      <trkpt lat="43.93086" lon="7.1627">
        <ele>688.79998779297</ele>
        <time>2019-06-01T09:11:07.000Z</time>
      </trkpt>
      <trkpt lat="43.9309" lon="7.16263">
        <ele>685</ele>
        <time>2019-06-01T09:11:08.000Z</time>
      </trkpt>
      <trkpt lat="43.93095" lon="7.16255">
        <ele>682.79998779297</ele>
        <time>2019-06-01T09:11:09.000Z</time>
      </trkpt>
      <trkpt lat="43.93099" lon="7.16247">
        <ele>680.79998779297</ele>
        <time>2019-06-01T09:11:10.000Z</time>
      </trkpt>
      <trkpt lat="43.93104" lon="7.1624">
        <ele>679</ele>
        <time>2019-06-01T09:11:11.000Z</time>
      </trkpt>
      <trkpt lat="43.9311" lon="7.16237">
        <ele>677.59997558594</ele>
        <time>2019-06-01T09:11:12.000Z</time>
      </trkpt>
      <trkpt lat="43.93116" lon="7.16234">
        <ele>676.59997558594</ele>
        <time>2019-06-01T09:11:13.000Z</time>
      </trkpt>
      <trkpt lat="43.93127" lon="7.16224">
        <ele>674.59997558594</ele>
        <time>2019-06-01T09:11:15.000Z</time>
      </trkpt>
      <trkpt lat="43.93132" lon="7.16218">
        <ele>673.79998779297</ele>
        <time>2019-06-01T09:11:16.000Z</time>
      </trkpt>
      <trkpt lat="43.93138" lon="7.16211">
        <ele>673.20001220703</ele>
        <time>2019-06-01T09:11:17.000Z</time>
      </trkpt>
      <trkpt lat="43.93151" lon="7.16197">
        <ele>671.79998779297</ele>
        <time>2019-06-01T09:11:19.000Z</time>
      </trkpt>
      <trkpt lat="43.93158" lon="7.16191">
        <ele>671</ele>
        <time>2019-06-01T09:11:20.000Z</time>
      </trkpt>
      <trkpt lat="43.93162" lon="7.16185">
        <ele>670.59997558594</ele>
        <time>2019-06-01T09:11:21.000Z</time>
      </trkpt>
      <trkpt lat="43.9317" lon="7.16168">
        <ele>670</ele>
        <time>2019-06-01T09:11:23.000Z</time>
      </trkpt>
      <trkpt lat="43.9318" lon="7.16154">
        <ele>669.20001220703</ele>
        <time>2019-06-01T09:11:25.000Z</time>
      </trkpt>
      <trkpt lat="43.93191" lon="7.16146">
        <ele>667.79998779297</ele>
        <time>2019-06-01T09:11:27.000Z</time>
      </trkpt>
      <trkpt lat="43.93198" lon="7.16131">
        <ele>665.79998779297</ele>
        <time>2019-06-01T09:11:29.000Z</time>
      </trkpt>
      <trkpt lat="43.93201" lon="7.16122">
        <ele>665</ele>
        <time>2019-06-01T09:11:30.000Z</time>
      </trkpt>
      <trkpt lat="43.93204" lon="7.16115">
        <ele>664.59997558594</ele>
        <time>2019-06-01T09:11:31.000Z</time>
      </trkpt>
      <trkpt lat="43.9321" lon="7.16099">
        <ele>662.40002441406</ele>
        <time>2019-06-01T09:11:33.000Z</time>
      </trkpt>
      <trkpt lat="43.93214" lon="7.16092">
        <ele>661</ele>
        <time>2019-06-01T09:11:34.000Z</time>
      </trkpt>
      <trkpt lat="43.93216" lon="7.16085">
        <ele>659.79998779297</ele>
        <time>2019-06-01T09:11:35.000Z</time>
      </trkpt>
      <trkpt lat="43.93218" lon="7.16077">
        <ele>658.59997558594</ele>
        <time>2019-06-01T09:11:36.000Z</time>
      </trkpt>
      <trkpt lat="43.93223" lon="7.16061">
        <ele>656.79998779297</ele>
        <time>2019-06-01T09:11:38.000Z</time>
      </trkpt>
      <trkpt lat="43.93228" lon="7.16053">
        <ele>655.59997558594</ele>
        <time>2019-06-01T09:11:39.000Z</time>
      </trkpt>
      <trkpt lat="43.93232" lon="7.16046">
        <ele>654.40002441406</ele>
        <time>2019-06-01T09:11:40.000Z</time>
      </trkpt>
      <trkpt lat="43.93243" lon="7.1603">
        <ele>652.79998779297</ele>
        <time>2019-06-01T09:11:42.000Z</time>
      </trkpt>
      <trkpt lat="43.93247" lon="7.16023">
        <ele>651.20001220703</ele>
        <time>2019-06-01T09:11:43.000Z</time>
      </trkpt>
      <trkpt lat="43.93251" lon="7.16017">
        <ele>649</ele>
        <time>2019-06-01T09:11:44.000Z</time>
      </trkpt>
      <trkpt lat="43.93255" lon="7.1601">
        <ele>648</ele>
        <time>2019-06-01T09:11:45.000Z</time>
      </trkpt>
      <trkpt lat="43.9326" lon="7.16004">
        <ele>646.79998779297</ele>
        <time>2019-06-01T09:11:46.000Z</time>
      </trkpt>
      <trkpt lat="43.93265" lon="7.15996">
        <ele>645.40002441406</ele>
        <time>2019-06-01T09:11:47.000Z</time>
      </trkpt>
      <trkpt lat="43.93271" lon="7.15988">
        <ele>644.20001220703</ele>
        <time>2019-06-01T09:11:48.000Z</time>
      </trkpt>
      <trkpt lat="43.93276" lon="7.15981">
        <ele>643.20001220703</ele>
        <time>2019-06-01T09:11:49.000Z</time>
      </trkpt>
      <trkpt lat="43.93286" lon="7.15968">
        <ele>642.40002441406</ele>
        <time>2019-06-01T09:11:51.000Z</time>
      </trkpt>
      <trkpt lat="43.93291" lon="7.15964">
        <ele>641.40002441406</ele>
        <time>2019-06-01T09:11:52.000Z</time>
      </trkpt>
      <trkpt lat="43.933" lon="7.15954">
        <ele>641.40002441406</ele>
        <time>2019-06-01T09:11:54.000Z</time>
      </trkpt>
      <trkpt lat="43.93304" lon="7.15948">
        <ele>641.40002441406</ele>
        <time>2019-06-01T09:11:55.000Z</time>
      </trkpt>
      <trkpt lat="43.93313" lon="7.1593">
        <ele>641.20001220703</ele>
        <time>2019-06-01T09:11:59.000Z</time>
      </trkpt>
      <trkpt lat="43.93321" lon="7.15917">
        <ele>642.59997558594</ele>
        <time>2019-06-01T09:12:04.000Z</time>
      </trkpt>
      <trkpt lat="43.93323" lon="7.15915">
        <ele>643</ele>
        <time>2019-06-01T09:12:05.000Z</time>
      </trkpt>
      <trkpt lat="43.93326" lon="7.15911">
        <ele>643.79998779297</ele>
        <time>2019-06-01T09:12:07.000Z</time>
      </trkpt>
      <trkpt lat="43.9333" lon="7.15906">
        <ele>644.79998779297</ele>
        <time>2019-06-01T09:12:10.000Z</time>
      </trkpt>
      <trkpt lat="43.93331" lon="7.15904">
        <ele>645.20001220703</ele>
        <time>2019-06-01T09:12:11.000Z</time>
      </trkpt>
      <trkpt lat="43.93336" lon="7.15897">
        <ele>646</ele>
        <time>2019-06-01T09:12:14.000Z</time>
      </trkpt>
      <trkpt lat="43.9334" lon="7.15887">
        <ele>647.20001220703</ele>
        <time>2019-06-01T09:12:19.000Z</time>
      </trkpt>
      <trkpt lat="43.93343" lon="7.15877">
        <ele>648.20001220703</ele>
        <time>2019-06-01T09:12:24.000Z</time>
      </trkpt>
      <trkpt lat="43.93345" lon="7.15873">
        <ele>648.40002441406</ele>
        <time>2019-06-01T09:12:26.000Z</time>
      </trkpt>
      <trkpt lat="43.93345" lon="7.15871">
        <ele>648.59997558594</ele>
        <time>2019-06-01T09:12:31.000Z</time>
      </trkpt>
      <trkpt lat="43.93345" lon="7.15869">
        <ele>648.79998779297</ele>
        <time>2019-06-01T09:12:37.000Z</time>
      </trkpt>
      <trkpt lat="43.93345" lon="7.15869">
        <ele>649</ele>
        <time>2019-06-01T09:12:43.000Z</time>
      </trkpt>
      <trkpt lat="43.93345" lon="7.15869">
        <ele>648.79998779297</ele>
        <time>2019-06-01T09:12:52.000Z</time>
      </trkpt>
      <trkpt lat="43.93345" lon="7.15867">
        <ele>649</ele>
        <time>2019-06-01T09:13:03.000Z</time>
      </trkpt>
      <trkpt lat="43.93346" lon="7.15866">
        <ele>649</ele>
        <time>2019-06-01T09:13:04.000Z</time>
      </trkpt>
      <trkpt lat="43.93349" lon="7.15858">
        <ele>649</ele>
        <time>2019-06-01T09:13:07.000Z</time>
      </trkpt>
      <trkpt lat="43.9336" lon="7.1584">
        <ele>648.59997558594</ele>
        <time>2019-06-01T09:13:13.000Z</time>
      </trkpt>
      <trkpt lat="43.9337" lon="7.15832">
        <ele>648.59997558594</ele>
        <time>2019-06-01T09:13:16.000Z</time>
      </trkpt>
      <trkpt lat="43.93378" lon="7.15828">
        <ele>648.40002441406</ele>
        <time>2019-06-01T09:13:18.000Z</time>
      </trkpt>
      <trkpt lat="43.93414" lon="7.15807">
        <ele>648.40002441406</ele>
        <time>2019-06-01T09:13:27.000Z</time>
      </trkpt>
      <trkpt lat="43.93429" lon="7.15795">
        <ele>648.40002441406</ele>
        <time>2019-06-01T09:13:32.000Z</time>
      </trkpt>
      <trkpt lat="43.93432" lon="7.15789">
        <ele>648.20001220703</ele>
        <time>2019-06-01T09:13:33.000Z</time>
      </trkpt>
      <trkpt lat="43.9344" lon="7.15779">
        <ele>647.40002441406</ele>
        <time>2019-06-01T09:13:35.000Z</time>
      </trkpt>
      <trkpt lat="43.93445" lon="7.15777">
        <ele>647</ele>
        <time>2019-06-01T09:13:36.000Z</time>
      </trkpt>
      <trkpt lat="43.93455" lon="7.15772">
        <ele>646.20001220703</ele>
        <time>2019-06-01T09:13:38.000Z</time>
      </trkpt>
      <trkpt lat="43.9346" lon="7.15769">
        <ele>645.59997558594</ele>
        <time>2019-06-01T09:13:39.000Z</time>
      </trkpt>
      <trkpt lat="43.93464" lon="7.15765">
        <ele>645.59997558594</ele>
        <time>2019-06-01T09:13:40.000Z</time>
      </trkpt>
      <trkpt lat="43.93478" lon="7.15755">
        <ele>644.40002441406</ele>
        <time>2019-06-01T09:13:43.000Z</time>
      </trkpt>
      <trkpt lat="43.93488" lon="7.15749">
        <ele>644</ele>
        <time>2019-06-01T09:13:45.000Z</time>
      </trkpt>
      <trkpt lat="43.93492" lon="7.15745">
        <ele>643.59997558594</ele>
        <time>2019-06-01T09:13:46.000Z</time>
      </trkpt>
      <trkpt lat="43.93497" lon="7.15741">
        <ele>643</ele>
        <time>2019-06-01T09:13:47.000Z</time>
      </trkpt>
      <trkpt lat="43.93509" lon="7.15733">
        <ele>641.59997558594</ele>
        <time>2019-06-01T09:13:49.000Z</time>
      </trkpt>
      <trkpt lat="43.93528" lon="7.15721">
        <ele>640.20001220703</ele>
        <time>2019-06-01T09:13:52.000Z</time>
      </trkpt>
      <trkpt lat="43.93535" lon="7.15715">
        <ele>639.20001220703</ele>
        <time>2019-06-01T09:13:53.000Z</time>
      </trkpt>
      <trkpt lat="43.93541" lon="7.15709">
        <ele>638.79998779297</ele>
        <time>2019-06-01T09:13:54.000Z</time>
      </trkpt>
      <trkpt lat="43.93546" lon="7.15701">
        <ele>637.40002441406</ele>
        <time>2019-06-01T09:13:55.000Z</time>
      </trkpt>
      <trkpt lat="43.93551" lon="7.15684">
        <ele>636.59997558594</ele>
        <time>2019-06-01T09:13:57.000Z</time>
      </trkpt>
      <trkpt lat="43.93551" lon="7.15675">
        <ele>636.20001220703</ele>
        <time>2019-06-01T09:13:58.000Z</time>
      </trkpt>
      <trkpt lat="43.93551" lon="7.15665">
        <ele>635.79998779297</ele>
        <time>2019-06-01T09:13:59.000Z</time>
      </trkpt>
      <trkpt lat="43.93553" lon="7.15648">
        <ele>635.40002441406</ele>
        <time>2019-06-01T09:14:01.000Z</time>
      </trkpt>
      <trkpt lat="43.93556" lon="7.15633">
        <ele>635.20001220703</ele>
        <time>2019-06-01T09:14:03.000Z</time>
      </trkpt>
      <trkpt lat="43.93559" lon="7.15624">
        <ele>635.40002441406</ele>
        <time>2019-06-01T09:14:05.000Z</time>
      </trkpt>
      <trkpt lat="43.9356" lon="7.15611">
        <ele>637.59997558594</ele>
        <time>2019-06-01T09:14:09.000Z</time>
      </trkpt>
      <trkpt lat="43.93561" lon="7.15602">
        <ele>638.59997558594</ele>
        <time>2019-06-01T09:14:11.000Z</time>
      </trkpt>
      <trkpt lat="43.93562" lon="7.15582">
        <ele>639.79998779297</ele>
        <time>2019-06-01T09:14:15.000Z</time>
      </trkpt>
      <trkpt lat="43.93562" lon="7.15579">
        <ele>640</ele>
        <time>2019-06-01T09:14:16.000Z</time>
      </trkpt>
      <trkpt lat="43.9356" lon="7.15559">
        <ele>641</ele>
        <time>2019-06-01T09:14:21.000Z</time>
      </trkpt>
      <trkpt lat="43.93559" lon="7.15555">
        <ele>641.20001220703</ele>
        <time>2019-06-01T09:14:22.000Z</time>
      </trkpt>
      <trkpt lat="43.93554" lon="7.1554">
        <ele>642.20001220703</ele>
        <time>2019-06-01T09:14:26.000Z</time>
      </trkpt>
      <trkpt lat="43.93553" lon="7.15531">
        <ele>642.59997558594</ele>
        <time>2019-06-01T09:14:29.000Z</time>
      </trkpt>
      <trkpt lat="43.93555" lon="7.15523">
        <ele>642.59997558594</ele>
        <time>2019-06-01T09:14:31.000Z</time>
      </trkpt>
      <trkpt lat="43.93562" lon="7.15518">
        <ele>642.59997558594</ele>
        <time>2019-06-01T09:14:33.000Z</time>
      </trkpt>
      <trkpt lat="43.93574" lon="7.15495">
        <ele>642.20001220703</ele>
        <time>2019-06-01T09:14:37.000Z</time>
      </trkpt>
      <trkpt lat="43.93578" lon="7.15479">
        <ele>641</ele>
        <time>2019-06-01T09:14:39.000Z</time>
      </trkpt>
      <trkpt lat="43.93579" lon="7.15463">
        <ele>639.20001220703</ele>
        <time>2019-06-01T09:14:41.000Z</time>
      </trkpt>
      <trkpt lat="43.93579" lon="7.15455">
        <ele>638.59997558594</ele>
        <time>2019-06-01T09:14:42.000Z</time>
      </trkpt>
      <trkpt lat="43.9358" lon="7.15447">
        <ele>638.20001220703</ele>
        <time>2019-06-01T09:14:43.000Z</time>
      </trkpt>
      <trkpt lat="43.93585" lon="7.15436">
        <ele>638.40002441406</ele>
        <time>2019-06-01T09:14:45.000Z</time>
      </trkpt>
      <trkpt lat="43.93594" lon="7.15421">
        <ele>638.79998779297</ele>
        <time>2019-06-01T09:14:48.000Z</time>
      </trkpt>
      <trkpt lat="43.93596" lon="7.15415">
        <ele>638.59997558594</ele>
        <time>2019-06-01T09:14:49.000Z</time>
      </trkpt>
      <trkpt lat="43.93602" lon="7.15389">
        <ele>637.40002441406</ele>
        <time>2019-06-01T09:14:53.000Z</time>
      </trkpt>
      <trkpt lat="43.93602" lon="7.15383">
        <ele>636.79998779297</ele>
        <time>2019-06-01T09:14:54.000Z</time>
      </trkpt>
      <trkpt lat="43.936" lon="7.15373">
        <ele>636.79998779297</ele>
        <time>2019-06-01T09:14:56.000Z</time>
      </trkpt>
      <trkpt lat="43.93588" lon="7.15356">
        <ele>637.40002441406</ele>
        <time>2019-06-01T09:15:00.000Z</time>
      </trkpt>
      <trkpt lat="43.93583" lon="7.15346">
        <ele>636.59997558594</ele>
        <time>2019-06-01T09:15:03.000Z</time>
      </trkpt>
      <trkpt lat="43.93581" lon="7.15344">
        <ele>636.20001220703</ele>
        <time>2019-06-01T09:15:04.000Z</time>
      </trkpt>
      <trkpt lat="43.93577" lon="7.15335">
        <ele>635.40002441406</ele>
        <time>2019-06-01T09:15:06.000Z</time>
      </trkpt>
      <trkpt lat="43.93575" lon="7.1533">
        <ele>635.20001220703</ele>
        <time>2019-06-01T09:15:07.000Z</time>
      </trkpt>
      <trkpt lat="43.93573" lon="7.1532">
        <ele>634.20001220703</ele>
        <time>2019-06-01T09:15:09.000Z</time>
      </trkpt>
      <trkpt lat="43.93573" lon="7.15308">
        <ele>633.40002441406</ele>
        <time>2019-06-01T09:15:11.000Z</time>
      </trkpt>
      <trkpt lat="43.93572" lon="7.15293">
        <ele>632.79998779297</ele>
        <time>2019-06-01T09:15:14.000Z</time>
      </trkpt>
      <trkpt lat="43.93573" lon="7.15287">
        <ele>632</ele>
        <time>2019-06-01T09:15:15.000Z</time>
      </trkpt>
      <trkpt lat="43.93573" lon="7.15281">
        <ele>631.40002441406</ele>
        <time>2019-06-01T09:15:16.000Z</time>
      </trkpt>
      <trkpt lat="43.93574" lon="7.15273">
        <ele>630</ele>
        <time>2019-06-01T09:15:17.000Z</time>
      </trkpt>
      <trkpt lat="43.93574" lon="7.15267">
        <ele>628.79998779297</ele>
        <time>2019-06-01T09:15:18.000Z</time>
      </trkpt>
      <trkpt lat="43.93573" lon="7.15262">
        <ele>627.79998779297</ele>
        <time>2019-06-01T09:15:19.000Z</time>
      </trkpt>
      <trkpt lat="43.93572" lon="7.15258">
        <ele>627.20001220703</ele>
        <time>2019-06-01T09:15:20.000Z</time>
      </trkpt>
      <trkpt lat="43.93571" lon="7.15252">
        <ele>626.40002441406</ele>
        <time>2019-06-01T09:15:21.000Z</time>
      </trkpt>
      <trkpt lat="43.9357" lon="7.15246">
        <ele>626.59997558594</ele>
        <time>2019-06-01T09:15:22.000Z</time>
      </trkpt>
      <trkpt lat="43.9357" lon="7.15228">
        <ele>627.20001220703</ele>
        <time>2019-06-01T09:15:25.000Z</time>
      </trkpt>
      <trkpt lat="43.93566" lon="7.15202">
        <ele>627.40002441406</ele>
        <time>2019-06-01T09:15:30.000Z</time>
      </trkpt>
      <trkpt lat="43.93564" lon="7.15183">
        <ele>627.20001220703</ele>
        <time>2019-06-01T09:15:35.000Z</time>
      </trkpt>
      <trkpt lat="43.93567" lon="7.15183">
        <ele>626</ele>
        <time>2019-06-01T09:15:37.000Z</time>
      </trkpt>
      <trkpt lat="43.9357" lon="7.15184">
        <ele>625.59997558594</ele>
        <time>2019-06-01T09:15:38.000Z</time>
      </trkpt>
      <trkpt lat="43.93573" lon="7.15184">
        <ele>624.79998779297</ele>
        <time>2019-06-01T09:15:39.000Z</time>
      </trkpt>
      <trkpt lat="43.9358" lon="7.15186">
        <ele>623.59997558594</ele>
        <time>2019-06-01T09:15:41.000Z</time>
      </trkpt>
      <trkpt lat="43.93584" lon="7.15188">
        <ele>623</ele>
        <time>2019-06-01T09:15:42.000Z</time>
      </trkpt>
      <trkpt lat="43.93586" lon="7.15189">
        <ele>622</ele>
        <time>2019-06-01T09:15:43.000Z</time>
      </trkpt>
      <trkpt lat="43.93592" lon="7.1519">
        <ele>621</ele>
        <time>2019-06-01T09:15:45.000Z</time>
      </trkpt>
      <trkpt lat="43.93595" lon="7.15191">
        <ele>620.40002441406</ele>
        <time>2019-06-01T09:15:46.000Z</time>
      </trkpt>
      <trkpt lat="43.936" lon="7.15195">
        <ele>619.59997558594</ele>
        <time>2019-06-01T09:15:48.000Z</time>
      </trkpt>
      <trkpt lat="43.93608" lon="7.15198">
        <ele>618.20001220703</ele>
        <time>2019-06-01T09:15:51.000Z</time>
      </trkpt>
      <trkpt lat="43.93613" lon="7.15199">
        <ele>618</ele>
        <time>2019-06-01T09:15:52.000Z</time>
      </trkpt>
      <trkpt lat="43.93622" lon="7.152">
        <ele>617</ele>
        <time>2019-06-01T09:15:54.000Z</time>
      </trkpt>
      <trkpt lat="43.93627" lon="7.152">
        <ele>616.40002441406</ele>
        <time>2019-06-01T09:15:55.000Z</time>
      </trkpt>
      <trkpt lat="43.93631" lon="7.152">
        <ele>615.20001220703</ele>
        <time>2019-06-01T09:15:56.000Z</time>
      </trkpt>
      <trkpt lat="43.93639" lon="7.15201">
        <ele>613</ele>
        <time>2019-06-01T09:15:58.000Z</time>
      </trkpt>
      <trkpt lat="43.93647" lon="7.15203">
        <ele>611.40002441406</ele>
        <time>2019-06-01T09:16:00.000Z</time>
      </trkpt>
      <trkpt lat="43.93657" lon="7.15206">
        <ele>609.79998779297</ele>
        <time>2019-06-01T09:16:02.000Z</time>
      </trkpt>
      <trkpt lat="43.93665" lon="7.15211">
        <ele>608.59997558594</ele>
        <time>2019-06-01T09:16:04.000Z</time>
      </trkpt>
      <trkpt lat="43.93667" lon="7.15211">
        <ele>607.59997558594</ele>
        <time>2019-06-01T09:16:05.000Z</time>
      </trkpt>
      <trkpt lat="43.93673" lon="7.15208">
        <ele>605.79998779297</ele>
        <time>2019-06-01T09:16:07.000Z</time>
      </trkpt>
      <trkpt lat="43.93678" lon="7.152">
        <ele>604.20001220703</ele>
        <time>2019-06-01T09:16:09.000Z</time>
      </trkpt>
      <trkpt lat="43.93689" lon="7.15188">
        <ele>602.79998779297</ele>
        <time>2019-06-01T09:16:12.000Z</time>
      </trkpt>
      <trkpt lat="43.93693" lon="7.15185">
        <ele>602.20001220703</ele>
        <time>2019-06-01T09:16:13.000Z</time>
      </trkpt>
      <trkpt lat="43.93695" lon="7.15182">
        <ele>601.59997558594</ele>
        <time>2019-06-01T09:16:14.000Z</time>
      </trkpt>
      <trkpt lat="43.93697" lon="7.1518">
        <ele>601.20001220703</ele>
        <time>2019-06-01T09:16:15.000Z</time>
      </trkpt>
      <trkpt lat="43.93705" lon="7.15172">
        <ele>600</ele>
        <time>2019-06-01T09:16:17.000Z</time>
      </trkpt>
      <trkpt lat="43.93713" lon="7.15164">
        <ele>599</ele>
        <time>2019-06-01T09:16:19.000Z</time>
      </trkpt>
      <trkpt lat="43.93717" lon="7.15161">
        <ele>598.20001220703</ele>
        <time>2019-06-01T09:16:20.000Z</time>
      </trkpt>
      <trkpt lat="43.93721" lon="7.15158">
        <ele>597.40002441406</ele>
        <time>2019-06-01T09:16:21.000Z</time>
      </trkpt>
      <trkpt lat="43.93723" lon="7.15155">
        <ele>597</ele>
        <time>2019-06-01T09:16:22.000Z</time>
      </trkpt>
      <trkpt lat="43.93729" lon="7.15151">
        <ele>596</ele>
        <time>2019-06-01T09:16:24.000Z</time>
      </trkpt>
      <trkpt lat="43.93733" lon="7.15153">
        <ele>595.79998779297</ele>
        <time>2019-06-01T09:16:25.000Z</time>
      </trkpt>
      <trkpt lat="43.93741" lon="7.15159">
        <ele>594</ele>
        <time>2019-06-01T09:16:27.000Z</time>
      </trkpt>
      <trkpt lat="43.93746" lon="7.15164">
        <ele>592.20001220703</ele>
        <time>2019-06-01T09:16:29.000Z</time>
      </trkpt>
      <trkpt lat="43.93748" lon="7.15167">
        <ele>591</ele>
        <time>2019-06-01T09:16:30.000Z</time>
      </trkpt>
      <trkpt lat="43.93752" lon="7.1517">
        <ele>589.59997558594</ele>
        <time>2019-06-01T09:16:31.000Z</time>
      </trkpt>
      <trkpt lat="43.93756" lon="7.15175">
        <ele>588</ele>
        <time>2019-06-01T09:16:32.000Z</time>
      </trkpt>
      <trkpt lat="43.9376" lon="7.15178">
        <ele>586.59997558594</ele>
        <time>2019-06-01T09:16:33.000Z</time>
      </trkpt>
      <trkpt lat="43.93763" lon="7.1518">
        <ele>585.40002441406</ele>
        <time>2019-06-01T09:16:34.000Z</time>
      </trkpt>
      <trkpt lat="43.93767" lon="7.15183">
        <ele>583.79998779297</ele>
        <time>2019-06-01T09:16:35.000Z</time>
      </trkpt>
      <trkpt lat="43.93769" lon="7.15186">
        <ele>581.79998779297</ele>
        <time>2019-06-01T09:16:36.000Z</time>
      </trkpt>
      <trkpt lat="43.93771" lon="7.15188">
        <ele>580.40002441406</ele>
        <time>2019-06-01T09:16:37.000Z</time>
      </trkpt>
      <trkpt lat="43.93775" lon="7.15191">
        <ele>578.79998779297</ele>
        <time>2019-06-01T09:16:38.000Z</time>
      </trkpt>
      <trkpt lat="43.93778" lon="7.15194">
        <ele>577.40002441406</ele>
        <time>2019-06-01T09:16:39.000Z</time>
      </trkpt>
      <trkpt lat="43.93779" lon="7.15196">
        <ele>576.20001220703</ele>
        <time>2019-06-01T09:16:40.000Z</time>
      </trkpt>
      <trkpt lat="43.93782" lon="7.152">
        <ele>574.79998779297</ele>
        <time>2019-06-01T09:16:42.000Z</time>
      </trkpt>
      <trkpt lat="43.93783" lon="7.15198">
        <ele>573.59997558594</ele>
        <time>2019-06-01T09:16:44.000Z</time>
      </trkpt>
      <trkpt lat="43.93783" lon="7.15195">
        <ele>572.20001220703</ele>
        <time>2019-06-01T09:16:45.000Z</time>
      </trkpt>
      <trkpt lat="43.93783" lon="7.1519">
        <ele>571.20001220703</ele>
        <time>2019-06-01T09:16:46.000Z</time>
      </trkpt>
      <trkpt lat="43.93782" lon="7.15186">
        <ele>570.20001220703</ele>
        <time>2019-06-01T09:16:47.000Z</time>
      </trkpt>
      <trkpt lat="43.93781" lon="7.15184">
        <ele>569.40002441406</ele>
        <time>2019-06-01T09:16:48.000Z</time>
      </trkpt>
      <trkpt lat="43.9378" lon="7.15182">
        <ele>568.59997558594</ele>
        <time>2019-06-01T09:16:49.000Z</time>
      </trkpt>
      <trkpt lat="43.93781" lon="7.1518">
        <ele>568.20001220703</ele>
        <time>2019-06-01T09:16:50.000Z</time>
      </trkpt>
      <trkpt lat="43.93782" lon="7.1518">
        <ele>567.20001220703</ele>
        <time>2019-06-01T09:16:52.000Z</time>
      </trkpt>
      <trkpt lat="43.93785" lon="7.15184">
        <ele>566.59997558594</ele>
        <time>2019-06-01T09:16:54.000Z</time>
      </trkpt>
      <trkpt lat="43.93791" lon="7.15193">
        <ele>566</ele>
        <time>2019-06-01T09:16:56.000Z</time>
      </trkpt>
      <trkpt lat="43.93794" lon="7.15198">
        <ele>565.59997558594</ele>
        <time>2019-06-01T09:16:57.000Z</time>
      </trkpt>
      <trkpt lat="43.93799" lon="7.15209">
        <ele>564.40002441406</ele>
        <time>2019-06-01T09:16:59.000Z</time>
      </trkpt>
      <trkpt lat="43.93805" lon="7.15221">
        <ele>563.20001220703</ele>
        <time>2019-06-01T09:17:01.000Z</time>
      </trkpt>
      <trkpt lat="43.93808" lon="7.15228">
        <ele>562</ele>
        <time>2019-06-01T09:17:02.000Z</time>
      </trkpt>
      <trkpt lat="43.9381" lon="7.15234">
        <ele>560.20001220703</ele>
        <time>2019-06-01T09:17:03.000Z</time>
      </trkpt>
      <trkpt lat="43.93813" lon="7.15235">
        <ele>558.59997558594</ele>
        <time>2019-06-01T09:17:04.000Z</time>
      </trkpt>
      <trkpt lat="43.93816" lon="7.15236">
        <ele>557</ele>
        <time>2019-06-01T09:17:05.000Z</time>
      </trkpt>
      <trkpt lat="43.93821" lon="7.15238">
        <ele>555.40002441406</ele>
        <time>2019-06-01T09:17:06.000Z</time>
      </trkpt>
      <trkpt lat="43.93825" lon="7.15241">
        <ele>554</ele>
        <time>2019-06-01T09:17:07.000Z</time>
      </trkpt>
      <trkpt lat="43.93829" lon="7.15244">
        <ele>553.59997558594</ele>
        <time>2019-06-01T09:17:08.000Z</time>
      </trkpt>
      <trkpt lat="43.93832" lon="7.15246">
        <ele>553</ele>
        <time>2019-06-01T09:17:09.000Z</time>
      </trkpt>
      <trkpt lat="43.93838" lon="7.1525">
        <ele>552</ele>
        <time>2019-06-01T09:17:10.000Z</time>
      </trkpt>
      <trkpt lat="43.93853" lon="7.15258">
        <ele>550.40002441406</ele>
        <time>2019-06-01T09:17:13.000Z</time>
      </trkpt>
      <trkpt lat="43.93863" lon="7.15263">
        <ele>549</ele>
        <time>2019-06-01T09:17:15.000Z</time>
      </trkpt>
      <trkpt lat="43.93871" lon="7.15267">
        <ele>547.79998779297</ele>
        <time>2019-06-01T09:17:17.000Z</time>
      </trkpt>
      <trkpt lat="43.93876" lon="7.15269">
        <ele>546.79998779297</ele>
        <time>2019-06-01T09:17:18.000Z</time>
      </trkpt>
      <trkpt lat="43.93881" lon="7.15272">
        <ele>546.20001220703</ele>
        <time>2019-06-01T09:17:19.000Z</time>
      </trkpt>
      <trkpt lat="43.93886" lon="7.15274">
        <ele>544.79998779297</ele>
        <time>2019-06-01T09:17:20.000Z</time>
      </trkpt>
      <trkpt lat="43.9389" lon="7.15275">
        <ele>543.59997558594</ele>
        <time>2019-06-01T09:17:21.000Z</time>
      </trkpt>
      <trkpt lat="43.93894" lon="7.15275">
        <ele>541.59997558594</ele>
        <time>2019-06-01T09:17:22.000Z</time>
      </trkpt>
      <trkpt lat="43.93899" lon="7.15276">
        <ele>540.40002441406</ele>
        <time>2019-06-01T09:17:23.000Z</time>
      </trkpt>
      <trkpt lat="43.93903" lon="7.15278">
        <ele>538.59997558594</ele>
        <time>2019-06-01T09:17:24.000Z</time>
      </trkpt>
      <trkpt lat="43.93906" lon="7.1528">
        <ele>536.59997558594</ele>
        <time>2019-06-01T09:17:25.000Z</time>
      </trkpt>
      <trkpt lat="43.93908" lon="7.15281">
        <ele>535.40002441406</ele>
        <time>2019-06-01T09:17:26.000Z</time>
      </trkpt>
      <trkpt lat="43.93912" lon="7.15283">
        <ele>534.20001220703</ele>
        <time>2019-06-01T09:17:27.000Z</time>
      </trkpt>
      <trkpt lat="43.93914" lon="7.15284">
        <ele>533</ele>
        <time>2019-06-01T09:17:28.000Z</time>
      </trkpt>
      <trkpt lat="43.93918" lon="7.15288">
        <ele>531.79998779297</ele>
        <time>2019-06-01T09:17:31.000Z</time>
      </trkpt>
      <trkpt lat="43.93918" lon="7.15288">
        <ele>531.59997558594</ele>
        <time>2019-06-01T09:17:37.000Z</time>
      </trkpt>
      <trkpt lat="43.93919" lon="7.1529">
        <ele>531.20001220703</ele>
        <time>2019-06-01T09:17:49.000Z</time>
      </trkpt>
      <trkpt lat="43.9392" lon="7.15291">
        <ele>531.40002441406</ele>
        <time>2019-06-01T09:17:50.000Z</time>
      </trkpt>
      <trkpt lat="43.93923" lon="7.15296">
        <ele>531.59997558594</ele>
        <time>2019-06-01T09:17:54.000Z</time>
      </trkpt>
      <trkpt lat="43.93926" lon="7.15299">
        <ele>531.79998779297</ele>
        <time>2019-06-01T09:17:57.000Z</time>
      </trkpt>
      <trkpt lat="43.93928" lon="7.15301">
        <ele>532</ele>
        <time>2019-06-01T09:18:04.000Z</time>
      </trkpt>
      <trkpt lat="43.93929" lon="7.15301">
        <ele>532</ele>
        <time>2019-06-01T09:18:05.000Z</time>
      </trkpt>
      <trkpt lat="43.9394" lon="7.15305">
        <ele>532</ele>
        <time>2019-06-01T09:18:10.000Z</time>
      </trkpt>
      <trkpt lat="43.93951" lon="7.15301">
        <ele>531.59997558594</ele>
        <time>2019-06-01T09:18:13.000Z</time>
      </trkpt>
      <trkpt lat="43.93959" lon="7.15299">
        <ele>531</ele>
        <time>2019-06-01T09:18:15.000Z</time>
      </trkpt>
      <trkpt lat="43.93962" lon="7.15298">
        <ele>530.40002441406</ele>
        <time>2019-06-01T09:18:16.000Z</time>
      </trkpt>
      <trkpt lat="43.93975" lon="7.15295">
        <ele>529.40002441406</ele>
        <time>2019-06-01T09:18:19.000Z</time>
      </trkpt>
      <trkpt lat="43.93997" lon="7.15284">
        <ele>528.79998779297</ele>
        <time>2019-06-01T09:18:25.000Z</time>
      </trkpt>
      <trkpt lat="43.94013" lon="7.15281">
        <ele>528.59997558594</ele>
        <time>2019-06-01T09:18:29.000Z</time>
      </trkpt>
      <trkpt lat="43.94022" lon="7.15278">
        <ele>528.40002441406</ele>
        <time>2019-06-01T09:18:31.000Z</time>
      </trkpt>
      <trkpt lat="43.94027" lon="7.15277">
        <ele>528.20001220703</ele>
        <time>2019-06-01T09:18:32.000Z</time>
      </trkpt>
      <trkpt lat="43.94031" lon="7.15275">
        <ele>528</ele>
        <time>2019-06-01T09:18:33.000Z</time>
      </trkpt>
      <trkpt lat="43.94041" lon="7.15264">
        <ele>527.79998779297</ele>
        <time>2019-06-01T09:18:37.000Z</time>
      </trkpt>
      <trkpt lat="43.94049" lon="7.15256">
        <ele>528.79998779297</ele>
        <time>2019-06-01T09:18:42.000Z</time>
      </trkpt>
      <trkpt lat="43.94051" lon="7.15254">
        <ele>529.20001220703</ele>
        <time>2019-06-01T09:18:44.000Z</time>
      </trkpt>
      <trkpt lat="43.94054" lon="7.15251">
        <ele>529.79998779297</ele>
        <time>2019-06-01T09:18:47.000Z</time>
      </trkpt>
      <trkpt lat="43.94056" lon="7.1525">
        <ele>530.20001220703</ele>
        <time>2019-06-01T09:18:49.000Z</time>
      </trkpt>
      <trkpt lat="43.94058" lon="7.15249">
        <ele>530.40002441406</ele>
        <time>2019-06-01T09:18:50.000Z</time>
      </trkpt>
      <trkpt lat="43.9406" lon="7.15245">
        <ele>530.79998779297</ele>
        <time>2019-06-01T09:18:53.000Z</time>
      </trkpt>
      <trkpt lat="43.94061" lon="7.15243">
        <ele>531</ele>
        <time>2019-06-01T09:18:54.000Z</time>
      </trkpt>
      <trkpt lat="43.94063" lon="7.15241">
        <ele>531.79998779297</ele>
        <time>2019-06-01T09:18:56.000Z</time>
      </trkpt>
      <trkpt lat="43.94067" lon="7.15237">
        <ele>532.40002441406</ele>
        <time>2019-06-01T09:18:59.000Z</time>
      </trkpt>
      <trkpt lat="43.94068" lon="7.15236">
        <ele>532.79998779297</ele>
        <time>2019-06-01T09:19:00.000Z</time>
      </trkpt>
      <trkpt lat="43.94075" lon="7.15229">
        <ele>533.79998779297</ele>
        <time>2019-06-01T09:19:06.000Z</time>
      </trkpt>
      <trkpt lat="43.94076" lon="7.15228">
        <ele>534.20001220703</ele>
        <time>2019-06-01T09:19:07.000Z</time>
      </trkpt>
      <trkpt lat="43.9408" lon="7.15223">
        <ele>535</ele>
        <time>2019-06-01T09:19:10.000Z</time>
      </trkpt>
      <trkpt lat="43.94081" lon="7.15223">
        <ele>535.40002441406</ele>
        <time>2019-06-01T09:19:12.000Z</time>
      </trkpt>
      <trkpt lat="43.94085" lon="7.15221">
        <ele>536.20001220703</ele>
        <time>2019-06-01T09:19:15.000Z</time>
      </trkpt>
      <trkpt lat="43.94088" lon="7.1522">
        <ele>536.59997558594</ele>
        <time>2019-06-01T09:19:17.000Z</time>
      </trkpt>
      <trkpt lat="43.94093" lon="7.1522">
        <ele>537.20001220703</ele>
        <time>2019-06-01T09:19:20.000Z</time>
      </trkpt>
      <trkpt lat="43.94096" lon="7.15221">
        <ele>537.40002441406</ele>
        <time>2019-06-01T09:19:22.000Z</time>
      </trkpt>
      <trkpt lat="43.941" lon="7.15224">
        <ele>538.40002441406</ele>
        <time>2019-06-01T09:19:26.000Z</time>
      </trkpt>
      <trkpt lat="43.94105" lon="7.15225">
        <ele>539.40002441406</ele>
        <time>2019-06-01T09:19:29.000Z</time>
      </trkpt>
      <trkpt lat="43.94105" lon="7.15226">
        <ele>539.59997558594</ele>
        <time>2019-06-01T09:19:30.000Z</time>
      </trkpt>
      <trkpt lat="43.9411" lon="7.15227">
        <ele>540.40002441406</ele>
        <time>2019-06-01T09:19:34.000Z</time>
      </trkpt>
      <trkpt lat="43.94112" lon="7.15228">
        <ele>540.79998779297</ele>
        <time>2019-06-01T09:19:35.000Z</time>
      </trkpt>
      <trkpt lat="43.94117" lon="7.15229">
        <ele>542</ele>
        <time>2019-06-01T09:19:41.000Z</time>
      </trkpt>
      <trkpt lat="43.94119" lon="7.15229">
        <ele>542.20001220703</ele>
        <time>2019-06-01T09:19:42.000Z</time>
      </trkpt>
      <trkpt lat="43.94122" lon="7.15231">
        <ele>543</ele>
        <time>2019-06-01T09:19:45.000Z</time>
      </trkpt>
      <trkpt lat="43.94125" lon="7.15234">
        <ele>543.40002441406</ele>
        <time>2019-06-01T09:19:48.000Z</time>
      </trkpt>
      <trkpt lat="43.9413" lon="7.15235">
        <ele>544.20001220703</ele>
        <time>2019-06-01T09:19:52.000Z</time>
      </trkpt>
      <trkpt lat="43.94132" lon="7.15235">
        <ele>544.40002441406</ele>
        <time>2019-06-01T09:19:54.000Z</time>
      </trkpt>
      <trkpt lat="43.94139" lon="7.15236">
        <ele>545.20001220703</ele>
        <time>2019-06-01T09:19:59.000Z</time>
      </trkpt>
      <trkpt lat="43.94141" lon="7.15238">
        <ele>545.59997558594</ele>
        <time>2019-06-01T09:20:01.000Z</time>
      </trkpt>
      <trkpt lat="43.94145" lon="7.15239">
        <ele>546.40002441406</ele>
        <time>2019-06-01T09:20:04.000Z</time>
      </trkpt>
      <trkpt lat="43.94149" lon="7.15242">
        <ele>546.59997558594</ele>
        <time>2019-06-01T09:20:07.000Z</time>
      </trkpt>
      <trkpt lat="43.94159" lon="7.15249">
        <ele>547</ele>
        <time>2019-06-01T09:20:14.000Z</time>
      </trkpt>
      <trkpt lat="43.94168" lon="7.15259">
        <ele>547.40002441406</ele>
        <time>2019-06-01T09:20:20.000Z</time>
      </trkpt>
      <trkpt lat="43.94183" lon="7.15265">
        <ele>547</ele>
        <time>2019-06-01T09:20:24.000Z</time>
      </trkpt>
      <trkpt lat="43.94195" lon="7.15269">
        <ele>546.40002441406</ele>
        <time>2019-06-01T09:20:27.000Z</time>
      </trkpt>
      <trkpt lat="43.942" lon="7.15268">
        <ele>546.20001220703</ele>
        <time>2019-06-01T09:20:28.000Z</time>
      </trkpt>
      <trkpt lat="43.94206" lon="7.15267">
        <ele>546</ele>
        <time>2019-06-01T09:20:29.000Z</time>
      </trkpt>
      <trkpt lat="43.94228" lon="7.15267">
        <ele>545.40002441406</ele>
        <time>2019-06-01T09:20:33.000Z</time>
      </trkpt>
      <trkpt lat="43.94233" lon="7.15268">
        <ele>545.20001220703</ele>
        <time>2019-06-01T09:20:34.000Z</time>
      </trkpt>
      <trkpt lat="43.94256" lon="7.15271">
        <ele>543.59997558594</ele>
        <time>2019-06-01T09:20:38.000Z</time>
      </trkpt>
      <trkpt lat="43.94261" lon="7.15271">
        <ele>543.20001220703</ele>
        <time>2019-06-01T09:20:39.000Z</time>
      </trkpt>
      <trkpt lat="43.94273" lon="7.1527">
        <ele>542.59997558594</ele>
        <time>2019-06-01T09:20:42.000Z</time>
      </trkpt>
      <trkpt lat="43.94274" lon="7.1527">
        <ele>542.59997558594</ele>
        <time>2019-06-01T09:20:43.000Z</time>
      </trkpt>
      <trkpt lat="43.94286" lon="7.15262">
        <ele>543</ele>
        <time>2019-06-01T09:20:49.000Z</time>
      </trkpt>
      <trkpt lat="43.94292" lon="7.15258">
        <ele>543.20001220703</ele>
        <time>2019-06-01T09:20:54.000Z</time>
      </trkpt>
      <trkpt lat="43.94297" lon="7.15254">
        <ele>543.59997558594</ele>
        <time>2019-06-01T09:20:57.000Z</time>
      </trkpt>
      <trkpt lat="43.943" lon="7.1525">
        <ele>544.20001220703</ele>
        <time>2019-06-01T09:21:00.000Z</time>
      </trkpt>
      <trkpt lat="43.94303" lon="7.15248">
        <ele>544.79998779297</ele>
        <time>2019-06-01T09:21:02.000Z</time>
      </trkpt>
      <trkpt lat="43.94307" lon="7.15243">
        <ele>545.79998779297</ele>
        <time>2019-06-01T09:21:05.000Z</time>
      </trkpt>
      <trkpt lat="43.9431" lon="7.15238">
        <ele>546.40002441406</ele>
        <time>2019-06-01T09:21:07.000Z</time>
      </trkpt>
      <trkpt lat="43.94312" lon="7.15236">
        <ele>546.79998779297</ele>
        <time>2019-06-01T09:21:08.000Z</time>
      </trkpt>
      <trkpt lat="43.94315" lon="7.15229">
        <ele>548</ele>
        <time>2019-06-01T09:21:12.000Z</time>
      </trkpt>
      <trkpt lat="43.94318" lon="7.1522">
        <ele>549.20001220703</ele>
        <time>2019-06-01T09:21:15.000Z</time>
      </trkpt>
      <trkpt lat="43.9432" lon="7.15219">
        <ele>549.59997558594</ele>
        <time>2019-06-01T09:21:16.000Z</time>
      </trkpt>
      <trkpt lat="43.94325" lon="7.1521">
        <ele>550.40002441406</ele>
        <time>2019-06-01T09:21:20.000Z</time>
      </trkpt>
      <trkpt lat="43.94334" lon="7.15198">
        <ele>550.40002441406</ele>
        <time>2019-06-01T09:21:23.000Z</time>
      </trkpt>
      <trkpt lat="43.94337" lon="7.15196">
        <ele>550.40002441406</ele>
        <time>2019-06-01T09:21:24.000Z</time>
      </trkpt>
      <trkpt lat="43.94353" lon="7.15187">
        <ele>549.59997558594</ele>
        <time>2019-06-01T09:21:29.000Z</time>
      </trkpt>
      <trkpt lat="43.94363" lon="7.15183">
        <ele>550.79998779297</ele>
        <time>2019-06-01T09:21:34.000Z</time>
      </trkpt>
      <trkpt lat="43.94374" lon="7.1518">
        <ele>551.40002441406</ele>
        <time>2019-06-01T09:21:38.000Z</time>
      </trkpt>
      <trkpt lat="43.94378" lon="7.1518">
        <ele>552</ele>
        <time>2019-06-01T09:21:40.000Z</time>
      </trkpt>
      <trkpt lat="43.94384" lon="7.15179">
        <ele>552.59997558594</ele>
        <time>2019-06-01T09:21:42.000Z</time>
      </trkpt>
      <trkpt lat="43.94388" lon="7.15175">
        <ele>552.79998779297</ele>
        <time>2019-06-01T09:21:44.000Z</time>
      </trkpt>
      <trkpt lat="43.94395" lon="7.15154">
        <ele>553</ele>
        <time>2019-06-01T09:21:50.000Z</time>
      </trkpt>
      <trkpt lat="43.94399" lon="7.15146">
        <ele>553.59997558594</ele>
        <time>2019-06-01T09:21:53.000Z</time>
      </trkpt>
      <trkpt lat="43.94402" lon="7.15144">
        <ele>554</ele>
        <time>2019-06-01T09:21:55.000Z</time>
      </trkpt>
      <trkpt lat="43.94405" lon="7.15138">
        <ele>554.79998779297</ele>
        <time>2019-06-01T09:21:59.000Z</time>
      </trkpt>
      <trkpt lat="43.94407" lon="7.15135">
        <ele>555</ele>
        <time>2019-06-01T09:22:01.000Z</time>
      </trkpt>
      <trkpt lat="43.9441" lon="7.15128">
        <ele>555.79998779297</ele>
        <time>2019-06-01T09:22:05.000Z</time>
      </trkpt>
      <trkpt lat="43.9441" lon="7.15126">
        <ele>556.20001220703</ele>
        <time>2019-06-01T09:22:07.000Z</time>
      </trkpt>
      <trkpt lat="43.9441" lon="7.15126">
        <ele>556.79998779297</ele>
        <time>2019-06-01T09:22:10.000Z</time>
      </trkpt>
      <trkpt lat="43.9441" lon="7.15125">
        <ele>557</ele>
        <time>2019-06-01T09:22:14.000Z</time>
      </trkpt>
      <trkpt lat="43.94413" lon="7.1512">
        <ele>557.59997558594</ele>
        <time>2019-06-01T09:22:21.000Z</time>
      </trkpt>
      <trkpt lat="43.94414" lon="7.15118">
        <ele>558</ele>
        <time>2019-06-01T09:22:23.000Z</time>
      </trkpt>
      <trkpt lat="43.94416" lon="7.15116">
        <ele>559</ele>
        <time>2019-06-01T09:22:28.000Z</time>
      </trkpt>
      <trkpt lat="43.94416" lon="7.15115">
        <ele>559</ele>
        <time>2019-06-01T09:22:29.000Z</time>
      </trkpt>
      <trkpt lat="43.94419" lon="7.15113">
        <ele>560.20001220703</ele>
        <time>2019-06-01T09:22:34.000Z</time>
      </trkpt>
      <trkpt lat="43.9442" lon="7.15111">
        <ele>560.40002441406</ele>
        <time>2019-06-01T09:22:36.000Z</time>
      </trkpt>
      <trkpt lat="43.94422" lon="7.15109">
        <ele>561.40002441406</ele>
        <time>2019-06-01T09:22:41.000Z</time>
      </trkpt>
      <trkpt lat="43.94423" lon="7.15106">
        <ele>562</ele>
        <time>2019-06-01T09:22:44.000Z</time>
      </trkpt>
      <trkpt lat="43.94424" lon="7.15102">
        <ele>562.40002441406</ele>
        <time>2019-06-01T09:22:47.000Z</time>
      </trkpt>
      <trkpt lat="43.94424" lon="7.15096">
        <ele>563.20001220703</ele>
        <time>2019-06-01T09:22:51.000Z</time>
      </trkpt>
      <trkpt lat="43.94424" lon="7.15094">
        <ele>563.40002441406</ele>
        <time>2019-06-01T09:22:53.000Z</time>
      </trkpt>
      <trkpt lat="43.94425" lon="7.15093">
        <ele>563.59997558594</ele>
        <time>2019-06-01T09:22:55.000Z</time>
      </trkpt>
      <trkpt lat="43.94426" lon="7.15092">
        <ele>563.59997558594</ele>
        <time>2019-06-01T09:22:56.000Z</time>
      </trkpt>
      <trkpt lat="43.94429" lon="7.15088">
        <ele>563.59997558594</ele>
        <time>2019-06-01T09:22:58.000Z</time>
      </trkpt>
      <trkpt lat="43.94434" lon="7.15084">
        <ele>563</ele>
        <time>2019-06-01T09:23:00.000Z</time>
      </trkpt>
      <trkpt lat="43.94443" lon="7.15078">
        <ele>562</ele>
        <time>2019-06-01T09:23:02.000Z</time>
      </trkpt>
      <trkpt lat="43.94449" lon="7.15077">
        <ele>561.40002441406</ele>
        <time>2019-06-01T09:23:03.000Z</time>
      </trkpt>
      <trkpt lat="43.94453" lon="7.15077">
        <ele>560.79998779297</ele>
        <time>2019-06-01T09:23:04.000Z</time>
      </trkpt>
      <trkpt lat="43.94464" lon="7.15077">
        <ele>560.20001220703</ele>
        <time>2019-06-01T09:23:06.000Z</time>
      </trkpt>
      <trkpt lat="43.94469" lon="7.15077">
        <ele>559.79998779297</ele>
        <time>2019-06-01T09:23:07.000Z</time>
      </trkpt>
      <trkpt lat="43.94473" lon="7.15076">
        <ele>559.59997558594</ele>
        <time>2019-06-01T09:23:08.000Z</time>
      </trkpt>
      <trkpt lat="43.94477" lon="7.15075">
        <ele>559.59997558594</ele>
        <time>2019-06-01T09:23:09.000Z</time>
      </trkpt>
      <trkpt lat="43.94488" lon="7.15065">
        <ele>559.59997558594</ele>
        <time>2019-06-01T09:23:12.000Z</time>
      </trkpt>
      <trkpt lat="43.94494" lon="7.15056">
        <ele>559.59997558594</ele>
        <time>2019-06-01T09:23:14.000Z</time>
      </trkpt>
      <trkpt lat="43.94498" lon="7.15042">
        <ele>559.20001220703</ele>
        <time>2019-06-01T09:23:16.000Z</time>
      </trkpt>
      <trkpt lat="43.94504" lon="7.15026">
        <ele>558.40002441406</ele>
        <time>2019-06-01T09:23:18.000Z</time>
      </trkpt>
      <trkpt lat="43.94512" lon="7.15006">
        <ele>557.20001220703</ele>
        <time>2019-06-01T09:23:21.000Z</time>
      </trkpt>
      <trkpt lat="43.94515" lon="7.15001">
        <ele>556.59997558594</ele>
        <time>2019-06-01T09:23:22.000Z</time>
      </trkpt>
      <trkpt lat="43.94523" lon="7.14993">
        <ele>556.20001220703</ele>
        <time>2019-06-01T09:23:26.000Z</time>
      </trkpt>
      <trkpt lat="43.94528" lon="7.14991">
        <ele>557.59997558594</ele>
        <time>2019-06-01T09:23:29.000Z</time>
      </trkpt>
      <trkpt lat="43.94534" lon="7.14991">
        <ele>557.79998779297</ele>
        <time>2019-06-01T09:23:31.000Z</time>
      </trkpt>
      <trkpt lat="43.9454" lon="7.1499">
        <ele>557.20001220703</ele>
        <time>2019-06-01T09:23:35.000Z</time>
      </trkpt>
      <trkpt lat="43.9454" lon="7.14989">
        <ele>556</ele>
        <time>2019-06-01T09:23:38.000Z</time>
      </trkpt>
      <trkpt lat="43.94541" lon="7.14989">
        <ele>555.79998779297</ele>
        <time>2019-06-01T09:23:46.000Z</time>
      </trkpt>
      <trkpt lat="43.94541" lon="7.14989">
        <ele>556.40002441406</ele>
        <time>2019-06-01T09:23:53.000Z</time>
      </trkpt>
      <trkpt lat="43.94541" lon="7.14989">
        <ele>556.20001220703</ele>
        <time>2019-06-01T09:24:03.000Z</time>
      </trkpt>
      <trkpt lat="43.94547" lon="7.14993">
        <ele>556</ele>
        <time>2019-06-01T09:24:16.000Z</time>
      </trkpt>
      <trkpt lat="43.94555" lon="7.14999">
        <ele>555.79998779297</ele>
        <time>2019-06-01T09:24:18.000Z</time>
      </trkpt>
      <trkpt lat="43.94564" lon="7.15006">
        <ele>554.59997558594</ele>
        <time>2019-06-01T09:24:20.000Z</time>
      </trkpt>
      <trkpt lat="43.94575" lon="7.15012">
        <ele>553.59997558594</ele>
        <time>2019-06-01T09:24:22.000Z</time>
      </trkpt>
      <trkpt lat="43.94584" lon="7.15018">
        <ele>552</ele>
        <time>2019-06-01T09:24:24.000Z</time>
      </trkpt>
      <trkpt lat="43.94588" lon="7.15025">
        <ele>550.59997558594</ele>
        <time>2019-06-01T09:24:26.000Z</time>
      </trkpt>
      <trkpt lat="43.9459" lon="7.15031">
        <ele>549.59997558594</ele>
        <time>2019-06-01T09:24:27.000Z</time>
      </trkpt>
      <trkpt lat="43.94591" lon="7.15036">
        <ele>548.79998779297</ele>
        <time>2019-06-01T09:24:28.000Z</time>
      </trkpt>
      <trkpt lat="43.94593" lon="7.15041">
        <ele>548</ele>
        <time>2019-06-01T09:24:29.000Z</time>
      </trkpt>
      <trkpt lat="43.94596" lon="7.15051">
        <ele>546.59997558594</ele>
        <time>2019-06-01T09:24:31.000Z</time>
      </trkpt>
      <trkpt lat="43.946" lon="7.1506">
        <ele>545</ele>
        <time>2019-06-01T09:24:33.000Z</time>
      </trkpt>
      <trkpt lat="43.94601" lon="7.15065">
        <ele>544.20001220703</ele>
        <time>2019-06-01T09:24:34.000Z</time>
      </trkpt>
      <trkpt lat="43.94603" lon="7.15071">
        <ele>543.59997558594</ele>
        <time>2019-06-01T09:24:35.000Z</time>
      </trkpt>
      <trkpt lat="43.94608" lon="7.15082">
        <ele>542.40002441406</ele>
        <time>2019-06-01T09:24:37.000Z</time>
      </trkpt>
      <trkpt lat="43.94614" lon="7.15095">
        <ele>541.20001220703</ele>
        <time>2019-06-01T09:24:39.000Z</time>
      </trkpt>
      <trkpt lat="43.94616" lon="7.151">
        <ele>540.79998779297</ele>
        <time>2019-06-01T09:24:40.000Z</time>
      </trkpt>
      <trkpt lat="43.94621" lon="7.15108">
        <ele>540</ele>
        <time>2019-06-01T09:24:42.000Z</time>
      </trkpt>
      <trkpt lat="43.94625" lon="7.15111">
        <ele>539.79998779297</ele>
        <time>2019-06-01T09:24:43.000Z</time>
      </trkpt>
      <trkpt lat="43.94628" lon="7.15116">
        <ele>539.59997558594</ele>
        <time>2019-06-01T09:24:44.000Z</time>
      </trkpt>
      <trkpt lat="43.94631" lon="7.15123">
        <ele>539</ele>
        <time>2019-06-01T09:24:45.000Z</time>
      </trkpt>
      <trkpt lat="43.94639" lon="7.15129">
        <ele>538</ele>
        <time>2019-06-01T09:24:47.000Z</time>
      </trkpt>
      <trkpt lat="43.94649" lon="7.15125">
        <ele>536.20001220703</ele>
        <time>2019-06-01T09:24:49.000Z</time>
      </trkpt>
      <trkpt lat="43.94655" lon="7.15124">
        <ele>535.40002441406</ele>
        <time>2019-06-01T09:24:50.000Z</time>
      </trkpt>
      <trkpt lat="43.9466" lon="7.15125">
        <ele>534.79998779297</ele>
        <time>2019-06-01T09:24:51.000Z</time>
      </trkpt>
      <trkpt lat="43.94669" lon="7.1513">
        <ele>533.79998779297</ele>
        <time>2019-06-01T09:24:53.000Z</time>
      </trkpt>
      <trkpt lat="43.94671" lon="7.15131">
        <ele>533.59997558594</ele>
        <time>2019-06-01T09:24:54.000Z</time>
      </trkpt>
      <trkpt lat="43.94675" lon="7.15134">
        <ele>533.40002441406</ele>
        <time>2019-06-01T09:24:56.000Z</time>
      </trkpt>
      <trkpt lat="43.94677" lon="7.15137">
        <ele>533.79998779297</ele>
        <time>2019-06-01T09:24:58.000Z</time>
      </trkpt>
      <trkpt lat="43.94679" lon="7.15143">
        <ele>534.20001220703</ele>
        <time>2019-06-01T09:25:02.000Z</time>
      </trkpt>
      <trkpt lat="43.9468" lon="7.15146">
        <ele>534.20001220703</ele>
        <time>2019-06-01T09:25:08.000Z</time>
      </trkpt>
      <trkpt lat="43.9468" lon="7.15149">
        <ele>534</ele>
        <time>2019-06-01T09:25:17.000Z</time>
      </trkpt>
      <trkpt lat="43.94681" lon="7.15151">
        <ele>534</ele>
        <time>2019-06-01T09:25:22.000Z</time>
      </trkpt>
      <trkpt lat="43.94681" lon="7.15148">
        <ele>533.59997558594</ele>
        <time>2019-06-01T09:25:28.000Z</time>
      </trkpt>
      <trkpt lat="43.94681" lon="7.15148">
        <ele>534</ele>
        <time>2019-06-01T09:25:40.000Z</time>
      </trkpt>
      <trkpt lat="43.94681" lon="7.15149">
        <ele>534.20001220703</ele>
        <time>2019-06-01T09:25:49.000Z</time>
      </trkpt>
      <trkpt lat="43.94681" lon="7.1515">
        <ele>534</ele>
        <time>2019-06-01T09:25:56.000Z</time>
      </trkpt>
      <trkpt lat="43.9468" lon="7.15149">
        <ele>534</ele>
        <time>2019-06-01T09:26:08.000Z</time>
      </trkpt>
      <trkpt lat="43.9468" lon="7.15147">
        <ele>534</ele>
        <time>2019-06-01T09:26:15.000Z</time>
      </trkpt>
      <trkpt lat="43.9468" lon="7.15148">
        <ele>534</ele>
        <time>2019-06-01T09:26:25.000Z</time>
      </trkpt>
      <trkpt lat="43.9468" lon="7.15147">
        <ele>533.79998779297</ele>
        <time>2019-06-01T09:26:30.000Z</time>
      </trkpt>
      <trkpt lat="43.9468" lon="7.15147">
        <ele>533.79998779297</ele>
        <time>2019-06-01T09:26:38.000Z</time>
      </trkpt>
      <trkpt lat="43.94679" lon="7.15147">
        <ele>533.59997558594</ele>
        <time>2019-06-01T09:26:51.000Z</time>
      </trkpt>
      <trkpt lat="43.94678" lon="7.15146">
        <ele>533.79998779297</ele>
        <time>2019-06-01T09:26:59.000Z</time>
      </trkpt>
      <trkpt lat="43.94677" lon="7.15145">
        <ele>533.79998779297</ele>
        <time>2019-06-01T09:27:06.000Z</time>
      </trkpt>
      <trkpt lat="43.94677" lon="7.15144">
        <ele>533.59997558594</ele>
        <time>2019-06-01T09:27:12.000Z</time>
      </trkpt>
      <trkpt lat="43.94678" lon="7.15147">
        <ele>533.59997558594</ele>
        <time>2019-06-01T09:27:19.000Z</time>
      </trkpt>
      <trkpt lat="43.94678" lon="7.15147">
        <ele>533.40002441406</ele>
        <time>2019-06-01T09:27:24.000Z</time>
      </trkpt>
      <trkpt lat="43.94678" lon="7.15147">
        <ele>529.79998779297</ele>
        <time>2019-06-01T09:27:26.000Z</time>
      </trkpt>
      <trkpt lat="43.94678" lon="7.15147">
        <ele>523</ele>
        <time>2019-06-01T09:27:27.000Z</time>
      </trkpt>
      <trkpt lat="43.94678" lon="7.15147">
        <ele>516</ele>
        <time>2019-06-01T09:27:28.000Z</time>
      </trkpt>
      <trkpt lat="43.94678" lon="7.15147">
        <ele>508.60000610352</ele>
        <time>2019-06-01T09:27:29.000Z</time>
      </trkpt>
      <trkpt lat="43.94677" lon="7.15145">
        <ele>500.39999389648</ele>
        <time>2019-06-01T09:27:30.000Z</time>
      </trkpt>
      <trkpt lat="43.94677" lon="7.15146">
        <ele>501.39999389648</ele>
        <time>2019-06-01T09:27:31.000Z</time>
      </trkpt>
      <trkpt lat="43.94677" lon="7.15145">
        <ele>508.39999389648</ele>
        <time>2019-06-01T09:27:32.000Z</time>
      </trkpt>
      <trkpt lat="43.94677" lon="7.15145">
        <ele>502.79998779297</ele>
        <time>2019-06-01T09:27:33.000Z</time>
      </trkpt>
      <trkpt lat="43.94678" lon="7.15146">
        <ele>502.39999389648</ele>
        <time>2019-06-01T09:27:44.000Z</time>
      </trkpt>
      <trkpt lat="43.94679" lon="7.15147">
        <ele>502.20001220703</ele>
        <time>2019-06-01T09:27:49.000Z</time>
      </trkpt>
      <trkpt lat="43.94679" lon="7.15148">
        <ele>502.20001220703</ele>
        <time>2019-06-01T09:27:55.000Z</time>
      </trkpt>
      <trkpt lat="43.94679" lon="7.15149">
        <ele>501.60000610352</ele>
        <time>2019-06-01T09:27:58.000Z</time>
      </trkpt>
      <trkpt lat="43.94679" lon="7.15149">
        <ele>501.60000610352</ele>
        <time>2019-06-01T09:28:03.000Z</time>
      </trkpt>
      <trkpt lat="43.9468" lon="7.1515">
        <ele>501.39999389648</ele>
        <time>2019-06-01T09:28:14.000Z</time>
      </trkpt>
      <trkpt lat="43.9468" lon="7.1515">
        <ele>500.79998779297</ele>
        <time>2019-06-01T09:28:21.000Z</time>
      </trkpt>
      <trkpt lat="43.9468" lon="7.15149">
        <ele>500.60000610352</ele>
        <time>2019-06-01T09:28:29.000Z</time>
      </trkpt>
      <trkpt lat="43.9468" lon="7.15149">
        <ele>500.39999389648</ele>
        <time>2019-06-01T09:28:35.000Z</time>
      </trkpt>
      <trkpt lat="43.9468" lon="7.15149">
        <ele>499.79998779297</ele>
        <time>2019-06-01T09:28:47.000Z</time>
      </trkpt>
      <trkpt lat="43.9468" lon="7.15149">
        <ele>501.20001220703</ele>
        <time>2019-06-01T09:29:04.000Z</time>
      </trkpt>
      <trkpt lat="43.9468" lon="7.15149">
        <ele>501.60000610352</ele>
        <time>2019-06-01T09:29:06.000Z</time>
      </trkpt>
      <trkpt lat="43.9468" lon="7.15149">
        <ele>502.79998779297</ele>
        <time>2019-06-01T09:29:11.000Z</time>
      </trkpt>
      <trkpt lat="43.9468" lon="7.15149">
        <ele>504</ele>
        <time>2019-06-01T09:29:15.000Z</time>
      </trkpt>
      <trkpt lat="43.9468" lon="7.15149">
        <ele>505</ele>
        <time>2019-06-01T09:29:19.000Z</time>
      </trkpt>
      <trkpt lat="43.9468" lon="7.15147">
        <ele>505.20001220703</ele>
        <time>2019-06-01T09:29:21.000Z</time>
      </trkpt>
      <trkpt lat="43.9468" lon="7.15145">
        <ele>505.39999389648</ele>
        <time>2019-06-01T09:29:22.000Z</time>
      </trkpt>
      <trkpt lat="43.94678" lon="7.15138">
        <ele>506.20001220703</ele>
        <time>2019-06-01T09:29:25.000Z</time>
      </trkpt>
      <trkpt lat="43.9468" lon="7.15123">
        <ele>507.20001220703</ele>
        <time>2019-06-01T09:29:29.000Z</time>
      </trkpt>
      <trkpt lat="43.94682" lon="7.15119">
        <ele>507.39999389648</ele>
        <time>2019-06-01T09:29:30.000Z</time>
      </trkpt>
      <trkpt lat="43.94695" lon="7.1511">
        <ele>507.79998779297</ele>
        <time>2019-06-01T09:29:34.000Z</time>
      </trkpt>
      <trkpt lat="43.94699" lon="7.15109">
        <ele>507.79998779297</ele>
        <time>2019-06-01T09:29:35.000Z</time>
      </trkpt>
      <trkpt lat="43.94707" lon="7.15105">
        <ele>508.39999389648</ele>
        <time>2019-06-01T09:29:38.000Z</time>
      </trkpt>
      <trkpt lat="43.94709" lon="7.15103">
        <ele>508.79998779297</ele>
        <time>2019-06-01T09:29:39.000Z</time>
      </trkpt>
      <trkpt lat="43.94714" lon="7.15099">
        <ele>509.60000610352</ele>
        <time>2019-06-01T09:29:42.000Z</time>
      </trkpt>
      <trkpt lat="43.9472" lon="7.15098">
        <ele>510.79998779297</ele>
        <time>2019-06-01T09:29:45.000Z</time>
      </trkpt>
      <trkpt lat="43.94721" lon="7.15098">
        <ele>511.20001220703</ele>
        <time>2019-06-01T09:29:46.000Z</time>
      </trkpt>
      <trkpt lat="43.94725" lon="7.15098">
        <ele>512.20001220703</ele>
        <time>2019-06-01T09:29:48.000Z</time>
      </trkpt>
      <trkpt lat="43.94729" lon="7.15098">
        <ele>513.20001220703</ele>
        <time>2019-06-01T09:29:50.000Z</time>
      </trkpt>
      <trkpt lat="43.94734" lon="7.15097">
        <ele>514.59997558594</ele>
        <time>2019-06-01T09:29:53.000Z</time>
      </trkpt>
      <trkpt lat="43.94739" lon="7.15096">
        <ele>515.59997558594</ele>
        <time>2019-06-01T09:29:56.000Z</time>
      </trkpt>
      <trkpt lat="43.94745" lon="7.15092">
        <ele>516.40002441406</ele>
        <time>2019-06-01T09:29:59.000Z</time>
      </trkpt>
      <trkpt lat="43.94746" lon="7.1509">
        <ele>516.79998779297</ele>
        <time>2019-06-01T09:30:00.000Z</time>
      </trkpt>
      <trkpt lat="43.94753" lon="7.15083">
        <ele>518</ele>
        <time>2019-06-01T09:30:04.000Z</time>
      </trkpt>
      <trkpt lat="43.94756" lon="7.15079">
        <ele>518.59997558594</ele>
        <time>2019-06-01T09:30:06.000Z</time>
      </trkpt>
      <trkpt lat="43.94759" lon="7.15075">
        <ele>519.40002441406</ele>
        <time>2019-06-01T09:30:08.000Z</time>
      </trkpt>
      <trkpt lat="43.94764" lon="7.1507">
        <ele>520.59997558594</ele>
        <time>2019-06-01T09:30:11.000Z</time>
      </trkpt>
      <trkpt lat="43.94766" lon="7.15067">
        <ele>521.40002441406</ele>
        <time>2019-06-01T09:30:13.000Z</time>
      </trkpt>
      <trkpt lat="43.94768" lon="7.15065">
        <ele>522</ele>
        <time>2019-06-01T09:30:14.000Z</time>
      </trkpt>
      <trkpt lat="43.9477" lon="7.15058">
        <ele>523.20001220703</ele>
        <time>2019-06-01T09:30:17.000Z</time>
      </trkpt>
      <trkpt lat="43.94771" lon="7.15056">
        <ele>523.59997558594</ele>
        <time>2019-06-01T09:30:18.000Z</time>
      </trkpt>
      <trkpt lat="43.94772" lon="7.1505">
        <ele>524.20001220703</ele>
        <time>2019-06-01T09:30:20.000Z</time>
      </trkpt>
      <trkpt lat="43.94775" lon="7.15043">
        <ele>525.40002441406</ele>
        <time>2019-06-01T09:30:23.000Z</time>
      </trkpt>
      <trkpt lat="43.94778" lon="7.15039">
        <ele>526.59997558594</ele>
        <time>2019-06-01T09:30:25.000Z</time>
      </trkpt>
      <trkpt lat="43.94781" lon="7.15037">
        <ele>527.59997558594</ele>
        <time>2019-06-01T09:30:27.000Z</time>
      </trkpt>
      <trkpt lat="43.94784" lon="7.15035">
        <ele>528.59997558594</ele>
        <time>2019-06-01T09:30:29.000Z</time>
      </trkpt>
      <trkpt lat="43.94787" lon="7.15033">
        <ele>529.59997558594</ele>
        <time>2019-06-01T09:30:31.000Z</time>
      </trkpt>
      <trkpt lat="43.94789" lon="7.15033">
        <ele>530</ele>
        <time>2019-06-01T09:30:32.000Z</time>
      </trkpt>
      <trkpt lat="43.94791" lon="7.15032">
        <ele>531</ele>
        <time>2019-06-01T09:30:34.000Z</time>
      </trkpt>
      <trkpt lat="43.94796" lon="7.1503">
        <ele>532.40002441406</ele>
        <time>2019-06-01T09:30:37.000Z</time>
      </trkpt>
      <trkpt lat="43.94797" lon="7.1503">
        <ele>532.59997558594</ele>
        <time>2019-06-01T09:30:38.000Z</time>
      </trkpt>
      <trkpt lat="43.948" lon="7.1503">
        <ele>533.59997558594</ele>
        <time>2019-06-01T09:30:40.000Z</time>
      </trkpt>
      <trkpt lat="43.94803" lon="7.1503">
        <ele>534.59997558594</ele>
        <time>2019-06-01T09:30:42.000Z</time>
      </trkpt>
      <trkpt lat="43.94805" lon="7.15029">
        <ele>535.59997558594</ele>
        <time>2019-06-01T09:30:44.000Z</time>
      </trkpt>
      <trkpt lat="43.94806" lon="7.15029">
        <ele>536.20001220703</ele>
        <time>2019-06-01T09:30:45.000Z</time>
      </trkpt>
      <trkpt lat="43.94808" lon="7.1503">
        <ele>536.79998779297</ele>
        <time>2019-06-01T09:30:46.000Z</time>
      </trkpt>
      <trkpt lat="43.9481" lon="7.1503">
        <ele>537.79998779297</ele>
        <time>2019-06-01T09:30:48.000Z</time>
      </trkpt>
      <trkpt lat="43.94812" lon="7.1503">
        <ele>538.79998779297</ele>
        <time>2019-06-01T09:30:50.000Z</time>
      </trkpt>
      <trkpt lat="43.94814" lon="7.1503">
        <ele>539.20001220703</ele>
        <time>2019-06-01T09:30:51.000Z</time>
      </trkpt>
      <trkpt lat="43.94816" lon="7.15032">
        <ele>540</ele>
        <time>2019-06-01T09:30:53.000Z</time>
      </trkpt>
      <trkpt lat="43.94818" lon="7.15034">
        <ele>541.20001220703</ele>
        <time>2019-06-01T09:30:56.000Z</time>
      </trkpt>
      <trkpt lat="43.94821" lon="7.15034">
        <ele>542.20001220703</ele>
        <time>2019-06-01T09:30:58.000Z</time>
      </trkpt>
      <trkpt lat="43.94823" lon="7.15033">
        <ele>542.79998779297</ele>
        <time>2019-06-01T09:30:59.000Z</time>
      </trkpt>
      <trkpt lat="43.94824" lon="7.15033">
        <ele>543.40002441406</ele>
        <time>2019-06-01T09:31:00.000Z</time>
      </trkpt>
      <trkpt lat="43.94826" lon="7.15032">
        <ele>544.40002441406</ele>
        <time>2019-06-01T09:31:02.000Z</time>
      </trkpt>
      <trkpt lat="43.9483" lon="7.15031">
        <ele>545.79998779297</ele>
        <time>2019-06-01T09:31:05.000Z</time>
      </trkpt>
      <trkpt lat="43.94833" lon="7.15028">
        <ele>547.20001220703</ele>
        <time>2019-06-01T09:31:08.000Z</time>
      </trkpt>
      <trkpt lat="43.94838" lon="7.15023">
        <ele>547.79998779297</ele>
        <time>2019-06-01T09:31:12.000Z</time>
      </trkpt>
      <trkpt lat="43.94842" lon="7.15019">
        <ele>548.40002441406</ele>
        <time>2019-06-01T09:31:16.000Z</time>
      </trkpt>
      <trkpt lat="43.94847" lon="7.15012">
        <ele>549.40002441406</ele>
        <time>2019-06-01T09:31:21.000Z</time>
      </trkpt>
      <trkpt lat="43.94848" lon="7.15011">
        <ele>549.40002441406</ele>
        <time>2019-06-01T09:31:22.000Z</time>
      </trkpt>
      <trkpt lat="43.94855" lon="7.15003">
        <ele>550.40002441406</ele>
        <time>2019-06-01T09:31:28.000Z</time>
      </trkpt>
      <trkpt lat="43.94856" lon="7.15002">
        <ele>550.40002441406</ele>
        <time>2019-06-01T09:31:29.000Z</time>
      </trkpt>
      <trkpt lat="43.94862" lon="7.14992">
        <ele>551</ele>
        <time>2019-06-01T09:31:34.000Z</time>
      </trkpt>
      <trkpt lat="43.94864" lon="7.14984">
        <ele>551.79998779297</ele>
        <time>2019-06-01T09:31:37.000Z</time>
      </trkpt>
      <trkpt lat="43.94868" lon="7.14972">
        <ele>552.59997558594</ele>
        <time>2019-06-01T09:31:42.000Z</time>
      </trkpt>
      <trkpt lat="43.94869" lon="7.1497">
        <ele>552.79998779297</ele>
        <time>2019-06-01T09:31:43.000Z</time>
      </trkpt>
      <trkpt lat="43.94877" lon="7.14951">
        <ele>554</ele>
        <time>2019-06-01T09:31:51.000Z</time>
      </trkpt>
      <trkpt lat="43.94878" lon="7.14948">
        <ele>554.20001220703</ele>
        <time>2019-06-01T09:31:52.000Z</time>
      </trkpt>
      <trkpt lat="43.94884" lon="7.14931">
        <ele>554.59997558594</ele>
        <time>2019-06-01T09:31:58.000Z</time>
      </trkpt>
      <trkpt lat="43.94889" lon="7.14907">
        <ele>554.59997558594</ele>
        <time>2019-06-01T09:32:05.000Z</time>
      </trkpt>
      <trkpt lat="43.94899" lon="7.1488">
        <ele>555</ele>
        <time>2019-06-01T09:32:13.000Z</time>
      </trkpt>
      <trkpt lat="43.94907" lon="7.14859">
        <ele>555.20001220703</ele>
        <time>2019-06-01T09:32:20.000Z</time>
      </trkpt>
      <trkpt lat="43.94912" lon="7.14851">
        <ele>555.40002441406</ele>
        <time>2019-06-01T09:32:23.000Z</time>
      </trkpt>
      <trkpt lat="43.94917" lon="7.14847">
        <ele>555.59997558594</ele>
        <time>2019-06-01T09:32:25.000Z</time>
      </trkpt>
      <trkpt lat="43.94927" lon="7.14838">
        <ele>556</ele>
        <time>2019-06-01T09:32:30.000Z</time>
      </trkpt>
      <trkpt lat="43.94932" lon="7.14834">
        <ele>556.59997558594</ele>
        <time>2019-06-01T09:32:33.000Z</time>
      </trkpt>
      <trkpt lat="43.94937" lon="7.14829">
        <ele>557</ele>
        <time>2019-06-01T09:32:37.000Z</time>
      </trkpt>
      <trkpt lat="43.9494" lon="7.14826">
        <ele>557.20001220703</ele>
        <time>2019-06-01T09:32:40.000Z</time>
      </trkpt>
      <trkpt lat="43.94949" lon="7.14817">
        <ele>558</ele>
        <time>2019-06-01T09:32:47.000Z</time>
      </trkpt>
      <trkpt lat="43.9495" lon="7.14816">
        <ele>558.20001220703</ele>
        <time>2019-06-01T09:32:48.000Z</time>
      </trkpt>
      <trkpt lat="43.94955" lon="7.14811">
        <ele>559.20001220703</ele>
        <time>2019-06-01T09:32:53.000Z</time>
      </trkpt>
      <trkpt lat="43.94957" lon="7.1481">
        <ele>559.40002441406</ele>
        <time>2019-06-01T09:32:54.000Z</time>
      </trkpt>
      <trkpt lat="43.9497" lon="7.14799">
        <ele>560</ele>
        <time>2019-06-01T09:33:01.000Z</time>
      </trkpt>
      <trkpt lat="43.94974" lon="7.14797">
        <ele>560.40002441406</ele>
        <time>2019-06-01T09:33:03.000Z</time>
      </trkpt>
      <trkpt lat="43.94981" lon="7.14794">
        <ele>561.59997558594</ele>
        <time>2019-06-01T09:33:07.000Z</time>
      </trkpt>
      <trkpt lat="43.9499" lon="7.14789">
        <ele>562.79998779297</ele>
        <time>2019-06-01T09:33:13.000Z</time>
      </trkpt>
      <trkpt lat="43.94994" lon="7.14787">
        <ele>563</ele>
        <time>2019-06-01T09:33:15.000Z</time>
      </trkpt>
      <trkpt lat="43.95001" lon="7.14781">
        <ele>563.79998779297</ele>
        <time>2019-06-01T09:33:20.000Z</time>
      </trkpt>
      <trkpt lat="43.95007" lon="7.14777">
        <ele>564.79998779297</ele>
        <time>2019-06-01T09:33:24.000Z</time>
      </trkpt>
      <trkpt lat="43.95008" lon="7.14776">
        <ele>565</ele>
        <time>2019-06-01T09:33:25.000Z</time>
      </trkpt>
      <trkpt lat="43.95015" lon="7.14766">
        <ele>565.79998779297</ele>
        <time>2019-06-01T09:33:31.000Z</time>
      </trkpt>
      <trkpt lat="43.95016" lon="7.14765">
        <ele>566</ele>
        <time>2019-06-01T09:33:32.000Z</time>
      </trkpt>
      <trkpt lat="43.95024" lon="7.14752">
        <ele>567</ele>
        <time>2019-06-01T09:33:39.000Z</time>
      </trkpt>
      <trkpt lat="43.95025" lon="7.1475">
        <ele>567.40002441406</ele>
        <time>2019-06-01T09:33:40.000Z</time>
      </trkpt>
      <trkpt lat="43.95028" lon="7.14747">
        <ele>568.40002441406</ele>
        <time>2019-06-01T09:33:43.000Z</time>
      </trkpt>
      <trkpt lat="43.95032" lon="7.14743">
        <ele>569.20001220703</ele>
        <time>2019-06-01T09:33:46.000Z</time>
      </trkpt>
      <trkpt lat="43.95033" lon="7.14741">
        <ele>569.40002441406</ele>
        <time>2019-06-01T09:33:47.000Z</time>
      </trkpt>
      <trkpt lat="43.95042" lon="7.14732">
        <ele>569.79998779297</ele>
        <time>2019-06-01T09:33:53.000Z</time>
      </trkpt>
      <trkpt lat="43.95049" lon="7.1472">
        <ele>570.20001220703</ele>
        <time>2019-06-01T09:33:59.000Z</time>
      </trkpt>
      <trkpt lat="43.95056" lon="7.14709">
        <ele>570.40002441406</ele>
        <time>2019-06-01T09:34:03.000Z</time>
      </trkpt>
      <trkpt lat="43.9506" lon="7.14704">
        <ele>570.59997558594</ele>
        <time>2019-06-01T09:34:05.000Z</time>
      </trkpt>
      <trkpt lat="43.95062" lon="7.14703">
        <ele>570.79998779297</ele>
        <time>2019-06-01T09:34:06.000Z</time>
      </trkpt>
      <trkpt lat="43.95072" lon="7.14695">
        <ele>571</ele>
        <time>2019-06-01T09:34:10.000Z</time>
      </trkpt>
      <trkpt lat="43.95075" lon="7.14691">
        <ele>571</ele>
        <time>2019-06-01T09:34:12.000Z</time>
      </trkpt>
      <trkpt lat="43.95085" lon="7.14682">
        <ele>571.20001220703</ele>
        <time>2019-06-01T09:34:16.000Z</time>
      </trkpt>
      <trkpt lat="43.95095" lon="7.1468">
        <ele>571.79998779297</ele>
        <time>2019-06-01T09:34:19.000Z</time>
      </trkpt>
      <trkpt lat="43.95105" lon="7.14679">
        <ele>572</ele>
        <time>2019-06-01T09:34:22.000Z</time>
      </trkpt>
      <trkpt lat="43.9512" lon="7.14667">
        <ele>571.59997558594</ele>
        <time>2019-06-01T09:34:27.000Z</time>
      </trkpt>
      <trkpt lat="43.95137" lon="7.14659">
        <ele>571.59997558594</ele>
        <time>2019-06-01T09:34:32.000Z</time>
      </trkpt>
      <trkpt lat="43.95153" lon="7.14659">
        <ele>572</ele>
        <time>2019-06-01T09:34:37.000Z</time>
      </trkpt>
      <trkpt lat="43.95164" lon="7.14654">
        <ele>572</ele>
        <time>2019-06-01T09:34:41.000Z</time>
      </trkpt>
      <trkpt lat="43.95172" lon="7.14647">
        <ele>572.40002441406</ele>
        <time>2019-06-01T09:34:45.000Z</time>
      </trkpt>
      <trkpt lat="43.95176" lon="7.14639">
        <ele>572.79998779297</ele>
        <time>2019-06-01T09:34:48.000Z</time>
      </trkpt>
      <trkpt lat="43.95178" lon="7.14638">
        <ele>572.79998779297</ele>
        <time>2019-06-01T09:34:49.000Z</time>
      </trkpt>
      <trkpt lat="43.95188" lon="7.14632">
        <ele>573.79998779297</ele>
        <time>2019-06-01T09:34:53.000Z</time>
      </trkpt>
      <trkpt lat="43.95193" lon="7.14629">
        <ele>574</ele>
        <time>2019-06-01T09:34:55.000Z</time>
      </trkpt>
      <trkpt lat="43.95199" lon="7.14624">
        <ele>574.59997558594</ele>
        <time>2019-06-01T09:35:00.000Z</time>
      </trkpt>
      <trkpt lat="43.952" lon="7.14624">
        <ele>575</ele>
        <time>2019-06-01T09:35:01.000Z</time>
      </trkpt>
      <trkpt lat="43.95206" lon="7.14619">
        <ele>576</ele>
        <time>2019-06-01T09:35:05.000Z</time>
      </trkpt>
      <trkpt lat="43.95209" lon="7.14617">
        <ele>576.40002441406</ele>
        <time>2019-06-01T09:35:07.000Z</time>
      </trkpt>
      <trkpt lat="43.95212" lon="7.14613">
        <ele>577.20001220703</ele>
        <time>2019-06-01T09:35:10.000Z</time>
      </trkpt>
      <trkpt lat="43.9522" lon="7.14607">
        <ele>578</ele>
        <time>2019-06-01T09:35:15.000Z</time>
      </trkpt>
      <trkpt lat="43.95222" lon="7.14605">
        <ele>578.20001220703</ele>
        <time>2019-06-01T09:35:16.000Z</time>
      </trkpt>
      <trkpt lat="43.95226" lon="7.14593">
        <ele>578.59997558594</ele>
        <time>2019-06-01T09:35:21.000Z</time>
      </trkpt>
      <trkpt lat="43.95233" lon="7.14579">
        <ele>579.20001220703</ele>
        <time>2019-06-01T09:35:27.000Z</time>
      </trkpt>
      <trkpt lat="43.95234" lon="7.14578">
        <ele>579.20001220703</ele>
        <time>2019-06-01T09:35:28.000Z</time>
      </trkpt>
      <trkpt lat="43.9524" lon="7.14569">
        <ele>579.59997558594</ele>
        <time>2019-06-01T09:35:32.000Z</time>
      </trkpt>
      <trkpt lat="43.95249" lon="7.14548">
        <ele>580</ele>
        <time>2019-06-01T09:35:40.000Z</time>
      </trkpt>
      <trkpt lat="43.95252" lon="7.1453">
        <ele>580.20001220703</ele>
        <time>2019-06-01T09:35:46.000Z</time>
      </trkpt>
      <trkpt lat="43.95253" lon="7.14523">
        <ele>580.40002441406</ele>
        <time>2019-06-01T09:35:48.000Z</time>
      </trkpt>
      <trkpt lat="43.95258" lon="7.14503">
        <ele>580.59997558594</ele>
        <time>2019-06-01T09:35:54.000Z</time>
      </trkpt>
      <trkpt lat="43.95265" lon="7.14485">
        <ele>581</ele>
        <time>2019-06-01T09:36:00.000Z</time>
      </trkpt>
      <trkpt lat="43.9528" lon="7.14476">
        <ele>581</ele>
        <time>2019-06-01T09:36:05.000Z</time>
      </trkpt>
      <trkpt lat="43.95289" lon="7.14474">
        <ele>581.20001220703</ele>
        <time>2019-06-01T09:36:08.000Z</time>
      </trkpt>
      <trkpt lat="43.95298" lon="7.14471">
        <ele>581.40002441406</ele>
        <time>2019-06-01T09:36:11.000Z</time>
      </trkpt>
      <trkpt lat="43.953" lon="7.14469">
        <ele>581.40002441406</ele>
        <time>2019-06-01T09:36:14.000Z</time>
      </trkpt>
      <trkpt lat="43.953" lon="7.14468">
        <ele>581.40002441406</ele>
        <time>2019-06-01T09:36:22.000Z</time>
      </trkpt>
      <trkpt lat="43.95301" lon="7.14468">
        <ele>581.40002441406</ele>
        <time>2019-06-01T09:36:48.000Z</time>
      </trkpt>
      <trkpt lat="43.95303" lon="7.14464">
        <ele>581.59997558594</ele>
        <time>2019-06-01T09:37:01.000Z</time>
      </trkpt>
      <trkpt lat="43.95308" lon="7.14449">
        <ele>581.20001220703</ele>
        <time>2019-06-01T09:37:05.000Z</time>
      </trkpt>
      <trkpt lat="43.95314" lon="7.14443">
        <ele>580.40002441406</ele>
        <time>2019-06-01T09:37:07.000Z</time>
      </trkpt>
      <trkpt lat="43.95318" lon="7.14441">
        <ele>579.79998779297</ele>
        <time>2019-06-01T09:37:08.000Z</time>
      </trkpt>
      <trkpt lat="43.95323" lon="7.14439">
        <ele>579</ele>
        <time>2019-06-01T09:37:09.000Z</time>
      </trkpt>
      <trkpt lat="43.95327" lon="7.14438">
        <ele>578.59997558594</ele>
        <time>2019-06-01T09:37:10.000Z</time>
      </trkpt>
      <trkpt lat="43.95335" lon="7.14435">
        <ele>577.20001220703</ele>
        <time>2019-06-01T09:37:12.000Z</time>
      </trkpt>
      <trkpt lat="43.95344" lon="7.1443">
        <ele>575</ele>
        <time>2019-06-01T09:37:14.000Z</time>
      </trkpt>
      <trkpt lat="43.95347" lon="7.14427">
        <ele>574.40002441406</ele>
        <time>2019-06-01T09:37:15.000Z</time>
      </trkpt>
      <trkpt lat="43.95349" lon="7.14424">
        <ele>574</ele>
        <time>2019-06-01T09:37:16.000Z</time>
      </trkpt>
      <trkpt lat="43.95347" lon="7.14416">
        <ele>572.59997558594</ele>
        <time>2019-06-01T09:37:18.000Z</time>
      </trkpt>
      <trkpt lat="43.95347" lon="7.14411">
        <ele>572.20001220703</ele>
        <time>2019-06-01T09:37:19.000Z</time>
      </trkpt>
      <trkpt lat="43.9535" lon="7.14401">
        <ele>571.20001220703</ele>
        <time>2019-06-01T09:37:21.000Z</time>
      </trkpt>
      <trkpt lat="43.9535" lon="7.14389">
        <ele>571</ele>
        <time>2019-06-01T09:37:23.000Z</time>
      </trkpt>
      <trkpt lat="43.95354" lon="7.14373">
        <ele>570.79998779297</ele>
        <time>2019-06-01T09:37:26.000Z</time>
      </trkpt>
      <trkpt lat="43.95364" lon="7.14359">
        <ele>570.20001220703</ele>
        <time>2019-06-01T09:37:29.000Z</time>
      </trkpt>
      <trkpt lat="43.95366" lon="7.14354">
        <ele>569.79998779297</ele>
        <time>2019-06-01T09:37:30.000Z</time>
      </trkpt>
      <trkpt lat="43.9537" lon="7.14341">
        <ele>568.79998779297</ele>
        <time>2019-06-01T09:37:32.000Z</time>
      </trkpt>
      <trkpt lat="43.95373" lon="7.14336">
        <ele>568.59997558594</ele>
        <time>2019-06-01T09:37:33.000Z</time>
      </trkpt>
      <trkpt lat="43.95375" lon="7.14324">
        <ele>567.20001220703</ele>
        <time>2019-06-01T09:37:35.000Z</time>
      </trkpt>
      <trkpt lat="43.95377" lon="7.14321">
        <ele>566.59997558594</ele>
        <time>2019-06-01T09:37:36.000Z</time>
      </trkpt>
      <trkpt lat="43.9538" lon="7.14319">
        <ele>566.20001220703</ele>
        <time>2019-06-01T09:37:37.000Z</time>
      </trkpt>
      <trkpt lat="43.95387" lon="7.1431">
        <ele>566.20001220703</ele>
        <time>2019-06-01T09:37:40.000Z</time>
      </trkpt>
      <trkpt lat="43.95388" lon="7.14308">
        <ele>566.20001220703</ele>
        <time>2019-06-01T09:37:41.000Z</time>
      </trkpt>
      <trkpt lat="43.95389" lon="7.14303">
        <ele>566.40002441406</ele>
        <time>2019-06-01T09:37:43.000Z</time>
      </trkpt>
      <trkpt lat="43.95387" lon="7.14301">
        <ele>566.40002441406</ele>
        <time>2019-06-01T09:37:44.000Z</time>
      </trkpt>
      <trkpt lat="43.95383" lon="7.143">
        <ele>566.40002441406</ele>
        <time>2019-06-01T09:37:47.000Z</time>
      </trkpt>
      <trkpt lat="43.95382" lon="7.14298">
        <ele>566.59997558594</ele>
        <time>2019-06-01T09:37:49.000Z</time>
      </trkpt>
      <trkpt lat="43.95382" lon="7.14298">
        <ele>567.20001220703</ele>
        <time>2019-06-01T09:37:51.000Z</time>
      </trkpt>
      <trkpt lat="43.9538" lon="7.14298">
        <ele>567.79998779297</ele>
        <time>2019-06-01T09:37:53.000Z</time>
      </trkpt>
      <trkpt lat="43.95379" lon="7.14297">
        <ele>568</ele>
        <time>2019-06-01T09:37:55.000Z</time>
      </trkpt>
      <trkpt lat="43.95375" lon="7.14295">
        <ele>568.40002441406</ele>
        <time>2019-06-01T09:37:59.000Z</time>
      </trkpt>
      <trkpt lat="43.95373" lon="7.14293">
        <ele>568.59997558594</ele>
        <time>2019-06-01T09:38:01.000Z</time>
      </trkpt>
      <trkpt lat="43.95368" lon="7.14292">
        <ele>569.59997558594</ele>
        <time>2019-06-01T09:38:05.000Z</time>
      </trkpt>
      <trkpt lat="43.95365" lon="7.1429">
        <ele>570.20001220703</ele>
        <time>2019-06-01T09:38:08.000Z</time>
      </trkpt>
      <trkpt lat="43.95362" lon="7.14288">
        <ele>570.59997558594</ele>
        <time>2019-06-01T09:38:11.000Z</time>
      </trkpt>
      <trkpt lat="43.95359" lon="7.14288">
        <ele>570.59997558594</ele>
        <time>2019-06-01T09:38:12.000Z</time>
      </trkpt>
      <trkpt lat="43.95345" lon="7.1428">
        <ele>570.79998779297</ele>
        <time>2019-06-01T09:38:17.000Z</time>
      </trkpt>
      <trkpt lat="43.95336" lon="7.14262">
        <ele>570.79998779297</ele>
        <time>2019-06-01T09:38:21.000Z</time>
      </trkpt>
      <trkpt lat="43.9534" lon="7.14251">
        <ele>570</ele>
        <time>2019-06-01T09:38:24.000Z</time>
      </trkpt>
      <trkpt lat="43.95344" lon="7.14249">
        <ele>569.40002441406</ele>
        <time>2019-06-01T09:38:25.000Z</time>
      </trkpt>
      <trkpt lat="43.95347" lon="7.14247">
        <ele>568.79998779297</ele>
        <time>2019-06-01T09:38:26.000Z</time>
      </trkpt>
      <trkpt lat="43.95351" lon="7.14244">
        <ele>568</ele>
        <time>2019-06-01T09:38:27.000Z</time>
      </trkpt>
      <trkpt lat="43.95351" lon="7.1424">
        <ele>567.40002441406</ele>
        <time>2019-06-01T09:38:28.000Z</time>
      </trkpt>
      <trkpt lat="43.95347" lon="7.14236">
        <ele>566.79998779297</ele>
        <time>2019-06-01T09:38:30.000Z</time>
      </trkpt>
      <trkpt lat="43.95336" lon="7.14234">
        <ele>566.40002441406</ele>
        <time>2019-06-01T09:38:34.000Z</time>
      </trkpt>
      <trkpt lat="43.95328" lon="7.14229">
        <ele>566.59997558594</ele>
        <time>2019-06-01T09:38:36.000Z</time>
      </trkpt>
      <trkpt lat="43.95327" lon="7.14225">
        <ele>566.59997558594</ele>
        <time>2019-06-01T09:38:37.000Z</time>
      </trkpt>
      <trkpt lat="43.95327" lon="7.14202">
        <ele>566.40002441406</ele>
        <time>2019-06-01T09:38:41.000Z</time>
      </trkpt>
      <trkpt lat="43.95333" lon="7.14177">
        <ele>565.40002441406</ele>
        <time>2019-06-01T09:38:45.000Z</time>
      </trkpt>
      <trkpt lat="43.95331" lon="7.14174">
        <ele>565</ele>
        <time>2019-06-01T09:38:46.000Z</time>
      </trkpt>
      <trkpt lat="43.95327" lon="7.14173">
        <ele>564.59997558594</ele>
        <time>2019-06-01T09:38:47.000Z</time>
      </trkpt>
      <trkpt lat="43.95321" lon="7.14174">
        <ele>564.20001220703</ele>
        <time>2019-06-01T09:38:49.000Z</time>
      </trkpt>
      <trkpt lat="43.95316" lon="7.1417">
        <ele>564.20001220703</ele>
        <time>2019-06-01T09:38:51.000Z</time>
      </trkpt>
      <trkpt lat="43.95313" lon="7.14163">
        <ele>564.79998779297</ele>
        <time>2019-06-01T09:38:53.000Z</time>
      </trkpt>
      <trkpt lat="43.95311" lon="7.1416">
        <ele>565.20001220703</ele>
        <time>2019-06-01T09:38:55.000Z</time>
      </trkpt>
      <trkpt lat="43.9531" lon="7.14158">
        <ele>565.40002441406</ele>
        <time>2019-06-01T09:38:56.000Z</time>
      </trkpt>
      <trkpt lat="43.95305" lon="7.14149">
        <ele>566.40002441406</ele>
        <time>2019-06-01T09:38:59.000Z</time>
      </trkpt>
      <trkpt lat="43.95301" lon="7.14138">
        <ele>567</ele>
        <time>2019-06-01T09:39:02.000Z</time>
      </trkpt>
      <trkpt lat="43.95295" lon="7.14115">
        <ele>567.59997558594</ele>
        <time>2019-06-01T09:39:08.000Z</time>
      </trkpt>
      <trkpt lat="43.9529" lon="7.141">
        <ele>568</ele>
        <time>2019-06-01T09:39:12.000Z</time>
      </trkpt>
      <trkpt lat="43.9528" lon="7.14084">
        <ele>567.79998779297</ele>
        <time>2019-06-01T09:39:17.000Z</time>
      </trkpt>
      <trkpt lat="43.95271" lon="7.14068">
        <ele>568.20001220703</ele>
        <time>2019-06-01T09:39:22.000Z</time>
      </trkpt>
      <trkpt lat="43.95268" lon="7.14057">
        <ele>568.20001220703</ele>
        <time>2019-06-01T09:39:24.000Z</time>
      </trkpt>
      <trkpt lat="43.9527" lon="7.14054">
        <ele>568.20001220703</ele>
        <time>2019-06-01T09:39:25.000Z</time>
      </trkpt>
      <trkpt lat="43.95278" lon="7.14044">
        <ele>568</ele>
        <time>2019-06-01T09:39:29.000Z</time>
      </trkpt>
      <trkpt lat="43.95276" lon="7.14024">
        <ele>568</ele>
        <time>2019-06-01T09:39:32.000Z</time>
      </trkpt>
      <trkpt lat="43.95275" lon="7.14019">
        <ele>567.20001220703</ele>
        <time>2019-06-01T09:39:33.000Z</time>
      </trkpt>
      <trkpt lat="43.95271" lon="7.14013">
        <ele>566.20001220703</ele>
        <time>2019-06-01T09:39:35.000Z</time>
      </trkpt>
      <trkpt lat="43.95257" lon="7.14011">
        <ele>566.20001220703</ele>
        <time>2019-06-01T09:39:39.000Z</time>
      </trkpt>
      <trkpt lat="43.95241" lon="7.14013">
        <ele>565.59997558594</ele>
        <time>2019-06-01T09:39:42.000Z</time>
      </trkpt>
      <trkpt lat="43.95235" lon="7.14015">
        <ele>564.79998779297</ele>
        <time>2019-06-01T09:39:43.000Z</time>
      </trkpt>
      <trkpt lat="43.95228" lon="7.14016">
        <ele>563.79998779297</ele>
        <time>2019-06-01T09:39:44.000Z</time>
      </trkpt>
      <trkpt lat="43.95223" lon="7.14018">
        <ele>562.40002441406</ele>
        <time>2019-06-01T09:39:45.000Z</time>
      </trkpt>
      <trkpt lat="43.95215" lon="7.14014">
        <ele>560</ele>
        <time>2019-06-01T09:39:47.000Z</time>
      </trkpt>
      <trkpt lat="43.95213" lon="7.14008">
        <ele>559</ele>
        <time>2019-06-01T09:39:48.000Z</time>
      </trkpt>
      <trkpt lat="43.95211" lon="7.14001">
        <ele>557.79998779297</ele>
        <time>2019-06-01T09:39:49.000Z</time>
      </trkpt>
      <trkpt lat="43.95209" lon="7.13995">
        <ele>557.20001220703</ele>
        <time>2019-06-01T09:39:50.000Z</time>
      </trkpt>
      <trkpt lat="43.95207" lon="7.13989">
        <ele>556.59997558594</ele>
        <time>2019-06-01T09:39:51.000Z</time>
      </trkpt>
      <trkpt lat="43.95208" lon="7.13982">
        <ele>555.79998779297</ele>
        <time>2019-06-01T09:39:53.000Z</time>
      </trkpt>
      <trkpt lat="43.95211" lon="7.13978">
        <ele>555.59997558594</ele>
        <time>2019-06-01T09:39:55.000Z</time>
      </trkpt>
      <trkpt lat="43.95212" lon="7.13977">
        <ele>555.40002441406</ele>
        <time>2019-06-01T09:39:56.000Z</time>
      </trkpt>
      <trkpt lat="43.95214" lon="7.13974">
        <ele>555.59997558594</ele>
        <time>2019-06-01T09:39:57.000Z</time>
      </trkpt>
      <trkpt lat="43.95218" lon="7.13954">
        <ele>556.20001220703</ele>
        <time>2019-06-01T09:40:01.000Z</time>
      </trkpt>
      <trkpt lat="43.95219" lon="7.1394">
        <ele>555.40002441406</ele>
        <time>2019-06-01T09:40:03.000Z</time>
      </trkpt>
      <trkpt lat="43.95221" lon="7.13927">
        <ele>554.59997558594</ele>
        <time>2019-06-01T09:40:05.000Z</time>
      </trkpt>
      <trkpt lat="43.95223" lon="7.13925">
        <ele>554</ele>
        <time>2019-06-01T09:40:06.000Z</time>
      </trkpt>
      <trkpt lat="43.95225" lon="7.13923">
        <ele>553.20001220703</ele>
        <time>2019-06-01T09:40:07.000Z</time>
      </trkpt>
      <trkpt lat="43.95226" lon="7.13915">
        <ele>552.79998779297</ele>
        <time>2019-06-01T09:40:10.000Z</time>
      </trkpt>
      <trkpt lat="43.95224" lon="7.13914">
        <ele>552.40002441406</ele>
        <time>2019-06-01T09:40:15.000Z</time>
      </trkpt>
      <trkpt lat="43.95221" lon="7.1391">
        <ele>552.20001220703</ele>
        <time>2019-06-01T09:40:19.000Z</time>
      </trkpt>
      <trkpt lat="43.9522" lon="7.1391">
        <ele>552</ele>
        <time>2019-06-01T09:40:20.000Z</time>
      </trkpt>
      <trkpt lat="43.95214" lon="7.1391">
        <ele>553</ele>
        <time>2019-06-01T09:40:27.000Z</time>
      </trkpt>
      <trkpt lat="43.95213" lon="7.13911">
        <ele>553.40002441406</ele>
        <time>2019-06-01T09:40:29.000Z</time>
      </trkpt>
      <trkpt lat="43.9521" lon="7.13914">
        <ele>554.40002441406</ele>
        <time>2019-06-01T09:40:34.000Z</time>
      </trkpt>
      <trkpt lat="43.95209" lon="7.13914">
        <ele>554.59997558594</ele>
        <time>2019-06-01T09:40:35.000Z</time>
      </trkpt>
      <trkpt lat="43.95209" lon="7.13915">
        <ele>554.79998779297</ele>
        <time>2019-06-01T09:40:36.000Z</time>
      </trkpt>
      <trkpt lat="43.95206" lon="7.13917">
        <ele>555.59997558594</ele>
        <time>2019-06-01T09:40:40.000Z</time>
      </trkpt>
      <trkpt lat="43.95205" lon="7.13917">
        <ele>555.79998779297</ele>
        <time>2019-06-01T09:40:41.000Z</time>
      </trkpt>
      <trkpt lat="43.95203" lon="7.13919">
        <ele>556.59997558594</ele>
        <time>2019-06-01T09:40:44.000Z</time>
      </trkpt>
      <trkpt lat="43.95201" lon="7.1392">
        <ele>557.79998779297</ele>
        <time>2019-06-01T09:40:48.000Z</time>
      </trkpt>
      <trkpt lat="43.952" lon="7.13923">
        <ele>558</ele>
        <time>2019-06-01T09:40:50.000Z</time>
      </trkpt>
      <trkpt lat="43.95196" lon="7.13929">
        <ele>558</ele>
        <time>2019-06-01T09:40:52.000Z</time>
      </trkpt>
      <trkpt lat="43.95187" lon="7.13935">
        <ele>557.40002441406</ele>
        <time>2019-06-01T09:40:56.000Z</time>
      </trkpt>
      <trkpt lat="43.95182" lon="7.13937">
        <ele>557.79998779297</ele>
        <time>2019-06-01T09:40:59.000Z</time>
      </trkpt>
      <trkpt lat="43.95179" lon="7.13939">
        <ele>558.20001220703</ele>
        <time>2019-06-01T09:41:00.000Z</time>
      </trkpt>
      <trkpt lat="43.95171" lon="7.13946">
        <ele>558.79998779297</ele>
        <time>2019-06-01T09:41:03.000Z</time>
      </trkpt>
      <trkpt lat="43.95167" lon="7.13947">
        <ele>558.40002441406</ele>
        <time>2019-06-01T09:41:05.000Z</time>
      </trkpt>
      <trkpt lat="43.95161" lon="7.13948">
        <ele>559.59997558594</ele>
        <time>2019-06-01T09:41:10.000Z</time>
      </trkpt>
      <trkpt lat="43.95158" lon="7.13947">
        <ele>560</ele>
        <time>2019-06-01T09:41:12.000Z</time>
      </trkpt>
      <trkpt lat="43.95153" lon="7.13945">
        <ele>561.20001220703</ele>
        <time>2019-06-01T09:41:17.000Z</time>
      </trkpt>
      <trkpt lat="43.95147" lon="7.13939">
        <ele>562.40002441406</ele>
        <time>2019-06-01T09:41:23.000Z</time>
      </trkpt>
      <trkpt lat="43.95146" lon="7.13938">
        <ele>562.59997558594</ele>
        <time>2019-06-01T09:41:24.000Z</time>
      </trkpt>
      <trkpt lat="43.95142" lon="7.13931">
        <ele>563.40002441406</ele>
        <time>2019-06-01T09:41:28.000Z</time>
      </trkpt>
      <trkpt lat="43.9514" lon="7.13926">
        <ele>563.59997558594</ele>
        <time>2019-06-01T09:41:31.000Z</time>
      </trkpt>
      <trkpt lat="43.95136" lon="7.1391">
        <ele>564.20001220703</ele>
        <time>2019-06-01T09:41:38.000Z</time>
      </trkpt>
      <trkpt lat="43.95137" lon="7.13906">
        <ele>564.40002441406</ele>
        <time>2019-06-01T09:41:40.000Z</time>
      </trkpt>
      <trkpt lat="43.95137" lon="7.13899">
        <ele>564.79998779297</ele>
        <time>2019-06-01T09:41:43.000Z</time>
      </trkpt>
      <trkpt lat="43.95137" lon="7.13886">
        <ele>565.20001220703</ele>
        <time>2019-06-01T09:41:47.000Z</time>
      </trkpt>
      <trkpt lat="43.95139" lon="7.13872">
        <ele>565.40002441406</ele>
        <time>2019-06-01T09:41:52.000Z</time>
      </trkpt>
      <trkpt lat="43.9514" lon="7.13865">
        <ele>565.59997558594</ele>
        <time>2019-06-01T09:41:54.000Z</time>
      </trkpt>
      <trkpt lat="43.95146" lon="7.13849">
        <ele>566.20001220703</ele>
        <time>2019-06-01T09:42:00.000Z</time>
      </trkpt>
      <trkpt lat="43.95149" lon="7.13844">
        <ele>566.59997558594</ele>
        <time>2019-06-01T09:42:02.000Z</time>
      </trkpt>
      <trkpt lat="43.95155" lon="7.13834">
        <ele>566.79998779297</ele>
        <time>2019-06-01T09:42:06.000Z</time>
      </trkpt>
      <trkpt lat="43.95155" lon="7.13816">
        <ele>567.20001220703</ele>
        <time>2019-06-01T09:42:11.000Z</time>
      </trkpt>
      <trkpt lat="43.95151" lon="7.13788">
        <ele>567.20001220703</ele>
        <time>2019-06-01T09:42:17.000Z</time>
      </trkpt>
      <trkpt lat="43.95152" lon="7.13773">
        <ele>567</ele>
        <time>2019-06-01T09:42:21.000Z</time>
      </trkpt>
      <trkpt lat="43.95149" lon="7.13755">
        <ele>566.59997558594</ele>
        <time>2019-06-01T09:42:25.000Z</time>
      </trkpt>
      <trkpt lat="43.95147" lon="7.13734">
        <ele>567.40002441406</ele>
        <time>2019-06-01T09:42:31.000Z</time>
      </trkpt>
      <trkpt lat="43.95143" lon="7.13734">
        <ele>567.59997558594</ele>
        <time>2019-06-01T09:42:34.000Z</time>
      </trkpt>
      <trkpt lat="43.9514" lon="7.13733">
        <ele>567.40002441406</ele>
        <time>2019-06-01T09:42:35.000Z</time>
      </trkpt>
      <trkpt lat="43.95134" lon="7.13733">
        <ele>567.59997558594</ele>
        <time>2019-06-01T09:42:37.000Z</time>
      </trkpt>
      <trkpt lat="43.95133" lon="7.13734">
        <ele>567.59997558594</ele>
        <time>2019-06-01T09:42:38.000Z</time>
      </trkpt>
      <trkpt lat="43.95121" lon="7.13744">
        <ele>568.79998779297</ele>
        <time>2019-06-01T09:42:43.000Z</time>
      </trkpt>
      <trkpt lat="43.95109" lon="7.1376">
        <ele>569</ele>
        <time>2019-06-01T09:42:48.000Z</time>
      </trkpt>
      <trkpt lat="43.95103" lon="7.1376">
        <ele>569.79998779297</ele>
        <time>2019-06-01T09:42:51.000Z</time>
      </trkpt>
      <trkpt lat="43.95102" lon="7.13759">
        <ele>570.20001220703</ele>
        <time>2019-06-01T09:42:52.000Z</time>
      </trkpt>
      <trkpt lat="43.95099" lon="7.13758">
        <ele>570.79998779297</ele>
        <time>2019-06-01T09:42:54.000Z</time>
      </trkpt>
      <trkpt lat="43.95096" lon="7.13754">
        <ele>571.59997558594</ele>
        <time>2019-06-01T09:42:58.000Z</time>
      </trkpt>
      <trkpt lat="43.95094" lon="7.13752">
        <ele>571.79998779297</ele>
        <time>2019-06-01T09:42:59.000Z</time>
      </trkpt>
      <trkpt lat="43.95088" lon="7.13742">
        <ele>572.59997558594</ele>
        <time>2019-06-01T09:43:05.000Z</time>
      </trkpt>
      <trkpt lat="43.95087" lon="7.1374">
        <ele>572.59997558594</ele>
        <time>2019-06-01T09:43:06.000Z</time>
      </trkpt>
      <trkpt lat="43.95085" lon="7.13736">
        <ele>572.79998779297</ele>
        <time>2019-06-01T09:43:08.000Z</time>
      </trkpt>
      <trkpt lat="43.95084" lon="7.13734">
        <ele>573.20001220703</ele>
        <time>2019-06-01T09:43:10.000Z</time>
      </trkpt>
      <trkpt lat="43.95078" lon="7.13734">
        <ele>574</ele>
        <time>2019-06-01T09:43:13.000Z</time>
      </trkpt>
      <trkpt lat="43.95073" lon="7.13734">
        <ele>574</ele>
        <time>2019-06-01T09:43:15.000Z</time>
      </trkpt>
      <trkpt lat="43.95071" lon="7.13735">
        <ele>574</ele>
        <time>2019-06-01T09:43:16.000Z</time>
      </trkpt>
      <trkpt lat="43.95062" lon="7.13737">
        <ele>574.40002441406</ele>
        <time>2019-06-01T09:43:21.000Z</time>
      </trkpt>
      <trkpt lat="43.95055" lon="7.1374">
        <ele>575.40002441406</ele>
        <time>2019-06-01T09:43:25.000Z</time>
      </trkpt>
      <trkpt lat="43.95049" lon="7.1374">
        <ele>575.79998779297</ele>
        <time>2019-06-01T09:43:28.000Z</time>
      </trkpt>
      <trkpt lat="43.95041" lon="7.13738">
        <ele>576.79998779297</ele>
        <time>2019-06-01T09:43:32.000Z</time>
      </trkpt>
      <trkpt lat="43.95039" lon="7.13737">
        <ele>577</ele>
        <time>2019-06-01T09:43:33.000Z</time>
      </trkpt>
      <trkpt lat="43.95035" lon="7.13736">
        <ele>577.79998779297</ele>
        <time>2019-06-01T09:43:36.000Z</time>
      </trkpt>
      <trkpt lat="43.95027" lon="7.13733">
        <ele>578.40002441406</ele>
        <time>2019-06-01T09:43:40.000Z</time>
      </trkpt>
      <trkpt lat="43.95026" lon="7.13731">
        <ele>578.40002441406</ele>
        <time>2019-06-01T09:43:41.000Z</time>
      </trkpt>
      <trkpt lat="43.95023" lon="7.13726">
        <ele>579</ele>
        <time>2019-06-01T09:43:44.000Z</time>
      </trkpt>
      <trkpt lat="43.95022" lon="7.13724">
        <ele>579</ele>
        <time>2019-06-01T09:43:45.000Z</time>
      </trkpt>
      <trkpt lat="43.95015" lon="7.1371">
        <ele>579.79998779297</ele>
        <time>2019-06-01T09:43:51.000Z</time>
      </trkpt>
      <trkpt lat="43.95014" lon="7.13708">
        <ele>580</ele>
        <time>2019-06-01T09:43:52.000Z</time>
      </trkpt>
      <trkpt lat="43.95004" lon="7.13698">
        <ele>580.59997558594</ele>
        <time>2019-06-01T09:43:57.000Z</time>
      </trkpt>
      <trkpt lat="43.94989" lon="7.13689">
        <ele>581</ele>
        <time>2019-06-01T09:44:03.000Z</time>
      </trkpt>
      <trkpt lat="43.94984" lon="7.13686">
        <ele>581.20001220703</ele>
        <time>2019-06-01T09:44:05.000Z</time>
      </trkpt>
      <trkpt lat="43.94978" lon="7.13682">
        <ele>581.59997558594</ele>
        <time>2019-06-01T09:44:09.000Z</time>
      </trkpt>
      <trkpt lat="43.94973" lon="7.13679">
        <ele>582.40002441406</ele>
        <time>2019-06-01T09:44:12.000Z</time>
      </trkpt>
      <trkpt lat="43.94968" lon="7.13677">
        <ele>582.40002441406</ele>
        <time>2019-06-01T09:44:15.000Z</time>
      </trkpt>
      <trkpt lat="43.9496" lon="7.13671">
        <ele>583.20001220703</ele>
        <time>2019-06-01T09:44:20.000Z</time>
      </trkpt>
      <trkpt lat="43.94959" lon="7.13669">
        <ele>583.59997558594</ele>
        <time>2019-06-01T09:44:21.000Z</time>
      </trkpt>
      <trkpt lat="43.94953" lon="7.13667">
        <ele>584.79998779297</ele>
        <time>2019-06-01T09:44:25.000Z</time>
      </trkpt>
      <trkpt lat="43.94945" lon="7.13662">
        <ele>585.59997558594</ele>
        <time>2019-06-01T09:44:31.000Z</time>
      </trkpt>
      <trkpt lat="43.94946" lon="7.1366">
        <ele>586</ele>
        <time>2019-06-01T09:44:32.000Z</time>
      </trkpt>
      <trkpt lat="43.94948" lon="7.13658">
        <ele>586.20001220703</ele>
        <time>2019-06-01T09:44:34.000Z</time>
      </trkpt>
      <trkpt lat="43.94951" lon="7.13658">
        <ele>587</ele>
        <time>2019-06-01T09:44:37.000Z</time>
      </trkpt>
      <trkpt lat="43.94953" lon="7.13657">
        <ele>587.79998779297</ele>
        <time>2019-06-01T09:44:39.000Z</time>
      </trkpt>
      <trkpt lat="43.94954" lon="7.13657">
        <ele>588.20001220703</ele>
        <time>2019-06-01T09:44:40.000Z</time>
      </trkpt>
      <trkpt lat="43.94958" lon="7.13655">
        <ele>589.20001220703</ele>
        <time>2019-06-01T09:44:44.000Z</time>
      </trkpt>
      <trkpt lat="43.94961" lon="7.13654">
        <ele>589.59997558594</ele>
        <time>2019-06-01T09:44:47.000Z</time>
      </trkpt>
      <trkpt lat="43.94963" lon="7.13654">
        <ele>590.40002441406</ele>
        <time>2019-06-01T09:44:49.000Z</time>
      </trkpt>
      <trkpt lat="43.94965" lon="7.13652">
        <ele>591</ele>
        <time>2019-06-01T09:44:52.000Z</time>
      </trkpt>
      <trkpt lat="43.94966" lon="7.13651">
        <ele>591.20001220703</ele>
        <time>2019-06-01T09:44:53.000Z</time>
      </trkpt>
      <trkpt lat="43.94966" lon="7.1365">
        <ele>591.40002441406</ele>
        <time>2019-06-01T09:44:54.000Z</time>
      </trkpt>
      <trkpt lat="43.94966" lon="7.13649">
        <ele>591.59997558594</ele>
        <time>2019-06-01T09:44:55.000Z</time>
      </trkpt>
      <trkpt lat="43.94966" lon="7.13642">
        <ele>592.40002441406</ele>
        <time>2019-06-01T09:44:59.000Z</time>
      </trkpt>
      <trkpt lat="43.94966" lon="7.13639">
        <ele>592.59997558594</ele>
        <time>2019-06-01T09:45:00.000Z</time>
      </trkpt>
      <trkpt lat="43.94967" lon="7.13633">
        <ele>593.20001220703</ele>
        <time>2019-06-01T09:45:06.000Z</time>
      </trkpt>
      <trkpt lat="43.94968" lon="7.13632">
        <ele>593.40002441406</ele>
        <time>2019-06-01T09:45:09.000Z</time>
      </trkpt>
      <trkpt lat="43.94968" lon="7.13632">
        <ele>593.59997558594</ele>
        <time>2019-06-01T09:45:14.000Z</time>
      </trkpt>
      <trkpt lat="43.94968" lon="7.13631">
        <ele>593.79998779297</ele>
        <time>2019-06-01T09:45:27.000Z</time>
      </trkpt>
      <trkpt lat="43.9497" lon="7.13629">
        <ele>593.59997558594</ele>
        <time>2019-06-01T09:45:47.000Z</time>
      </trkpt>
      <trkpt lat="43.9497" lon="7.13628">
        <ele>593.40002441406</ele>
        <time>2019-06-01T09:46:05.000Z</time>
      </trkpt>
      <trkpt lat="43.9497" lon="7.13627">
        <ele>593.59997558594</ele>
        <time>2019-06-01T09:46:24.000Z</time>
      </trkpt>
      <trkpt lat="43.94969" lon="7.13627">
        <ele>593.20001220703</ele>
        <time>2019-06-01T09:46:46.000Z</time>
      </trkpt>
      <trkpt lat="43.94969" lon="7.13627">
        <ele>593</ele>
        <time>2019-06-01T09:46:58.000Z</time>
      </trkpt>
      <trkpt lat="43.94968" lon="7.13628">
        <ele>592.79998779297</ele>
        <time>2019-06-01T09:47:26.000Z</time>
      </trkpt>
      <trkpt lat="43.94967" lon="7.13628">
        <ele>592.59997558594</ele>
        <time>2019-06-01T09:47:51.000Z</time>
      </trkpt>
      <trkpt lat="43.94967" lon="7.13628">
        <ele>592.40002441406</ele>
        <time>2019-06-01T09:47:57.000Z</time>
      </trkpt>
      <trkpt lat="43.94967" lon="7.13628">
        <ele>592.40002441406</ele>
        <time>2019-06-01T09:48:14.000Z</time>
      </trkpt>
      <trkpt lat="43.94968" lon="7.13626">
        <ele>592.20001220703</ele>
        <time>2019-06-01T09:48:23.000Z</time>
      </trkpt>
      <trkpt lat="43.9497" lon="7.13622">
        <ele>592.20001220703</ele>
        <time>2019-06-01T09:48:26.000Z</time>
      </trkpt>
      <trkpt lat="43.94969" lon="7.13616">
        <ele>592.20001220703</ele>
        <time>2019-06-01T09:48:28.000Z</time>
      </trkpt>
      <trkpt lat="43.94964" lon="7.13611">
        <ele>591.79998779297</ele>
        <time>2019-06-01T09:48:30.000Z</time>
      </trkpt>
      <trkpt lat="43.94962" lon="7.13607">
        <ele>591.59997558594</ele>
        <time>2019-06-01T09:48:31.000Z</time>
      </trkpt>
      <trkpt lat="43.9496" lon="7.13601">
        <ele>591.40002441406</ele>
        <time>2019-06-01T09:48:32.000Z</time>
      </trkpt>
      <trkpt lat="43.94958" lon="7.13596">
        <ele>591</ele>
        <time>2019-06-01T09:48:33.000Z</time>
      </trkpt>
      <trkpt lat="43.94951" lon="7.13586">
        <ele>589.79998779297</ele>
        <time>2019-06-01T09:48:35.000Z</time>
      </trkpt>
      <trkpt lat="43.94944" lon="7.13574">
        <ele>588.59997558594</ele>
        <time>2019-06-01T09:48:37.000Z</time>
      </trkpt>
      <trkpt lat="43.94941" lon="7.13569">
        <ele>587.59997558594</ele>
        <time>2019-06-01T09:48:38.000Z</time>
      </trkpt>
      <trkpt lat="43.94939" lon="7.13565">
        <ele>587.20001220703</ele>
        <time>2019-06-01T09:48:39.000Z</time>
      </trkpt>
      <trkpt lat="43.94936" lon="7.13562">
        <ele>586</ele>
        <time>2019-06-01T09:48:40.000Z</time>
      </trkpt>
      <trkpt lat="43.9493" lon="7.13557">
        <ele>583.79998779297</ele>
        <time>2019-06-01T09:48:42.000Z</time>
      </trkpt>
      <trkpt lat="43.94926" lon="7.13553">
        <ele>581.79998779297</ele>
        <time>2019-06-01T09:48:44.000Z</time>
      </trkpt>
      <trkpt lat="43.94927" lon="7.13551">
        <ele>581.20001220703</ele>
        <time>2019-06-01T09:48:45.000Z</time>
      </trkpt>
      <trkpt lat="43.9493" lon="7.13549">
        <ele>580.20001220703</ele>
        <time>2019-06-01T09:48:46.000Z</time>
      </trkpt>
      <trkpt lat="43.94937" lon="7.13547">
        <ele>578.59997558594</ele>
        <time>2019-06-01T09:48:48.000Z</time>
      </trkpt>
      <trkpt lat="43.94942" lon="7.13547">
        <ele>578.20001220703</ele>
        <time>2019-06-01T09:48:49.000Z</time>
      </trkpt>
      <trkpt lat="43.94947" lon="7.13546">
        <ele>577.79998779297</ele>
        <time>2019-06-01T09:48:50.000Z</time>
      </trkpt>
      <trkpt lat="43.94952" lon="7.13545">
        <ele>577</ele>
        <time>2019-06-01T09:48:51.000Z</time>
      </trkpt>
      <trkpt lat="43.94962" lon="7.13542">
        <ele>575.59997558594</ele>
        <time>2019-06-01T09:48:53.000Z</time>
      </trkpt>
      <trkpt lat="43.94964" lon="7.1354">
        <ele>575</ele>
        <time>2019-06-01T09:48:54.000Z</time>
      </trkpt>
      <trkpt lat="43.94963" lon="7.13536">
        <ele>573.40002441406</ele>
        <time>2019-06-01T09:48:55.000Z</time>
      </trkpt>
      <trkpt lat="43.9496" lon="7.13533">
        <ele>572.40002441406</ele>
        <time>2019-06-01T09:48:56.000Z</time>
      </trkpt>
      <trkpt lat="43.94956" lon="7.1353">
        <ele>571.20001220703</ele>
        <time>2019-06-01T09:48:57.000Z</time>
      </trkpt>
      <trkpt lat="43.94953" lon="7.13525">
        <ele>569.79998779297</ele>
        <time>2019-06-01T09:48:58.000Z</time>
      </trkpt>
      <trkpt lat="43.94956" lon="7.13516">
        <ele>569.20001220703</ele>
        <time>2019-06-01T09:49:00.000Z</time>
      </trkpt>
      <trkpt lat="43.94957" lon="7.13514">
        <ele>568.20001220703</ele>
        <time>2019-06-01T09:49:01.000Z</time>
      </trkpt>
      <trkpt lat="43.94956" lon="7.13512">
        <ele>567.40002441406</ele>
        <time>2019-06-01T09:49:02.000Z</time>
      </trkpt>
      <trkpt lat="43.94954" lon="7.13511">
        <ele>566.79998779297</ele>
        <time>2019-06-01T09:49:03.000Z</time>
      </trkpt>
      <trkpt lat="43.94952" lon="7.13508">
        <ele>565.40002441406</ele>
        <time>2019-06-01T09:49:04.000Z</time>
      </trkpt>
      <trkpt lat="43.9495" lon="7.13504">
        <ele>564.59997558594</ele>
        <time>2019-06-01T09:49:05.000Z</time>
      </trkpt>
      <trkpt lat="43.94947" lon="7.135">
        <ele>563.79998779297</ele>
        <time>2019-06-01T09:49:06.000Z</time>
      </trkpt>
      <trkpt lat="43.94944" lon="7.13493">
        <ele>562.59997558594</ele>
        <time>2019-06-01T09:49:08.000Z</time>
      </trkpt>
      <trkpt lat="43.94944" lon="7.13492">
        <ele>561.79998779297</ele>
        <time>2019-06-01T09:49:09.000Z</time>
      </trkpt>
      <trkpt lat="43.94946" lon="7.13491">
        <ele>561</ele>
        <time>2019-06-01T09:49:10.000Z</time>
      </trkpt>
      <trkpt lat="43.94949" lon="7.1349">
        <ele>559.20001220703</ele>
        <time>2019-06-01T09:49:12.000Z</time>
      </trkpt>
      <trkpt lat="43.94948" lon="7.13488">
        <ele>557.59997558594</ele>
        <time>2019-06-01T09:49:14.000Z</time>
      </trkpt>
      <trkpt lat="43.94947" lon="7.13488">
        <ele>557</ele>
        <time>2019-06-01T09:49:15.000Z</time>
      </trkpt>
      <trkpt lat="43.94945" lon="7.13486">
        <ele>556.40002441406</ele>
        <time>2019-06-01T09:49:16.000Z</time>
      </trkpt>
      <trkpt lat="43.94943" lon="7.13479">
        <ele>555</ele>
        <time>2019-06-01T09:49:19.000Z</time>
      </trkpt>
      <trkpt lat="43.94941" lon="7.13472">
        <ele>553.79998779297</ele>
        <time>2019-06-01T09:49:21.000Z</time>
      </trkpt>
      <trkpt lat="43.94939" lon="7.13467">
        <ele>552.79998779297</ele>
        <time>2019-06-01T09:49:22.000Z</time>
      </trkpt>
      <trkpt lat="43.94937" lon="7.13461">
        <ele>552</ele>
        <time>2019-06-01T09:49:23.000Z</time>
      </trkpt>
      <trkpt lat="43.94933" lon="7.13455">
        <ele>550.79998779297</ele>
        <time>2019-06-01T09:49:24.000Z</time>
      </trkpt>
      <trkpt lat="43.9493" lon="7.13449">
        <ele>550</ele>
        <time>2019-06-01T09:49:25.000Z</time>
      </trkpt>
      <trkpt lat="43.94927" lon="7.13442">
        <ele>548.79998779297</ele>
        <time>2019-06-01T09:49:26.000Z</time>
      </trkpt>
      <trkpt lat="43.94924" lon="7.13436">
        <ele>547.59997558594</ele>
        <time>2019-06-01T09:49:27.000Z</time>
      </trkpt>
      <trkpt lat="43.9492" lon="7.13432">
        <ele>546.59997558594</ele>
        <time>2019-06-01T09:49:28.000Z</time>
      </trkpt>
      <trkpt lat="43.94916" lon="7.13433">
        <ele>545.40002441406</ele>
        <time>2019-06-01T09:49:29.000Z</time>
      </trkpt>
      <trkpt lat="43.94913" lon="7.13434">
        <ele>544.40002441406</ele>
        <time>2019-06-01T09:49:30.000Z</time>
      </trkpt>
      <trkpt lat="43.94911" lon="7.13436">
        <ele>543.79998779297</ele>
        <time>2019-06-01T09:49:31.000Z</time>
      </trkpt>
      <trkpt lat="43.94905" lon="7.13435">
        <ele>543.59997558594</ele>
        <time>2019-06-01T09:49:33.000Z</time>
      </trkpt>
      <trkpt lat="43.94896" lon="7.13429">
        <ele>543.79998779297</ele>
        <time>2019-06-01T09:49:36.000Z</time>
      </trkpt>
      <trkpt lat="43.94891" lon="7.13433">
        <ele>542.79998779297</ele>
        <time>2019-06-01T09:49:38.000Z</time>
      </trkpt>
      <trkpt lat="43.94887" lon="7.13435">
        <ele>542.40002441406</ele>
        <time>2019-06-01T09:49:39.000Z</time>
      </trkpt>
      <trkpt lat="43.94881" lon="7.13432">
        <ele>541.20001220703</ele>
        <time>2019-06-01T09:49:41.000Z</time>
      </trkpt>
      <trkpt lat="43.9488" lon="7.13432">
        <ele>539.79998779297</ele>
        <time>2019-06-01T09:49:43.000Z</time>
      </trkpt>
      <trkpt lat="43.94879" lon="7.13431">
        <ele>538.79998779297</ele>
        <time>2019-06-01T09:49:44.000Z</time>
      </trkpt>
      <trkpt lat="43.94879" lon="7.1343">
        <ele>538.20001220703</ele>
        <time>2019-06-01T09:49:45.000Z</time>
      </trkpt>
      <trkpt lat="43.9488" lon="7.13429">
        <ele>536.59997558594</ele>
        <time>2019-06-01T09:49:47.000Z</time>
      </trkpt>
      <trkpt lat="43.9488" lon="7.13426">
        <ele>536</ele>
        <time>2019-06-01T09:49:49.000Z</time>
      </trkpt>
      <trkpt lat="43.9488" lon="7.13426">
        <ele>535.59997558594</ele>
        <time>2019-06-01T09:49:50.000Z</time>
      </trkpt>
      <trkpt lat="43.94877" lon="7.13425">
        <ele>535.20001220703</ele>
        <time>2019-06-01T09:49:52.000Z</time>
      </trkpt>
      <trkpt lat="43.94876" lon="7.13424">
        <ele>535</ele>
        <time>2019-06-01T09:49:53.000Z</time>
      </trkpt>
      <trkpt lat="43.94873" lon="7.13423">
        <ele>534</ele>
        <time>2019-06-01T09:49:56.000Z</time>
      </trkpt>
      <trkpt lat="43.94872" lon="7.13422">
        <ele>533.79998779297</ele>
        <time>2019-06-01T09:49:57.000Z</time>
      </trkpt>
      <trkpt lat="43.94869" lon="7.13418">
        <ele>534.59997558594</ele>
        <time>2019-06-01T09:50:04.000Z</time>
      </trkpt>
      <trkpt lat="43.94869" lon="7.13416">
        <ele>535.20001220703</ele>
        <time>2019-06-01T09:50:06.000Z</time>
      </trkpt>
      <trkpt lat="43.94869" lon="7.13407">
        <ele>535.40002441406</ele>
        <time>2019-06-01T09:50:09.000Z</time>
      </trkpt>
      <trkpt lat="43.94869" lon="7.13402">
        <ele>535.20001220703</ele>
        <time>2019-06-01T09:50:10.000Z</time>
      </trkpt>
      <trkpt lat="43.94869" lon="7.13396">
        <ele>535</ele>
        <time>2019-06-01T09:50:11.000Z</time>
      </trkpt>
      <trkpt lat="43.94869" lon="7.13385">
        <ele>534.40002441406</ele>
        <time>2019-06-01T09:50:13.000Z</time>
      </trkpt>
      <trkpt lat="43.94869" lon="7.1338">
        <ele>533.79998779297</ele>
        <time>2019-06-01T09:50:14.000Z</time>
      </trkpt>
      <trkpt lat="43.94867" lon="7.13371">
        <ele>532.79998779297</ele>
        <time>2019-06-01T09:50:16.000Z</time>
      </trkpt>
      <trkpt lat="43.94867" lon="7.13365">
        <ele>531.59997558594</ele>
        <time>2019-06-01T09:50:17.000Z</time>
      </trkpt>
      <trkpt lat="43.94867" lon="7.13358">
        <ele>530.20001220703</ele>
        <time>2019-06-01T09:50:18.000Z</time>
      </trkpt>
      <trkpt lat="43.94867" lon="7.13352">
        <ele>529.40002441406</ele>
        <time>2019-06-01T09:50:19.000Z</time>
      </trkpt>
      <trkpt lat="43.94866" lon="7.13347">
        <ele>528.20001220703</ele>
        <time>2019-06-01T09:50:20.000Z</time>
      </trkpt>
      <trkpt lat="43.94865" lon="7.1334">
        <ele>526.40002441406</ele>
        <time>2019-06-01T09:50:22.000Z</time>
      </trkpt>
      <trkpt lat="43.94865" lon="7.13338">
        <ele>525.59997558594</ele>
        <time>2019-06-01T09:50:23.000Z</time>
      </trkpt>
      <trkpt lat="43.94863" lon="7.13336">
        <ele>523.79998779297</ele>
        <time>2019-06-01T09:50:24.000Z</time>
      </trkpt>
      <trkpt lat="43.94861" lon="7.13336">
        <ele>522.20001220703</ele>
        <time>2019-06-01T09:50:25.000Z</time>
      </trkpt>
      <trkpt lat="43.94858" lon="7.13337">
        <ele>520.59997558594</ele>
        <time>2019-06-01T09:50:26.000Z</time>
      </trkpt>
      <trkpt lat="43.94855" lon="7.13332">
        <ele>519</ele>
        <time>2019-06-01T09:50:28.000Z</time>
      </trkpt>
      <trkpt lat="43.94859" lon="7.13321">
        <ele>518</ele>
        <time>2019-06-01T09:50:30.000Z</time>
      </trkpt>
      <trkpt lat="43.94861" lon="7.13313">
        <ele>517.40002441406</ele>
        <time>2019-06-01T09:50:31.000Z</time>
      </trkpt>
      <trkpt lat="43.94862" lon="7.13306">
        <ele>516.59997558594</ele>
        <time>2019-06-01T09:50:32.000Z</time>
      </trkpt>
      <trkpt lat="43.94863" lon="7.13301">
        <ele>515.59997558594</ele>
        <time>2019-06-01T09:50:33.000Z</time>
      </trkpt>
      <trkpt lat="43.94863" lon="7.13298">
        <ele>514.59997558594</ele>
        <time>2019-06-01T09:50:34.000Z</time>
      </trkpt>
      <trkpt lat="43.94861" lon="7.13291">
        <ele>513</ele>
        <time>2019-06-01T09:50:36.000Z</time>
      </trkpt>
      <trkpt lat="43.9486" lon="7.13285">
        <ele>512.20001220703</ele>
        <time>2019-06-01T09:50:37.000Z</time>
      </trkpt>
      <trkpt lat="43.94859" lon="7.1328">
        <ele>511.60000610352</ele>
        <time>2019-06-01T09:50:38.000Z</time>
      </trkpt>
      <trkpt lat="43.94859" lon="7.1327">
        <ele>510.20001220703</ele>
        <time>2019-06-01T09:50:40.000Z</time>
      </trkpt>
      <trkpt lat="43.94858" lon="7.1326">
        <ele>509</ele>
        <time>2019-06-01T09:50:42.000Z</time>
      </trkpt>
      <trkpt lat="43.94858" lon="7.13254">
        <ele>508</ele>
        <time>2019-06-01T09:50:44.000Z</time>
      </trkpt>
      <trkpt lat="43.94859" lon="7.13252">
        <ele>507.79998779297</ele>
        <time>2019-06-01T09:50:45.000Z</time>
      </trkpt>
      <trkpt lat="43.94859" lon="7.1325">
        <ele>507.20001220703</ele>
        <time>2019-06-01T09:50:46.000Z</time>
      </trkpt>
      <trkpt lat="43.9486" lon="7.13241">
        <ele>506.60000610352</ele>
        <time>2019-06-01T09:50:48.000Z</time>
      </trkpt>
      <trkpt lat="43.9486" lon="7.13236">
        <ele>506.20001220703</ele>
        <time>2019-06-01T09:50:49.000Z</time>
      </trkpt>
      <trkpt lat="43.9486" lon="7.13231">
        <ele>505.60000610352</ele>
        <time>2019-06-01T09:50:50.000Z</time>
      </trkpt>
      <trkpt lat="43.9486" lon="7.13221">
        <ele>503.60000610352</ele>
        <time>2019-06-01T09:50:52.000Z</time>
      </trkpt>
      <trkpt lat="43.94859" lon="7.13218">
        <ele>502.79998779297</ele>
        <time>2019-06-01T09:50:53.000Z</time>
      </trkpt>
      <trkpt lat="43.94858" lon="7.13215">
        <ele>501.79998779297</ele>
        <time>2019-06-01T09:50:54.000Z</time>
      </trkpt>
      <trkpt lat="43.94854" lon="7.13205">
        <ele>500.39999389648</ele>
        <time>2019-06-01T09:50:56.000Z</time>
      </trkpt>
      <trkpt lat="43.94849" lon="7.13197">
        <ele>499</ele>
        <time>2019-06-01T09:50:58.000Z</time>
      </trkpt>
      <trkpt lat="43.94843" lon="7.13193">
        <ele>497.79998779297</ele>
        <time>2019-06-01T09:51:00.000Z</time>
      </trkpt>
      <trkpt lat="43.94828" lon="7.13179">
        <ele>497</ele>
        <time>2019-06-01T09:51:04.000Z</time>
      </trkpt>
      <trkpt lat="43.94825" lon="7.13175">
        <ele>497</ele>
        <time>2019-06-01T09:51:05.000Z</time>
      </trkpt>
      <trkpt lat="43.94822" lon="7.13169">
        <ele>496.60000610352</ele>
        <time>2019-06-01T09:51:06.000Z</time>
      </trkpt>
      <trkpt lat="43.94817" lon="7.13162">
        <ele>495.39999389648</ele>
        <time>2019-06-01T09:51:08.000Z</time>
      </trkpt>
      <trkpt lat="43.94814" lon="7.13159">
        <ele>494.60000610352</ele>
        <time>2019-06-01T09:51:09.000Z</time>
      </trkpt>
      <trkpt lat="43.94811" lon="7.13155">
        <ele>493.60000610352</ele>
        <time>2019-06-01T09:51:10.000Z</time>
      </trkpt>
      <trkpt lat="43.94808" lon="7.13151">
        <ele>493</ele>
        <time>2019-06-01T09:51:11.000Z</time>
      </trkpt>
      <trkpt lat="43.94805" lon="7.13148">
        <ele>492.39999389648</ele>
        <time>2019-06-01T09:51:12.000Z</time>
      </trkpt>
      <trkpt lat="43.94803" lon="7.13143">
        <ele>491.60000610352</ele>
        <time>2019-06-01T09:51:13.000Z</time>
      </trkpt>
      <trkpt lat="43.94801" lon="7.1314">
        <ele>491</ele>
        <time>2019-06-01T09:51:14.000Z</time>
      </trkpt>
      <trkpt lat="43.94796" lon="7.13135">
        <ele>489.39999389648</ele>
        <time>2019-06-01T09:51:16.000Z</time>
      </trkpt>
      <trkpt lat="43.94793" lon="7.13134">
        <ele>488.39999389648</ele>
        <time>2019-06-01T09:51:17.000Z</time>
      </trkpt>
      <trkpt lat="43.94791" lon="7.13131">
        <ele>487.60000610352</ele>
        <time>2019-06-01T09:51:18.000Z</time>
      </trkpt>
      <trkpt lat="43.94787" lon="7.13126">
        <ele>486.20001220703</ele>
        <time>2019-06-01T09:51:20.000Z</time>
      </trkpt>
      <trkpt lat="43.94786" lon="7.13124">
        <ele>485.60000610352</ele>
        <time>2019-06-01T09:51:21.000Z</time>
      </trkpt>
      <trkpt lat="43.94784" lon="7.13121">
        <ele>484.60000610352</ele>
        <time>2019-06-01T09:51:23.000Z</time>
      </trkpt>
      <trkpt lat="43.94782" lon="7.13118">
        <ele>483.20001220703</ele>
        <time>2019-06-01T09:51:25.000Z</time>
      </trkpt>
      <trkpt lat="43.94781" lon="7.13116">
        <ele>482.39999389648</ele>
        <time>2019-06-01T09:51:26.000Z</time>
      </trkpt>
      <trkpt lat="43.9478" lon="7.13114">
        <ele>481.79998779297</ele>
        <time>2019-06-01T09:51:27.000Z</time>
      </trkpt>
      <trkpt lat="43.94777" lon="7.13109">
        <ele>480.79998779297</ele>
        <time>2019-06-01T09:51:29.000Z</time>
      </trkpt>
      <trkpt lat="43.94776" lon="7.13106">
        <ele>480.39999389648</ele>
        <time>2019-06-01T09:51:30.000Z</time>
      </trkpt>
      <trkpt lat="43.94775" lon="7.13102">
        <ele>479.39999389648</ele>
        <time>2019-06-01T09:51:32.000Z</time>
      </trkpt>
      <trkpt lat="43.94774" lon="7.13098">
        <ele>477.79998779297</ele>
        <time>2019-06-01T09:51:34.000Z</time>
      </trkpt>
      <trkpt lat="43.94774" lon="7.13096">
        <ele>476.79998779297</ele>
        <time>2019-06-01T09:51:35.000Z</time>
      </trkpt>
      <trkpt lat="43.94772" lon="7.13093">
        <ele>475.60000610352</ele>
        <time>2019-06-01T09:51:37.000Z</time>
      </trkpt>
      <trkpt lat="43.94771" lon="7.13092">
        <ele>474.20001220703</ele>
        <time>2019-06-01T09:51:39.000Z</time>
      </trkpt>
      <trkpt lat="43.94769" lon="7.1309">
        <ele>473.20001220703</ele>
        <time>2019-06-01T09:51:45.000Z</time>
      </trkpt>
      <trkpt lat="43.94768" lon="7.13088">
        <ele>473.20001220703</ele>
        <time>2019-06-01T09:51:46.000Z</time>
      </trkpt>
      <trkpt lat="43.94766" lon="7.13085">
        <ele>473.20001220703</ele>
        <time>2019-06-01T09:51:48.000Z</time>
      </trkpt>
      <trkpt lat="43.94763" lon="7.13082">
        <ele>472.60000610352</ele>
        <time>2019-06-01T09:51:50.000Z</time>
      </trkpt>
      <trkpt lat="43.94761" lon="7.13078">
        <ele>471.79998779297</ele>
        <time>2019-06-01T09:51:52.000Z</time>
      </trkpt>
      <trkpt lat="43.94757" lon="7.13078">
        <ele>470.20001220703</ele>
        <time>2019-06-01T09:51:54.000Z</time>
      </trkpt>
      <trkpt lat="43.94753" lon="7.13078">
        <ele>469.20001220703</ele>
        <time>2019-06-01T09:51:56.000Z</time>
      </trkpt>
      <trkpt lat="43.94749" lon="7.13078">
        <ele>468.79998779297</ele>
        <time>2019-06-01T09:51:58.000Z</time>
      </trkpt>
      <trkpt lat="43.94747" lon="7.13078">
        <ele>468.39999389648</ele>
        <time>2019-06-01T09:51:59.000Z</time>
      </trkpt>
      <trkpt lat="43.94744" lon="7.13078">
        <ele>468</ele>
        <time>2019-06-01T09:52:00.000Z</time>
      </trkpt>
      <trkpt lat="43.94737" lon="7.13076">
        <ele>466.39999389648</ele>
        <time>2019-06-01T09:52:02.000Z</time>
      </trkpt>
      <trkpt lat="43.94731" lon="7.13077">
        <ele>465.20001220703</ele>
        <time>2019-06-01T09:52:04.000Z</time>
      </trkpt>
      <trkpt lat="43.94725" lon="7.13075">
        <ele>464.60000610352</ele>
        <time>2019-06-01T09:52:06.000Z</time>
      </trkpt>
      <trkpt lat="43.94719" lon="7.13073">
        <ele>464</ele>
        <time>2019-06-01T09:52:08.000Z</time>
      </trkpt>
      <trkpt lat="43.94715" lon="7.13068">
        <ele>463.39999389648</ele>
        <time>2019-06-01T09:52:10.000Z</time>
      </trkpt>
      <trkpt lat="43.94713" lon="7.13066">
        <ele>462.39999389648</ele>
        <time>2019-06-01T09:52:11.000Z</time>
      </trkpt>
      <trkpt lat="43.94711" lon="7.13063">
        <ele>460.79998779297</ele>
        <time>2019-06-01T09:52:13.000Z</time>
      </trkpt>
      <trkpt lat="43.9471" lon="7.13061">
        <ele>460</ele>
        <time>2019-06-01T09:52:14.000Z</time>
      </trkpt>
      <trkpt lat="43.94709" lon="7.1306">
        <ele>459.39999389648</ele>
        <time>2019-06-01T09:52:15.000Z</time>
      </trkpt>
      <trkpt lat="43.94707" lon="7.13058">
        <ele>458.39999389648</ele>
        <time>2019-06-01T09:52:18.000Z</time>
      </trkpt>
      <trkpt lat="43.94706" lon="7.13058">
        <ele>458.20001220703</ele>
        <time>2019-06-01T09:52:19.000Z</time>
      </trkpt>
      <trkpt lat="43.94704" lon="7.13056">
        <ele>458.60000610352</ele>
        <time>2019-06-01T09:52:24.000Z</time>
      </trkpt>
      <trkpt lat="43.94701" lon="7.1305">
        <ele>458.39999389648</ele>
        <time>2019-06-01T09:52:29.000Z</time>
      </trkpt>
      <trkpt lat="43.947" lon="7.13049">
        <ele>458.20001220703</ele>
        <time>2019-06-01T09:52:30.000Z</time>
      </trkpt>
      <trkpt lat="43.94693" lon="7.13046">
        <ele>457</ele>
        <time>2019-06-01T09:52:33.000Z</time>
      </trkpt>
      <trkpt lat="43.94688" lon="7.13045">
        <ele>456.39999389648</ele>
        <time>2019-06-01T09:52:35.000Z</time>
      </trkpt>
      <trkpt lat="43.94677" lon="7.1304">
        <ele>456</ele>
        <time>2019-06-01T09:52:38.000Z</time>
      </trkpt>
      <trkpt lat="43.94674" lon="7.13038">
        <ele>455.60000610352</ele>
        <time>2019-06-01T09:52:39.000Z</time>
      </trkpt>
      <trkpt lat="43.94664" lon="7.13034">
        <ele>454.20001220703</ele>
        <time>2019-06-01T09:52:42.000Z</time>
      </trkpt>
      <trkpt lat="43.94661" lon="7.13034">
        <ele>453.60000610352</ele>
        <time>2019-06-01T09:52:43.000Z</time>
      </trkpt>
      <trkpt lat="43.94654" lon="7.13035">
        <ele>452.60000610352</ele>
        <time>2019-06-01T09:52:45.000Z</time>
      </trkpt>
      <trkpt lat="43.94649" lon="7.13037">
        <ele>451.79998779297</ele>
        <time>2019-06-01T09:52:46.000Z</time>
      </trkpt>
      <trkpt lat="43.94645" lon="7.1304">
        <ele>451.60000610352</ele>
        <time>2019-06-01T09:52:47.000Z</time>
      </trkpt>
      <trkpt lat="43.9464" lon="7.13042">
        <ele>451</ele>
        <time>2019-06-01T09:52:48.000Z</time>
      </trkpt>
      <trkpt lat="43.94636" lon="7.13044">
        <ele>450.20001220703</ele>
        <time>2019-06-01T09:52:49.000Z</time>
      </trkpt>
      <trkpt lat="43.94627" lon="7.13048">
        <ele>448.60000610352</ele>
        <time>2019-06-01T09:52:51.000Z</time>
      </trkpt>
      <trkpt lat="43.9462" lon="7.1305">
        <ele>447.39999389648</ele>
        <time>2019-06-01T09:52:52.000Z</time>
      </trkpt>
      <trkpt lat="43.94614" lon="7.13052">
        <ele>446.39999389648</ele>
        <time>2019-06-01T09:52:53.000Z</time>
      </trkpt>
      <trkpt lat="43.94607" lon="7.13053">
        <ele>445.20001220703</ele>
        <time>2019-06-01T09:52:54.000Z</time>
      </trkpt>
      <trkpt lat="43.94603" lon="7.13056">
        <ele>444</ele>
        <time>2019-06-01T09:52:55.000Z</time>
      </trkpt>
      <trkpt lat="43.946" lon="7.1306">
        <ele>442.79998779297</ele>
        <time>2019-06-01T09:52:56.000Z</time>
      </trkpt>
      <trkpt lat="43.94593" lon="7.13062">
        <ele>441.60000610352</ele>
        <time>2019-06-01T09:52:58.000Z</time>
      </trkpt>
      <trkpt lat="43.94584" lon="7.13058">
        <ele>441.39999389648</ele>
        <time>2019-06-01T09:53:01.000Z</time>
      </trkpt>
      <trkpt lat="43.94583" lon="7.13058">
        <ele>441.39999389648</ele>
        <time>2019-06-01T09:53:02.000Z</time>
      </trkpt>
      <trkpt lat="43.94579" lon="7.13057">
        <ele>440.20001220703</ele>
        <time>2019-06-01T09:53:06.000Z</time>
      </trkpt>
      <trkpt lat="43.94577" lon="7.13056">
        <ele>439.60000610352</ele>
        <time>2019-06-01T09:53:07.000Z</time>
      </trkpt>
      <trkpt lat="43.94572" lon="7.13055">
        <ele>439</ele>
        <time>2019-06-01T09:53:09.000Z</time>
      </trkpt>
      <trkpt lat="43.94563" lon="7.1305">
        <ele>437.60000610352</ele>
        <time>2019-06-01T09:53:12.000Z</time>
      </trkpt>
      <trkpt lat="43.94557" lon="7.13044">
        <ele>436.20001220703</ele>
        <time>2019-06-01T09:53:14.000Z</time>
      </trkpt>
      <trkpt lat="43.94556" lon="7.13042">
        <ele>435.20001220703</ele>
        <time>2019-06-01T09:53:15.000Z</time>
      </trkpt>
      <trkpt lat="43.94556" lon="7.1304">
        <ele>434.39999389648</ele>
        <time>2019-06-01T09:53:16.000Z</time>
      </trkpt>
      <trkpt lat="43.94554" lon="7.13038">
        <ele>432.79998779297</ele>
        <time>2019-06-01T09:53:18.000Z</time>
      </trkpt>
      <trkpt lat="43.94554" lon="7.13036">
        <ele>432</ele>
        <time>2019-06-01T09:53:19.000Z</time>
      </trkpt>
      <trkpt lat="43.94554" lon="7.13033">
        <ele>431.79998779297</ele>
        <time>2019-06-01T09:53:20.000Z</time>
      </trkpt>
      <trkpt lat="43.94554" lon="7.13027">
        <ele>430.20001220703</ele>
        <time>2019-06-01T09:53:22.000Z</time>
      </trkpt>
      <trkpt lat="43.94552" lon="7.13024">
        <ele>429.79998779297</ele>
        <time>2019-06-01T09:53:23.000Z</time>
      </trkpt>
      <trkpt lat="43.9455" lon="7.1302">
        <ele>428.79998779297</ele>
        <time>2019-06-01T09:53:24.000Z</time>
      </trkpt>
      <trkpt lat="43.94549" lon="7.13014">
        <ele>427.60000610352</ele>
        <time>2019-06-01T09:53:25.000Z</time>
      </trkpt>
      <trkpt lat="43.94548" lon="7.13009">
        <ele>426.39999389648</ele>
        <time>2019-06-01T09:53:26.000Z</time>
      </trkpt>
      <trkpt lat="43.94546" lon="7.13005">
        <ele>425.39999389648</ele>
        <time>2019-06-01T09:53:27.000Z</time>
      </trkpt>
      <trkpt lat="43.94542" lon="7.13002">
        <ele>423.60000610352</ele>
        <time>2019-06-01T09:53:28.000Z</time>
      </trkpt>
      <trkpt lat="43.94538" lon="7.13">
        <ele>422.79998779297</ele>
        <time>2019-06-01T09:53:29.000Z</time>
      </trkpt>
      <trkpt lat="43.94532" lon="7.12997">
        <ele>421.60000610352</ele>
        <time>2019-06-01T09:53:30.000Z</time>
      </trkpt>
      <trkpt lat="43.94526" lon="7.12995">
        <ele>420.20001220703</ele>
        <time>2019-06-01T09:53:31.000Z</time>
      </trkpt>
      <trkpt lat="43.9452" lon="7.12993">
        <ele>418.79998779297</ele>
        <time>2019-06-01T09:53:32.000Z</time>
      </trkpt>
      <trkpt lat="43.94515" lon="7.12994">
        <ele>418</ele>
        <time>2019-06-01T09:53:33.000Z</time>
      </trkpt>
      <trkpt lat="43.94504" lon="7.12995">
        <ele>417.20001220703</ele>
        <time>2019-06-01T09:53:35.000Z</time>
      </trkpt>
      <trkpt lat="43.94497" lon="7.12989">
        <ele>415.60000610352</ele>
        <time>2019-06-01T09:53:37.000Z</time>
      </trkpt>
      <trkpt lat="43.9449" lon="7.12982">
        <ele>413</ele>
        <time>2019-06-01T09:53:39.000Z</time>
      </trkpt>
      <trkpt lat="43.94486" lon="7.12981">
        <ele>410.79998779297</ele>
        <time>2019-06-01T09:53:40.000Z</time>
      </trkpt>
      <trkpt lat="43.94481" lon="7.12977">
        <ele>409.79998779297</ele>
        <time>2019-06-01T09:53:41.000Z</time>
      </trkpt>
      <trkpt lat="43.94478" lon="7.12972">
        <ele>408.20001220703</ele>
        <time>2019-06-01T09:53:43.000Z</time>
      </trkpt>
      <trkpt lat="43.94479" lon="7.12971">
        <ele>408</ele>
        <time>2019-06-01T09:53:44.000Z</time>
      </trkpt>
      <trkpt lat="43.94479" lon="7.1297">
        <ele>408.20001220703</ele>
        <time>2019-06-01T09:53:49.000Z</time>
      </trkpt>
      <trkpt lat="43.94479" lon="7.12971">
        <ele>408.20001220703</ele>
        <time>2019-06-01T09:53:55.000Z</time>
      </trkpt>
      <trkpt lat="43.94479" lon="7.1297">
        <ele>408</ele>
        <time>2019-06-01T09:54:23.000Z</time>
      </trkpt>
      <trkpt lat="43.94478" lon="7.1297">
        <ele>408</ele>
        <time>2019-06-01T09:54:41.000Z</time>
      </trkpt>
      <trkpt lat="43.94477" lon="7.1297">
        <ele>407.79998779297</ele>
        <time>2019-06-01T09:54:49.000Z</time>
      </trkpt>
      <trkpt lat="43.94477" lon="7.1297">
        <ele>408.39999389648</ele>
        <time>2019-06-01T09:55:00.000Z</time>
      </trkpt>
      <trkpt lat="43.94478" lon="7.12971">
        <ele>408.39999389648</ele>
        <time>2019-06-01T09:55:19.000Z</time>
      </trkpt>
      <trkpt lat="43.9449" lon="7.12979">
        <ele>408</ele>
        <time>2019-06-01T09:55:26.000Z</time>
      </trkpt>
      <trkpt lat="43.94507" lon="7.12982">
        <ele>407.20001220703</ele>
        <time>2019-06-01T09:55:31.000Z</time>
      </trkpt>
      <trkpt lat="43.94511" lon="7.12981">
        <ele>407</ele>
        <time>2019-06-01T09:55:32.000Z</time>
      </trkpt>
      <trkpt lat="43.94524" lon="7.12977">
        <ele>406.39999389648</ele>
        <time>2019-06-01T09:55:35.000Z</time>
      </trkpt>
      <trkpt lat="43.94529" lon="7.12977">
        <ele>406.20001220703</ele>
        <time>2019-06-01T09:55:36.000Z</time>
      </trkpt>
      <trkpt lat="43.94547" lon="7.12983">
        <ele>405</ele>
        <time>2019-06-01T09:55:40.000Z</time>
      </trkpt>
      <trkpt lat="43.94551" lon="7.12986">
        <ele>404.60000610352</ele>
        <time>2019-06-01T09:55:41.000Z</time>
      </trkpt>
      <trkpt lat="43.94565" lon="7.12996">
        <ele>403.79998779297</ele>
        <time>2019-06-01T09:55:44.000Z</time>
      </trkpt>
      <trkpt lat="43.94576" lon="7.13001">
        <ele>403.20001220703</ele>
        <time>2019-06-01T09:55:46.000Z</time>
      </trkpt>
      <trkpt lat="43.94582" lon="7.13003">
        <ele>402.79998779297</ele>
        <time>2019-06-01T09:55:47.000Z</time>
      </trkpt>
      <trkpt lat="43.94588" lon="7.13002">
        <ele>402.60000610352</ele>
        <time>2019-06-01T09:55:48.000Z</time>
      </trkpt>
      <trkpt lat="43.94599" lon="7.12992">
        <ele>401.60000610352</ele>
        <time>2019-06-01T09:55:50.000Z</time>
      </trkpt>
      <trkpt lat="43.94604" lon="7.12985">
        <ele>401.20001220703</ele>
        <time>2019-06-01T09:55:51.000Z</time>
      </trkpt>
      <trkpt lat="43.94609" lon="7.12967">
        <ele>400</ele>
        <time>2019-06-01T09:55:53.000Z</time>
      </trkpt>
      <trkpt lat="43.94602" lon="7.12952">
        <ele>399.20001220703</ele>
        <time>2019-06-01T09:55:55.000Z</time>
      </trkpt>
      <trkpt lat="43.94596" lon="7.12946">
        <ele>399</ele>
        <time>2019-06-01T09:55:56.000Z</time>
      </trkpt>
      <trkpt lat="43.9459" lon="7.12941">
        <ele>399</ele>
        <time>2019-06-01T09:55:57.000Z</time>
      </trkpt>
      <trkpt lat="43.9457" lon="7.1292">
        <ele>398.79998779297</ele>
        <time>2019-06-01T09:56:01.000Z</time>
      </trkpt>
      <trkpt lat="43.94559" lon="7.12905">
        <ele>399.60000610352</ele>
        <time>2019-06-01T09:56:05.000Z</time>
      </trkpt>
      <trkpt lat="43.94555" lon="7.12902">
        <ele>400.20001220703</ele>
        <time>2019-06-01T09:56:07.000Z</time>
      </trkpt>
      <trkpt lat="43.94546" lon="7.12898">
        <ele>401</ele>
        <time>2019-06-01T09:56:11.000Z</time>
      </trkpt>
      <trkpt lat="43.94544" lon="7.12896">
        <ele>401.20001220703</ele>
        <time>2019-06-01T09:56:12.000Z</time>
      </trkpt>
      <trkpt lat="43.9453" lon="7.12884">
        <ele>402.20001220703</ele>
        <time>2019-06-01T09:56:19.000Z</time>
      </trkpt>
      <trkpt lat="43.94528" lon="7.12882">
        <ele>402.60000610352</ele>
        <time>2019-06-01T09:56:20.000Z</time>
      </trkpt>
      <trkpt lat="43.94514" lon="7.12875">
        <ele>403.20001220703</ele>
        <time>2019-06-01T09:56:26.000Z</time>
      </trkpt>
      <trkpt lat="43.94512" lon="7.12873">
        <ele>403.39999389648</ele>
        <time>2019-06-01T09:56:27.000Z</time>
      </trkpt>
      <trkpt lat="43.945" lon="7.12863">
        <ele>404.20001220703</ele>
        <time>2019-06-01T09:56:33.000Z</time>
      </trkpt>
      <trkpt lat="43.94499" lon="7.12861">
        <ele>404.39999389648</ele>
        <time>2019-06-01T09:56:34.000Z</time>
      </trkpt>
      <trkpt lat="43.94488" lon="7.12844">
        <ele>405.39999389648</ele>
        <time>2019-06-01T09:56:41.000Z</time>
      </trkpt>
      <trkpt lat="43.94486" lon="7.12841">
        <ele>405.60000610352</ele>
        <time>2019-06-01T09:56:42.000Z</time>
      </trkpt>
      <trkpt lat="43.94482" lon="7.12823">
        <ele>406.20001220703</ele>
        <time>2019-06-01T09:56:47.000Z</time>
      </trkpt>
      <trkpt lat="43.94486" lon="7.12814">
        <ele>406.60000610352</ele>
        <time>2019-06-01T09:56:50.000Z</time>
      </trkpt>
      <trkpt lat="43.94488" lon="7.12811">
        <ele>406.79998779297</ele>
        <time>2019-06-01T09:56:51.000Z</time>
      </trkpt>
      <trkpt lat="43.94505" lon="7.128">
        <ele>407.60000610352</ele>
        <time>2019-06-01T09:56:58.000Z</time>
      </trkpt>
      <trkpt lat="43.94507" lon="7.12799">
        <ele>407.60000610352</ele>
        <time>2019-06-01T09:56:59.000Z</time>
      </trkpt>
      <trkpt lat="43.94523" lon="7.12791">
        <ele>408.79998779297</ele>
        <time>2019-06-01T09:57:06.000Z</time>
      </trkpt>
      <trkpt lat="43.94535" lon="7.1278">
        <ele>409.79998779297</ele>
        <time>2019-06-01T09:57:12.000Z</time>
      </trkpt>
      <trkpt lat="43.94536" lon="7.12777">
        <ele>410</ele>
        <time>2019-06-01T09:57:13.000Z</time>
      </trkpt>
      <trkpt lat="43.94544" lon="7.12767">
        <ele>410.79998779297</ele>
        <time>2019-06-01T09:57:18.000Z</time>
      </trkpt>
      <trkpt lat="43.94547" lon="7.12761">
        <ele>411</ele>
        <time>2019-06-01T09:57:20.000Z</time>
      </trkpt>
      <trkpt lat="43.94553" lon="7.12743">
        <ele>412</ele>
        <time>2019-06-01T09:57:26.000Z</time>
      </trkpt>
      <trkpt lat="43.94554" lon="7.1274">
        <ele>412</ele>
        <time>2019-06-01T09:57:27.000Z</time>
      </trkpt>
      <trkpt lat="43.94559" lon="7.12727">
        <ele>413</ele>
        <time>2019-06-01T09:57:32.000Z</time>
      </trkpt>
      <trkpt lat="43.94561" lon="7.12722">
        <ele>413.39999389648</ele>
        <time>2019-06-01T09:57:34.000Z</time>
      </trkpt>
      <trkpt lat="43.94568" lon="7.1271">
        <ele>414.20001220703</ele>
        <time>2019-06-01T09:57:39.000Z</time>
      </trkpt>
      <trkpt lat="43.94574" lon="7.12703">
        <ele>414.39999389648</ele>
        <time>2019-06-01T09:57:42.000Z</time>
      </trkpt>
      <trkpt lat="43.94582" lon="7.12692">
        <ele>415.20001220703</ele>
        <time>2019-06-01T09:57:47.000Z</time>
      </trkpt>
      <trkpt lat="43.94584" lon="7.1269">
        <ele>415.60000610352</ele>
        <time>2019-06-01T09:57:48.000Z</time>
      </trkpt>
      <trkpt lat="43.94591" lon="7.1268">
        <ele>416.39999389648</ele>
        <time>2019-06-01T09:57:52.000Z</time>
      </trkpt>
      <trkpt lat="43.94592" lon="7.12674">
        <ele>416.60000610352</ele>
        <time>2019-06-01T09:57:54.000Z</time>
      </trkpt>
      <trkpt lat="43.94593" lon="7.12655">
        <ele>417.60000610352</ele>
        <time>2019-06-01T09:58:00.000Z</time>
      </trkpt>
      <trkpt lat="43.94593" lon="7.12652">
        <ele>417.60000610352</ele>
        <time>2019-06-01T09:58:01.000Z</time>
      </trkpt>
      <trkpt lat="43.94593" lon="7.12638">
        <ele>418.60000610352</ele>
        <time>2019-06-01T09:58:06.000Z</time>
      </trkpt>
      <trkpt lat="43.94595" lon="7.12627">
        <ele>419.20001220703</ele>
        <time>2019-06-01T09:58:10.000Z</time>
      </trkpt>
      <trkpt lat="43.94596" lon="7.1262">
        <ele>419.60000610352</ele>
        <time>2019-06-01T09:58:12.000Z</time>
      </trkpt>
      <trkpt lat="43.946" lon="7.12602">
        <ele>420.39999389648</ele>
        <time>2019-06-01T09:58:18.000Z</time>
      </trkpt>
      <trkpt lat="43.94601" lon="7.12595">
        <ele>420.60000610352</ele>
        <time>2019-06-01T09:58:20.000Z</time>
      </trkpt>
      <trkpt lat="43.946" lon="7.12577">
        <ele>421.60000610352</ele>
        <time>2019-06-01T09:58:25.000Z</time>
      </trkpt>
      <trkpt lat="43.94591" lon="7.12549">
        <ele>422.20001220703</ele>
        <time>2019-06-01T09:58:32.000Z</time>
      </trkpt>
      <trkpt lat="43.94585" lon="7.12516">
        <ele>422.20001220703</ele>
        <time>2019-06-01T09:58:38.000Z</time>
      </trkpt>
      <trkpt lat="43.94575" lon="7.12493">
        <ele>421.60000610352</ele>
        <time>2019-06-01T09:58:42.000Z</time>
      </trkpt>
      <trkpt lat="43.94573" lon="7.12487">
        <ele>421.60000610352</ele>
        <time>2019-06-01T09:58:43.000Z</time>
      </trkpt>
      <trkpt lat="43.94568" lon="7.12465">
        <ele>421.20001220703</ele>
        <time>2019-06-01T09:58:46.000Z</time>
      </trkpt>
      <trkpt lat="43.94566" lon="7.12449">
        <ele>421</ele>
        <time>2019-06-01T09:58:48.000Z</time>
      </trkpt>
      <trkpt lat="43.94566" lon="7.12441">
        <ele>421</ele>
        <time>2019-06-01T09:58:49.000Z</time>
      </trkpt>
      <trkpt lat="43.94569" lon="7.12426">
        <ele>420.60000610352</ele>
        <time>2019-06-01T09:58:51.000Z</time>
      </trkpt>
      <trkpt lat="43.94577" lon="7.12414">
        <ele>420.39999389648</ele>
        <time>2019-06-01T09:58:53.000Z</time>
      </trkpt>
      <trkpt lat="43.94579" lon="7.12408">
        <ele>420.20001220703</ele>
        <time>2019-06-01T09:58:54.000Z</time>
      </trkpt>
      <trkpt lat="43.94581" lon="7.12403">
        <ele>420.20001220703</ele>
        <time>2019-06-01T09:58:55.000Z</time>
      </trkpt>
      <trkpt lat="43.94582" lon="7.12384">
        <ele>420.39999389648</ele>
        <time>2019-06-01T09:58:59.000Z</time>
      </trkpt>
      <trkpt lat="43.94579" lon="7.12372">
        <ele>422</ele>
        <time>2019-06-01T09:59:03.000Z</time>
      </trkpt>
      <trkpt lat="43.94578" lon="7.1237">
        <ele>422.20001220703</ele>
        <time>2019-06-01T09:59:04.000Z</time>
      </trkpt>
      <trkpt lat="43.94574" lon="7.12366">
        <ele>422.39999389648</ele>
        <time>2019-06-01T09:59:06.000Z</time>
      </trkpt>
      <trkpt lat="43.94568" lon="7.12367">
        <ele>422.79998779297</ele>
        <time>2019-06-01T09:59:08.000Z</time>
      </trkpt>
      <trkpt lat="43.94565" lon="7.12368">
        <ele>423</ele>
        <time>2019-06-01T09:59:09.000Z</time>
      </trkpt>
      <trkpt lat="43.94557" lon="7.12373">
        <ele>423.39999389648</ele>
        <time>2019-06-01T09:59:12.000Z</time>
      </trkpt>
      <trkpt lat="43.94551" lon="7.12378">
        <ele>423.60000610352</ele>
        <time>2019-06-01T09:59:15.000Z</time>
      </trkpt>
      <trkpt lat="43.94544" lon="7.12383">
        <ele>424</ele>
        <time>2019-06-01T09:59:18.000Z</time>
      </trkpt>
      <trkpt lat="43.94537" lon="7.1239">
        <ele>424.79998779297</ele>
        <time>2019-06-01T09:59:22.000Z</time>
      </trkpt>
      <trkpt lat="43.94535" lon="7.12392">
        <ele>425</ele>
        <time>2019-06-01T09:59:23.000Z</time>
      </trkpt>
      <trkpt lat="43.94527" lon="7.12398">
        <ele>425.79998779297</ele>
        <time>2019-06-01T09:59:27.000Z</time>
      </trkpt>
      <trkpt lat="43.94523" lon="7.12404">
        <ele>426.20001220703</ele>
        <time>2019-06-01T09:59:29.000Z</time>
      </trkpt>
      <trkpt lat="43.94519" lon="7.12413">
        <ele>426.60000610352</ele>
        <time>2019-06-01T09:59:32.000Z</time>
      </trkpt>
      <trkpt lat="43.9452" lon="7.12426">
        <ele>427.39999389648</ele>
        <time>2019-06-01T09:59:35.000Z</time>
      </trkpt>
      <trkpt lat="43.94521" lon="7.12436">
        <ele>427.79998779297</ele>
        <time>2019-06-01T09:59:37.000Z</time>
      </trkpt>
      <trkpt lat="43.94521" lon="7.12453">
        <ele>428.39999389648</ele>
        <time>2019-06-01T09:59:41.000Z</time>
      </trkpt>
      <trkpt lat="43.94519" lon="7.12464">
        <ele>429</ele>
        <time>2019-06-01T09:59:44.000Z</time>
      </trkpt>
      <trkpt lat="43.94517" lon="7.12472">
        <ele>429.39999389648</ele>
        <time>2019-06-01T09:59:46.000Z</time>
      </trkpt>
      <trkpt lat="43.94509" lon="7.1249">
        <ele>430.60000610352</ele>
        <time>2019-06-01T09:59:51.000Z</time>
      </trkpt>
      <trkpt lat="43.94508" lon="7.12493">
        <ele>430.79998779297</ele>
        <time>2019-06-01T09:59:52.000Z</time>
      </trkpt>
      <trkpt lat="43.94506" lon="7.12509">
        <ele>431.60000610352</ele>
        <time>2019-06-01T09:59:56.000Z</time>
      </trkpt>
      <trkpt lat="43.94507" lon="7.1252">
        <ele>432.20001220703</ele>
        <time>2019-06-01T09:59:59.000Z</time>
      </trkpt>
      <trkpt lat="43.94508" lon="7.12535">
        <ele>432.60000610352</ele>
        <time>2019-06-01T10:00:03.000Z</time>
      </trkpt>
      <trkpt lat="43.94508" lon="7.12542">
        <ele>432.79998779297</ele>
        <time>2019-06-01T10:00:05.000Z</time>
      </trkpt>
      <trkpt lat="43.94507" lon="7.1256">
        <ele>433.79998779297</ele>
        <time>2019-06-01T10:00:10.000Z</time>
      </trkpt>
      <trkpt lat="43.94503" lon="7.12566">
        <ele>434.39999389648</ele>
        <time>2019-06-01T10:00:12.000Z</time>
      </trkpt>
      <trkpt lat="43.94496" lon="7.12571">
        <ele>434.79998779297</ele>
        <time>2019-06-01T10:00:15.000Z</time>
      </trkpt>
      <trkpt lat="43.9449" lon="7.12571">
        <ele>435.20001220703</ele>
        <time>2019-06-01T10:00:17.000Z</time>
      </trkpt>
      <trkpt lat="43.94483" lon="7.12571">
        <ele>436</ele>
        <time>2019-06-01T10:00:20.000Z</time>
      </trkpt>
      <trkpt lat="43.9447" lon="7.12571">
        <ele>436.79998779297</ele>
        <time>2019-06-01T10:00:25.000Z</time>
      </trkpt>
      <trkpt lat="43.94465" lon="7.12572">
        <ele>437</ele>
        <time>2019-06-01T10:00:27.000Z</time>
      </trkpt>
      <trkpt lat="43.94454" lon="7.12574">
        <ele>438.20001220703</ele>
        <time>2019-06-01T10:00:32.000Z</time>
      </trkpt>
      <trkpt lat="43.94452" lon="7.12574">
        <ele>438.20001220703</ele>
        <time>2019-06-01T10:00:33.000Z</time>
      </trkpt>
      <trkpt lat="43.94439" lon="7.12578">
        <ele>439.20001220703</ele>
        <time>2019-06-01T10:00:39.000Z</time>
      </trkpt>
      <trkpt lat="43.94431" lon="7.12581">
        <ele>439.79998779297</ele>
        <time>2019-06-01T10:00:43.000Z</time>
      </trkpt>
      <trkpt lat="43.94427" lon="7.12582">
        <ele>440.20001220703</ele>
        <time>2019-06-01T10:00:45.000Z</time>
      </trkpt>
      <trkpt lat="43.94414" lon="7.12587">
        <ele>441.39999389648</ele>
        <time>2019-06-01T10:00:51.000Z</time>
      </trkpt>
      <trkpt lat="43.94401" lon="7.12584">
        <ele>442.39999389648</ele>
        <time>2019-06-01T10:00:58.000Z</time>
      </trkpt>
      <trkpt lat="43.9439" lon="7.12573">
        <ele>443.60000610352</ele>
        <time>2019-06-01T10:01:05.000Z</time>
      </trkpt>
      <trkpt lat="43.94381" lon="7.12564">
        <ele>444.79998779297</ele>
        <time>2019-06-01T10:01:11.000Z</time>
      </trkpt>
      <trkpt lat="43.94377" lon="7.12561">
        <ele>445</ele>
        <time>2019-06-01T10:01:13.000Z</time>
      </trkpt>
      <trkpt lat="43.94363" lon="7.12556">
        <ele>445.79998779297</ele>
        <time>2019-06-01T10:01:21.000Z</time>
      </trkpt>
      <trkpt lat="43.94351" lon="7.1256">
        <ele>446.79998779297</ele>
        <time>2019-06-01T10:01:27.000Z</time>
      </trkpt>
      <trkpt lat="43.94347" lon="7.12562">
        <ele>447</ele>
        <time>2019-06-01T10:01:29.000Z</time>
      </trkpt>
      <trkpt lat="43.94337" lon="7.12572">
        <ele>447.60000610352</ele>
        <time>2019-06-01T10:01:35.000Z</time>
      </trkpt>
      <trkpt lat="43.94331" lon="7.12577">
        <ele>448.20001220703</ele>
        <time>2019-06-01T10:01:39.000Z</time>
      </trkpt>
      <trkpt lat="43.94324" lon="7.12583">
        <ele>448.79998779297</ele>
        <time>2019-06-01T10:01:43.000Z</time>
      </trkpt>
      <trkpt lat="43.94316" lon="7.12585">
        <ele>449.20001220703</ele>
        <time>2019-06-01T10:01:47.000Z</time>
      </trkpt>
      <trkpt lat="43.94312" lon="7.12584">
        <ele>449.60000610352</ele>
        <time>2019-06-01T10:01:49.000Z</time>
      </trkpt>
      <trkpt lat="43.94309" lon="7.12583">
        <ele>449.79998779297</ele>
        <time>2019-06-01T10:01:51.000Z</time>
      </trkpt>
      <trkpt lat="43.94301" lon="7.12581">
        <ele>450.39999389648</ele>
        <time>2019-06-01T10:01:55.000Z</time>
      </trkpt>
      <trkpt lat="43.94293" lon="7.12579">
        <ele>450.79998779297</ele>
        <time>2019-06-01T10:01:59.000Z</time>
      </trkpt>
      <trkpt lat="43.94283" lon="7.12575">
        <ele>451.39999389648</ele>
        <time>2019-06-01T10:02:05.000Z</time>
      </trkpt>
      <trkpt lat="43.94281" lon="7.12575">
        <ele>451.39999389648</ele>
        <time>2019-06-01T10:02:06.000Z</time>
      </trkpt>
      <trkpt lat="43.94272" lon="7.12572">
        <ele>452</ele>
        <time>2019-06-01T10:02:11.000Z</time>
      </trkpt>
      <trkpt lat="43.94268" lon="7.12571">
        <ele>452.39999389648</ele>
        <time>2019-06-01T10:02:13.000Z</time>
      </trkpt>
      <trkpt lat="43.94266" lon="7.12572">
        <ele>452.60000610352</ele>
        <time>2019-06-01T10:02:14.000Z</time>
      </trkpt>
      <trkpt lat="43.94263" lon="7.12571">
        <ele>452.79998779297</ele>
        <time>2019-06-01T10:02:16.000Z</time>
      </trkpt>
      <trkpt lat="43.94256" lon="7.1257">
        <ele>453.60000610352</ele>
        <time>2019-06-01T10:02:20.000Z</time>
      </trkpt>
      <trkpt lat="43.94253" lon="7.12567">
        <ele>454</ele>
        <time>2019-06-01T10:02:22.000Z</time>
      </trkpt>
      <trkpt lat="43.94255" lon="7.12561">
        <ele>454.39999389648</ele>
        <time>2019-06-01T10:02:25.000Z</time>
      </trkpt>
      <trkpt lat="43.94257" lon="7.1256">
        <ele>454.60000610352</ele>
        <time>2019-06-01T10:02:26.000Z</time>
      </trkpt>
      <trkpt lat="43.94258" lon="7.12559">
        <ele>454.60000610352</ele>
        <time>2019-06-01T10:02:27.000Z</time>
      </trkpt>
      <trkpt lat="43.94263" lon="7.12557">
        <ele>455.20001220703</ele>
        <time>2019-06-01T10:02:32.000Z</time>
      </trkpt>
      <trkpt lat="43.94264" lon="7.12558">
        <ele>455</ele>
        <time>2019-06-01T10:02:38.000Z</time>
      </trkpt>
      <trkpt lat="43.94263" lon="7.12559">
        <ele>454.79998779297</ele>
        <time>2019-06-01T10:02:45.000Z</time>
      </trkpt>
      <trkpt lat="43.94265" lon="7.1256">
        <ele>454.79998779297</ele>
        <time>2019-06-01T10:02:51.000Z</time>
      </trkpt>
      <trkpt lat="43.94265" lon="7.12562">
        <ele>455</ele>
        <time>2019-06-01T10:02:56.000Z</time>
      </trkpt>
      <trkpt lat="43.94264" lon="7.12561">
        <ele>455.39999389648</ele>
        <time>2019-06-01T10:03:09.000Z</time>
      </trkpt>
      <trkpt lat="43.94266" lon="7.12561">
        <ele>455</ele>
        <time>2019-06-01T10:03:16.000Z</time>
      </trkpt>
      <trkpt lat="43.94266" lon="7.1256">
        <ele>454.79998779297</ele>
        <time>2019-06-01T10:03:20.000Z</time>
      </trkpt>
      <trkpt lat="43.94264" lon="7.12556">
        <ele>455.20001220703</ele>
        <time>2019-06-01T10:03:27.000Z</time>
      </trkpt>
      <trkpt lat="43.94263" lon="7.12556">
        <ele>455.39999389648</ele>
        <time>2019-06-01T10:03:35.000Z</time>
      </trkpt>
      <trkpt lat="43.94264" lon="7.12558">
        <ele>455.39999389648</ele>
        <time>2019-06-01T10:03:42.000Z</time>
      </trkpt>
      <trkpt lat="43.94264" lon="7.12559">
        <ele>455.20001220703</ele>
        <time>2019-06-01T10:03:50.000Z</time>
      </trkpt>
      <trkpt lat="43.94266" lon="7.1256">
        <ele>455</ele>
        <time>2019-06-01T10:03:57.000Z</time>
      </trkpt>
      <trkpt lat="43.94266" lon="7.12562">
        <ele>455.39999389648</ele>
        <time>2019-06-01T10:04:04.000Z</time>
      </trkpt>
      <trkpt lat="43.94266" lon="7.12564">
        <ele>455.39999389648</ele>
        <time>2019-06-01T10:04:12.000Z</time>
      </trkpt>
      <trkpt lat="43.94265" lon="7.12561">
        <ele>455.20001220703</ele>
        <time>2019-06-01T10:04:17.000Z</time>
      </trkpt>
      <trkpt lat="43.94263" lon="7.12562">
        <ele>454.79998779297</ele>
        <time>2019-06-01T10:04:22.000Z</time>
      </trkpt>
      <trkpt lat="43.94264" lon="7.12563">
        <ele>454.79998779297</ele>
        <time>2019-06-01T10:04:33.000Z</time>
      </trkpt>
      <trkpt lat="43.94263" lon="7.12562">
        <ele>454.60000610352</ele>
        <time>2019-06-01T10:04:44.000Z</time>
      </trkpt>
      <trkpt lat="43.94264" lon="7.12562">
        <ele>454.60000610352</ele>
        <time>2019-06-01T10:04:55.000Z</time>
      </trkpt>
      <trkpt lat="43.94264" lon="7.12562">
        <ele>454.60000610352</ele>
        <time>2019-06-01T10:05:09.000Z</time>
      </trkpt>
      <trkpt lat="43.94264" lon="7.12562">
        <ele>454.60000610352</ele>
        <time>2019-06-01T10:05:21.000Z</time>
      </trkpt>
      <trkpt lat="43.94264" lon="7.12562">
        <ele>454.39999389648</ele>
        <time>2019-06-01T10:05:33.000Z</time>
      </trkpt>
      <trkpt lat="43.94264" lon="7.12561">
        <ele>454</ele>
        <time>2019-06-01T10:05:45.000Z</time>
      </trkpt>
      <trkpt lat="43.94264" lon="7.12561">
        <ele>454.60000610352</ele>
        <time>2019-06-01T10:05:59.000Z</time>
      </trkpt>
      <trkpt lat="43.94264" lon="7.12562">
        <ele>454.39999389648</ele>
        <time>2019-06-01T10:06:15.000Z</time>
      </trkpt>
      <trkpt lat="43.94264" lon="7.12563">
        <ele>454.39999389648</ele>
        <time>2019-06-01T10:06:34.000Z</time>
      </trkpt>
      <trkpt lat="43.94264" lon="7.12563">
        <ele>454.39999389648</ele>
        <time>2019-06-01T10:06:50.000Z</time>
      </trkpt>
      <trkpt lat="43.94264" lon="7.12564">
        <ele>454.39999389648</ele>
        <time>2019-06-01T10:07:08.000Z</time>
      </trkpt>
      <trkpt lat="43.94264" lon="7.12564">
        <ele>454.60000610352</ele>
        <time>2019-06-01T10:07:23.000Z</time>
      </trkpt>
      <trkpt lat="43.94265" lon="7.12563">
        <ele>454.39999389648</ele>
        <time>2019-06-01T10:07:44.000Z</time>
      </trkpt>
      <trkpt lat="43.94265" lon="7.12563">
        <ele>454</ele>
        <time>2019-06-01T10:07:59.000Z</time>
      </trkpt>
      <trkpt lat="43.94265" lon="7.12563">
        <ele>454</ele>
        <time>2019-06-01T10:08:13.000Z</time>
      </trkpt>
      <trkpt lat="43.94265" lon="7.12561">
        <ele>454</ele>
        <time>2019-06-01T10:08:33.000Z</time>
      </trkpt>
      <trkpt lat="43.94264" lon="7.1256">
        <ele>454</ele>
        <time>2019-06-01T10:08:49.000Z</time>
      </trkpt>
      <trkpt lat="43.94265" lon="7.1256">
        <ele>454</ele>
        <time>2019-06-01T10:09:04.000Z</time>
      </trkpt>
      <trkpt lat="43.94266" lon="7.12561">
        <ele>454.20001220703</ele>
        <time>2019-06-01T10:09:16.000Z</time>
      </trkpt>
      <trkpt lat="43.94266" lon="7.12562">
        <ele>454.20001220703</ele>
        <time>2019-06-01T10:09:30.000Z</time>
      </trkpt>
      <trkpt lat="43.94266" lon="7.12562">
        <ele>454</ele>
        <time>2019-06-01T10:09:48.000Z</time>
      </trkpt>
      <trkpt lat="43.94266" lon="7.12563">
        <ele>454.39999389648</ele>
        <time>2019-06-01T10:10:03.000Z</time>
      </trkpt>
      <trkpt lat="43.94266" lon="7.12563">
        <ele>454.20001220703</ele>
        <time>2019-06-01T10:10:25.000Z</time>
      </trkpt>
      <trkpt lat="43.94265" lon="7.12563">
        <ele>454.20001220703</ele>
        <time>2019-06-01T10:10:47.000Z</time>
      </trkpt>
      <trkpt lat="43.94265" lon="7.12564">
        <ele>454</ele>
        <time>2019-06-01T10:11:04.000Z</time>
      </trkpt>
      <trkpt lat="43.94264" lon="7.12564">
        <ele>454.20001220703</ele>
        <time>2019-06-01T10:11:24.000Z</time>
      </trkpt>
      <trkpt lat="43.94264" lon="7.12561">
        <ele>454</ele>
        <time>2019-06-01T10:11:38.000Z</time>
      </trkpt>
      <trkpt lat="43.94263" lon="7.12562">
        <ele>454.79998779297</ele>
        <time>2019-06-01T10:11:51.000Z</time>
      </trkpt>
      <trkpt lat="43.94263" lon="7.12562">
        <ele>454.39999389648</ele>
        <time>2019-06-01T10:12:02.000Z</time>
      </trkpt>
      <trkpt lat="43.94264" lon="7.12561">
        <ele>454.60000610352</ele>
        <time>2019-06-01T10:12:13.000Z</time>
      </trkpt>
      <trkpt lat="43.94263" lon="7.12561">
        <ele>454.79998779297</ele>
        <time>2019-06-01T10:12:20.000Z</time>
      </trkpt>
      <trkpt lat="43.94263" lon="7.12561">
        <ele>454.79998779297</ele>
        <time>2019-06-01T10:12:36.000Z</time>
      </trkpt>
      <trkpt lat="43.94263" lon="7.12561">
        <ele>454.39999389648</ele>
        <time>2019-06-01T10:12:45.000Z</time>
      </trkpt>
      <trkpt lat="43.94264" lon="7.12561">
        <ele>455</ele>
        <time>2019-06-01T10:12:53.000Z</time>
      </trkpt>
      <trkpt lat="43.94264" lon="7.12561">
        <ele>455</ele>
        <time>2019-06-01T10:13:03.000Z</time>
      </trkpt>
      <trkpt lat="43.94264" lon="7.12561">
        <ele>454.79998779297</ele>
        <time>2019-06-01T10:13:20.000Z</time>
      </trkpt>
      <trkpt lat="43.94264" lon="7.12562">
        <ele>455</ele>
        <time>2019-06-01T10:13:37.000Z</time>
      </trkpt>
      <trkpt lat="43.94264" lon="7.12563">
        <ele>454.79998779297</ele>
        <time>2019-06-01T10:14:00.000Z</time>
      </trkpt>
      <trkpt lat="43.94264" lon="7.12563">
        <ele>455.20001220703</ele>
        <time>2019-06-01T10:14:18.000Z</time>
      </trkpt>
      <trkpt lat="43.94264" lon="7.12563">
        <ele>455.20001220703</ele>
        <time>2019-06-01T10:14:28.000Z</time>
      </trkpt>
      <trkpt lat="43.94265" lon="7.12564">
        <ele>455</ele>
        <time>2019-06-01T10:14:41.000Z</time>
      </trkpt>
      <trkpt lat="43.94265" lon="7.12564">
        <ele>455</ele>
        <time>2019-06-01T10:14:55.000Z</time>
      </trkpt>
      <trkpt lat="43.94265" lon="7.12564">
        <ele>455.20001220703</ele>
        <time>2019-06-01T10:15:04.000Z</time>
      </trkpt>
      <trkpt lat="43.94266" lon="7.12564">
        <ele>455</ele>
        <time>2019-06-01T10:15:11.000Z</time>
      </trkpt>
      <trkpt lat="43.94266" lon="7.12564">
        <ele>455.20001220703</ele>
        <time>2019-06-01T10:15:15.000Z</time>
      </trkpt>
      <trkpt lat="43.94266" lon="7.12565">
        <ele>455.20001220703</ele>
        <time>2019-06-01T10:15:26.000Z</time>
      </trkpt>
      <trkpt lat="43.94266" lon="7.12564">
        <ele>455</ele>
        <time>2019-06-01T10:15:41.000Z</time>
      </trkpt>
      <trkpt lat="43.94265" lon="7.12564">
        <ele>455</ele>
        <time>2019-06-01T10:15:55.000Z</time>
      </trkpt>
      <trkpt lat="43.94264" lon="7.12564">
        <ele>455</ele>
        <time>2019-06-01T10:16:16.000Z</time>
      </trkpt>
      <trkpt lat="43.94263" lon="7.12563">
        <ele>455</ele>
        <time>2019-06-01T10:16:34.000Z</time>
      </trkpt>
      <trkpt lat="43.94263" lon="7.12562">
        <ele>455</ele>
        <time>2019-06-01T10:16:51.000Z</time>
      </trkpt>
      <trkpt lat="43.94262" lon="7.12562">
        <ele>455.39999389648</ele>
        <time>2019-06-01T10:17:05.000Z</time>
      </trkpt>
      <trkpt lat="43.94262" lon="7.12562">
        <ele>455.20001220703</ele>
        <time>2019-06-01T10:17:20.000Z</time>
      </trkpt>
      <trkpt lat="43.94263" lon="7.12562">
        <ele>455.20001220703</ele>
        <time>2019-06-01T10:17:33.000Z</time>
      </trkpt>
      <trkpt lat="43.94262" lon="7.12562">
        <ele>455.20001220703</ele>
        <time>2019-06-01T10:17:52.000Z</time>
      </trkpt>
      <trkpt lat="43.94262" lon="7.12562">
        <ele>455</ele>
        <time>2019-06-01T10:18:05.000Z</time>
      </trkpt>
      <trkpt lat="43.94262" lon="7.12564">
        <ele>454.79998779297</ele>
        <time>2019-06-01T10:18:16.000Z</time>
      </trkpt>
      <trkpt lat="43.94262" lon="7.12564">
        <ele>454.60000610352</ele>
        <time>2019-06-01T10:18:25.000Z</time>
      </trkpt>
      <trkpt lat="43.94262" lon="7.12565">
        <ele>455</ele>
        <time>2019-06-01T10:18:32.000Z</time>
      </trkpt>
      <trkpt lat="43.94261" lon="7.12565">
        <ele>454.79998779297</ele>
        <time>2019-06-01T10:18:50.000Z</time>
      </trkpt>
      <trkpt lat="43.94262" lon="7.12564">
        <ele>455</ele>
        <time>2019-06-01T10:19:08.000Z</time>
      </trkpt>
      <trkpt lat="43.94263" lon="7.12562">
        <ele>455</ele>
        <time>2019-06-01T10:19:33.000Z</time>
      </trkpt>
      <trkpt lat="43.94264" lon="7.12562">
        <ele>455</ele>
        <time>2019-06-01T10:19:41.000Z</time>
      </trkpt>
      <trkpt lat="43.94264" lon="7.12562">
        <ele>455.39999389648</ele>
        <time>2019-06-01T10:19:52.000Z</time>
      </trkpt>
      <trkpt lat="43.94263" lon="7.12562">
        <ele>455</ele>
        <time>2019-06-01T10:20:03.000Z</time>
      </trkpt>
      <trkpt lat="43.94264" lon="7.12562">
        <ele>455.20001220703</ele>
        <time>2019-06-01T10:20:15.000Z</time>
      </trkpt>
      <trkpt lat="43.94264" lon="7.12562">
        <ele>455.20001220703</ele>
        <time>2019-06-01T10:20:25.000Z</time>
      </trkpt>
      <trkpt lat="43.94263" lon="7.12563">
        <ele>455.39999389648</ele>
        <time>2019-06-01T10:20:41.000Z</time>
      </trkpt>
      <trkpt lat="43.94263" lon="7.12563">
        <ele>454.79998779297</ele>
        <time>2019-06-01T10:20:56.000Z</time>
      </trkpt>
      <trkpt lat="43.94263" lon="7.12562">
        <ele>455</ele>
        <time>2019-06-01T10:21:21.000Z</time>
      </trkpt>
      <trkpt lat="43.94263" lon="7.12563">
        <ele>455.20001220703</ele>
        <time>2019-06-01T10:21:29.000Z</time>
      </trkpt>
      <trkpt lat="43.94263" lon="7.12562">
        <ele>455.39999389648</ele>
        <time>2019-06-01T10:21:37.000Z</time>
      </trkpt>
      <trkpt lat="43.94264" lon="7.12562">
        <ele>455</ele>
        <time>2019-06-01T10:21:54.000Z</time>
      </trkpt>
      <trkpt lat="43.94264" lon="7.12561">
        <ele>455.20001220703</ele>
        <time>2019-06-01T10:22:05.000Z</time>
      </trkpt>
      <trkpt lat="43.94265" lon="7.1256">
        <ele>455.39999389648</ele>
        <time>2019-06-01T10:22:11.000Z</time>
      </trkpt>
      <trkpt lat="43.94267" lon="7.1256">
        <ele>455.60000610352</ele>
        <time>2019-06-01T10:22:16.000Z</time>
      </trkpt>
      <trkpt lat="43.94267" lon="7.12561">
        <ele>455.60000610352</ele>
        <time>2019-06-01T10:22:17.000Z</time>
      </trkpt>
      <trkpt lat="43.94267" lon="7.12562">
        <ele>455.60000610352</ele>
        <time>2019-06-01T10:22:22.000Z</time>
      </trkpt>
      <trkpt lat="43.94267" lon="7.1256">
        <ele>455.79998779297</ele>
        <time>2019-06-01T10:22:27.000Z</time>
      </trkpt>
      <trkpt lat="43.94267" lon="7.1256">
        <ele>455.79998779297</ele>
        <time>2019-06-01T10:22:30.000Z</time>
      </trkpt>
      <trkpt lat="43.94266" lon="7.12561">
        <ele>455.20001220703</ele>
        <time>2019-06-01T10:22:36.000Z</time>
      </trkpt>
      <trkpt lat="43.94266" lon="7.1256">
        <ele>455.39999389648</ele>
        <time>2019-06-01T10:22:43.000Z</time>
      </trkpt>
      <trkpt lat="43.94265" lon="7.12561">
        <ele>455.39999389648</ele>
        <time>2019-06-01T10:22:50.000Z</time>
      </trkpt>
      <trkpt lat="43.94266" lon="7.12561">
        <ele>455.20001220703</ele>
        <time>2019-06-01T10:22:56.000Z</time>
      </trkpt>
      <trkpt lat="43.94264" lon="7.1256">
        <ele>455.60000610352</ele>
        <time>2019-06-01T10:23:04.000Z</time>
      </trkpt>
      <trkpt lat="43.94265" lon="7.12561">
        <ele>455.39999389648</ele>
        <time>2019-06-01T10:23:10.000Z</time>
      </trkpt>
      <trkpt lat="43.94266" lon="7.12561">
        <ele>455.20001220703</ele>
        <time>2019-06-01T10:23:17.000Z</time>
      </trkpt>
      <trkpt lat="43.94267" lon="7.12562">
        <ele>455.39999389648</ele>
        <time>2019-06-01T10:23:22.000Z</time>
      </trkpt>
      <trkpt lat="43.94267" lon="7.12564">
        <ele>455.39999389648</ele>
        <time>2019-06-01T10:23:23.000Z</time>
      </trkpt>
      <trkpt lat="43.94267" lon="7.12562">
        <ele>455.60000610352</ele>
        <time>2019-06-01T10:23:26.000Z</time>
      </trkpt>
      <trkpt lat="43.94266" lon="7.1256">
        <ele>456</ele>
        <time>2019-06-01T10:23:32.000Z</time>
      </trkpt>
      <trkpt lat="43.94266" lon="7.12561">
        <ele>456.60000610352</ele>
        <time>2019-06-01T10:23:40.000Z</time>
      </trkpt>
      <trkpt lat="43.94268" lon="7.12562">
        <ele>456.60000610352</ele>
        <time>2019-06-01T10:23:41.000Z</time>
      </trkpt>
      <trkpt lat="43.94268" lon="7.12562">
        <ele>456.20001220703</ele>
        <time>2019-06-01T10:23:44.000Z</time>
      </trkpt>
      <trkpt lat="43.94269" lon="7.12562">
        <ele>456.39999389648</ele>
        <time>2019-06-01T10:23:50.000Z</time>
      </trkpt>
      <trkpt lat="43.94269" lon="7.12563">
        <ele>456.20001220703</ele>
        <time>2019-06-01T10:23:59.000Z</time>
      </trkpt>
      <trkpt lat="43.94271" lon="7.12557">
        <ele>456.20001220703</ele>
        <time>2019-06-01T10:24:05.000Z</time>
      </trkpt>
      <trkpt lat="43.94272" lon="7.12552">
        <ele>456.39999389648</ele>
        <time>2019-06-01T10:24:11.000Z</time>
      </trkpt>
      <trkpt lat="43.94273" lon="7.12549">
        <ele>456.39999389648</ele>
        <time>2019-06-01T10:24:17.000Z</time>
      </trkpt>
      <trkpt lat="43.94275" lon="7.12545">
        <ele>456.60000610352</ele>
        <time>2019-06-01T10:24:22.000Z</time>
      </trkpt>
      <trkpt lat="43.94276" lon="7.12546">
        <ele>456.60000610352</ele>
        <time>2019-06-01T10:24:27.000Z</time>
      </trkpt>
      <trkpt lat="43.94276" lon="7.12546">
        <ele>457</ele>
        <time>2019-06-01T10:24:29.000Z</time>
      </trkpt>
      <trkpt lat="43.94275" lon="7.12545">
        <ele>457.20001220703</ele>
        <time>2019-06-01T10:24:33.000Z</time>
      </trkpt>
      <trkpt lat="43.94276" lon="7.12544">
        <ele>456.79998779297</ele>
        <time>2019-06-01T10:24:40.000Z</time>
      </trkpt>
      <trkpt lat="43.94277" lon="7.1254">
        <ele>456.79998779297</ele>
        <time>2019-06-01T10:24:43.000Z</time>
      </trkpt>
      <trkpt lat="43.94278" lon="7.12539">
        <ele>457</ele>
        <time>2019-06-01T10:24:45.000Z</time>
      </trkpt>
      <trkpt lat="43.94277" lon="7.12537">
        <ele>457.39999389648</ele>
        <time>2019-06-01T10:24:51.000Z</time>
      </trkpt>
      <trkpt lat="43.94277" lon="7.12537">
        <ele>457</ele>
        <time>2019-06-01T10:24:59.000Z</time>
      </trkpt>
      <trkpt lat="43.94277" lon="7.12537">
        <ele>457.20001220703</ele>
        <time>2019-06-01T10:25:07.000Z</time>
      </trkpt>
      <trkpt lat="43.94277" lon="7.12538">
        <ele>457.20001220703</ele>
        <time>2019-06-01T10:25:14.000Z</time>
      </trkpt>
      <trkpt lat="43.94276" lon="7.12538">
        <ele>457.20001220703</ele>
        <time>2019-06-01T10:25:22.000Z</time>
      </trkpt>
      <trkpt lat="43.94276" lon="7.12538">
        <ele>457.60000610352</ele>
        <time>2019-06-01T10:25:29.000Z</time>
      </trkpt>
      <trkpt lat="43.94276" lon="7.12538">
        <ele>457.39999389648</ele>
        <time>2019-06-01T10:25:37.000Z</time>
      </trkpt>
      <trkpt lat="43.94275" lon="7.12539">
        <ele>457.39999389648</ele>
        <time>2019-06-01T10:25:49.000Z</time>
      </trkpt>
      <trkpt lat="43.94275" lon="7.1254">
        <ele>457.39999389648</ele>
        <time>2019-06-01T10:26:06.000Z</time>
      </trkpt>
      <trkpt lat="43.94276" lon="7.1254">
        <ele>457.60000610352</ele>
        <time>2019-06-01T10:26:16.000Z</time>
      </trkpt>
      <trkpt lat="43.94276" lon="7.12541">
        <ele>457.60000610352</ele>
        <time>2019-06-01T10:26:30.000Z</time>
      </trkpt>
      <trkpt lat="43.94278" lon="7.1254">
        <ele>457.60000610352</ele>
        <time>2019-06-01T10:26:54.000Z</time>
      </trkpt>
      <trkpt lat="43.94278" lon="7.12541">
        <ele>458</ele>
        <time>2019-06-01T10:27:14.000Z</time>
      </trkpt>
      <trkpt lat="43.94278" lon="7.12541">
        <ele>458</ele>
        <time>2019-06-01T10:27:16.000Z</time>
      </trkpt>
      <trkpt lat="43.94278" lon="7.12542">
        <ele>457.79998779297</ele>
        <time>2019-06-01T10:27:33.000Z</time>
      </trkpt>
      <trkpt lat="43.94279" lon="7.12542">
        <ele>457.79998779297</ele>
        <time>2019-06-01T10:27:44.000Z</time>
      </trkpt>
      <trkpt lat="43.94278" lon="7.12543">
        <ele>457.79998779297</ele>
        <time>2019-06-01T10:27:56.000Z</time>
      </trkpt>
      <trkpt lat="43.94278" lon="7.12543">
        <ele>457.79998779297</ele>
        <time>2019-06-01T10:28:04.000Z</time>
      </trkpt>
      <trkpt lat="43.94276" lon="7.12544">
        <ele>458</ele>
        <time>2019-06-01T10:28:16.000Z</time>
      </trkpt>
      <trkpt lat="43.94274" lon="7.12545">
        <ele>457.79998779297</ele>
        <time>2019-06-01T10:28:32.000Z</time>
      </trkpt>
      <trkpt lat="43.94273" lon="7.12545">
        <ele>457.79998779297</ele>
        <time>2019-06-01T10:28:45.000Z</time>
      </trkpt>
      <trkpt lat="43.94275" lon="7.12544">
        <ele>457.79998779297</ele>
        <time>2019-06-01T10:28:54.000Z</time>
      </trkpt>
      <trkpt lat="43.94275" lon="7.12542">
        <ele>457.79998779297</ele>
        <time>2019-06-01T10:29:09.000Z</time>
      </trkpt>
      <trkpt lat="43.94276" lon="7.1254">
        <ele>457.79998779297</ele>
        <time>2019-06-01T10:29:21.000Z</time>
      </trkpt>
      <trkpt lat="43.94279" lon="7.12539">
        <ele>458</ele>
        <time>2019-06-01T10:29:37.000Z</time>
      </trkpt>
      <trkpt lat="43.9428" lon="7.12538">
        <ele>457.79998779297</ele>
        <time>2019-06-01T10:29:47.000Z</time>
      </trkpt>
      <trkpt lat="43.94281" lon="7.12538">
        <ele>457.79998779297</ele>
        <time>2019-06-01T10:30:07.000Z</time>
      </trkpt>
      <trkpt lat="43.94281" lon="7.12538">
        <ele>457.39999389648</ele>
        <time>2019-06-01T10:30:26.000Z</time>
      </trkpt>
      <trkpt lat="43.94281" lon="7.12538">
        <ele>457.60000610352</ele>
        <time>2019-06-01T10:30:41.000Z</time>
      </trkpt>
      <trkpt lat="43.9428" lon="7.12538">
        <ele>457.79998779297</ele>
        <time>2019-06-01T10:30:58.000Z</time>
      </trkpt>
      <trkpt lat="43.94278" lon="7.12538">
        <ele>457.60000610352</ele>
        <time>2019-06-01T10:31:20.000Z</time>
      </trkpt>
      <trkpt lat="43.94278" lon="7.12538">
        <ele>457.39999389648</ele>
        <time>2019-06-01T10:31:39.000Z</time>
      </trkpt>
      <trkpt lat="43.94278" lon="7.12538">
        <ele>457.20001220703</ele>
        <time>2019-06-01T10:32:01.000Z</time>
      </trkpt>
      <trkpt lat="43.94278" lon="7.12538">
        <ele>457.20001220703</ele>
        <time>2019-06-01T10:32:19.000Z</time>
      </trkpt>
      <trkpt lat="43.94278" lon="7.12538">
        <ele>457.20001220703</ele>
        <time>2019-06-01T10:32:38.000Z</time>
      </trkpt>
      <trkpt lat="43.94278" lon="7.12539">
        <ele>457.20001220703</ele>
        <time>2019-06-01T10:32:58.000Z</time>
      </trkpt>
      <trkpt lat="43.94278" lon="7.12539">
        <ele>457.20001220703</ele>
        <time>2019-06-01T10:33:14.000Z</time>
      </trkpt>
      <trkpt lat="43.94277" lon="7.12539">
        <ele>457.20001220703</ele>
        <time>2019-06-01T10:33:31.000Z</time>
      </trkpt>
      <trkpt lat="43.94275" lon="7.12539">
        <ele>457</ele>
        <time>2019-06-01T10:33:48.000Z</time>
      </trkpt>
      <trkpt lat="43.94275" lon="7.12539">
        <ele>457.39999389648</ele>
        <time>2019-06-01T10:34:00.000Z</time>
      </trkpt>
      <trkpt lat="43.94276" lon="7.1254">
        <ele>457.20001220703</ele>
        <time>2019-06-01T10:34:08.000Z</time>
      </trkpt>
      <trkpt lat="43.94278" lon="7.1254">
        <ele>457</ele>
        <time>2019-06-01T10:34:20.000Z</time>
      </trkpt>
      <trkpt lat="43.94277" lon="7.12539">
        <ele>457.39999389648</ele>
        <time>2019-06-01T10:34:31.000Z</time>
      </trkpt>
      <trkpt lat="43.94277" lon="7.12539">
        <ele>457.20001220703</ele>
        <time>2019-06-01T10:34:43.000Z</time>
      </trkpt>
      <trkpt lat="43.94277" lon="7.12539">
        <ele>457.20001220703</ele>
        <time>2019-06-01T10:34:53.000Z</time>
      </trkpt>
      <trkpt lat="43.94276" lon="7.12541">
        <ele>457.60000610352</ele>
        <time>2019-06-01T10:35:07.000Z</time>
      </trkpt>
      <trkpt lat="43.94277" lon="7.1254">
        <ele>457.60000610352</ele>
        <time>2019-06-01T10:35:23.000Z</time>
      </trkpt>
      <trkpt lat="43.94277" lon="7.1254">
        <ele>457.60000610352</ele>
        <time>2019-06-01T10:35:33.000Z</time>
      </trkpt>
      <trkpt lat="43.94275" lon="7.12541">
        <ele>458</ele>
        <time>2019-06-01T10:35:48.000Z</time>
      </trkpt>
      <trkpt lat="43.94275" lon="7.12543">
        <ele>457.60000610352</ele>
        <time>2019-06-01T10:35:56.000Z</time>
      </trkpt>
      <trkpt lat="43.94275" lon="7.12543">
        <ele>457.79998779297</ele>
        <time>2019-06-01T10:36:10.000Z</time>
      </trkpt>
      <trkpt lat="43.94275" lon="7.12543">
        <ele>458</ele>
        <time>2019-06-01T10:36:20.000Z</time>
      </trkpt>
      <trkpt lat="43.94276" lon="7.12543">
        <ele>457.79998779297</ele>
        <time>2019-06-01T10:36:28.000Z</time>
      </trkpt>
      <trkpt lat="43.94274" lon="7.12544">
        <ele>457.79998779297</ele>
        <time>2019-06-01T10:36:36.000Z</time>
      </trkpt>
      <trkpt lat="43.94273" lon="7.12544">
        <ele>457.79998779297</ele>
        <time>2019-06-01T10:36:47.000Z</time>
      </trkpt>
      <trkpt lat="43.94273" lon="7.12544">
        <ele>458</ele>
        <time>2019-06-01T10:36:57.000Z</time>
      </trkpt>
      <trkpt lat="43.94275" lon="7.12544">
        <ele>458</ele>
        <time>2019-06-01T10:37:07.000Z</time>
      </trkpt>
      <trkpt lat="43.94276" lon="7.12544">
        <ele>458</ele>
        <time>2019-06-01T10:37:14.000Z</time>
      </trkpt>
      <trkpt lat="43.94279" lon="7.12543">
        <ele>458.20001220703</ele>
        <time>2019-06-01T10:37:22.000Z</time>
      </trkpt>
      <trkpt lat="43.9428" lon="7.12542">
        <ele>458.20001220703</ele>
        <time>2019-06-01T10:37:26.000Z</time>
      </trkpt>
      <trkpt lat="43.94277" lon="7.12544">
        <ele>458.20001220703</ele>
        <time>2019-06-01T10:37:40.000Z</time>
      </trkpt>
      <trkpt lat="43.94279" lon="7.12542">
        <ele>458.20001220703</ele>
        <time>2019-06-01T10:37:49.000Z</time>
      </trkpt>
      <trkpt lat="43.94274" lon="7.12544">
        <ele>458.39999389648</ele>
        <time>2019-06-01T10:38:05.000Z</time>
      </trkpt>
      <trkpt lat="43.94273" lon="7.12545">
        <ele>458.60000610352</ele>
        <time>2019-06-01T10:38:19.000Z</time>
      </trkpt>
      <trkpt lat="43.94275" lon="7.12544">
        <ele>458.39999389648</ele>
        <time>2019-06-01T10:38:37.000Z</time>
      </trkpt>
      <trkpt lat="43.94276" lon="7.12544">
        <ele>458.39999389648</ele>
        <time>2019-06-01T10:38:47.000Z</time>
      </trkpt>
      <trkpt lat="43.94277" lon="7.12544">
        <ele>458.39999389648</ele>
        <time>2019-06-01T10:38:57.000Z</time>
      </trkpt>
      <trkpt lat="43.94278" lon="7.12544">
        <ele>458.20001220703</ele>
        <time>2019-06-01T10:39:06.000Z</time>
      </trkpt>
      <trkpt lat="43.94278" lon="7.12544">
        <ele>458.60000610352</ele>
        <time>2019-06-01T10:39:14.000Z</time>
      </trkpt>
      <trkpt lat="43.94277" lon="7.12544">
        <ele>458.39999389648</ele>
        <time>2019-06-01T10:39:23.000Z</time>
      </trkpt>
      <trkpt lat="43.94277" lon="7.12544">
        <ele>458.39999389648</ele>
        <time>2019-06-01T10:39:32.000Z</time>
      </trkpt>
      <trkpt lat="43.94275" lon="7.12544">
        <ele>458.60000610352</ele>
        <time>2019-06-01T10:39:45.000Z</time>
      </trkpt>
      <trkpt lat="43.94276" lon="7.12544">
        <ele>458.79998779297</ele>
        <time>2019-06-01T10:39:55.000Z</time>
      </trkpt>
      <trkpt lat="43.94275" lon="7.12543">
        <ele>458.60000610352</ele>
        <time>2019-06-01T10:40:10.000Z</time>
      </trkpt>
      <trkpt lat="43.94275" lon="7.12543">
        <ele>459</ele>
        <time>2019-06-01T10:40:22.000Z</time>
      </trkpt>
      <trkpt lat="43.94276" lon="7.12544">
        <ele>459</ele>
        <time>2019-06-01T10:40:32.000Z</time>
      </trkpt>
      <trkpt lat="43.94276" lon="7.12544">
        <ele>459</ele>
        <time>2019-06-01T10:40:33.000Z</time>
      </trkpt>
      <trkpt lat="43.94275" lon="7.12545">
        <ele>459.20001220703</ele>
        <time>2019-06-01T10:40:44.000Z</time>
      </trkpt>
      <trkpt lat="43.94275" lon="7.12545">
        <ele>458.79998779297</ele>
        <time>2019-06-01T10:40:52.000Z</time>
      </trkpt>
      <trkpt lat="43.94276" lon="7.12545">
        <ele>458.60000610352</ele>
        <time>2019-06-01T10:41:00.000Z</time>
      </trkpt>
      <trkpt lat="43.94277" lon="7.12544">
        <ele>459</ele>
        <time>2019-06-01T10:41:06.000Z</time>
      </trkpt>
      <trkpt lat="43.94277" lon="7.12543">
        <ele>459.39999389648</ele>
        <time>2019-06-01T10:41:17.000Z</time>
      </trkpt>
      <trkpt lat="43.94278" lon="7.12543">
        <ele>459.39999389648</ele>
        <time>2019-06-01T10:41:31.000Z</time>
      </trkpt>
      <trkpt lat="43.94276" lon="7.12542">
        <ele>459.60000610352</ele>
        <time>2019-06-01T10:41:44.000Z</time>
      </trkpt>
      <trkpt lat="43.94276" lon="7.12542">
        <ele>459.20001220703</ele>
        <time>2019-06-01T10:42:00.000Z</time>
      </trkpt>
      <trkpt lat="43.94278" lon="7.12542">
        <ele>459.79998779297</ele>
        <time>2019-06-01T10:42:16.000Z</time>
      </trkpt>
      <trkpt lat="43.94279" lon="7.12543">
        <ele>459.79998779297</ele>
        <time>2019-06-01T10:42:30.000Z</time>
      </trkpt>
      <trkpt lat="43.94279" lon="7.12543">
        <ele>459.79998779297</ele>
        <time>2019-06-01T10:42:40.000Z</time>
      </trkpt>
      <trkpt lat="43.9428" lon="7.12544">
        <ele>459.79998779297</ele>
        <time>2019-06-01T10:42:54.000Z</time>
      </trkpt>
      <trkpt lat="43.94282" lon="7.12544">
        <ele>459.79998779297</ele>
        <time>2019-06-01T10:43:07.000Z</time>
      </trkpt>
      <trkpt lat="43.94281" lon="7.12544">
        <ele>459.79998779297</ele>
        <time>2019-06-01T10:43:18.000Z</time>
      </trkpt>
      <trkpt lat="43.94283" lon="7.12544">
        <ele>460</ele>
        <time>2019-06-01T10:43:33.000Z</time>
      </trkpt>
      <trkpt lat="43.94285" lon="7.12543">
        <ele>460</ele>
        <time>2019-06-01T10:43:50.000Z</time>
      </trkpt>
      <trkpt lat="43.94287" lon="7.12543">
        <ele>459.79998779297</ele>
        <time>2019-06-01T10:44:02.000Z</time>
      </trkpt>
      <trkpt lat="43.94288" lon="7.12543">
        <ele>460</ele>
        <time>2019-06-01T10:44:07.000Z</time>
      </trkpt>
      <trkpt lat="43.94289" lon="7.12542">
        <ele>460</ele>
        <time>2019-06-01T10:44:14.000Z</time>
      </trkpt>
      <trkpt lat="43.94287" lon="7.12543">
        <ele>460.20001220703</ele>
        <time>2019-06-01T10:44:25.000Z</time>
      </trkpt>
      <trkpt lat="43.94285" lon="7.12542">
        <ele>460.20001220703</ele>
        <time>2019-06-01T10:44:34.000Z</time>
      </trkpt>
      <trkpt lat="43.94283" lon="7.12541">
        <ele>460.20001220703</ele>
        <time>2019-06-01T10:44:53.000Z</time>
      </trkpt>
      <trkpt lat="43.94282" lon="7.12542">
        <ele>460.20001220703</ele>
        <time>2019-06-01T10:45:02.000Z</time>
      </trkpt>
      <trkpt lat="43.94282" lon="7.12543">
        <ele>460</ele>
        <time>2019-06-01T10:45:11.000Z</time>
      </trkpt>
      <trkpt lat="43.94283" lon="7.12541">
        <ele>460.20001220703</ele>
        <time>2019-06-01T10:45:23.000Z</time>
      </trkpt>
      <trkpt lat="43.94285" lon="7.12541">
        <ele>460.20001220703</ele>
        <time>2019-06-01T10:45:32.000Z</time>
      </trkpt>
      <trkpt lat="43.94284" lon="7.12542">
        <ele>460.39999389648</ele>
        <time>2019-06-01T10:45:40.000Z</time>
      </trkpt>
      <trkpt lat="43.94284" lon="7.12546">
        <ele>460.60000610352</ele>
        <time>2019-06-01T10:45:44.000Z</time>
      </trkpt>
      <trkpt lat="43.94282" lon="7.12546">
        <ele>460.60000610352</ele>
        <time>2019-06-01T10:45:45.000Z</time>
      </trkpt>
      <trkpt lat="43.94278" lon="7.12547">
        <ele>460.39999389648</ele>
        <time>2019-06-01T10:45:49.000Z</time>
      </trkpt>
      <trkpt lat="43.94272" lon="7.12551">
        <ele>460.20001220703</ele>
        <time>2019-06-01T10:45:56.000Z</time>
      </trkpt>
      <trkpt lat="43.94268" lon="7.12555">
        <ele>460.20001220703</ele>
        <time>2019-06-01T10:46:04.000Z</time>
      </trkpt>
      <trkpt lat="43.94267" lon="7.12557">
        <ele>459.79998779297</ele>
        <time>2019-06-01T10:46:10.000Z</time>
      </trkpt>
      <trkpt lat="43.94265" lon="7.12559">
        <ele>459.79998779297</ele>
        <time>2019-06-01T10:46:16.000Z</time>
      </trkpt>
      <trkpt lat="43.94266" lon="7.12559">
        <ele>459.60000610352</ele>
        <time>2019-06-01T10:46:30.000Z</time>
      </trkpt>
      <trkpt lat="43.94266" lon="7.1256">
        <ele>459.20001220703</ele>
        <time>2019-06-01T10:46:40.000Z</time>
      </trkpt>
      <trkpt lat="43.94265" lon="7.12558">
        <ele>459.60000610352</ele>
        <time>2019-06-01T10:46:49.000Z</time>
      </trkpt>
      <trkpt lat="43.94264" lon="7.12561">
        <ele>459.39999389648</ele>
        <time>2019-06-01T10:46:55.000Z</time>
      </trkpt>
      <trkpt lat="43.94264" lon="7.12561">
        <ele>459.60000610352</ele>
        <time>2019-06-01T10:47:05.000Z</time>
      </trkpt>
      <trkpt lat="43.94265" lon="7.12562">
        <ele>459.60000610352</ele>
        <time>2019-06-01T10:47:17.000Z</time>
      </trkpt>
      <trkpt lat="43.94264" lon="7.12562">
        <ele>459.60000610352</ele>
        <time>2019-06-01T10:47:26.000Z</time>
      </trkpt>
      <trkpt lat="43.94263" lon="7.12563">
        <ele>459.60000610352</ele>
        <time>2019-06-01T10:47:37.000Z</time>
      </trkpt>
      <trkpt lat="43.94263" lon="7.12562">
        <ele>459</ele>
        <time>2019-06-01T10:47:47.000Z</time>
      </trkpt>
      <trkpt lat="43.94263" lon="7.12562">
        <ele>459</ele>
        <time>2019-06-01T10:47:48.000Z</time>
      </trkpt>
      <trkpt lat="43.94262" lon="7.12562">
        <ele>459.39999389648</ele>
        <time>2019-06-01T10:47:55.000Z</time>
      </trkpt>
      <trkpt lat="43.94262" lon="7.12562">
        <ele>459.60000610352</ele>
        <time>2019-06-01T10:48:01.000Z</time>
      </trkpt>
      <trkpt lat="43.94262" lon="7.12563">
        <ele>459.39999389648</ele>
        <time>2019-06-01T10:48:06.000Z</time>
      </trkpt>
      <trkpt lat="43.94263" lon="7.12563">
        <ele>459.39999389648</ele>
        <time>2019-06-01T10:48:18.000Z</time>
      </trkpt>
      <trkpt lat="43.94263" lon="7.12562">
        <ele>459.39999389648</ele>
        <time>2019-06-01T10:48:26.000Z</time>
      </trkpt>
      <trkpt lat="43.94262" lon="7.12563">
        <ele>460</ele>
        <time>2019-06-01T10:48:31.000Z</time>
      </trkpt>
      <trkpt lat="43.94262" lon="7.12562">
        <ele>459.60000610352</ele>
        <time>2019-06-01T10:48:35.000Z</time>
      </trkpt>
      <trkpt lat="43.94262" lon="7.12561">
        <ele>459.60000610352</ele>
        <time>2019-06-01T10:48:42.000Z</time>
      </trkpt>
      <trkpt lat="43.94261" lon="7.12558">
        <ele>459.79998779297</ele>
        <time>2019-06-01T10:48:47.000Z</time>
      </trkpt>
      <trkpt lat="43.94261" lon="7.12557">
        <ele>459.79998779297</ele>
        <time>2019-06-01T10:48:48.000Z</time>
      </trkpt>
      <trkpt lat="43.94262" lon="7.12557">
        <ele>459.79998779297</ele>
        <time>2019-06-01T10:48:53.000Z</time>
      </trkpt>
      <trkpt lat="43.94263" lon="7.12556">
        <ele>459.79998779297</ele>
        <time>2019-06-01T10:49:05.000Z</time>
      </trkpt>
      <trkpt lat="43.94265" lon="7.12557">
        <ele>459.39999389648</ele>
        <time>2019-06-01T10:49:11.000Z</time>
      </trkpt>
      <trkpt lat="43.94265" lon="7.12556">
        <ele>459.60000610352</ele>
        <time>2019-06-01T10:49:22.000Z</time>
      </trkpt>
      <trkpt lat="43.94266" lon="7.12555">
        <ele>459.79998779297</ele>
        <time>2019-06-01T10:49:34.000Z</time>
      </trkpt>
      <trkpt lat="43.94265" lon="7.12553">
        <ele>460</ele>
        <time>2019-06-01T10:49:45.000Z</time>
      </trkpt>
      <trkpt lat="43.94265" lon="7.12552">
        <ele>459.39999389648</ele>
        <time>2019-06-01T10:49:53.000Z</time>
      </trkpt>
      <trkpt lat="43.94264" lon="7.12553">
        <ele>459.39999389648</ele>
        <time>2019-06-01T10:49:59.000Z</time>
      </trkpt>
      <trkpt lat="43.94262" lon="7.12553">
        <ele>459.39999389648</ele>
        <time>2019-06-01T10:50:07.000Z</time>
      </trkpt>
      <trkpt lat="43.94264" lon="7.12557">
        <ele>459.60000610352</ele>
        <time>2019-06-01T10:50:13.000Z</time>
      </trkpt>
      <trkpt lat="43.94271" lon="7.1256">
        <ele>460</ele>
        <time>2019-06-01T10:50:19.000Z</time>
      </trkpt>
      <trkpt lat="43.94279" lon="7.12569">
        <ele>459.79998779297</ele>
        <time>2019-06-01T10:50:24.000Z</time>
      </trkpt>
      <trkpt lat="43.94285" lon="7.12573">
        <ele>458.60000610352</ele>
        <time>2019-06-01T10:50:26.000Z</time>
      </trkpt>
      <trkpt lat="43.94294" lon="7.12577">
        <ele>457.20001220703</ele>
        <time>2019-06-01T10:50:28.000Z</time>
      </trkpt>
      <trkpt lat="43.94303" lon="7.12582">
        <ele>456.20001220703</ele>
        <time>2019-06-01T10:50:30.000Z</time>
      </trkpt>
      <trkpt lat="43.94309" lon="7.12585">
        <ele>455.79998779297</ele>
        <time>2019-06-01T10:50:31.000Z</time>
      </trkpt>
      <trkpt lat="43.94319" lon="7.12584">
        <ele>454.60000610352</ele>
        <time>2019-06-01T10:50:33.000Z</time>
      </trkpt>
      <trkpt lat="43.94331" lon="7.12577">
        <ele>454</ele>
        <time>2019-06-01T10:50:35.000Z</time>
      </trkpt>
      <trkpt lat="43.94338" lon="7.12571">
        <ele>453.20001220703</ele>
        <time>2019-06-01T10:50:36.000Z</time>
      </trkpt>
      <trkpt lat="43.94344" lon="7.12566">
        <ele>452.39999389648</ele>
        <time>2019-06-01T10:50:37.000Z</time>
      </trkpt>
      <trkpt lat="43.94351" lon="7.12561">
        <ele>451.79998779297</ele>
        <time>2019-06-01T10:50:38.000Z</time>
      </trkpt>
      <trkpt lat="43.94365" lon="7.12557">
        <ele>450.60000610352</ele>
        <time>2019-06-01T10:50:40.000Z</time>
      </trkpt>
      <trkpt lat="43.94388" lon="7.12572">
        <ele>449.20001220703</ele>
        <time>2019-06-01T10:50:43.000Z</time>
      </trkpt>
      <trkpt lat="43.94393" lon="7.12578">
        <ele>448.79998779297</ele>
        <time>2019-06-01T10:50:44.000Z</time>
      </trkpt>
      <trkpt lat="43.9441" lon="7.1259">
        <ele>447.79998779297</ele>
        <time>2019-06-01T10:50:47.000Z</time>
      </trkpt>
      <trkpt lat="43.94432" lon="7.12585">
        <ele>446.79998779297</ele>
        <time>2019-06-01T10:50:50.000Z</time>
      </trkpt>
      <trkpt lat="43.94449" lon="7.12578">
        <ele>445.39999389648</ele>
        <time>2019-06-01T10:50:52.000Z</time>
      </trkpt>
      <trkpt lat="43.94466" lon="7.12573">
        <ele>443.39999389648</ele>
        <time>2019-06-01T10:50:54.000Z</time>
      </trkpt>
      <trkpt lat="43.94482" lon="7.12571">
        <ele>442.20001220703</ele>
        <time>2019-06-01T10:50:56.000Z</time>
      </trkpt>
      <trkpt lat="43.94498" lon="7.12572">
        <ele>441.20001220703</ele>
        <time>2019-06-01T10:50:58.000Z</time>
      </trkpt>
      <trkpt lat="43.94515" lon="7.12555">
        <ele>440.20001220703</ele>
        <time>2019-06-01T10:51:01.000Z</time>
      </trkpt>
      <trkpt lat="43.94516" lon="7.12521">
        <ele>438.60000610352</ele>
        <time>2019-06-01T10:51:04.000Z</time>
      </trkpt>
      <trkpt lat="43.94518" lon="7.12497">
        <ele>437.60000610352</ele>
        <time>2019-06-01T10:51:06.000Z</time>
      </trkpt>
      <trkpt lat="43.94521" lon="7.12485">
        <ele>436.79998779297</ele>
        <time>2019-06-01T10:51:07.000Z</time>
      </trkpt>
      <trkpt lat="43.94526" lon="7.12473">
        <ele>436.20001220703</ele>
        <time>2019-06-01T10:51:08.000Z</time>
      </trkpt>
      <trkpt lat="43.94529" lon="7.12462">
        <ele>435.79998779297</ele>
        <time>2019-06-01T10:51:09.000Z</time>
      </trkpt>
      <trkpt lat="43.9453" lon="7.12449">
        <ele>435.20001220703</ele>
        <time>2019-06-01T10:51:10.000Z</time>
      </trkpt>
      <trkpt lat="43.94531" lon="7.12436">
        <ele>434.60000610352</ele>
        <time>2019-06-01T10:51:11.000Z</time>
      </trkpt>
      <trkpt lat="43.94533" lon="7.12423">
        <ele>434</ele>
        <time>2019-06-01T10:51:12.000Z</time>
      </trkpt>
      <trkpt lat="43.94535" lon="7.12412">
        <ele>433.39999389648</ele>
        <time>2019-06-01T10:51:13.000Z</time>
      </trkpt>
      <trkpt lat="43.9454" lon="7.12401">
        <ele>432.39999389648</ele>
        <time>2019-06-01T10:51:14.000Z</time>
      </trkpt>
      <trkpt lat="43.94553" lon="7.12385">
        <ele>431</ele>
        <time>2019-06-01T10:51:16.000Z</time>
      </trkpt>
      <trkpt lat="43.94568" lon="7.12372">
        <ele>430.20001220703</ele>
        <time>2019-06-01T10:51:18.000Z</time>
      </trkpt>
      <trkpt lat="43.9458" lon="7.12364">
        <ele>429.60000610352</ele>
        <time>2019-06-01T10:51:20.000Z</time>
      </trkpt>
      <trkpt lat="43.94586" lon="7.12365">
        <ele>428.60000610352</ele>
        <time>2019-06-01T10:51:21.000Z</time>
      </trkpt>
      <trkpt lat="43.94591" lon="7.1237">
        <ele>428</ele>
        <time>2019-06-01T10:51:22.000Z</time>
      </trkpt>
      <trkpt lat="43.94595" lon="7.12377">
        <ele>427.39999389648</ele>
        <time>2019-06-01T10:51:23.000Z</time>
      </trkpt>
      <trkpt lat="43.94594" lon="7.12405">
        <ele>426.79998779297</ele>
        <time>2019-06-01T10:51:26.000Z</time>
      </trkpt>
      <trkpt lat="43.94591" lon="7.12415">
        <ele>426.39999389648</ele>
        <time>2019-06-01T10:51:27.000Z</time>
      </trkpt>
      <trkpt lat="43.94587" lon="7.12423">
        <ele>426.20001220703</ele>
        <time>2019-06-01T10:51:28.000Z</time>
      </trkpt>
      <trkpt lat="43.94584" lon="7.12431">
        <ele>425.60000610352</ele>
        <time>2019-06-01T10:51:29.000Z</time>
      </trkpt>
      <trkpt lat="43.94581" lon="7.12448">
        <ele>424.60000610352</ele>
        <time>2019-06-01T10:51:31.000Z</time>
      </trkpt>
      <trkpt lat="43.94581" lon="7.12456">
        <ele>424.79998779297</ele>
        <time>2019-06-01T10:51:32.000Z</time>
      </trkpt>
      <trkpt lat="43.94581" lon="7.12464">
        <ele>425</ele>
        <time>2019-06-01T10:51:33.000Z</time>
      </trkpt>
      <trkpt lat="43.94582" lon="7.12471">
        <ele>425.60000610352</ele>
        <time>2019-06-01T10:51:34.000Z</time>
      </trkpt>
      <trkpt lat="43.94582" lon="7.12478">
        <ele>426</ele>
        <time>2019-06-01T10:51:35.000Z</time>
      </trkpt>
      <trkpt lat="43.94584" lon="7.12484">
        <ele>426.60000610352</ele>
        <time>2019-06-01T10:51:36.000Z</time>
      </trkpt>
      <trkpt lat="43.94585" lon="7.12489">
        <ele>426.79998779297</ele>
        <time>2019-06-01T10:51:37.000Z</time>
      </trkpt>
      <trkpt lat="43.9459" lon="7.12501">
        <ele>425.60000610352</ele>
        <time>2019-06-01T10:51:40.000Z</time>
      </trkpt>
      <trkpt lat="43.94596" lon="7.12513">
        <ele>425.79998779297</ele>
        <time>2019-06-01T10:51:43.000Z</time>
      </trkpt>
      <trkpt lat="43.94597" lon="7.12517">
        <ele>425.79998779297</ele>
        <time>2019-06-01T10:51:44.000Z</time>
      </trkpt>
      <trkpt lat="43.94595" lon="7.12531">
        <ele>426</ele>
        <time>2019-06-01T10:51:47.000Z</time>
      </trkpt>
      <trkpt lat="43.94595" lon="7.12553">
        <ele>426.39999389648</ele>
        <time>2019-06-01T10:51:52.000Z</time>
      </trkpt>
      <trkpt lat="43.94604" lon="7.12576">
        <ele>427</ele>
        <time>2019-06-01T10:51:57.000Z</time>
      </trkpt>
      <trkpt lat="43.94603" lon="7.12595">
        <ele>426.60000610352</ele>
        <time>2019-06-01T10:52:00.000Z</time>
      </trkpt>
      <trkpt lat="43.946" lon="7.12602">
        <ele>426.39999389648</ele>
        <time>2019-06-01T10:52:01.000Z</time>
      </trkpt>
      <trkpt lat="43.94596" lon="7.12626">
        <ele>425.39999389648</ele>
        <time>2019-06-01T10:52:04.000Z</time>
      </trkpt>
      <trkpt lat="43.94593" lon="7.12644">
        <ele>424.79998779297</ele>
        <time>2019-06-01T10:52:06.000Z</time>
      </trkpt>
      <trkpt lat="43.94591" lon="7.12665">
        <ele>423.79998779297</ele>
        <time>2019-06-01T10:52:08.000Z</time>
      </trkpt>
      <trkpt lat="43.9459" lon="7.12676">
        <ele>423.60000610352</ele>
        <time>2019-06-01T10:52:09.000Z</time>
      </trkpt>
      <trkpt lat="43.94585" lon="7.12685">
        <ele>423</ele>
        <time>2019-06-01T10:52:10.000Z</time>
      </trkpt>
      <trkpt lat="43.94577" lon="7.12693">
        <ele>422</ele>
        <time>2019-06-01T10:52:11.000Z</time>
      </trkpt>
      <trkpt lat="43.94566" lon="7.12709">
        <ele>420.60000610352</ele>
        <time>2019-06-01T10:52:13.000Z</time>
      </trkpt>
      <trkpt lat="43.94561" lon="7.12719">
        <ele>419.60000610352</ele>
        <time>2019-06-01T10:52:14.000Z</time>
      </trkpt>
      <trkpt lat="43.94556" lon="7.12729">
        <ele>418.79998779297</ele>
        <time>2019-06-01T10:52:15.000Z</time>
      </trkpt>
      <trkpt lat="43.94553" lon="7.12739">
        <ele>417.79998779297</ele>
        <time>2019-06-01T10:52:16.000Z</time>
      </trkpt>
      <trkpt lat="43.94544" lon="7.12763">
        <ele>416.60000610352</ele>
        <time>2019-06-01T10:52:18.000Z</time>
      </trkpt>
      <trkpt lat="43.94532" lon="7.12783">
        <ele>415.60000610352</ele>
        <time>2019-06-01T10:52:20.000Z</time>
      </trkpt>
      <trkpt lat="43.94524" lon="7.1279">
        <ele>415.20001220703</ele>
        <time>2019-06-01T10:52:21.000Z</time>
      </trkpt>
      <trkpt lat="43.94515" lon="7.12797">
        <ele>414.79998779297</ele>
        <time>2019-06-01T10:52:22.000Z</time>
      </trkpt>
      <trkpt lat="43.94505" lon="7.12801">
        <ele>414</ele>
        <time>2019-06-01T10:52:23.000Z</time>
      </trkpt>
      <trkpt lat="43.94496" lon="7.12805">
        <ele>413.20001220703</ele>
        <time>2019-06-01T10:52:24.000Z</time>
      </trkpt>
      <trkpt lat="43.94487" lon="7.1281">
        <ele>412.39999389648</ele>
        <time>2019-06-01T10:52:25.000Z</time>
      </trkpt>
      <trkpt lat="43.94481" lon="7.12816">
        <ele>411.60000610352</ele>
        <time>2019-06-01T10:52:26.000Z</time>
      </trkpt>
      <trkpt lat="43.94477" lon="7.12826">
        <ele>411</ele>
        <time>2019-06-01T10:52:27.000Z</time>
      </trkpt>
      <trkpt lat="43.94478" lon="7.12835">
        <ele>410.60000610352</ele>
        <time>2019-06-01T10:52:28.000Z</time>
      </trkpt>
      <trkpt lat="43.94487" lon="7.12851">
        <ele>410.60000610352</ele>
        <time>2019-06-01T10:52:30.000Z</time>
      </trkpt>
      <trkpt lat="43.94512" lon="7.12877">
        <ele>410.20001220703</ele>
        <time>2019-06-01T10:52:34.000Z</time>
      </trkpt>
      <trkpt lat="43.9452" lon="7.12882">
        <ele>409.79998779297</ele>
        <time>2019-06-01T10:52:35.000Z</time>
      </trkpt>
      <trkpt lat="43.94536" lon="7.12894">
        <ele>408.60000610352</ele>
        <time>2019-06-01T10:52:37.000Z</time>
      </trkpt>
      <trkpt lat="43.94545" lon="7.12901">
        <ele>407.79998779297</ele>
        <time>2019-06-01T10:52:38.000Z</time>
      </trkpt>
      <trkpt lat="43.94553" lon="7.12907">
        <ele>407.39999389648</ele>
        <time>2019-06-01T10:52:39.000Z</time>
      </trkpt>
      <trkpt lat="43.94567" lon="7.12922">
        <ele>406.39999389648</ele>
        <time>2019-06-01T10:52:41.000Z</time>
      </trkpt>
      <trkpt lat="43.94583" lon="7.12939">
        <ele>404.60000610352</ele>
        <time>2019-06-01T10:52:43.000Z</time>
      </trkpt>
      <trkpt lat="43.94591" lon="7.12946">
        <ele>403.60000610352</ele>
        <time>2019-06-01T10:52:44.000Z</time>
      </trkpt>
      <trkpt lat="43.94598" lon="7.12952">
        <ele>403.20001220703</ele>
        <time>2019-06-01T10:52:45.000Z</time>
      </trkpt>
      <trkpt lat="43.94608" lon="7.12969">
        <ele>401.79998779297</ele>
        <time>2019-06-01T10:52:47.000Z</time>
      </trkpt>
      <trkpt lat="43.94612" lon="7.12978">
        <ele>401.79998779297</ele>
        <time>2019-06-01T10:52:48.000Z</time>
      </trkpt>
      <trkpt lat="43.9461" lon="7.12985">
        <ele>401.79998779297</ele>
        <time>2019-06-01T10:52:49.000Z</time>
      </trkpt>
      <trkpt lat="43.94603" lon="7.12993">
        <ele>402</ele>
        <time>2019-06-01T10:52:50.000Z</time>
      </trkpt>
      <trkpt lat="43.94595" lon="7.13001">
        <ele>403.39999389648</ele>
        <time>2019-06-01T10:52:52.000Z</time>
      </trkpt>
      <trkpt lat="43.94591" lon="7.13004">
        <ele>404</ele>
        <time>2019-06-01T10:52:53.000Z</time>
      </trkpt>
      <trkpt lat="43.94587" lon="7.13005">
        <ele>404.60000610352</ele>
        <time>2019-06-01T10:52:54.000Z</time>
      </trkpt>
      <trkpt lat="43.94578" lon="7.13002">
        <ele>405.60000610352</ele>
        <time>2019-06-01T10:52:56.000Z</time>
      </trkpt>
      <trkpt lat="43.94575" lon="7.13001">
        <ele>406</ele>
        <time>2019-06-01T10:52:57.000Z</time>
      </trkpt>
      <trkpt lat="43.94563" lon="7.12993">
        <ele>407.20001220703</ele>
        <time>2019-06-01T10:53:01.000Z</time>
      </trkpt>
      <trkpt lat="43.9456" lon="7.12991">
        <ele>407.39999389648</ele>
        <time>2019-06-01T10:53:02.000Z</time>
      </trkpt>
      <trkpt lat="43.94546" lon="7.12983">
        <ele>408.39999389648</ele>
        <time>2019-06-01T10:53:07.000Z</time>
      </trkpt>
      <trkpt lat="43.94539" lon="7.1298">
        <ele>408.79998779297</ele>
        <time>2019-06-01T10:53:10.000Z</time>
      </trkpt>
      <trkpt lat="43.94534" lon="7.12979">
        <ele>409.39999389648</ele>
        <time>2019-06-01T10:53:12.000Z</time>
      </trkpt>
      <trkpt lat="43.94519" lon="7.1298">
        <ele>410.20001220703</ele>
        <time>2019-06-01T10:53:18.000Z</time>
      </trkpt>
      <trkpt lat="43.94515" lon="7.12981">
        <ele>410.39999389648</ele>
        <time>2019-06-01T10:53:20.000Z</time>
      </trkpt>
      <trkpt lat="43.94504" lon="7.12985">
        <ele>411.60000610352</ele>
        <time>2019-06-01T10:53:25.000Z</time>
      </trkpt>
      <trkpt lat="43.94501" lon="7.12984">
        <ele>411.79998779297</ele>
        <time>2019-06-01T10:53:26.000Z</time>
      </trkpt>
      <trkpt lat="43.94487" lon="7.12976">
        <ele>412.79998779297</ele>
        <time>2019-06-01T10:53:32.000Z</time>
      </trkpt>
      <trkpt lat="43.94484" lon="7.12975">
        <ele>413</ele>
        <time>2019-06-01T10:53:33.000Z</time>
      </trkpt>
      <trkpt lat="43.94472" lon="7.12983">
        <ele>413.20001220703</ele>
        <time>2019-06-01T10:53:38.000Z</time>
      </trkpt>
      <trkpt lat="43.94469" lon="7.12996">
        <ele>413.39999389648</ele>
        <time>2019-06-01T10:53:42.000Z</time>
      </trkpt>
      <trkpt lat="43.9447" lon="7.13008">
        <ele>414</ele>
        <time>2019-06-01T10:53:46.000Z</time>
      </trkpt>
      <trkpt lat="43.94472" lon="7.13013">
        <ele>414.20001220703</ele>
        <time>2019-06-01T10:53:48.000Z</time>
      </trkpt>
      <trkpt lat="43.94472" lon="7.13025">
        <ele>415</ele>
        <time>2019-06-01T10:53:53.000Z</time>
      </trkpt>
      <trkpt lat="43.94473" lon="7.13033">
        <ele>415.39999389648</ele>
        <time>2019-06-01T10:53:56.000Z</time>
      </trkpt>
      <trkpt lat="43.94473" lon="7.13046">
        <ele>416.20001220703</ele>
        <time>2019-06-01T10:54:01.000Z</time>
      </trkpt>
      <trkpt lat="43.94471" lon="7.13054">
        <ele>416.79998779297</ele>
        <time>2019-06-01T10:54:04.000Z</time>
      </trkpt>
      <trkpt lat="43.94462" lon="7.13063">
        <ele>417</ele>
        <time>2019-06-01T10:54:09.000Z</time>
      </trkpt>
      <trkpt lat="43.9446" lon="7.13063">
        <ele>417.20001220703</ele>
        <time>2019-06-01T10:54:10.000Z</time>
      </trkpt>
      <trkpt lat="43.94452" lon="7.13066">
        <ele>417.79998779297</ele>
        <time>2019-06-01T10:54:15.000Z</time>
      </trkpt>
      <trkpt lat="43.9445" lon="7.13067">
        <ele>417.79998779297</ele>
        <time>2019-06-01T10:54:17.000Z</time>
      </trkpt>
      <trkpt lat="43.94447" lon="7.13073">
        <ele>418.39999389648</ele>
        <time>2019-06-01T10:54:20.000Z</time>
      </trkpt>
      <trkpt lat="43.9444" lon="7.13085">
        <ele>419.39999389648</ele>
        <time>2019-06-01T10:54:26.000Z</time>
      </trkpt>
      <trkpt lat="43.94433" lon="7.13087">
        <ele>419.79998779297</ele>
        <time>2019-06-01T10:54:30.000Z</time>
      </trkpt>
      <trkpt lat="43.94431" lon="7.13087">
        <ele>420</ele>
        <time>2019-06-01T10:54:31.000Z</time>
      </trkpt>
      <trkpt lat="43.94424" lon="7.13081">
        <ele>420.39999389648</ele>
        <time>2019-06-01T10:54:35.000Z</time>
      </trkpt>
      <trkpt lat="43.94422" lon="7.13077">
        <ele>420.79998779297</ele>
        <time>2019-06-01T10:54:37.000Z</time>
      </trkpt>
      <trkpt lat="43.94417" lon="7.13065">
        <ele>421.60000610352</ele>
        <time>2019-06-01T10:54:42.000Z</time>
      </trkpt>
      <trkpt lat="43.94414" lon="7.13061">
        <ele>421.79998779297</ele>
        <time>2019-06-01T10:54:44.000Z</time>
      </trkpt>
      <trkpt lat="43.94402" lon="7.13056">
        <ele>422.60000610352</ele>
        <time>2019-06-01T10:54:50.000Z</time>
      </trkpt>
      <trkpt lat="43.94387" lon="7.1305">
        <ele>423.60000610352</ele>
        <time>2019-06-01T10:54:58.000Z</time>
      </trkpt>
      <trkpt lat="43.94367" lon="7.13042">
        <ele>424.79998779297</ele>
        <time>2019-06-01T10:55:08.000Z</time>
      </trkpt>
      <trkpt lat="43.94365" lon="7.13041">
        <ele>424.79998779297</ele>
        <time>2019-06-01T10:55:09.000Z</time>
      </trkpt>
      <trkpt lat="43.94357" lon="7.13036">
        <ele>425.60000610352</ele>
        <time>2019-06-01T10:55:14.000Z</time>
      </trkpt>
      <trkpt lat="43.94352" lon="7.13036">
        <ele>425.79998779297</ele>
        <time>2019-06-01T10:55:16.000Z</time>
      </trkpt>
      <trkpt lat="43.9435" lon="7.13036">
        <ele>425.79998779297</ele>
        <time>2019-06-01T10:55:17.000Z</time>
      </trkpt>
      <trkpt lat="43.94339" lon="7.1304">
        <ele>426.60000610352</ele>
        <time>2019-06-01T10:55:23.000Z</time>
      </trkpt>
      <trkpt lat="43.94336" lon="7.13046">
        <ele>426.79998779297</ele>
        <time>2019-06-01T10:55:26.000Z</time>
      </trkpt>
      <trkpt lat="43.94332" lon="7.13053">
        <ele>427.20001220703</ele>
        <time>2019-06-01T10:55:29.000Z</time>
      </trkpt>
      <trkpt lat="43.94329" lon="7.13073">
        <ele>427.79998779297</ele>
        <time>2019-06-01T10:55:36.000Z</time>
      </trkpt>
      <trkpt lat="43.94329" lon="7.13076">
        <ele>428</ele>
        <time>2019-06-01T10:55:37.000Z</time>
      </trkpt>
      <trkpt lat="43.94327" lon="7.13098">
        <ele>428.60000610352</ele>
        <time>2019-06-01T10:55:44.000Z</time>
      </trkpt>
      <trkpt lat="43.94324" lon="7.13114">
        <ele>429</ele>
        <time>2019-06-01T10:55:49.000Z</time>
      </trkpt>
      <trkpt lat="43.94324" lon="7.1312">
        <ele>429.20001220703</ele>
        <time>2019-06-01T10:55:51.000Z</time>
      </trkpt>
      <trkpt lat="43.94316" lon="7.13135">
        <ele>429.79998779297</ele>
        <time>2019-06-01T10:55:57.000Z</time>
      </trkpt>
      <trkpt lat="43.94312" lon="7.13138">
        <ele>430.20001220703</ele>
        <time>2019-06-01T10:55:59.000Z</time>
      </trkpt>
      <trkpt lat="43.94305" lon="7.1314">
        <ele>430.79998779297</ele>
        <time>2019-06-01T10:56:03.000Z</time>
      </trkpt>
      <trkpt lat="43.94298" lon="7.13142">
        <ele>431.20001220703</ele>
        <time>2019-06-01T10:56:07.000Z</time>
      </trkpt>
      <trkpt lat="43.94292" lon="7.13147">
        <ele>431.79998779297</ele>
        <time>2019-06-01T10:56:11.000Z</time>
      </trkpt>
      <trkpt lat="43.94289" lon="7.1315">
        <ele>432.39999389648</ele>
        <time>2019-06-01T10:56:13.000Z</time>
      </trkpt>
      <trkpt lat="43.9428" lon="7.1316">
        <ele>433.39999389648</ele>
        <time>2019-06-01T10:56:20.000Z</time>
      </trkpt>
      <trkpt lat="43.94277" lon="7.13164">
        <ele>433.60000610352</ele>
        <time>2019-06-01T10:56:22.000Z</time>
      </trkpt>
      <trkpt lat="43.94274" lon="7.13174">
        <ele>434.39999389648</ele>
        <time>2019-06-01T10:56:27.000Z</time>
      </trkpt>
      <trkpt lat="43.94274" lon="7.13177">
        <ele>434.60000610352</ele>
        <time>2019-06-01T10:56:28.000Z</time>
      </trkpt>
      <trkpt lat="43.94273" lon="7.13187">
        <ele>434.79998779297</ele>
        <time>2019-06-01T10:56:32.000Z</time>
      </trkpt>
      <trkpt lat="43.94272" lon="7.13195">
        <ele>435.20001220703</ele>
        <time>2019-06-01T10:56:35.000Z</time>
      </trkpt>
      <trkpt lat="43.94272" lon="7.13197">
        <ele>435.39999389648</ele>
        <time>2019-06-01T10:56:36.000Z</time>
      </trkpt>
      <trkpt lat="43.94272" lon="7.13215">
        <ele>436.39999389648</ele>
        <time>2019-06-01T10:56:43.000Z</time>
      </trkpt>
      <trkpt lat="43.94272" lon="7.13218">
        <ele>436.39999389648</ele>
        <time>2019-06-01T10:56:44.000Z</time>
      </trkpt>
      <trkpt lat="43.94271" lon="7.13243">
        <ele>437.60000610352</ele>
        <time>2019-06-01T10:56:54.000Z</time>
      </trkpt>
      <trkpt lat="43.94267" lon="7.13265">
        <ele>438.60000610352</ele>
        <time>2019-06-01T10:57:03.000Z</time>
      </trkpt>
      <trkpt lat="43.94266" lon="7.13267">
        <ele>438.60000610352</ele>
        <time>2019-06-01T10:57:04.000Z</time>
      </trkpt>
      <trkpt lat="43.94261" lon="7.13285">
        <ele>439.60000610352</ele>
        <time>2019-06-01T10:57:12.000Z</time>
      </trkpt>
      <trkpt lat="43.94257" lon="7.13301">
        <ele>440.79998779297</ele>
        <time>2019-06-01T10:57:19.000Z</time>
      </trkpt>
      <trkpt lat="43.94255" lon="7.13311">
        <ele>440.79998779297</ele>
        <time>2019-06-01T10:57:23.000Z</time>
      </trkpt>
      <trkpt lat="43.94248" lon="7.1333">
        <ele>441.39999389648</ele>
        <time>2019-06-01T10:57:31.000Z</time>
      </trkpt>
      <trkpt lat="43.94243" lon="7.13337">
        <ele>441.79998779297</ele>
        <time>2019-06-01T10:57:35.000Z</time>
      </trkpt>
      <trkpt lat="43.94238" lon="7.13348">
        <ele>442.60000610352</ele>
        <time>2019-06-01T10:57:40.000Z</time>
      </trkpt>
      <trkpt lat="43.94235" lon="7.13357">
        <ele>443</ele>
        <time>2019-06-01T10:57:44.000Z</time>
      </trkpt>
      <trkpt lat="43.9423" lon="7.13367">
        <ele>443.39999389648</ele>
        <time>2019-06-01T10:57:49.000Z</time>
      </trkpt>
      <trkpt lat="43.94226" lon="7.13376">
        <ele>444</ele>
        <time>2019-06-01T10:57:53.000Z</time>
      </trkpt>
      <trkpt lat="43.94221" lon="7.13386">
        <ele>444.79998779297</ele>
        <time>2019-06-01T10:57:58.000Z</time>
      </trkpt>
      <trkpt lat="43.94218" lon="7.13392">
        <ele>445.20001220703</ele>
        <time>2019-06-01T10:58:01.000Z</time>
      </trkpt>
      <trkpt lat="43.9421" lon="7.13403">
        <ele>445.79998779297</ele>
        <time>2019-06-01T10:58:07.000Z</time>
      </trkpt>
      <trkpt lat="43.94206" lon="7.13407">
        <ele>446.20001220703</ele>
        <time>2019-06-01T10:58:10.000Z</time>
      </trkpt>
      <trkpt lat="43.94197" lon="7.13416">
        <ele>447</ele>
        <time>2019-06-01T10:58:16.000Z</time>
      </trkpt>
      <trkpt lat="43.94194" lon="7.1342">
        <ele>447.39999389648</ele>
        <time>2019-06-01T10:58:18.000Z</time>
      </trkpt>
      <trkpt lat="43.94184" lon="7.13425">
        <ele>448.20001220703</ele>
        <time>2019-06-01T10:58:24.000Z</time>
      </trkpt>
      <trkpt lat="43.94182" lon="7.13426">
        <ele>448.39999389648</ele>
        <time>2019-06-01T10:58:25.000Z</time>
      </trkpt>
      <trkpt lat="43.94175" lon="7.13429">
        <ele>449.20001220703</ele>
        <time>2019-06-01T10:58:31.000Z</time>
      </trkpt>
      <trkpt lat="43.94175" lon="7.13427">
        <ele>449.20001220703</ele>
        <time>2019-06-01T10:58:38.000Z</time>
      </trkpt>
      <trkpt lat="43.94177" lon="7.13427">
        <ele>449.39999389648</ele>
        <time>2019-06-01T10:58:40.000Z</time>
      </trkpt>
      <trkpt lat="43.94182" lon="7.13424">
        <ele>449.20001220703</ele>
        <time>2019-06-01T10:58:45.000Z</time>
      </trkpt>
      <trkpt lat="43.94185" lon="7.13422">
        <ele>448.60000610352</ele>
        <time>2019-06-01T10:58:51.000Z</time>
      </trkpt>
      <trkpt lat="43.94187" lon="7.13421">
        <ele>448.60000610352</ele>
        <time>2019-06-01T10:58:57.000Z</time>
      </trkpt>
      <trkpt lat="43.94186" lon="7.13421">
        <ele>448.39999389648</ele>
        <time>2019-06-01T10:59:01.000Z</time>
      </trkpt>
      <trkpt lat="43.94186" lon="7.1342">
        <ele>448.60000610352</ele>
        <time>2019-06-01T10:59:12.000Z</time>
      </trkpt>
      <trkpt lat="43.94183" lon="7.13422">
        <ele>448.60000610352</ele>
        <time>2019-06-01T10:59:30.000Z</time>
      </trkpt>
      <trkpt lat="43.94179" lon="7.13423">
        <ele>448.79998779297</ele>
        <time>2019-06-01T10:59:34.000Z</time>
      </trkpt>
      <trkpt lat="43.94177" lon="7.13425">
        <ele>449</ele>
        <time>2019-06-01T10:59:37.000Z</time>
      </trkpt>
      <trkpt lat="43.94173" lon="7.13426">
        <ele>449</ele>
        <time>2019-06-01T10:59:41.000Z</time>
      </trkpt>
      <trkpt lat="43.94173" lon="7.13427">
        <ele>449</ele>
        <time>2019-06-01T10:59:42.000Z</time>
      </trkpt>
      <trkpt lat="43.9417" lon="7.13427">
        <ele>449.39999389648</ele>
        <time>2019-06-01T10:59:49.000Z</time>
      </trkpt>
      <trkpt lat="43.9417" lon="7.13427">
        <ele>449.39999389648</ele>
        <time>2019-06-01T10:59:52.000Z</time>
      </trkpt>
      <trkpt lat="43.9417" lon="7.13427">
        <ele>449.20001220703</ele>
        <time>2019-06-01T10:59:54.000Z</time>
      </trkpt>
      <trkpt lat="43.94169" lon="7.13428">
        <ele>449.20001220703</ele>
        <time>2019-06-01T11:00:00.000Z</time>
      </trkpt>
      <trkpt lat="43.94169" lon="7.13431">
        <ele>448.79998779297</ele>
        <time>2019-06-01T11:00:02.000Z</time>
      </trkpt>
      <trkpt lat="43.94169" lon="7.13433">
        <ele>448.79998779297</ele>
        <time>2019-06-01T11:00:04.000Z</time>
      </trkpt>
      <trkpt lat="43.94168" lon="7.13436">
        <ele>448.79998779297</ele>
        <time>2019-06-01T11:00:05.000Z</time>
      </trkpt>
      <trkpt lat="43.94166" lon="7.13443">
        <ele>448.79998779297</ele>
        <time>2019-06-01T11:00:08.000Z</time>
      </trkpt>
      <trkpt lat="43.94166" lon="7.13446">
        <ele>449</ele>
        <time>2019-06-01T11:00:10.000Z</time>
      </trkpt>
      <trkpt lat="43.94167" lon="7.13449">
        <ele>449.20001220703</ele>
        <time>2019-06-01T11:00:11.000Z</time>
      </trkpt>
      <trkpt lat="43.94168" lon="7.13464">
        <ele>449.79998779297</ele>
        <time>2019-06-01T11:00:17.000Z</time>
      </trkpt>
      <trkpt lat="43.94173" lon="7.13478">
        <ele>450.60000610352</ele>
        <time>2019-06-01T11:00:24.000Z</time>
      </trkpt>
      <trkpt lat="43.94174" lon="7.1348">
        <ele>450.60000610352</ele>
        <time>2019-06-01T11:00:25.000Z</time>
      </trkpt>
      <trkpt lat="43.94185" lon="7.13498">
        <ele>451.60000610352</ele>
        <time>2019-06-01T11:00:35.000Z</time>
      </trkpt>
      <trkpt lat="43.94193" lon="7.13512">
        <ele>452.60000610352</ele>
        <time>2019-06-01T11:00:43.000Z</time>
      </trkpt>
      <trkpt lat="43.94194" lon="7.13515">
        <ele>452.79998779297</ele>
        <time>2019-06-01T11:00:44.000Z</time>
      </trkpt>
      <trkpt lat="43.94199" lon="7.1353">
        <ele>453.60000610352</ele>
        <time>2019-06-01T11:00:51.000Z</time>
      </trkpt>
      <trkpt lat="43.942" lon="7.13534">
        <ele>453.79998779297</ele>
        <time>2019-06-01T11:00:53.000Z</time>
      </trkpt>
      <trkpt lat="43.94204" lon="7.13547">
        <ele>454.60000610352</ele>
        <time>2019-06-01T11:00:59.000Z</time>
      </trkpt>
      <trkpt lat="43.94206" lon="7.13554">
        <ele>454.79998779297</ele>
        <time>2019-06-01T11:01:02.000Z</time>
      </trkpt>
      <trkpt lat="43.94207" lon="7.13557">
        <ele>455</ele>
        <time>2019-06-01T11:01:04.000Z</time>
      </trkpt>
      <trkpt lat="43.94208" lon="7.13561">
        <ele>455.20001220703</ele>
        <time>2019-06-01T11:01:06.000Z</time>
      </trkpt>
      <trkpt lat="43.94211" lon="7.1357">
        <ele>455.79998779297</ele>
        <time>2019-06-01T11:01:10.000Z</time>
      </trkpt>
      <trkpt lat="43.94214" lon="7.13577">
        <ele>456.39999389648</ele>
        <time>2019-06-01T11:01:14.000Z</time>
      </trkpt>
      <trkpt lat="43.94217" lon="7.13584">
        <ele>457</ele>
        <time>2019-06-01T11:01:18.000Z</time>
      </trkpt>
      <trkpt lat="43.94223" lon="7.13593">
        <ele>457.60000610352</ele>
        <time>2019-06-01T11:01:23.000Z</time>
      </trkpt>
      <trkpt lat="43.94228" lon="7.13599">
        <ele>458.20001220703</ele>
        <time>2019-06-01T11:01:27.000Z</time>
      </trkpt>
      <trkpt lat="43.94233" lon="7.13605">
        <ele>458.20001220703</ele>
        <time>2019-06-01T11:01:31.000Z</time>
      </trkpt>
      <trkpt lat="43.94241" lon="7.1362">
        <ele>459</ele>
        <time>2019-06-01T11:01:39.000Z</time>
      </trkpt>
      <trkpt lat="43.94242" lon="7.13622">
        <ele>459.20001220703</ele>
        <time>2019-06-01T11:01:40.000Z</time>
      </trkpt>
      <trkpt lat="43.94246" lon="7.13632">
        <ele>460.39999389648</ele>
        <time>2019-06-01T11:01:45.000Z</time>
      </trkpt>
      <trkpt lat="43.94247" lon="7.13635">
        <ele>460.39999389648</ele>
        <time>2019-06-01T11:01:47.000Z</time>
      </trkpt>
      <trkpt lat="43.94254" lon="7.13653">
        <ele>461.39999389648</ele>
        <time>2019-06-01T11:01:56.000Z</time>
      </trkpt>
      <trkpt lat="43.94255" lon="7.13656">
        <ele>461.60000610352</ele>
        <time>2019-06-01T11:01:57.000Z</time>
      </trkpt>
      <trkpt lat="43.94261" lon="7.1367">
        <ele>462.39999389648</ele>
        <time>2019-06-01T11:02:04.000Z</time>
      </trkpt>
      <trkpt lat="43.94262" lon="7.13675">
        <ele>462.79998779297</ele>
        <time>2019-06-01T11:02:06.000Z</time>
      </trkpt>
      <trkpt lat="43.94266" lon="7.13693">
        <ele>463.60000610352</ele>
        <time>2019-06-01T11:02:14.000Z</time>
      </trkpt>
      <trkpt lat="43.94266" lon="7.13695">
        <ele>463.79998779297</ele>
        <time>2019-06-01T11:02:15.000Z</time>
      </trkpt>
      <trkpt lat="43.94269" lon="7.13706">
        <ele>464.60000610352</ele>
        <time>2019-06-01T11:02:20.000Z</time>
      </trkpt>
      <trkpt lat="43.94269" lon="7.13708">
        <ele>464.79998779297</ele>
        <time>2019-06-01T11:02:21.000Z</time>
      </trkpt>
      <trkpt lat="43.94273" lon="7.13724">
        <ele>465.20001220703</ele>
        <time>2019-06-01T11:02:28.000Z</time>
      </trkpt>
      <trkpt lat="43.94275" lon="7.13733">
        <ele>465.79998779297</ele>
        <time>2019-06-01T11:02:32.000Z</time>
      </trkpt>
      <trkpt lat="43.94281" lon="7.13744">
        <ele>466.39999389648</ele>
        <time>2019-06-01T11:02:38.000Z</time>
      </trkpt>
      <trkpt lat="43.94288" lon="7.13752">
        <ele>466.79998779297</ele>
        <time>2019-06-01T11:02:43.000Z</time>
      </trkpt>
      <trkpt lat="43.94291" lon="7.1376">
        <ele>467.39999389648</ele>
        <time>2019-06-01T11:02:47.000Z</time>
      </trkpt>
      <trkpt lat="43.9429" lon="7.1377">
        <ele>468</ele>
        <time>2019-06-01T11:02:51.000Z</time>
      </trkpt>
      <trkpt lat="43.94289" lon="7.13776">
        <ele>468.39999389648</ele>
        <time>2019-06-01T11:02:54.000Z</time>
      </trkpt>
      <trkpt lat="43.94286" lon="7.13783">
        <ele>469</ele>
        <time>2019-06-01T11:02:57.000Z</time>
      </trkpt>
      <trkpt lat="43.9428" lon="7.1379">
        <ele>469.79998779297</ele>
        <time>2019-06-01T11:03:02.000Z</time>
      </trkpt>
      <trkpt lat="43.94277" lon="7.13791">
        <ele>470.20001220703</ele>
        <time>2019-06-01T11:03:04.000Z</time>
      </trkpt>
      <trkpt lat="43.94268" lon="7.13794">
        <ele>471.20001220703</ele>
        <time>2019-06-01T11:03:09.000Z</time>
      </trkpt>
      <trkpt lat="43.94263" lon="7.13796">
        <ele>471.60000610352</ele>
        <time>2019-06-01T11:03:12.000Z</time>
      </trkpt>
      <trkpt lat="43.94256" lon="7.13803">
        <ele>472.20001220703</ele>
        <time>2019-06-01T11:03:17.000Z</time>
      </trkpt>
      <trkpt lat="43.94254" lon="7.13808">
        <ele>472.60000610352</ele>
        <time>2019-06-01T11:03:20.000Z</time>
      </trkpt>
      <trkpt lat="43.94254" lon="7.1381">
        <ele>473</ele>
        <time>2019-06-01T11:03:21.000Z</time>
      </trkpt>
      <trkpt lat="43.94253" lon="7.13818">
        <ele>473.39999389648</ele>
        <time>2019-06-01T11:03:24.000Z</time>
      </trkpt>
      <trkpt lat="43.94253" lon="7.13825">
        <ele>474</ele>
        <time>2019-06-01T11:03:27.000Z</time>
      </trkpt>
      <trkpt lat="43.94253" lon="7.13835">
        <ele>474.39999389648</ele>
        <time>2019-06-01T11:03:31.000Z</time>
      </trkpt>
      <trkpt lat="43.94254" lon="7.13851">
        <ele>475.20001220703</ele>
        <time>2019-06-01T11:03:38.000Z</time>
      </trkpt>
      <trkpt lat="43.94255" lon="7.13856">
        <ele>475.60000610352</ele>
        <time>2019-06-01T11:03:40.000Z</time>
      </trkpt>
      <trkpt lat="43.94256" lon="7.13869">
        <ele>476.20001220703</ele>
        <time>2019-06-01T11:03:46.000Z</time>
      </trkpt>
      <trkpt lat="43.94261" lon="7.13884">
        <ele>476.79998779297</ele>
        <time>2019-06-01T11:03:53.000Z</time>
      </trkpt>
      <trkpt lat="43.94264" lon="7.13892">
        <ele>477.20001220703</ele>
        <time>2019-06-01T11:03:57.000Z</time>
      </trkpt>
      <trkpt lat="43.94269" lon="7.13901">
        <ele>477.79998779297</ele>
        <time>2019-06-01T11:04:02.000Z</time>
      </trkpt>
      <trkpt lat="43.94274" lon="7.13907">
        <ele>477.79998779297</ele>
        <time>2019-06-01T11:04:06.000Z</time>
      </trkpt>
      <trkpt lat="43.9428" lon="7.13916">
        <ele>479</ele>
        <time>2019-06-01T11:04:11.000Z</time>
      </trkpt>
      <trkpt lat="43.94282" lon="7.13919">
        <ele>479.20001220703</ele>
        <time>2019-06-01T11:04:13.000Z</time>
      </trkpt>
      <trkpt lat="43.94286" lon="7.13934">
        <ele>480.20001220703</ele>
        <time>2019-06-01T11:04:20.000Z</time>
      </trkpt>
      <trkpt lat="43.94287" lon="7.13939">
        <ele>480.60000610352</ele>
        <time>2019-06-01T11:04:22.000Z</time>
      </trkpt>
      <trkpt lat="43.94289" lon="7.13948">
        <ele>481.20001220703</ele>
        <time>2019-06-01T11:04:26.000Z</time>
      </trkpt>
      <trkpt lat="43.94289" lon="7.13959">
        <ele>481.79998779297</ele>
        <time>2019-06-01T11:04:31.000Z</time>
      </trkpt>
      <trkpt lat="43.94289" lon="7.13967">
        <ele>482.20001220703</ele>
        <time>2019-06-01T11:04:34.000Z</time>
      </trkpt>
      <trkpt lat="43.94285" lon="7.1398">
        <ele>483.20001220703</ele>
        <time>2019-06-01T11:04:40.000Z</time>
      </trkpt>
      <trkpt lat="43.94285" lon="7.13982">
        <ele>483.20001220703</ele>
        <time>2019-06-01T11:04:41.000Z</time>
      </trkpt>
      <trkpt lat="43.94277" lon="7.13996">
        <ele>484.39999389648</ele>
        <time>2019-06-01T11:04:49.000Z</time>
      </trkpt>
      <trkpt lat="43.94272" lon="7.14005">
        <ele>485.39999389648</ele>
        <time>2019-06-01T11:04:55.000Z</time>
      </trkpt>
      <trkpt lat="43.94268" lon="7.14012">
        <ele>486</ele>
        <time>2019-06-01T11:04:59.000Z</time>
      </trkpt>
      <trkpt lat="43.94265" lon="7.14017">
        <ele>486.39999389648</ele>
        <time>2019-06-01T11:05:02.000Z</time>
      </trkpt>
      <trkpt lat="43.94262" lon="7.14025">
        <ele>487</ele>
        <time>2019-06-01T11:05:06.000Z</time>
      </trkpt>
      <trkpt lat="43.94259" lon="7.14031">
        <ele>487.39999389648</ele>
        <time>2019-06-01T11:05:09.000Z</time>
      </trkpt>
      <trkpt lat="43.94256" lon="7.1404">
        <ele>488</ele>
        <time>2019-06-01T11:05:13.000Z</time>
      </trkpt>
      <trkpt lat="43.94254" lon="7.14052">
        <ele>488.60000610352</ele>
        <time>2019-06-01T11:05:18.000Z</time>
      </trkpt>
      <trkpt lat="43.94254" lon="7.14062">
        <ele>489</ele>
        <time>2019-06-01T11:05:22.000Z</time>
      </trkpt>
      <trkpt lat="43.94255" lon="7.14065">
        <ele>489.39999389648</ele>
        <time>2019-06-01T11:05:23.000Z</time>
      </trkpt>
      <trkpt lat="43.94258" lon="7.14074">
        <ele>489.60000610352</ele>
        <time>2019-06-01T11:05:27.000Z</time>
      </trkpt>
      <trkpt lat="43.94259" lon="7.14076">
        <ele>489.79998779297</ele>
        <time>2019-06-01T11:05:28.000Z</time>
      </trkpt>
      <trkpt lat="43.9427" lon="7.14091">
        <ele>490.20001220703</ele>
        <time>2019-06-01T11:05:36.000Z</time>
      </trkpt>
      <trkpt lat="43.94291" lon="7.14103">
        <ele>490</ele>
        <time>2019-06-01T11:05:44.000Z</time>
      </trkpt>
      <trkpt lat="43.94315" lon="7.14107">
        <ele>489.20001220703</ele>
        <time>2019-06-01T11:05:51.000Z</time>
      </trkpt>
      <trkpt lat="43.94335" lon="7.14102">
        <ele>488.79998779297</ele>
        <time>2019-06-01T11:05:56.000Z</time>
      </trkpt>
      <trkpt lat="43.94339" lon="7.14099">
        <ele>488.39999389648</ele>
        <time>2019-06-01T11:05:57.000Z</time>
      </trkpt>
      <trkpt lat="43.94359" lon="7.14086">
        <ele>487.39999389648</ele>
        <time>2019-06-01T11:06:01.000Z</time>
      </trkpt>
      <trkpt lat="43.94364" lon="7.14085">
        <ele>487.20001220703</ele>
        <time>2019-06-01T11:06:02.000Z</time>
      </trkpt>
      <trkpt lat="43.94383" lon="7.14086">
        <ele>486.20001220703</ele>
        <time>2019-06-01T11:06:05.000Z</time>
      </trkpt>
      <trkpt lat="43.94397" lon="7.1409">
        <ele>485.20001220703</ele>
        <time>2019-06-01T11:06:07.000Z</time>
      </trkpt>
      <trkpt lat="43.94403" lon="7.14092">
        <ele>484.79998779297</ele>
        <time>2019-06-01T11:06:08.000Z</time>
      </trkpt>
      <trkpt lat="43.94424" lon="7.14096">
        <ele>483.60000610352</ele>
        <time>2019-06-01T11:06:11.000Z</time>
      </trkpt>
      <trkpt lat="43.94437" lon="7.14089">
        <ele>483</ele>
        <time>2019-06-01T11:06:13.000Z</time>
      </trkpt>
      <trkpt lat="43.94448" lon="7.14076">
        <ele>482.39999389648</ele>
        <time>2019-06-01T11:06:15.000Z</time>
      </trkpt>
      <trkpt lat="43.94465" lon="7.14054">
        <ele>481.60000610352</ele>
        <time>2019-06-01T11:06:18.000Z</time>
      </trkpt>
      <trkpt lat="43.9447" lon="7.14046">
        <ele>481.39999389648</ele>
        <time>2019-06-01T11:06:19.000Z</time>
      </trkpt>
      <trkpt lat="43.94483" lon="7.14019">
        <ele>480.39999389648</ele>
        <time>2019-06-01T11:06:22.000Z</time>
      </trkpt>
      <trkpt lat="43.94489" lon="7.14013">
        <ele>480</ele>
        <time>2019-06-01T11:06:23.000Z</time>
      </trkpt>
      <trkpt lat="43.94496" lon="7.1401">
        <ele>479.39999389648</ele>
        <time>2019-06-01T11:06:24.000Z</time>
      </trkpt>
      <trkpt lat="43.94511" lon="7.14012">
        <ele>478.60000610352</ele>
        <time>2019-06-01T11:06:26.000Z</time>
      </trkpt>
      <trkpt lat="43.94529" lon="7.14033">
        <ele>477.79998779297</ele>
        <time>2019-06-01T11:06:29.000Z</time>
      </trkpt>
      <trkpt lat="43.94533" lon="7.1404">
        <ele>477.60000610352</ele>
        <time>2019-06-01T11:06:30.000Z</time>
      </trkpt>
      <trkpt lat="43.94546" lon="7.14066">
        <ele>476.79998779297</ele>
        <time>2019-06-01T11:06:33.000Z</time>
      </trkpt>
      <trkpt lat="43.94553" lon="7.14084">
        <ele>476.20001220703</ele>
        <time>2019-06-01T11:06:35.000Z</time>
      </trkpt>
      <trkpt lat="43.94558" lon="7.14093">
        <ele>476</ele>
        <time>2019-06-01T11:06:36.000Z</time>
      </trkpt>
      <trkpt lat="43.9457" lon="7.14106">
        <ele>475.60000610352</ele>
        <time>2019-06-01T11:06:38.000Z</time>
      </trkpt>
      <trkpt lat="43.94577" lon="7.14111">
        <ele>475.20001220703</ele>
        <time>2019-06-01T11:06:39.000Z</time>
      </trkpt>
      <trkpt lat="43.94584" lon="7.14117">
        <ele>475</ele>
        <time>2019-06-01T11:06:40.000Z</time>
      </trkpt>
      <trkpt lat="43.94604" lon="7.14135">
        <ele>474.20001220703</ele>
        <time>2019-06-01T11:06:43.000Z</time>
      </trkpt>
      <trkpt lat="43.94627" lon="7.1414">
        <ele>473.60000610352</ele>
        <time>2019-06-01T11:06:46.000Z</time>
      </trkpt>
      <trkpt lat="43.94649" lon="7.14127">
        <ele>472.60000610352</ele>
        <time>2019-06-01T11:06:49.000Z</time>
      </trkpt>
      <trkpt lat="43.94656" lon="7.14122">
        <ele>472.39999389648</ele>
        <time>2019-06-01T11:06:50.000Z</time>
      </trkpt>
      <trkpt lat="43.94664" lon="7.1412">
        <ele>471.60000610352</ele>
        <time>2019-06-01T11:06:51.000Z</time>
      </trkpt>
      <trkpt lat="43.94671" lon="7.14122">
        <ele>471.20001220703</ele>
        <time>2019-06-01T11:06:52.000Z</time>
      </trkpt>
      <trkpt lat="43.94684" lon="7.14134">
        <ele>470.79998779297</ele>
        <time>2019-06-01T11:06:54.000Z</time>
      </trkpt>
      <trkpt lat="43.9469" lon="7.1414">
        <ele>470.60000610352</ele>
        <time>2019-06-01T11:06:55.000Z</time>
      </trkpt>
      <trkpt lat="43.94716" lon="7.14164">
        <ele>469.60000610352</ele>
        <time>2019-06-01T11:06:59.000Z</time>
      </trkpt>
      <trkpt lat="43.94731" lon="7.14172">
        <ele>469</ele>
        <time>2019-06-01T11:07:01.000Z</time>
      </trkpt>
      <trkpt lat="43.94747" lon="7.14168">
        <ele>468.60000610352</ele>
        <time>2019-06-01T11:07:03.000Z</time>
      </trkpt>
      <trkpt lat="43.94754" lon="7.14164">
        <ele>468.20001220703</ele>
        <time>2019-06-01T11:07:04.000Z</time>
      </trkpt>
      <trkpt lat="43.94762" lon="7.14158">
        <ele>468</ele>
        <time>2019-06-01T11:07:05.000Z</time>
      </trkpt>
      <trkpt lat="43.94769" lon="7.14151">
        <ele>467.60000610352</ele>
        <time>2019-06-01T11:07:06.000Z</time>
      </trkpt>
      <trkpt lat="43.94775" lon="7.14142">
        <ele>467.20001220703</ele>
        <time>2019-06-01T11:07:07.000Z</time>
      </trkpt>
      <trkpt lat="43.94783" lon="7.14121">
        <ele>466</ele>
        <time>2019-06-01T11:07:09.000Z</time>
      </trkpt>
      <trkpt lat="43.94787" lon="7.14114">
        <ele>465.20001220703</ele>
        <time>2019-06-01T11:07:10.000Z</time>
      </trkpt>
      <trkpt lat="43.9479" lon="7.14112">
        <ele>464.60000610352</ele>
        <time>2019-06-01T11:07:11.000Z</time>
      </trkpt>
      <trkpt lat="43.94795" lon="7.14113">
        <ele>464.20001220703</ele>
        <time>2019-06-01T11:07:12.000Z</time>
      </trkpt>
      <trkpt lat="43.94807" lon="7.14111">
        <ele>464</ele>
        <time>2019-06-01T11:07:14.000Z</time>
      </trkpt>
      <trkpt lat="43.94815" lon="7.14094">
        <ele>463.60000610352</ele>
        <time>2019-06-01T11:07:16.000Z</time>
      </trkpt>
      <trkpt lat="43.9482" lon="7.14086">
        <ele>463.39999389648</ele>
        <time>2019-06-01T11:07:17.000Z</time>
      </trkpt>
      <trkpt lat="43.94833" lon="7.14081">
        <ele>462.20001220703</ele>
        <time>2019-06-01T11:07:19.000Z</time>
      </trkpt>
      <trkpt lat="43.94851" lon="7.14088">
        <ele>461</ele>
        <time>2019-06-01T11:07:22.000Z</time>
      </trkpt>
      <trkpt lat="43.94869" lon="7.14082">
        <ele>460.60000610352</ele>
        <time>2019-06-01T11:07:25.000Z</time>
      </trkpt>
      <trkpt lat="43.94875" lon="7.14079">
        <ele>460.39999389648</ele>
        <time>2019-06-01T11:07:26.000Z</time>
      </trkpt>
      <trkpt lat="43.94892" lon="7.14067">
        <ele>460.60000610352</ele>
        <time>2019-06-01T11:07:30.000Z</time>
      </trkpt>
      <trkpt lat="43.94906" lon="7.14059">
        <ele>462.20001220703</ele>
        <time>2019-06-01T11:07:35.000Z</time>
      </trkpt>
      <trkpt lat="43.94923" lon="7.14055">
        <ele>463.39999389648</ele>
        <time>2019-06-01T11:07:42.000Z</time>
      </trkpt>
      <trkpt lat="43.94935" lon="7.14053">
        <ele>464.39999389648</ele>
        <time>2019-06-01T11:07:47.000Z</time>
      </trkpt>
      <trkpt lat="43.94941" lon="7.14053">
        <ele>465.20001220703</ele>
        <time>2019-06-01T11:07:50.000Z</time>
      </trkpt>
      <trkpt lat="43.94946" lon="7.14053">
        <ele>465.60000610352</ele>
        <time>2019-06-01T11:07:52.000Z</time>
      </trkpt>
      <trkpt lat="43.94953" lon="7.14058">
        <ele>466.20001220703</ele>
        <time>2019-06-01T11:07:56.000Z</time>
      </trkpt>
      <trkpt lat="43.94958" lon="7.14065">
        <ele>466.79998779297</ele>
        <time>2019-06-01T11:08:00.000Z</time>
      </trkpt>
      <trkpt lat="43.94962" lon="7.14073">
        <ele>467.60000610352</ele>
        <time>2019-06-01T11:08:04.000Z</time>
      </trkpt>
      <trkpt lat="43.94962" lon="7.14074">
        <ele>467.79998779297</ele>
        <time>2019-06-01T11:08:05.000Z</time>
      </trkpt>
      <trkpt lat="43.94967" lon="7.14082">
        <ele>468.60000610352</ele>
        <time>2019-06-01T11:08:09.000Z</time>
      </trkpt>
      <trkpt lat="43.94969" lon="7.14085">
        <ele>469</ele>
        <time>2019-06-01T11:08:11.000Z</time>
      </trkpt>
      <trkpt lat="43.94973" lon="7.14087">
        <ele>469.79998779297</ele>
        <time>2019-06-01T11:08:15.000Z</time>
      </trkpt>
      <trkpt lat="43.94974" lon="7.14088">
        <ele>470</ele>
        <time>2019-06-01T11:08:16.000Z</time>
      </trkpt>
      <trkpt lat="43.94981" lon="7.14088">
        <ele>470.60000610352</ele>
        <time>2019-06-01T11:08:20.000Z</time>
      </trkpt>
      <trkpt lat="43.94986" lon="7.14088">
        <ele>471</ele>
        <time>2019-06-01T11:08:23.000Z</time>
      </trkpt>
      <trkpt lat="43.94999" lon="7.14086">
        <ele>472</ele>
        <time>2019-06-01T11:08:30.000Z</time>
      </trkpt>
      <trkpt lat="43.95001" lon="7.14086">
        <ele>472</ele>
        <time>2019-06-01T11:08:31.000Z</time>
      </trkpt>
      <trkpt lat="43.95006" lon="7.14088">
        <ele>472.60000610352</ele>
        <time>2019-06-01T11:08:35.000Z</time>
      </trkpt>
      <trkpt lat="43.95008" lon="7.1409">
        <ele>472.79998779297</ele>
        <time>2019-06-01T11:08:37.000Z</time>
      </trkpt>
      <trkpt lat="43.95011" lon="7.14095">
        <ele>473.20001220703</ele>
        <time>2019-06-01T11:08:40.000Z</time>
      </trkpt>
      <trkpt lat="43.95012" lon="7.14097">
        <ele>473.20001220703</ele>
        <time>2019-06-01T11:08:41.000Z</time>
      </trkpt>
      <trkpt lat="43.95011" lon="7.1411">
        <ele>473.60000610352</ele>
        <time>2019-06-01T11:08:46.000Z</time>
      </trkpt>
      <trkpt lat="43.95001" lon="7.14119">
        <ele>474.20001220703</ele>
        <time>2019-06-01T11:08:52.000Z</time>
      </trkpt>
      <trkpt lat="43.95" lon="7.14121">
        <ele>474.39999389648</ele>
        <time>2019-06-01T11:08:53.000Z</time>
      </trkpt>
      <trkpt lat="43.9499" lon="7.14128">
        <ele>475.20001220703</ele>
        <time>2019-06-01T11:08:59.000Z</time>
      </trkpt>
      <trkpt lat="43.94988" lon="7.14128">
        <ele>475.39999389648</ele>
        <time>2019-06-01T11:09:00.000Z</time>
      </trkpt>
      <trkpt lat="43.94978" lon="7.14136">
        <ele>476.20001220703</ele>
        <time>2019-06-01T11:09:07.000Z</time>
      </trkpt>
      <trkpt lat="43.94975" lon="7.14138">
        <ele>476.39999389648</ele>
        <time>2019-06-01T11:09:09.000Z</time>
      </trkpt>
      <trkpt lat="43.94969" lon="7.14144">
        <ele>477</ele>
        <time>2019-06-01T11:09:14.000Z</time>
      </trkpt>
      <trkpt lat="43.94965" lon="7.14147">
        <ele>477.39999389648</ele>
        <time>2019-06-01T11:09:17.000Z</time>
      </trkpt>
      <trkpt lat="43.94955" lon="7.1415">
        <ele>478</ele>
        <time>2019-06-01T11:09:23.000Z</time>
      </trkpt>
      <trkpt lat="43.94949" lon="7.14151">
        <ele>478.39999389648</ele>
        <time>2019-06-01T11:09:27.000Z</time>
      </trkpt>
      <trkpt lat="43.94943" lon="7.14153">
        <ele>479.20001220703</ele>
        <time>2019-06-01T11:09:31.000Z</time>
      </trkpt>
      <trkpt lat="43.94939" lon="7.14155">
        <ele>479.60000610352</ele>
        <time>2019-06-01T11:09:34.000Z</time>
      </trkpt>
      <trkpt lat="43.94932" lon="7.1416">
        <ele>480.20001220703</ele>
        <time>2019-06-01T11:09:39.000Z</time>
      </trkpt>
      <trkpt lat="43.9493" lon="7.14163">
        <ele>480.60000610352</ele>
        <time>2019-06-01T11:09:41.000Z</time>
      </trkpt>
      <trkpt lat="43.94922" lon="7.14176">
        <ele>481.60000610352</ele>
        <time>2019-06-01T11:09:49.000Z</time>
      </trkpt>
      <trkpt lat="43.9492" lon="7.14179">
        <ele>481.79998779297</ele>
        <time>2019-06-01T11:09:51.000Z</time>
      </trkpt>
      <trkpt lat="43.94914" lon="7.14191">
        <ele>482.39999389648</ele>
        <time>2019-06-01T11:09:57.000Z</time>
      </trkpt>
      <trkpt lat="43.94913" lon="7.14194">
        <ele>482.60000610352</ele>
        <time>2019-06-01T11:09:59.000Z</time>
      </trkpt>
      <trkpt lat="43.94909" lon="7.1421">
        <ele>483.39999389648</ele>
        <time>2019-06-01T11:10:06.000Z</time>
      </trkpt>
      <trkpt lat="43.94908" lon="7.14217">
        <ele>483.79998779297</ele>
        <time>2019-06-01T11:10:09.000Z</time>
      </trkpt>
      <trkpt lat="43.94904" lon="7.14233">
        <ele>484.79998779297</ele>
        <time>2019-06-01T11:10:16.000Z</time>
      </trkpt>
      <trkpt lat="43.94904" lon="7.14235">
        <ele>485</ele>
        <time>2019-06-01T11:10:17.000Z</time>
      </trkpt>
      <trkpt lat="43.949" lon="7.14253">
        <ele>485.79998779297</ele>
        <time>2019-06-01T11:10:25.000Z</time>
      </trkpt>
      <trkpt lat="43.94898" lon="7.14265">
        <ele>486.60000610352</ele>
        <time>2019-06-01T11:10:30.000Z</time>
      </trkpt>
      <trkpt lat="43.94897" lon="7.1427">
        <ele>486.79998779297</ele>
        <time>2019-06-01T11:10:32.000Z</time>
      </trkpt>
      <trkpt lat="43.94893" lon="7.14285">
        <ele>487.39999389648</ele>
        <time>2019-06-01T11:10:39.000Z</time>
      </trkpt>
      <trkpt lat="43.94892" lon="7.14292">
        <ele>487.79998779297</ele>
        <time>2019-06-01T11:10:42.000Z</time>
      </trkpt>
      <trkpt lat="43.9489" lon="7.143">
        <ele>488.60000610352</ele>
        <time>2019-06-01T11:10:46.000Z</time>
      </trkpt>
      <trkpt lat="43.94889" lon="7.14307">
        <ele>489</ele>
        <time>2019-06-01T11:10:49.000Z</time>
      </trkpt>
      <trkpt lat="43.9489" lon="7.14321">
        <ele>489.79998779297</ele>
        <time>2019-06-01T11:10:55.000Z</time>
      </trkpt>
      <trkpt lat="43.9489" lon="7.14323">
        <ele>490</ele>
        <time>2019-06-01T11:10:56.000Z</time>
      </trkpt>
      <trkpt lat="43.94892" lon="7.14337">
        <ele>490.79998779297</ele>
        <time>2019-06-01T11:11:02.000Z</time>
      </trkpt>
      <trkpt lat="43.94892" lon="7.14341">
        <ele>491</ele>
        <time>2019-06-01T11:11:04.000Z</time>
      </trkpt>
      <trkpt lat="43.94893" lon="7.14354">
        <ele>491.60000610352</ele>
        <time>2019-06-01T11:11:09.000Z</time>
      </trkpt>
      <trkpt lat="43.94894" lon="7.14363">
        <ele>492.20001220703</ele>
        <time>2019-06-01T11:11:13.000Z</time>
      </trkpt>
      <trkpt lat="43.94895" lon="7.14374">
        <ele>492.79998779297</ele>
        <time>2019-06-01T11:11:18.000Z</time>
      </trkpt>
      <trkpt lat="43.94894" lon="7.14382">
        <ele>493.20001220703</ele>
        <time>2019-06-01T11:11:21.000Z</time>
      </trkpt>
      <trkpt lat="43.94892" lon="7.14393">
        <ele>493.60000610352</ele>
        <time>2019-06-01T11:11:26.000Z</time>
      </trkpt>
      <trkpt lat="43.94892" lon="7.14405">
        <ele>494.20001220703</ele>
        <time>2019-06-01T11:11:31.000Z</time>
      </trkpt>
      <trkpt lat="43.94892" lon="7.1441">
        <ele>494.60000610352</ele>
        <time>2019-06-01T11:11:33.000Z</time>
      </trkpt>
      <trkpt lat="43.94888" lon="7.14422">
        <ele>495.20001220703</ele>
        <time>2019-06-01T11:11:38.000Z</time>
      </trkpt>
      <trkpt lat="43.94886" lon="7.14423">
        <ele>495.20001220703</ele>
        <time>2019-06-01T11:11:39.000Z</time>
      </trkpt>
      <trkpt lat="43.94876" lon="7.14428">
        <ele>496</ele>
        <time>2019-06-01T11:11:45.000Z</time>
      </trkpt>
      <trkpt lat="43.94873" lon="7.14429">
        <ele>496.39999389648</ele>
        <time>2019-06-01T11:11:47.000Z</time>
      </trkpt>
      <trkpt lat="43.94863" lon="7.14433">
        <ele>497.20001220703</ele>
        <time>2019-06-01T11:11:53.000Z</time>
      </trkpt>
      <trkpt lat="43.9486" lon="7.14434">
        <ele>497.39999389648</ele>
        <time>2019-06-01T11:11:55.000Z</time>
      </trkpt>
      <trkpt lat="43.94859" lon="7.14434">
        <ele>497.39999389648</ele>
        <time>2019-06-01T11:11:56.000Z</time>
      </trkpt>
      <trkpt lat="43.94846" lon="7.14441">
        <ele>498.60000610352</ele>
        <time>2019-06-01T11:12:04.000Z</time>
      </trkpt>
      <trkpt lat="43.94833" lon="7.14449">
        <ele>499.60000610352</ele>
        <time>2019-06-01T11:12:13.000Z</time>
      </trkpt>
      <trkpt lat="43.94832" lon="7.14451">
        <ele>499.60000610352</ele>
        <time>2019-06-01T11:12:14.000Z</time>
      </trkpt>
      <trkpt lat="43.94826" lon="7.14454">
        <ele>500</ele>
        <time>2019-06-01T11:12:17.000Z</time>
      </trkpt>
      <trkpt lat="43.94822" lon="7.14455">
        <ele>500.60000610352</ele>
        <time>2019-06-01T11:12:20.000Z</time>
      </trkpt>
      <trkpt lat="43.9482" lon="7.14455">
        <ele>500.79998779297</ele>
        <time>2019-06-01T11:12:21.000Z</time>
      </trkpt>
      <trkpt lat="43.9481" lon="7.14456">
        <ele>501.79998779297</ele>
        <time>2019-06-01T11:12:28.000Z</time>
      </trkpt>
      <trkpt lat="43.94799" lon="7.14459">
        <ele>503</ele>
        <time>2019-06-01T11:12:36.000Z</time>
      </trkpt>
      <trkpt lat="43.94797" lon="7.1446">
        <ele>503.20001220703</ele>
        <time>2019-06-01T11:12:37.000Z</time>
      </trkpt>
      <trkpt lat="43.94789" lon="7.14467">
        <ele>504</ele>
        <time>2019-06-01T11:12:43.000Z</time>
      </trkpt>
      <trkpt lat="43.94785" lon="7.14472">
        <ele>504.39999389648</ele>
        <time>2019-06-01T11:12:47.000Z</time>
      </trkpt>
      <trkpt lat="43.94779" lon="7.14481">
        <ele>505</ele>
        <time>2019-06-01T11:12:53.000Z</time>
      </trkpt>
      <trkpt lat="43.94773" lon="7.14494">
        <ele>505.60000610352</ele>
        <time>2019-06-01T11:13:00.000Z</time>
      </trkpt>
      <trkpt lat="43.94771" lon="7.14501">
        <ele>506</ele>
        <time>2019-06-01T11:13:04.000Z</time>
      </trkpt>
      <trkpt lat="43.94769" lon="7.1451">
        <ele>506.60000610352</ele>
        <time>2019-06-01T11:13:08.000Z</time>
      </trkpt>
      <trkpt lat="43.94768" lon="7.14527">
        <ele>507.20001220703</ele>
        <time>2019-06-01T11:13:15.000Z</time>
      </trkpt>
      <trkpt lat="43.94767" lon="7.14531">
        <ele>507.39999389648</ele>
        <time>2019-06-01T11:13:17.000Z</time>
      </trkpt>
      <trkpt lat="43.94763" lon="7.14552">
        <ele>508.20001220703</ele>
        <time>2019-06-01T11:13:26.000Z</time>
      </trkpt>
      <trkpt lat="43.94763" lon="7.14554">
        <ele>508.20001220703</ele>
        <time>2019-06-01T11:13:27.000Z</time>
      </trkpt>
      <trkpt lat="43.94759" lon="7.14577">
        <ele>509</ele>
        <time>2019-06-01T11:13:37.000Z</time>
      </trkpt>
      <trkpt lat="43.9476" lon="7.14588">
        <ele>509.20001220703</ele>
        <time>2019-06-01T11:13:41.000Z</time>
      </trkpt>
      <trkpt lat="43.94761" lon="7.14596">
        <ele>509.20001220703</ele>
        <time>2019-06-01T11:13:44.000Z</time>
      </trkpt>
      <trkpt lat="43.94762" lon="7.14599">
        <ele>509.20001220703</ele>
        <time>2019-06-01T11:13:45.000Z</time>
      </trkpt>
      <trkpt lat="43.94766" lon="7.14622">
        <ele>509.79998779297</ele>
        <time>2019-06-01T11:13:53.000Z</time>
      </trkpt>
      <trkpt lat="43.94766" lon="7.14625">
        <ele>510</ele>
        <time>2019-06-01T11:13:54.000Z</time>
      </trkpt>
      <trkpt lat="43.94767" lon="7.14641">
        <ele>510.20001220703</ele>
        <time>2019-06-01T11:13:59.000Z</time>
      </trkpt>
      <trkpt lat="43.9477" lon="7.14656">
        <ele>510.60000610352</ele>
        <time>2019-06-01T11:14:04.000Z</time>
      </trkpt>
      <trkpt lat="43.94772" lon="7.14672">
        <ele>511.39999389648</ele>
        <time>2019-06-01T11:14:10.000Z</time>
      </trkpt>
      <trkpt lat="43.94773" lon="7.1468">
        <ele>511.79998779297</ele>
        <time>2019-06-01T11:14:13.000Z</time>
      </trkpt>
      <trkpt lat="43.94774" lon="7.14691">
        <ele>512.40002441406</ele>
        <time>2019-06-01T11:14:17.000Z</time>
      </trkpt>
      <trkpt lat="43.94776" lon="7.14706">
        <ele>513.20001220703</ele>
        <time>2019-06-01T11:14:23.000Z</time>
      </trkpt>
      <trkpt lat="43.94777" lon="7.14711">
        <ele>513.40002441406</ele>
        <time>2019-06-01T11:14:25.000Z</time>
      </trkpt>
      <trkpt lat="43.94779" lon="7.14726">
        <ele>514.40002441406</ele>
        <time>2019-06-01T11:14:31.000Z</time>
      </trkpt>
      <trkpt lat="43.94779" lon="7.14728">
        <ele>514.40002441406</ele>
        <time>2019-06-01T11:14:32.000Z</time>
      </trkpt>
      <trkpt lat="43.94779" lon="7.14735">
        <ele>514.79998779297</ele>
        <time>2019-06-01T11:14:35.000Z</time>
      </trkpt>
      <trkpt lat="43.94779" lon="7.14741">
        <ele>515.40002441406</ele>
        <time>2019-06-01T11:14:38.000Z</time>
      </trkpt>
      <trkpt lat="43.94779" lon="7.14742">
        <ele>515.40002441406</ele>
        <time>2019-06-01T11:14:39.000Z</time>
      </trkpt>
      <trkpt lat="43.94779" lon="7.14741">
        <ele>515.59997558594</ele>
        <time>2019-06-01T11:14:40.000Z</time>
      </trkpt>
      <trkpt lat="43.94779" lon="7.14741">
        <ele>515.79998779297</ele>
        <time>2019-06-01T11:14:42.000Z</time>
      </trkpt>
      <trkpt lat="43.94782" lon="7.14742">
        <ele>515.20001220703</ele>
        <time>2019-06-01T11:14:50.000Z</time>
      </trkpt>
      <trkpt lat="43.94783" lon="7.14743">
        <ele>515.40002441406</ele>
        <time>2019-06-01T11:14:57.000Z</time>
      </trkpt>
      <trkpt lat="43.94784" lon="7.14745">
        <ele>516</ele>
        <time>2019-06-01T11:15:04.000Z</time>
      </trkpt>
      <trkpt lat="43.94787" lon="7.14757">
        <ele>516</ele>
        <time>2019-06-01T11:15:10.000Z</time>
      </trkpt>
      <trkpt lat="43.94788" lon="7.14766">
        <ele>516.79998779297</ele>
        <time>2019-06-01T11:15:14.000Z</time>
      </trkpt>
      <trkpt lat="43.94791" lon="7.14781">
        <ele>517.40002441406</ele>
        <time>2019-06-01T11:15:20.000Z</time>
      </trkpt>
      <trkpt lat="43.94793" lon="7.14789">
        <ele>517.79998779297</ele>
        <time>2019-06-01T11:15:23.000Z</time>
      </trkpt>
      <trkpt lat="43.94793" lon="7.14797">
        <ele>518.20001220703</ele>
        <time>2019-06-01T11:15:26.000Z</time>
      </trkpt>
      <trkpt lat="43.94793" lon="7.148">
        <ele>518.40002441406</ele>
        <time>2019-06-01T11:15:27.000Z</time>
      </trkpt>
      <trkpt lat="43.94793" lon="7.14806">
        <ele>518.79998779297</ele>
        <time>2019-06-01T11:15:29.000Z</time>
      </trkpt>
      <trkpt lat="43.94789" lon="7.1482">
        <ele>519.59997558594</ele>
        <time>2019-06-01T11:15:35.000Z</time>
      </trkpt>
      <trkpt lat="43.94786" lon="7.14824">
        <ele>519.79998779297</ele>
        <time>2019-06-01T11:15:37.000Z</time>
      </trkpt>
      <trkpt lat="43.94781" lon="7.1483">
        <ele>520.59997558594</ele>
        <time>2019-06-01T11:15:41.000Z</time>
      </trkpt>
      <trkpt lat="43.94777" lon="7.14832">
        <ele>521</ele>
        <time>2019-06-01T11:15:44.000Z</time>
      </trkpt>
      <trkpt lat="43.9477" lon="7.14837">
        <ele>521.59997558594</ele>
        <time>2019-06-01T11:15:49.000Z</time>
      </trkpt>
      <trkpt lat="43.94765" lon="7.14842">
        <ele>522.20001220703</ele>
        <time>2019-06-01T11:15:53.000Z</time>
      </trkpt>
      <trkpt lat="43.94761" lon="7.14849">
        <ele>522.59997558594</ele>
        <time>2019-06-01T11:15:57.000Z</time>
      </trkpt>
      <trkpt lat="43.94757" lon="7.14856">
        <ele>523.20001220703</ele>
        <time>2019-06-01T11:16:01.000Z</time>
      </trkpt>
      <trkpt lat="43.94753" lon="7.14863">
        <ele>523.59997558594</ele>
        <time>2019-06-01T11:16:05.000Z</time>
      </trkpt>
      <trkpt lat="43.94747" lon="7.14873">
        <ele>524.20001220703</ele>
        <time>2019-06-01T11:16:11.000Z</time>
      </trkpt>
      <trkpt lat="43.94744" lon="7.14878">
        <ele>524.59997558594</ele>
        <time>2019-06-01T11:16:14.000Z</time>
      </trkpt>
      <trkpt lat="43.9474" lon="7.14888">
        <ele>525.40002441406</ele>
        <time>2019-06-01T11:16:19.000Z</time>
      </trkpt>
      <trkpt lat="43.94738" lon="7.14897">
        <ele>525.79998779297</ele>
        <time>2019-06-01T11:16:23.000Z</time>
      </trkpt>
      <trkpt lat="43.94736" lon="7.14906">
        <ele>526.40002441406</ele>
        <time>2019-06-01T11:16:27.000Z</time>
      </trkpt>
      <trkpt lat="43.94733" lon="7.14919">
        <ele>527.20001220703</ele>
        <time>2019-06-01T11:16:33.000Z</time>
      </trkpt>
      <trkpt lat="43.94732" lon="7.14926">
        <ele>527.59997558594</ele>
        <time>2019-06-01T11:16:36.000Z</time>
      </trkpt>
      <trkpt lat="43.94729" lon="7.1494">
        <ele>528.40002441406</ele>
        <time>2019-06-01T11:16:42.000Z</time>
      </trkpt>
      <trkpt lat="43.94728" lon="7.14946">
        <ele>528.79998779297</ele>
        <time>2019-06-01T11:16:45.000Z</time>
      </trkpt>
      <trkpt lat="43.94726" lon="7.1496">
        <ele>529.40002441406</ele>
        <time>2019-06-01T11:16:51.000Z</time>
      </trkpt>
      <trkpt lat="43.94726" lon="7.14968">
        <ele>529.79998779297</ele>
        <time>2019-06-01T11:16:54.000Z</time>
      </trkpt>
      <trkpt lat="43.94726" lon="7.14979">
        <ele>530.59997558594</ele>
        <time>2019-06-01T11:16:59.000Z</time>
      </trkpt>
      <trkpt lat="43.94725" lon="7.14986">
        <ele>531</ele>
        <time>2019-06-01T11:17:02.000Z</time>
      </trkpt>
      <trkpt lat="43.94726" lon="7.14996">
        <ele>531.59997558594</ele>
        <time>2019-06-01T11:17:06.000Z</time>
      </trkpt>
      <trkpt lat="43.94727" lon="7.15003">
        <ele>532</ele>
        <time>2019-06-01T11:17:09.000Z</time>
      </trkpt>
      <trkpt lat="43.94729" lon="7.15014">
        <ele>532.79998779297</ele>
        <time>2019-06-01T11:17:14.000Z</time>
      </trkpt>
      <trkpt lat="43.94731" lon="7.15024">
        <ele>533</ele>
        <time>2019-06-01T11:17:18.000Z</time>
      </trkpt>
      <trkpt lat="43.94731" lon="7.15037">
        <ele>533.59997558594</ele>
        <time>2019-06-01T11:17:23.000Z</time>
      </trkpt>
      <trkpt lat="43.94728" lon="7.1505">
        <ele>534.20001220703</ele>
        <time>2019-06-01T11:17:29.000Z</time>
      </trkpt>
      <trkpt lat="43.94728" lon="7.15053">
        <ele>534.20001220703</ele>
        <time>2019-06-01T11:17:30.000Z</time>
      </trkpt>
      <trkpt lat="43.94724" lon="7.15069">
        <ele>535.20001220703</ele>
        <time>2019-06-01T11:17:37.000Z</time>
      </trkpt>
      <trkpt lat="43.94723" lon="7.15071">
        <ele>535.40002441406</ele>
        <time>2019-06-01T11:17:38.000Z</time>
      </trkpt>
      <trkpt lat="43.94717" lon="7.15082">
        <ele>536.20001220703</ele>
        <time>2019-06-01T11:17:44.000Z</time>
      </trkpt>
      <trkpt lat="43.94712" lon="7.15088">
        <ele>536.79998779297</ele>
        <time>2019-06-01T11:17:48.000Z</time>
      </trkpt>
      <trkpt lat="43.94704" lon="7.15096">
        <ele>537.20001220703</ele>
        <time>2019-06-01T11:17:54.000Z</time>
      </trkpt>
      <trkpt lat="43.94697" lon="7.15103">
        <ele>537.59997558594</ele>
        <time>2019-06-01T11:17:59.000Z</time>
      </trkpt>
      <trkpt lat="43.94685" lon="7.15113">
        <ele>538.40002441406</ele>
        <time>2019-06-01T11:18:07.000Z</time>
      </trkpt>
      <trkpt lat="43.94683" lon="7.15115">
        <ele>538.40002441406</ele>
        <time>2019-06-01T11:18:08.000Z</time>
      </trkpt>
      <trkpt lat="43.94682" lon="7.15117">
        <ele>538.59997558594</ele>
        <time>2019-06-01T11:18:09.000Z</time>
      </trkpt>
      <trkpt lat="43.94678" lon="7.15123">
        <ele>539</ele>
        <time>2019-06-01T11:18:13.000Z</time>
      </trkpt>
      <trkpt lat="43.94678" lon="7.15137">
        <ele>539.40002441406</ele>
        <time>2019-06-01T11:18:19.000Z</time>
      </trkpt>
      <trkpt lat="43.94688" lon="7.15152">
        <ele>539.79998779297</ele>
        <time>2019-06-01T11:18:27.000Z</time>
      </trkpt>
      <trkpt lat="43.94686" lon="7.15147">
        <ele>539.40002441406</ele>
        <time>2019-06-01T11:18:30.000Z</time>
      </trkpt>
      <trkpt lat="43.94682" lon="7.15149">
        <ele>539.40002441406</ele>
        <time>2019-06-01T11:18:34.000Z</time>
      </trkpt>
      <trkpt lat="43.94682" lon="7.15149">
        <ele>539.79998779297</ele>
        <time>2019-06-01T11:18:42.000Z</time>
      </trkpt>
      <trkpt lat="43.94682" lon="7.15151">
        <ele>540</ele>
        <time>2019-06-01T11:19:00.000Z</time>
      </trkpt>
      <trkpt lat="43.94684" lon="7.15154">
        <ele>539.79998779297</ele>
        <time>2019-06-01T11:19:12.000Z</time>
      </trkpt>
      <trkpt lat="43.94694" lon="7.15162">
        <ele>539.59997558594</ele>
        <time>2019-06-01T11:19:18.000Z</time>
      </trkpt>
      <trkpt lat="43.94711" lon="7.15172">
        <ele>539</ele>
        <time>2019-06-01T11:19:26.000Z</time>
      </trkpt>
      <trkpt lat="43.94725" lon="7.15165">
        <ele>538.79998779297</ele>
        <time>2019-06-01T11:19:30.000Z</time>
      </trkpt>
      <trkpt lat="43.94736" lon="7.15157">
        <ele>538.20001220703</ele>
        <time>2019-06-01T11:19:33.000Z</time>
      </trkpt>
      <trkpt lat="43.94751" lon="7.15148">
        <ele>537.20001220703</ele>
        <time>2019-06-01T11:19:37.000Z</time>
      </trkpt>
      <trkpt lat="43.94755" lon="7.15145">
        <ele>536.79998779297</ele>
        <time>2019-06-01T11:19:38.000Z</time>
      </trkpt>
      <trkpt lat="43.94769" lon="7.1513">
        <ele>536.20001220703</ele>
        <time>2019-06-01T11:19:42.000Z</time>
      </trkpt>
      <trkpt lat="43.94773" lon="7.15126">
        <ele>536</ele>
        <time>2019-06-01T11:19:43.000Z</time>
      </trkpt>
      <trkpt lat="43.94775" lon="7.15121">
        <ele>536</ele>
        <time>2019-06-01T11:19:44.000Z</time>
      </trkpt>
      <trkpt lat="43.94784" lon="7.15107">
        <ele>535.59997558594</ele>
        <time>2019-06-01T11:19:47.000Z</time>
      </trkpt>
      <trkpt lat="43.94793" lon="7.15097">
        <ele>535</ele>
        <time>2019-06-01T11:19:50.000Z</time>
      </trkpt>
      <trkpt lat="43.948" lon="7.15088">
        <ele>534.79998779297</ele>
        <time>2019-06-01T11:19:52.000Z</time>
      </trkpt>
      <trkpt lat="43.94809" lon="7.15082">
        <ele>534.40002441406</ele>
        <time>2019-06-01T11:19:54.000Z</time>
      </trkpt>
      <trkpt lat="43.94819" lon="7.15078">
        <ele>534.20001220703</ele>
        <time>2019-06-01T11:19:56.000Z</time>
      </trkpt>
      <trkpt lat="43.94825" lon="7.15077">
        <ele>533.79998779297</ele>
        <time>2019-06-01T11:19:57.000Z</time>
      </trkpt>
      <trkpt lat="43.9483" lon="7.15076">
        <ele>533.40002441406</ele>
        <time>2019-06-01T11:19:58.000Z</time>
      </trkpt>
      <trkpt lat="43.94845" lon="7.15075">
        <ele>532.40002441406</ele>
        <time>2019-06-01T11:20:01.000Z</time>
      </trkpt>
      <trkpt lat="43.94848" lon="7.15075">
        <ele>532.20001220703</ele>
        <time>2019-06-01T11:20:02.000Z</time>
      </trkpt>
      <trkpt lat="43.94856" lon="7.15077">
        <ele>531.40002441406</ele>
        <time>2019-06-01T11:20:07.000Z</time>
      </trkpt>
      <trkpt lat="43.94856" lon="7.15077">
        <ele>531.40002441406</ele>
        <time>2019-06-01T11:20:14.000Z</time>
      </trkpt>
      <trkpt lat="43.94856" lon="7.15077">
        <ele>531.79998779297</ele>
        <time>2019-06-01T11:20:23.000Z</time>
      </trkpt>
      <trkpt lat="43.94856" lon="7.15077">
        <ele>531.79998779297</ele>
        <time>2019-06-01T11:20:37.000Z</time>
      </trkpt>
      <trkpt lat="43.94857" lon="7.15077">
        <ele>531.20001220703</ele>
        <time>2019-06-01T11:20:44.000Z</time>
      </trkpt>
      <trkpt lat="43.94856" lon="7.15077">
        <ele>531.40002441406</ele>
        <time>2019-06-01T11:20:52.000Z</time>
      </trkpt>
      <trkpt lat="43.94856" lon="7.15078">
        <ele>531.20001220703</ele>
        <time>2019-06-01T11:21:02.000Z</time>
      </trkpt>
      <trkpt lat="43.94856" lon="7.15078">
        <ele>531.20001220703</ele>
        <time>2019-06-01T11:21:08.000Z</time>
      </trkpt>
      <trkpt lat="43.94856" lon="7.15079">
        <ele>532</ele>
        <time>2019-06-01T11:21:17.000Z</time>
      </trkpt>
      <trkpt lat="43.94857" lon="7.1508">
        <ele>530.59997558594</ele>
        <time>2019-06-01T11:21:25.000Z</time>
      </trkpt>
      <trkpt lat="43.94862" lon="7.1508">
        <ele>530.59997558594</ele>
        <time>2019-06-01T11:21:37.000Z</time>
      </trkpt>
      <trkpt lat="43.94864" lon="7.15081">
        <ele>530.20001220703</ele>
        <time>2019-06-01T11:21:40.000Z</time>
      </trkpt>
      <trkpt lat="43.94868" lon="7.15083">
        <ele>529</ele>
        <time>2019-06-01T11:21:44.000Z</time>
      </trkpt>
      <trkpt lat="43.94875" lon="7.15084">
        <ele>527.59997558594</ele>
        <time>2019-06-01T11:21:47.000Z</time>
      </trkpt>
      <trkpt lat="43.94881" lon="7.15083">
        <ele>526.40002441406</ele>
        <time>2019-06-01T11:21:49.000Z</time>
      </trkpt>
      <trkpt lat="43.94887" lon="7.15082">
        <ele>525</ele>
        <time>2019-06-01T11:21:51.000Z</time>
      </trkpt>
      <trkpt lat="43.94897" lon="7.15081">
        <ele>523.40002441406</ele>
        <time>2019-06-01T11:21:53.000Z</time>
      </trkpt>
      <trkpt lat="43.94901" lon="7.15079">
        <ele>522.20001220703</ele>
        <time>2019-06-01T11:21:54.000Z</time>
      </trkpt>
      <trkpt lat="43.94905" lon="7.15077">
        <ele>521.20001220703</ele>
        <time>2019-06-01T11:21:55.000Z</time>
      </trkpt>
      <trkpt lat="43.9491" lon="7.15067">
        <ele>519.20001220703</ele>
        <time>2019-06-01T11:21:57.000Z</time>
      </trkpt>
      <trkpt lat="43.94913" lon="7.15056">
        <ele>517.20001220703</ele>
        <time>2019-06-01T11:21:59.000Z</time>
      </trkpt>
      <trkpt lat="43.94918" lon="7.15045">
        <ele>516.20001220703</ele>
        <time>2019-06-01T11:22:01.000Z</time>
      </trkpt>
      <trkpt lat="43.94927" lon="7.15039">
        <ele>514.79998779297</ele>
        <time>2019-06-01T11:22:05.000Z</time>
      </trkpt>
      <trkpt lat="43.94929" lon="7.15038">
        <ele>514.79998779297</ele>
        <time>2019-06-01T11:22:06.000Z</time>
      </trkpt>
      <trkpt lat="43.94939" lon="7.1504">
        <ele>513.59997558594</ele>
        <time>2019-06-01T11:22:11.000Z</time>
      </trkpt>
      <trkpt lat="43.94942" lon="7.15043">
        <ele>513.40002441406</ele>
        <time>2019-06-01T11:22:12.000Z</time>
      </trkpt>
      <trkpt lat="43.94954" lon="7.15055">
        <ele>512</ele>
        <time>2019-06-01T11:22:16.000Z</time>
      </trkpt>
      <trkpt lat="43.94959" lon="7.15061">
        <ele>510.79998779297</ele>
        <time>2019-06-01T11:22:18.000Z</time>
      </trkpt>
      <trkpt lat="43.9496" lon="7.15064">
        <ele>510.20001220703</ele>
        <time>2019-06-01T11:22:19.000Z</time>
      </trkpt>
      <trkpt lat="43.94962" lon="7.15065">
        <ele>509.39999389648</ele>
        <time>2019-06-01T11:22:20.000Z</time>
      </trkpt>
      <trkpt lat="43.94967" lon="7.15066">
        <ele>508.39999389648</ele>
        <time>2019-06-01T11:22:22.000Z</time>
      </trkpt>
      <trkpt lat="43.9497" lon="7.15066">
        <ele>507.79998779297</ele>
        <time>2019-06-01T11:22:23.000Z</time>
      </trkpt>
      <trkpt lat="43.94974" lon="7.15066">
        <ele>507.20001220703</ele>
        <time>2019-06-01T11:22:24.000Z</time>
      </trkpt>
      <trkpt lat="43.94985" lon="7.15062">
        <ele>505.60000610352</ele>
        <time>2019-06-01T11:22:27.000Z</time>
      </trkpt>
      <trkpt lat="43.94988" lon="7.15059">
        <ele>504.79998779297</ele>
        <time>2019-06-01T11:22:28.000Z</time>
      </trkpt>
      <trkpt lat="43.94992" lon="7.15057">
        <ele>504.20001220703</ele>
        <time>2019-06-01T11:22:29.000Z</time>
      </trkpt>
      <trkpt lat="43.94999" lon="7.15053">
        <ele>502.39999389648</ele>
        <time>2019-06-01T11:22:31.000Z</time>
      </trkpt>
      <trkpt lat="43.95005" lon="7.1505">
        <ele>500.79998779297</ele>
        <time>2019-06-01T11:22:33.000Z</time>
      </trkpt>
      <trkpt lat="43.95008" lon="7.15049">
        <ele>500</ele>
        <time>2019-06-01T11:22:34.000Z</time>
      </trkpt>
      <trkpt lat="43.95011" lon="7.15048">
        <ele>499.60000610352</ele>
        <time>2019-06-01T11:22:35.000Z</time>
      </trkpt>
      <trkpt lat="43.9502" lon="7.15041">
        <ele>498</ele>
        <time>2019-06-01T11:22:38.000Z</time>
      </trkpt>
      <trkpt lat="43.95024" lon="7.15038">
        <ele>497.60000610352</ele>
        <time>2019-06-01T11:22:39.000Z</time>
      </trkpt>
      <trkpt lat="43.95029" lon="7.15034">
        <ele>497</ele>
        <time>2019-06-01T11:22:40.000Z</time>
      </trkpt>
      <trkpt lat="43.95034" lon="7.15032">
        <ele>496.39999389648</ele>
        <time>2019-06-01T11:22:41.000Z</time>
      </trkpt>
      <trkpt lat="43.9504" lon="7.15033">
        <ele>495.60000610352</ele>
        <time>2019-06-01T11:22:42.000Z</time>
      </trkpt>
      <trkpt lat="43.95051" lon="7.1504">
        <ele>493.39999389648</ele>
        <time>2019-06-01T11:22:44.000Z</time>
      </trkpt>
      <trkpt lat="43.95057" lon="7.15044">
        <ele>492.39999389648</ele>
        <time>2019-06-01T11:22:45.000Z</time>
      </trkpt>
      <trkpt lat="43.95061" lon="7.15047">
        <ele>491.20001220703</ele>
        <time>2019-06-01T11:22:46.000Z</time>
      </trkpt>
      <trkpt lat="43.95066" lon="7.15051">
        <ele>489.20001220703</ele>
        <time>2019-06-01T11:22:47.000Z</time>
      </trkpt>
      <trkpt lat="43.9507" lon="7.15054">
        <ele>488.20001220703</ele>
        <time>2019-06-01T11:22:48.000Z</time>
      </trkpt>
      <trkpt lat="43.95072" lon="7.15054">
        <ele>486.39999389648</ele>
        <time>2019-06-01T11:22:49.000Z</time>
      </trkpt>
      <trkpt lat="43.95074" lon="7.15055">
        <ele>485</ele>
        <time>2019-06-01T11:22:50.000Z</time>
      </trkpt>
      <trkpt lat="43.95078" lon="7.15054">
        <ele>483.60000610352</ele>
        <time>2019-06-01T11:22:51.000Z</time>
      </trkpt>
      <trkpt lat="43.95083" lon="7.15054">
        <ele>482.20001220703</ele>
        <time>2019-06-01T11:22:52.000Z</time>
      </trkpt>
      <trkpt lat="43.95089" lon="7.15054">
        <ele>481</ele>
        <time>2019-06-01T11:22:53.000Z</time>
      </trkpt>
      <trkpt lat="43.95101" lon="7.15054">
        <ele>479.79998779297</ele>
        <time>2019-06-01T11:22:55.000Z</time>
      </trkpt>
      <trkpt lat="43.95107" lon="7.15055">
        <ele>479.20001220703</ele>
        <time>2019-06-01T11:22:56.000Z</time>
      </trkpt>
      <trkpt lat="43.95113" lon="7.15053">
        <ele>478.60000610352</ele>
        <time>2019-06-01T11:22:57.000Z</time>
      </trkpt>
      <trkpt lat="43.95128" lon="7.1505">
        <ele>477.20001220703</ele>
        <time>2019-06-01T11:23:00.000Z</time>
      </trkpt>
      <trkpt lat="43.95132" lon="7.15052">
        <ele>476.60000610352</ele>
        <time>2019-06-01T11:23:01.000Z</time>
      </trkpt>
      <trkpt lat="43.9514" lon="7.15058">
        <ele>475.79998779297</ele>
        <time>2019-06-01T11:23:03.000Z</time>
      </trkpt>
      <trkpt lat="43.95148" lon="7.15062">
        <ele>474.79998779297</ele>
        <time>2019-06-01T11:23:05.000Z</time>
      </trkpt>
      <trkpt lat="43.95149" lon="7.15067">
        <ele>474.20001220703</ele>
        <time>2019-06-01T11:23:06.000Z</time>
      </trkpt>
      <trkpt lat="43.95148" lon="7.15071">
        <ele>473.79998779297</ele>
        <time>2019-06-01T11:23:07.000Z</time>
      </trkpt>
      <trkpt lat="43.95143" lon="7.15075">
        <ele>473.20001220703</ele>
        <time>2019-06-01T11:23:09.000Z</time>
      </trkpt>
      <trkpt lat="43.9514" lon="7.15076">
        <ele>473</ele>
        <time>2019-06-01T11:23:10.000Z</time>
      </trkpt>
      <trkpt lat="43.95139" lon="7.15077">
        <ele>472.39999389648</ele>
        <time>2019-06-01T11:23:11.000Z</time>
      </trkpt>
      <trkpt lat="43.95138" lon="7.15079">
        <ele>472</ele>
        <time>2019-06-01T11:23:12.000Z</time>
      </trkpt>
      <trkpt lat="43.95138" lon="7.15079">
        <ele>471.39999389648</ele>
        <time>2019-06-01T11:23:13.000Z</time>
      </trkpt>
      <trkpt lat="43.95138" lon="7.15079">
        <ele>470.79998779297</ele>
        <time>2019-06-01T11:23:14.000Z</time>
      </trkpt>
      <trkpt lat="43.95139" lon="7.1508">
        <ele>470.39999389648</ele>
        <time>2019-06-01T11:23:19.000Z</time>
      </trkpt>
      <trkpt lat="43.95141" lon="7.1508">
        <ele>469.60000610352</ele>
        <time>2019-06-01T11:23:23.000Z</time>
      </trkpt>
      <trkpt lat="43.95141" lon="7.1508">
        <ele>469</ele>
        <time>2019-06-01T11:23:27.000Z</time>
      </trkpt>
      <trkpt lat="43.95144" lon="7.15082">
        <ele>469</ele>
        <time>2019-06-01T11:23:31.000Z</time>
      </trkpt>
      <trkpt lat="43.95147" lon="7.15083">
        <ele>468.79998779297</ele>
        <time>2019-06-01T11:23:32.000Z</time>
      </trkpt>
      <trkpt lat="43.95159" lon="7.15083">
        <ele>468</ele>
        <time>2019-06-01T11:23:36.000Z</time>
      </trkpt>
      <trkpt lat="43.95161" lon="7.15084">
        <ele>467.39999389648</ele>
        <time>2019-06-01T11:23:37.000Z</time>
      </trkpt>
      <trkpt lat="43.95161" lon="7.15086">
        <ele>466.79998779297</ele>
        <time>2019-06-01T11:23:38.000Z</time>
      </trkpt>
      <trkpt lat="43.95157" lon="7.15091">
        <ele>465.79998779297</ele>
        <time>2019-06-01T11:23:40.000Z</time>
      </trkpt>
      <trkpt lat="43.95157" lon="7.15093">
        <ele>465.20001220703</ele>
        <time>2019-06-01T11:23:41.000Z</time>
      </trkpt>
      <trkpt lat="43.9516" lon="7.15095">
        <ele>464.60000610352</ele>
        <time>2019-06-01T11:23:43.000Z</time>
      </trkpt>
      <trkpt lat="43.95173" lon="7.15099">
        <ele>463.39999389648</ele>
        <time>2019-06-01T11:23:47.000Z</time>
      </trkpt>
      <trkpt lat="43.95178" lon="7.15096">
        <ele>462.39999389648</ele>
        <time>2019-06-01T11:23:49.000Z</time>
      </trkpt>
      <trkpt lat="43.95183" lon="7.15093">
        <ele>461.39999389648</ele>
        <time>2019-06-01T11:23:51.000Z</time>
      </trkpt>
      <trkpt lat="43.95185" lon="7.15095">
        <ele>461</ele>
        <time>2019-06-01T11:23:52.000Z</time>
      </trkpt>
      <trkpt lat="43.95183" lon="7.15098">
        <ele>460.39999389648</ele>
        <time>2019-06-01T11:23:53.000Z</time>
      </trkpt>
      <trkpt lat="43.95181" lon="7.151">
        <ele>460.20001220703</ele>
        <time>2019-06-01T11:23:54.000Z</time>
      </trkpt>
      <trkpt lat="43.95179" lon="7.15103">
        <ele>459.79998779297</ele>
        <time>2019-06-01T11:23:55.000Z</time>
      </trkpt>
      <trkpt lat="43.95167" lon="7.15112">
        <ele>458.60000610352</ele>
        <time>2019-06-01T11:23:59.000Z</time>
      </trkpt>
      <trkpt lat="43.95165" lon="7.15117">
        <ele>456.79998779297</ele>
        <time>2019-06-01T11:24:01.000Z</time>
      </trkpt>
      <trkpt lat="43.95167" lon="7.15119">
        <ele>455.79998779297</ele>
        <time>2019-06-01T11:24:02.000Z</time>
      </trkpt>
      <trkpt lat="43.9517" lon="7.1512">
        <ele>455</ele>
        <time>2019-06-01T11:24:03.000Z</time>
      </trkpt>
      <trkpt lat="43.95176" lon="7.15119">
        <ele>453.79998779297</ele>
        <time>2019-06-01T11:24:05.000Z</time>
      </trkpt>
      <trkpt lat="43.9518" lon="7.15115">
        <ele>453.20001220703</ele>
        <time>2019-06-01T11:24:06.000Z</time>
      </trkpt>
      <trkpt lat="43.95183" lon="7.15114">
        <ele>452.39999389648</ele>
        <time>2019-06-01T11:24:07.000Z</time>
      </trkpt>
      <trkpt lat="43.95185" lon="7.15116">
        <ele>451.39999389648</ele>
        <time>2019-06-01T11:24:08.000Z</time>
      </trkpt>
      <trkpt lat="43.95185" lon="7.15119">
        <ele>450.79998779297</ele>
        <time>2019-06-01T11:24:09.000Z</time>
      </trkpt>
      <trkpt lat="43.95184" lon="7.15123">
        <ele>450.39999389648</ele>
        <time>2019-06-01T11:24:10.000Z</time>
      </trkpt>
      <trkpt lat="43.95182" lon="7.15126">
        <ele>449.60000610352</ele>
        <time>2019-06-01T11:24:11.000Z</time>
      </trkpt>
      <trkpt lat="43.95181" lon="7.15131">
        <ele>448.20001220703</ele>
        <time>2019-06-01T11:24:13.000Z</time>
      </trkpt>
      <trkpt lat="43.95181" lon="7.15133">
        <ele>447.39999389648</ele>
        <time>2019-06-01T11:24:14.000Z</time>
      </trkpt>
      <trkpt lat="43.95181" lon="7.15136">
        <ele>446.79998779297</ele>
        <time>2019-06-01T11:24:15.000Z</time>
      </trkpt>
      <trkpt lat="43.95175" lon="7.15141">
        <ele>445.60000610352</ele>
        <time>2019-06-01T11:24:17.000Z</time>
      </trkpt>
      <trkpt lat="43.95171" lon="7.15142">
        <ele>445</ele>
        <time>2019-06-01T11:24:18.000Z</time>
      </trkpt>
      <trkpt lat="43.95167" lon="7.15144">
        <ele>444.39999389648</ele>
        <time>2019-06-01T11:24:19.000Z</time>
      </trkpt>
      <trkpt lat="43.95159" lon="7.15148">
        <ele>442.60000610352</ele>
        <time>2019-06-01T11:24:21.000Z</time>
      </trkpt>
      <trkpt lat="43.95151" lon="7.15152">
        <ele>441.20001220703</ele>
        <time>2019-06-01T11:24:23.000Z</time>
      </trkpt>
      <trkpt lat="43.95141" lon="7.15154">
        <ele>440.20001220703</ele>
        <time>2019-06-01T11:24:25.000Z</time>
      </trkpt>
      <trkpt lat="43.95137" lon="7.15158">
        <ele>439.39999389648</ele>
        <time>2019-06-01T11:24:26.000Z</time>
      </trkpt>
      <trkpt lat="43.95133" lon="7.15163">
        <ele>439.20001220703</ele>
        <time>2019-06-01T11:24:27.000Z</time>
      </trkpt>
      <trkpt lat="43.95131" lon="7.15177">
        <ele>437.79998779297</ele>
        <time>2019-06-01T11:24:29.000Z</time>
      </trkpt>
      <trkpt lat="43.9513" lon="7.15185">
        <ele>437.20001220703</ele>
        <time>2019-06-01T11:24:30.000Z</time>
      </trkpt>
      <trkpt lat="43.95131" lon="7.15192">
        <ele>436.39999389648</ele>
        <time>2019-06-01T11:24:31.000Z</time>
      </trkpt>
      <trkpt lat="43.9513" lon="7.15195">
        <ele>435.39999389648</ele>
        <time>2019-06-01T11:24:32.000Z</time>
      </trkpt>
      <trkpt lat="43.9513" lon="7.15197">
        <ele>434</ele>
        <time>2019-06-01T11:24:33.000Z</time>
      </trkpt>
      <trkpt lat="43.95132" lon="7.15198">
        <ele>432.60000610352</ele>
        <time>2019-06-01T11:24:35.000Z</time>
      </trkpt>
      <trkpt lat="43.95136" lon="7.15197">
        <ele>431.20001220703</ele>
        <time>2019-06-01T11:24:37.000Z</time>
      </trkpt>
      <trkpt lat="43.95138" lon="7.15201">
        <ele>430.39999389648</ele>
        <time>2019-06-01T11:24:39.000Z</time>
      </trkpt>
      <trkpt lat="43.95137" lon="7.15204">
        <ele>430</ele>
        <time>2019-06-01T11:24:40.000Z</time>
      </trkpt>
      <trkpt lat="43.95134" lon="7.15206">
        <ele>429.39999389648</ele>
        <time>2019-06-01T11:24:41.000Z</time>
      </trkpt>
      <trkpt lat="43.95132" lon="7.15208">
        <ele>429</ele>
        <time>2019-06-01T11:24:42.000Z</time>
      </trkpt>
      <trkpt lat="43.95132" lon="7.1521">
        <ele>428.39999389648</ele>
        <time>2019-06-01T11:24:43.000Z</time>
      </trkpt>
      <trkpt lat="43.95135" lon="7.15216">
        <ele>427.79998779297</ele>
        <time>2019-06-01T11:24:45.000Z</time>
      </trkpt>
      <trkpt lat="43.95144" lon="7.15221">
        <ele>426.60000610352</ele>
        <time>2019-06-01T11:24:47.000Z</time>
      </trkpt>
      <trkpt lat="43.95152" lon="7.15226">
        <ele>424.39999389648</ele>
        <time>2019-06-01T11:24:49.000Z</time>
      </trkpt>
      <trkpt lat="43.95153" lon="7.15233">
        <ele>422.79998779297</ele>
        <time>2019-06-01T11:24:51.000Z</time>
      </trkpt>
      <trkpt lat="43.95148" lon="7.15237">
        <ele>420.60000610352</ele>
        <time>2019-06-01T11:24:53.000Z</time>
      </trkpt>
      <trkpt lat="43.9515" lon="7.15241">
        <ele>419.60000610352</ele>
        <time>2019-06-01T11:24:55.000Z</time>
      </trkpt>
      <trkpt lat="43.95155" lon="7.15246">
        <ele>418.60000610352</ele>
        <time>2019-06-01T11:24:56.000Z</time>
      </trkpt>
      <trkpt lat="43.95158" lon="7.15252">
        <ele>418</ele>
        <time>2019-06-01T11:24:57.000Z</time>
      </trkpt>
      <trkpt lat="43.95163" lon="7.15262">
        <ele>416.60000610352</ele>
        <time>2019-06-01T11:24:59.000Z</time>
      </trkpt>
      <trkpt lat="43.95165" lon="7.15267">
        <ele>416.39999389648</ele>
        <time>2019-06-01T11:25:00.000Z</time>
      </trkpt>
      <trkpt lat="43.9517" lon="7.1527">
        <ele>415.60000610352</ele>
        <time>2019-06-01T11:25:01.000Z</time>
      </trkpt>
      <trkpt lat="43.95175" lon="7.15273">
        <ele>415</ele>
        <time>2019-06-01T11:25:02.000Z</time>
      </trkpt>
      <trkpt lat="43.95178" lon="7.15276">
        <ele>414.39999389648</ele>
        <time>2019-06-01T11:25:03.000Z</time>
      </trkpt>
      <trkpt lat="43.95181" lon="7.15278">
        <ele>413.60000610352</ele>
        <time>2019-06-01T11:25:04.000Z</time>
      </trkpt>
      <trkpt lat="43.95181" lon="7.15282">
        <ele>412.60000610352</ele>
        <time>2019-06-01T11:25:05.000Z</time>
      </trkpt>
      <trkpt lat="43.95178" lon="7.15285">
        <ele>411.79998779297</ele>
        <time>2019-06-01T11:25:06.000Z</time>
      </trkpt>
      <trkpt lat="43.95177" lon="7.15288">
        <ele>410.79998779297</ele>
        <time>2019-06-01T11:25:07.000Z</time>
      </trkpt>
      <trkpt lat="43.95179" lon="7.1529">
        <ele>410</ele>
        <time>2019-06-01T11:25:08.000Z</time>
      </trkpt>
      <trkpt lat="43.95182" lon="7.15291">
        <ele>409.39999389648</ele>
        <time>2019-06-01T11:25:09.000Z</time>
      </trkpt>
      <trkpt lat="43.95186" lon="7.15291">
        <ele>409</ele>
        <time>2019-06-01T11:25:10.000Z</time>
      </trkpt>
      <trkpt lat="43.9519" lon="7.15291">
        <ele>407.60000610352</ele>
        <time>2019-06-01T11:25:11.000Z</time>
      </trkpt>
      <trkpt lat="43.95193" lon="7.15293">
        <ele>406.60000610352</ele>
        <time>2019-06-01T11:25:12.000Z</time>
      </trkpt>
      <trkpt lat="43.95198" lon="7.153">
        <ele>405</ele>
        <time>2019-06-01T11:25:14.000Z</time>
      </trkpt>
      <trkpt lat="43.95203" lon="7.15307">
        <ele>404.20001220703</ele>
        <time>2019-06-01T11:25:16.000Z</time>
      </trkpt>
      <trkpt lat="43.95206" lon="7.15312">
        <ele>403.39999389648</ele>
        <time>2019-06-01T11:25:17.000Z</time>
      </trkpt>
      <trkpt lat="43.95209" lon="7.15321">
        <ele>402</ele>
        <time>2019-06-01T11:25:19.000Z</time>
      </trkpt>
      <trkpt lat="43.95211" lon="7.15326">
        <ele>401.60000610352</ele>
        <time>2019-06-01T11:25:20.000Z</time>
      </trkpt>
      <trkpt lat="43.95215" lon="7.1533">
        <ele>400.39999389648</ele>
        <time>2019-06-01T11:25:21.000Z</time>
      </trkpt>
      <trkpt lat="43.9522" lon="7.15336">
        <ele>398.60000610352</ele>
        <time>2019-06-01T11:25:23.000Z</time>
      </trkpt>
      <trkpt lat="43.95216" lon="7.1534">
        <ele>397</ele>
        <time>2019-06-01T11:25:25.000Z</time>
      </trkpt>
      <trkpt lat="43.95214" lon="7.15344">
        <ele>396.20001220703</ele>
        <time>2019-06-01T11:25:26.000Z</time>
      </trkpt>
      <trkpt lat="43.95213" lon="7.15348">
        <ele>395.39999389648</ele>
        <time>2019-06-01T11:25:27.000Z</time>
      </trkpt>
      <trkpt lat="43.95216" lon="7.15358">
        <ele>394.39999389648</ele>
        <time>2019-06-01T11:25:29.000Z</time>
      </trkpt>
      <trkpt lat="43.95223" lon="7.15363">
        <ele>393.20001220703</ele>
        <time>2019-06-01T11:25:31.000Z</time>
      </trkpt>
      <trkpt lat="43.95228" lon="7.15362">
        <ele>392.60000610352</ele>
        <time>2019-06-01T11:25:32.000Z</time>
      </trkpt>
      <trkpt lat="43.95232" lon="7.1536">
        <ele>391.79998779297</ele>
        <time>2019-06-01T11:25:33.000Z</time>
      </trkpt>
      <trkpt lat="43.95238" lon="7.15352">
        <ele>390.20001220703</ele>
        <time>2019-06-01T11:25:35.000Z</time>
      </trkpt>
      <trkpt lat="43.95239" lon="7.15346">
        <ele>388.79998779297</ele>
        <time>2019-06-01T11:25:36.000Z</time>
      </trkpt>
      <trkpt lat="43.95241" lon="7.15342">
        <ele>387.60000610352</ele>
        <time>2019-06-01T11:25:37.000Z</time>
      </trkpt>
      <trkpt lat="43.95243" lon="7.15343">
        <ele>386.60000610352</ele>
        <time>2019-06-01T11:25:38.000Z</time>
      </trkpt>
      <trkpt lat="43.95244" lon="7.15346">
        <ele>386.20001220703</ele>
        <time>2019-06-01T11:25:39.000Z</time>
      </trkpt>
      <trkpt lat="43.95245" lon="7.1535">
        <ele>386</ele>
        <time>2019-06-01T11:25:40.000Z</time>
      </trkpt>
      <trkpt lat="43.95244" lon="7.15356">
        <ele>385.60000610352</ele>
        <time>2019-06-01T11:25:41.000Z</time>
      </trkpt>
      <trkpt lat="43.95244" lon="7.15363">
        <ele>385.20001220703</ele>
        <time>2019-06-01T11:25:42.000Z</time>
      </trkpt>
      <trkpt lat="43.95242" lon="7.15376">
        <ele>384</ele>
        <time>2019-06-01T11:25:44.000Z</time>
      </trkpt>
      <trkpt lat="43.9524" lon="7.15384">
        <ele>383</ele>
        <time>2019-06-01T11:25:46.000Z</time>
      </trkpt>
      <trkpt lat="43.95242" lon="7.15385">
        <ele>381.60000610352</ele>
        <time>2019-06-01T11:25:47.000Z</time>
      </trkpt>
      <trkpt lat="43.95243" lon="7.15384">
        <ele>381.20001220703</ele>
        <time>2019-06-01T11:25:48.000Z</time>
      </trkpt>
      <trkpt lat="43.95246" lon="7.15379">
        <ele>380.39999389648</ele>
        <time>2019-06-01T11:25:50.000Z</time>
      </trkpt>
      <trkpt lat="43.95249" lon="7.15373">
        <ele>379.39999389648</ele>
        <time>2019-06-01T11:25:51.000Z</time>
      </trkpt>
      <trkpt lat="43.95251" lon="7.15369">
        <ele>379</ele>
        <time>2019-06-01T11:25:52.000Z</time>
      </trkpt>
      <trkpt lat="43.95253" lon="7.15372">
        <ele>377.79998779297</ele>
        <time>2019-06-01T11:25:53.000Z</time>
      </trkpt>
      <trkpt lat="43.95253" lon="7.15376">
        <ele>377</ele>
        <time>2019-06-01T11:25:54.000Z</time>
      </trkpt>
      <trkpt lat="43.95253" lon="7.15379">
        <ele>376.60000610352</ele>
        <time>2019-06-01T11:25:55.000Z</time>
      </trkpt>
      <trkpt lat="43.95251" lon="7.15392">
        <ele>375.20001220703</ele>
        <time>2019-06-01T11:25:57.000Z</time>
      </trkpt>
      <trkpt lat="43.9525" lon="7.15397">
        <ele>374.60000610352</ele>
        <time>2019-06-01T11:25:58.000Z</time>
      </trkpt>
      <trkpt lat="43.9525" lon="7.15398">
        <ele>373.79998779297</ele>
        <time>2019-06-01T11:25:59.000Z</time>
      </trkpt>
      <trkpt lat="43.95251" lon="7.154">
        <ele>373.20001220703</ele>
        <time>2019-06-01T11:26:00.000Z</time>
      </trkpt>
      <trkpt lat="43.95254" lon="7.15398">
        <ele>373.79998779297</ele>
        <time>2019-06-01T11:26:01.000Z</time>
      </trkpt>
      <trkpt lat="43.95256" lon="7.15395">
        <ele>373.20001220703</ele>
        <time>2019-06-01T11:26:02.000Z</time>
      </trkpt>
      <trkpt lat="43.95259" lon="7.15391">
        <ele>372.60000610352</ele>
        <time>2019-06-01T11:26:03.000Z</time>
      </trkpt>
      <trkpt lat="43.95262" lon="7.15392">
        <ele>371.20001220703</ele>
        <time>2019-06-01T11:26:05.000Z</time>
      </trkpt>
      <trkpt lat="43.95261" lon="7.15397">
        <ele>370.39999389648</ele>
        <time>2019-06-01T11:26:06.000Z</time>
      </trkpt>
      <trkpt lat="43.9526" lon="7.15401">
        <ele>370</ele>
        <time>2019-06-01T11:26:07.000Z</time>
      </trkpt>
      <trkpt lat="43.9526" lon="7.15404">
        <ele>369.39999389648</ele>
        <time>2019-06-01T11:26:08.000Z</time>
      </trkpt>
      <trkpt lat="43.95262" lon="7.15404">
        <ele>369</ele>
        <time>2019-06-01T11:26:09.000Z</time>
      </trkpt>
      <trkpt lat="43.95263" lon="7.15404">
        <ele>368.20001220703</ele>
        <time>2019-06-01T11:26:10.000Z</time>
      </trkpt>
      <trkpt lat="43.9527" lon="7.15405">
        <ele>366.79998779297</ele>
        <time>2019-06-01T11:26:12.000Z</time>
      </trkpt>
      <trkpt lat="43.95268" lon="7.15411">
        <ele>366</ele>
        <time>2019-06-01T11:26:14.000Z</time>
      </trkpt>
      <trkpt lat="43.95265" lon="7.15413">
        <ele>365.60000610352</ele>
        <time>2019-06-01T11:26:15.000Z</time>
      </trkpt>
      <trkpt lat="43.95265" lon="7.15416">
        <ele>365</ele>
        <time>2019-06-01T11:26:16.000Z</time>
      </trkpt>
      <trkpt lat="43.95268" lon="7.15417">
        <ele>364.39999389648</ele>
        <time>2019-06-01T11:26:17.000Z</time>
      </trkpt>
      <trkpt lat="43.9527" lon="7.15417">
        <ele>363.79998779297</ele>
        <time>2019-06-01T11:26:18.000Z</time>
      </trkpt>
      <trkpt lat="43.95273" lon="7.15415">
        <ele>363.20001220703</ele>
        <time>2019-06-01T11:26:19.000Z</time>
      </trkpt>
      <trkpt lat="43.95276" lon="7.15412">
        <ele>362.39999389648</ele>
        <time>2019-06-01T11:26:20.000Z</time>
      </trkpt>
      <trkpt lat="43.95278" lon="7.15414">
        <ele>361.60000610352</ele>
        <time>2019-06-01T11:26:21.000Z</time>
      </trkpt>
      <trkpt lat="43.95279" lon="7.15419">
        <ele>360.60000610352</ele>
        <time>2019-06-01T11:26:23.000Z</time>
      </trkpt>
      <trkpt lat="43.95277" lon="7.15422">
        <ele>360</ele>
        <time>2019-06-01T11:26:24.000Z</time>
      </trkpt>
      <trkpt lat="43.95271" lon="7.15435">
        <ele>359</ele>
        <time>2019-06-01T11:26:27.000Z</time>
      </trkpt>
      <trkpt lat="43.95272" lon="7.15439">
        <ele>358.20001220703</ele>
        <time>2019-06-01T11:26:29.000Z</time>
      </trkpt>
      <trkpt lat="43.95274" lon="7.1544">
        <ele>357.60000610352</ele>
        <time>2019-06-01T11:26:30.000Z</time>
      </trkpt>
      <trkpt lat="43.95274" lon="7.15443">
        <ele>357</ele>
        <time>2019-06-01T11:26:31.000Z</time>
      </trkpt>
      <trkpt lat="43.95274" lon="7.15446">
        <ele>356.39999389648</ele>
        <time>2019-06-01T11:26:32.000Z</time>
      </trkpt>
      <trkpt lat="43.95271" lon="7.15447">
        <ele>355.60000610352</ele>
        <time>2019-06-01T11:26:33.000Z</time>
      </trkpt>
      <trkpt lat="43.95268" lon="7.15449">
        <ele>355.20001220703</ele>
        <time>2019-06-01T11:26:34.000Z</time>
      </trkpt>
      <trkpt lat="43.95258" lon="7.15455">
        <ele>353.79998779297</ele>
        <time>2019-06-01T11:26:37.000Z</time>
      </trkpt>
      <trkpt lat="43.95255" lon="7.15454">
        <ele>352.60000610352</ele>
        <time>2019-06-01T11:26:38.000Z</time>
      </trkpt>
      <trkpt lat="43.95252" lon="7.15453">
        <ele>351.39999389648</ele>
        <time>2019-06-01T11:26:39.000Z</time>
      </trkpt>
      <trkpt lat="43.9525" lon="7.15457">
        <ele>349.79998779297</ele>
        <time>2019-06-01T11:26:41.000Z</time>
      </trkpt>
      <trkpt lat="43.95256" lon="7.15466">
        <ele>348.20001220703</ele>
        <time>2019-06-01T11:26:44.000Z</time>
      </trkpt>
      <trkpt lat="43.95258" lon="7.15468">
        <ele>347.60000610352</ele>
        <time>2019-06-01T11:26:45.000Z</time>
      </trkpt>
      <trkpt lat="43.9526" lon="7.1547">
        <ele>347.20001220703</ele>
        <time>2019-06-01T11:26:46.000Z</time>
      </trkpt>
      <trkpt lat="43.95259" lon="7.15475">
        <ele>346.20001220703</ele>
        <time>2019-06-01T11:26:47.000Z</time>
      </trkpt>
      <trkpt lat="43.95257" lon="7.15478">
        <ele>345.20001220703</ele>
        <time>2019-06-01T11:26:48.000Z</time>
      </trkpt>
      <trkpt lat="43.95251" lon="7.15482">
        <ele>344</ele>
        <time>2019-06-01T11:26:50.000Z</time>
      </trkpt>
      <trkpt lat="43.95245" lon="7.15482">
        <ele>342.39999389648</ele>
        <time>2019-06-01T11:26:51.000Z</time>
      </trkpt>
      <trkpt lat="43.95241" lon="7.15482">
        <ele>342</ele>
        <time>2019-06-01T11:26:52.000Z</time>
      </trkpt>
      <trkpt lat="43.95237" lon="7.1548">
        <ele>342.79998779297</ele>
        <time>2019-06-01T11:26:53.000Z</time>
      </trkpt>
      <trkpt lat="43.95229" lon="7.15483">
        <ele>341.20001220703</ele>
        <time>2019-06-01T11:26:55.000Z</time>
      </trkpt>
      <trkpt lat="43.95226" lon="7.15489">
        <ele>340.79998779297</ele>
        <time>2019-06-01T11:26:56.000Z</time>
      </trkpt>
      <trkpt lat="43.95223" lon="7.15494">
        <ele>340</ele>
        <time>2019-06-01T11:26:57.000Z</time>
      </trkpt>
      <trkpt lat="43.95219" lon="7.15503">
        <ele>338.60000610352</ele>
        <time>2019-06-01T11:26:59.000Z</time>
      </trkpt>
      <trkpt lat="43.95219" lon="7.15507">
        <ele>337.79998779297</ele>
        <time>2019-06-01T11:27:00.000Z</time>
      </trkpt>
      <trkpt lat="43.95221" lon="7.1551">
        <ele>337.20001220703</ele>
        <time>2019-06-01T11:27:01.000Z</time>
      </trkpt>
      <trkpt lat="43.95223" lon="7.15514">
        <ele>336</ele>
        <time>2019-06-01T11:27:02.000Z</time>
      </trkpt>
      <trkpt lat="43.95226" lon="7.15524">
        <ele>334.60000610352</ele>
        <time>2019-06-01T11:27:04.000Z</time>
      </trkpt>
      <trkpt lat="43.95228" lon="7.15529">
        <ele>334</ele>
        <time>2019-06-01T11:27:05.000Z</time>
      </trkpt>
      <trkpt lat="43.95232" lon="7.15537">
        <ele>333.60000610352</ele>
        <time>2019-06-01T11:27:06.000Z</time>
      </trkpt>
      <trkpt lat="43.95234" lon="7.15543">
        <ele>333.20001220703</ele>
        <time>2019-06-01T11:27:07.000Z</time>
      </trkpt>
      <trkpt lat="43.95237" lon="7.15547">
        <ele>332.60000610352</ele>
        <time>2019-06-01T11:27:08.000Z</time>
      </trkpt>
      <trkpt lat="43.95245" lon="7.15551">
        <ele>331</ele>
        <time>2019-06-01T11:27:10.000Z</time>
      </trkpt>
      <trkpt lat="43.95251" lon="7.1555">
        <ele>330.20001220703</ele>
        <time>2019-06-01T11:27:11.000Z</time>
      </trkpt>
      <trkpt lat="43.95256" lon="7.15549">
        <ele>330</ele>
        <time>2019-06-01T11:27:12.000Z</time>
      </trkpt>
      <trkpt lat="43.95261" lon="7.15546">
        <ele>328.39999389648</ele>
        <time>2019-06-01T11:27:13.000Z</time>
      </trkpt>
      <trkpt lat="43.95266" lon="7.15536">
        <ele>327</ele>
        <time>2019-06-01T11:27:15.000Z</time>
      </trkpt>
      <trkpt lat="43.95269" lon="7.15531">
        <ele>326.20001220703</ele>
        <time>2019-06-01T11:27:16.000Z</time>
      </trkpt>
      <trkpt lat="43.95273" lon="7.15528">
        <ele>325.79998779297</ele>
        <time>2019-06-01T11:27:17.000Z</time>
      </trkpt>
      <trkpt lat="43.95277" lon="7.1553">
        <ele>324.79998779297</ele>
        <time>2019-06-01T11:27:19.000Z</time>
      </trkpt>
      <trkpt lat="43.95277" lon="7.15532">
        <ele>324.39999389648</ele>
        <time>2019-06-01T11:27:20.000Z</time>
      </trkpt>
      <trkpt lat="43.95274" lon="7.15536">
        <ele>324.20001220703</ele>
        <time>2019-06-01T11:27:21.000Z</time>
      </trkpt>
      <trkpt lat="43.95271" lon="7.15547">
        <ele>323.39999389648</ele>
        <time>2019-06-01T11:27:23.000Z</time>
      </trkpt>
      <trkpt lat="43.95269" lon="7.15552">
        <ele>322.79998779297</ele>
        <time>2019-06-01T11:27:24.000Z</time>
      </trkpt>
      <trkpt lat="43.95267" lon="7.15558">
        <ele>322.20001220703</ele>
        <time>2019-06-01T11:27:25.000Z</time>
      </trkpt>
      <trkpt lat="43.95263" lon="7.15562">
        <ele>321.79998779297</ele>
        <time>2019-06-01T11:27:26.000Z</time>
      </trkpt>
      <trkpt lat="43.95259" lon="7.15565">
        <ele>320.79998779297</ele>
        <time>2019-06-01T11:27:27.000Z</time>
      </trkpt>
      <trkpt lat="43.9525" lon="7.1557">
        <ele>319.79998779297</ele>
        <time>2019-06-01T11:27:29.000Z</time>
      </trkpt>
      <trkpt lat="43.9524" lon="7.15576">
        <ele>318.60000610352</ele>
        <time>2019-06-01T11:27:31.000Z</time>
      </trkpt>
      <trkpt lat="43.9523" lon="7.15581">
        <ele>317</ele>
        <time>2019-06-01T11:27:33.000Z</time>
      </trkpt>
      <trkpt lat="43.95226" lon="7.15583">
        <ele>316.20001220703</ele>
        <time>2019-06-01T11:27:34.000Z</time>
      </trkpt>
      <trkpt lat="43.95216" lon="7.15588">
        <ele>314.60000610352</ele>
        <time>2019-06-01T11:27:36.000Z</time>
      </trkpt>
      <trkpt lat="43.95212" lon="7.15591">
        <ele>313.79998779297</ele>
        <time>2019-06-01T11:27:37.000Z</time>
      </trkpt>
      <trkpt lat="43.95208" lon="7.15594">
        <ele>313.20001220703</ele>
        <time>2019-06-01T11:27:38.000Z</time>
      </trkpt>
      <trkpt lat="43.952" lon="7.156">
        <ele>312</ele>
        <time>2019-06-01T11:27:40.000Z</time>
      </trkpt>
      <trkpt lat="43.95195" lon="7.15602">
        <ele>310.60000610352</ele>
        <time>2019-06-01T11:27:41.000Z</time>
      </trkpt>
      <trkpt lat="43.95186" lon="7.15607">
        <ele>309</ele>
        <time>2019-06-01T11:27:43.000Z</time>
      </trkpt>
      <trkpt lat="43.95178" lon="7.15611">
        <ele>308</ele>
        <time>2019-06-01T11:27:45.000Z</time>
      </trkpt>
      <trkpt lat="43.95171" lon="7.15614">
        <ele>306</ele>
        <time>2019-06-01T11:27:47.000Z</time>
      </trkpt>
      <trkpt lat="43.95169" lon="7.15613">
        <ele>305.39999389648</ele>
        <time>2019-06-01T11:27:48.000Z</time>
      </trkpt>
      <trkpt lat="43.95167" lon="7.1561">
        <ele>303.79998779297</ele>
        <time>2019-06-01T11:27:49.000Z</time>
      </trkpt>
      <trkpt lat="43.95165" lon="7.15609">
        <ele>302.60000610352</ele>
        <time>2019-06-01T11:27:51.000Z</time>
      </trkpt>
      <trkpt lat="43.95164" lon="7.15608">
        <ele>302.20001220703</ele>
        <time>2019-06-01T11:27:52.000Z</time>
      </trkpt>
      <trkpt lat="43.95164" lon="7.15608">
        <ele>301.39999389648</ele>
        <time>2019-06-01T11:27:53.000Z</time>
      </trkpt>
      <trkpt lat="43.95164" lon="7.15608">
        <ele>300.20001220703</ele>
        <time>2019-06-01T11:27:56.000Z</time>
      </trkpt>
      <trkpt lat="43.95163" lon="7.15609">
        <ele>299.60000610352</ele>
        <time>2019-06-01T11:27:59.000Z</time>
      </trkpt>
      <trkpt lat="43.95163" lon="7.15616">
        <ele>299</ele>
        <time>2019-06-01T11:28:05.000Z</time>
      </trkpt>
      <trkpt lat="43.95163" lon="7.15617">
        <ele>298.79998779297</ele>
        <time>2019-06-01T11:28:06.000Z</time>
      </trkpt>
      <trkpt lat="43.95163" lon="7.15617">
        <ele>298.60000610352</ele>
        <time>2019-06-01T11:28:07.000Z</time>
      </trkpt>
      <trkpt lat="43.95161" lon="7.15621">
        <ele>298</ele>
        <time>2019-06-01T11:28:11.000Z</time>
      </trkpt>
      <trkpt lat="43.95162" lon="7.15623">
        <ele>297.79998779297</ele>
        <time>2019-06-01T11:28:13.000Z</time>
      </trkpt>
      <trkpt lat="43.95166" lon="7.1563">
        <ele>297.39999389648</ele>
        <time>2019-06-01T11:28:20.000Z</time>
      </trkpt>
      <trkpt lat="43.95168" lon="7.15638">
        <ele>297.20001220703</ele>
        <time>2019-06-01T11:28:26.000Z</time>
      </trkpt>
      <trkpt lat="43.95168" lon="7.15648">
        <ele>297.39999389648</ele>
        <time>2019-06-01T11:28:33.000Z</time>
      </trkpt>
      <trkpt lat="43.95168" lon="7.15649">
        <ele>297.39999389648</ele>
        <time>2019-06-01T11:28:34.000Z</time>
      </trkpt>
      <trkpt lat="43.95165" lon="7.15653">
        <ele>298</ele>
        <time>2019-06-01T11:28:40.000Z</time>
      </trkpt>
      <trkpt lat="43.95161" lon="7.15657">
        <ele>297.79998779297</ele>
        <time>2019-06-01T11:28:45.000Z</time>
      </trkpt>
      <trkpt lat="43.95159" lon="7.15657">
        <ele>297.79998779297</ele>
        <time>2019-06-01T11:28:46.000Z</time>
      </trkpt>
      <trkpt lat="43.95156" lon="7.15659">
        <ele>297.79998779297</ele>
        <time>2019-06-01T11:28:50.000Z</time>
      </trkpt>
      <trkpt lat="43.9515" lon="7.15663">
        <ele>297.79998779297</ele>
        <time>2019-06-01T11:28:55.000Z</time>
      </trkpt>
      <trkpt lat="43.9515" lon="7.15663">
        <ele>297.60000610352</ele>
        <time>2019-06-01T11:29:00.000Z</time>
      </trkpt>
      <trkpt lat="43.95144" lon="7.15668">
        <ele>297.20001220703</ele>
        <time>2019-06-01T11:29:05.000Z</time>
      </trkpt>
      <trkpt lat="43.95138" lon="7.15679">
        <ele>297</ele>
        <time>2019-06-01T11:29:10.000Z</time>
      </trkpt>
      <trkpt lat="43.95137" lon="7.15683">
        <ele>296.60000610352</ele>
        <time>2019-06-01T11:29:11.000Z</time>
      </trkpt>
      <trkpt lat="43.95134" lon="7.15691">
        <ele>295.60000610352</ele>
        <time>2019-06-01T11:29:13.000Z</time>
      </trkpt>
      <trkpt lat="43.9513" lon="7.15694">
        <ele>295.39999389648</ele>
        <time>2019-06-01T11:29:14.000Z</time>
      </trkpt>
      <trkpt lat="43.95118" lon="7.15704">
        <ele>294.20001220703</ele>
        <time>2019-06-01T11:29:17.000Z</time>
      </trkpt>
      <trkpt lat="43.9511" lon="7.15711">
        <ele>293</ele>
        <time>2019-06-01T11:29:19.000Z</time>
      </trkpt>
      <trkpt lat="43.95102" lon="7.15719">
        <ele>292</ele>
        <time>2019-06-01T11:29:21.000Z</time>
      </trkpt>
      <trkpt lat="43.95092" lon="7.15731">
        <ele>291</ele>
        <time>2019-06-01T11:29:24.000Z</time>
      </trkpt>
      <trkpt lat="43.9508" lon="7.15744">
        <ele>290.60000610352</ele>
        <time>2019-06-01T11:29:28.000Z</time>
      </trkpt>
      <trkpt lat="43.95061" lon="7.1576">
        <ele>290.39999389648</ele>
        <time>2019-06-01T11:29:33.000Z</time>
      </trkpt>
      <trkpt lat="43.95058" lon="7.15762">
        <ele>290</ele>
        <time>2019-06-01T11:29:34.000Z</time>
      </trkpt>
      <trkpt lat="43.9505" lon="7.15766">
        <ele>288.60000610352</ele>
        <time>2019-06-01T11:29:36.000Z</time>
      </trkpt>
      <trkpt lat="43.95031" lon="7.15771">
        <ele>289.20001220703</ele>
        <time>2019-06-01T11:29:41.000Z</time>
      </trkpt>
      <trkpt lat="43.95025" lon="7.15773">
        <ele>290.20001220703</ele>
        <time>2019-06-01T11:29:43.000Z</time>
      </trkpt>
      <trkpt lat="43.95005" lon="7.15782">
        <ele>290.39999389648</ele>
        <time>2019-06-01T11:29:49.000Z</time>
      </trkpt>
      <trkpt lat="43.94997" lon="7.15789">
        <ele>290.79998779297</ele>
        <time>2019-06-01T11:29:52.000Z</time>
      </trkpt>
      <trkpt lat="43.94989" lon="7.158">
        <ele>290.60000610352</ele>
        <time>2019-06-01T11:29:54.000Z</time>
      </trkpt>
      <trkpt lat="43.94984" lon="7.15816">
        <ele>289.60000610352</ele>
        <time>2019-06-01T11:29:56.000Z</time>
      </trkpt>
      <trkpt lat="43.94981" lon="7.15824">
        <ele>288.39999389648</ele>
        <time>2019-06-01T11:29:57.000Z</time>
      </trkpt>
      <trkpt lat="43.94976" lon="7.15831">
        <ele>287.60000610352</ele>
        <time>2019-06-01T11:29:58.000Z</time>
      </trkpt>
      <trkpt lat="43.9497" lon="7.15837">
        <ele>286.20001220703</ele>
        <time>2019-06-01T11:29:59.000Z</time>
      </trkpt>
      <trkpt lat="43.94964" lon="7.15842">
        <ele>285.60000610352</ele>
        <time>2019-06-01T11:30:00.000Z</time>
      </trkpt>
      <trkpt lat="43.94958" lon="7.15843">
        <ele>285</ele>
        <time>2019-06-01T11:30:01.000Z</time>
      </trkpt>
      <trkpt lat="43.94945" lon="7.15836">
        <ele>283.79998779297</ele>
        <time>2019-06-01T11:30:04.000Z</time>
      </trkpt>
      <trkpt lat="43.94942" lon="7.1583">
        <ele>283.60000610352</ele>
        <time>2019-06-01T11:30:05.000Z</time>
      </trkpt>
      <trkpt lat="43.94936" lon="7.15821">
        <ele>282.60000610352</ele>
        <time>2019-06-01T11:30:07.000Z</time>
      </trkpt>
      <trkpt lat="43.94933" lon="7.15822">
        <ele>282.39999389648</ele>
        <time>2019-06-01T11:30:08.000Z</time>
      </trkpt>
      <trkpt lat="43.94928" lon="7.15829">
        <ele>282</ele>
        <time>2019-06-01T11:30:11.000Z</time>
      </trkpt>
      <trkpt lat="43.94928" lon="7.15831">
        <ele>282</ele>
        <time>2019-06-01T11:30:12.000Z</time>
      </trkpt>
      <trkpt lat="43.94926" lon="7.15835">
        <ele>282.60000610352</ele>
        <time>2019-06-01T11:30:15.000Z</time>
      </trkpt>
      <trkpt lat="43.94926" lon="7.15836">
        <ele>283.20001220703</ele>
        <time>2019-06-01T11:30:16.000Z</time>
      </trkpt>
      <trkpt lat="43.94925" lon="7.15837">
        <ele>283.79998779297</ele>
        <time>2019-06-01T11:30:18.000Z</time>
      </trkpt>
      <trkpt lat="43.94924" lon="7.1584">
        <ele>283.60000610352</ele>
        <time>2019-06-01T11:30:21.000Z</time>
      </trkpt>
      <trkpt lat="43.94923" lon="7.15844">
        <ele>283.60000610352</ele>
        <time>2019-06-01T11:30:24.000Z</time>
      </trkpt>
      <trkpt lat="43.94916" lon="7.15858">
        <ele>284</ele>
        <time>2019-06-01T11:30:29.000Z</time>
      </trkpt>
      <trkpt lat="43.9491" lon="7.15866">
        <ele>283.60000610352</ele>
        <time>2019-06-01T11:30:31.000Z</time>
      </trkpt>
      <trkpt lat="43.949" lon="7.15876">
        <ele>283.20001220703</ele>
        <time>2019-06-01T11:30:34.000Z</time>
      </trkpt>
      <trkpt lat="43.94897" lon="7.15879">
        <ele>283.20001220703</ele>
        <time>2019-06-01T11:30:35.000Z</time>
      </trkpt>
      <trkpt lat="43.94882" lon="7.15888">
        <ele>282.60000610352</ele>
        <time>2019-06-01T11:30:39.000Z</time>
      </trkpt>
      <trkpt lat="43.94868" lon="7.15898">
        <ele>282.39999389648</ele>
        <time>2019-06-01T11:30:43.000Z</time>
      </trkpt>
      <trkpt lat="43.94857" lon="7.15902">
        <ele>282.20001220703</ele>
        <time>2019-06-01T11:30:46.000Z</time>
      </trkpt>
      <trkpt lat="43.94848" lon="7.15901">
        <ele>281.79998779297</ele>
        <time>2019-06-01T11:30:48.000Z</time>
      </trkpt>
      <trkpt lat="43.94838" lon="7.15905">
        <ele>281.39999389648</ele>
        <time>2019-06-01T11:30:50.000Z</time>
      </trkpt>
      <trkpt lat="43.94824" lon="7.15911">
        <ele>279.20001220703</ele>
        <time>2019-06-01T11:30:52.000Z</time>
      </trkpt>
      <trkpt lat="43.94817" lon="7.15913">
        <ele>277.79998779297</ele>
        <time>2019-06-01T11:30:53.000Z</time>
      </trkpt>
      <trkpt lat="43.94806" lon="7.15916">
        <ele>276</ele>
        <time>2019-06-01T11:30:55.000Z</time>
      </trkpt>
      <trkpt lat="43.94803" lon="7.15919">
        <ele>275</ele>
        <time>2019-06-01T11:30:56.000Z</time>
      </trkpt>
      <trkpt lat="43.94798" lon="7.15926">
        <ele>273.60000610352</ele>
        <time>2019-06-01T11:30:59.000Z</time>
      </trkpt>
      <trkpt lat="43.94798" lon="7.15929">
        <ele>273.60000610352</ele>
        <time>2019-06-01T11:31:00.000Z</time>
      </trkpt>
      <trkpt lat="43.94795" lon="7.15938">
        <ele>272.39999389648</ele>
        <time>2019-06-01T11:31:02.000Z</time>
      </trkpt>
      <trkpt lat="43.94795" lon="7.15942">
        <ele>271.79998779297</ele>
        <time>2019-06-01T11:31:03.000Z</time>
      </trkpt>
      <trkpt lat="43.94798" lon="7.15955">
        <ele>272.79998779297</ele>
        <time>2019-06-01T11:31:08.000Z</time>
      </trkpt>
      <trkpt lat="43.94799" lon="7.1597">
        <ele>273</ele>
        <time>2019-06-01T11:31:12.000Z</time>
      </trkpt>
      <trkpt lat="43.94797" lon="7.15986">
        <ele>272.20001220703</ele>
        <time>2019-06-01T11:31:16.000Z</time>
      </trkpt>
      <trkpt lat="43.94795" lon="7.15986">
        <ele>272.20001220703</ele>
        <time>2019-06-01T11:31:17.000Z</time>
      </trkpt>
      <trkpt lat="43.94788" lon="7.1599">
        <ele>273.20001220703</ele>
        <time>2019-06-01T11:31:23.000Z</time>
      </trkpt>
      <trkpt lat="43.94787" lon="7.15991">
        <ele>273.60000610352</ele>
        <time>2019-06-01T11:31:24.000Z</time>
      </trkpt>
      <trkpt lat="43.94787" lon="7.15993">
        <ele>274.20001220703</ele>
        <time>2019-06-01T11:31:26.000Z</time>
      </trkpt>
      <trkpt lat="43.94789" lon="7.15994">
        <ele>274.60000610352</ele>
        <time>2019-06-01T11:31:28.000Z</time>
      </trkpt>
      <trkpt lat="43.94792" lon="7.15994">
        <ele>274.60000610352</ele>
        <time>2019-06-01T11:31:30.000Z</time>
      </trkpt>
      <trkpt lat="43.94797" lon="7.15994">
        <ele>275.79998779297</ele>
        <time>2019-06-01T11:31:33.000Z</time>
      </trkpt>
      <trkpt lat="43.948" lon="7.15997">
        <ele>276.79998779297</ele>
        <time>2019-06-01T11:31:36.000Z</time>
      </trkpt>
      <trkpt lat="43.94796" lon="7.16001">
        <ele>277</ele>
        <time>2019-06-01T11:31:40.000Z</time>
      </trkpt>
      <trkpt lat="43.94792" lon="7.16001">
        <ele>278</ele>
        <time>2019-06-01T11:31:43.000Z</time>
      </trkpt>
      <trkpt lat="43.94785" lon="7.16001">
        <ele>278.60000610352</ele>
        <time>2019-06-01T11:31:49.000Z</time>
      </trkpt>
      <trkpt lat="43.94777" lon="7.16003">
        <ele>279.20001220703</ele>
        <time>2019-06-01T11:31:56.000Z</time>
      </trkpt>
      <trkpt lat="43.94776" lon="7.16003">
        <ele>279.39999389648</ele>
        <time>2019-06-01T11:31:57.000Z</time>
      </trkpt>
      <trkpt lat="43.94763" lon="7.16011">
        <ele>280.20001220703</ele>
        <time>2019-06-01T11:32:06.000Z</time>
      </trkpt>
      <trkpt lat="43.9476" lon="7.16013">
        <ele>280.20001220703</ele>
        <time>2019-06-01T11:32:07.000Z</time>
      </trkpt>
      <trkpt lat="43.94744" lon="7.16021">
        <ele>279.20001220703</ele>
        <time>2019-06-01T11:32:13.000Z</time>
      </trkpt>
      <trkpt lat="43.94741" lon="7.16023">
        <ele>278.79998779297</ele>
        <time>2019-06-01T11:32:14.000Z</time>
      </trkpt>
      <trkpt lat="43.94718" lon="7.16036">
        <ele>278</ele>
        <time>2019-06-01T11:32:21.000Z</time>
      </trkpt>
      <trkpt lat="43.94712" lon="7.16041">
        <ele>277.39999389648</ele>
        <time>2019-06-01T11:32:23.000Z</time>
      </trkpt>
      <trkpt lat="43.94686" lon="7.16061">
        <ele>277.79998779297</ele>
        <time>2019-06-01T11:32:31.000Z</time>
      </trkpt>
      <trkpt lat="43.94671" lon="7.1608">
        <ele>277</ele>
        <time>2019-06-01T11:32:36.000Z</time>
      </trkpt>
      <trkpt lat="43.94662" lon="7.16093">
        <ele>276.39999389648</ele>
        <time>2019-06-01T11:32:39.000Z</time>
      </trkpt>
      <trkpt lat="43.94656" lon="7.16102">
        <ele>276</ele>
        <time>2019-06-01T11:32:41.000Z</time>
      </trkpt>
      <trkpt lat="43.94632" lon="7.16138">
        <ele>276.39999389648</ele>
        <time>2019-06-01T11:32:48.000Z</time>
      </trkpt>
      <trkpt lat="43.94614" lon="7.16163">
        <ele>274.79998779297</ele>
        <time>2019-06-01T11:32:53.000Z</time>
      </trkpt>
      <trkpt lat="43.94598" lon="7.16186">
        <ele>273.79998779297</ele>
        <time>2019-06-01T11:32:57.000Z</time>
      </trkpt>
      <trkpt lat="43.94594" lon="7.16192">
        <ele>273.60000610352</ele>
        <time>2019-06-01T11:32:58.000Z</time>
      </trkpt>
      <trkpt lat="43.94566" lon="7.16233">
        <ele>273</ele>
        <time>2019-06-01T11:33:05.000Z</time>
      </trkpt>
      <trkpt lat="43.94552" lon="7.16252">
        <ele>272.60000610352</ele>
        <time>2019-06-01T11:33:08.000Z</time>
      </trkpt>
      <trkpt lat="43.94538" lon="7.1627">
        <ele>271.79998779297</ele>
        <time>2019-06-01T11:33:11.000Z</time>
      </trkpt>
      <trkpt lat="43.94532" lon="7.16276">
        <ele>271.60000610352</ele>
        <time>2019-06-01T11:33:12.000Z</time>
      </trkpt>
      <trkpt lat="43.94527" lon="7.16281">
        <ele>271.39999389648</ele>
        <time>2019-06-01T11:33:13.000Z</time>
      </trkpt>
      <trkpt lat="43.94516" lon="7.16288">
        <ele>271.20001220703</ele>
        <time>2019-06-01T11:33:15.000Z</time>
      </trkpt>
      <trkpt lat="43.94497" lon="7.16297">
        <ele>271</ele>
        <time>2019-06-01T11:33:18.000Z</time>
      </trkpt>
      <trkpt lat="43.94467" lon="7.16301">
        <ele>271</ele>
        <time>2019-06-01T11:33:23.000Z</time>
      </trkpt>
      <trkpt lat="43.94442" lon="7.16299">
        <ele>270.39999389648</ele>
        <time>2019-06-01T11:33:27.000Z</time>
      </trkpt>
      <trkpt lat="43.94418" lon="7.16296">
        <ele>269.60000610352</ele>
        <time>2019-06-01T11:33:31.000Z</time>
      </trkpt>
      <trkpt lat="43.94405" lon="7.16294">
        <ele>269.20001220703</ele>
        <time>2019-06-01T11:33:33.000Z</time>
      </trkpt>
      <trkpt lat="43.94382" lon="7.16286">
        <ele>268.39999389648</ele>
        <time>2019-06-01T11:33:37.000Z</time>
      </trkpt>
      <trkpt lat="43.94361" lon="7.16278">
        <ele>268</ele>
        <time>2019-06-01T11:33:41.000Z</time>
      </trkpt>
      <trkpt lat="43.94341" lon="7.1627">
        <ele>267</ele>
        <time>2019-06-01T11:33:45.000Z</time>
      </trkpt>
      <trkpt lat="43.94337" lon="7.16268">
        <ele>267</ele>
        <time>2019-06-01T11:33:46.000Z</time>
      </trkpt>
      <trkpt lat="43.94311" lon="7.16259">
        <ele>265.60000610352</ele>
        <time>2019-06-01T11:33:52.000Z</time>
      </trkpt>
      <trkpt lat="43.94307" lon="7.16257">
        <ele>265.39999389648</ele>
        <time>2019-06-01T11:33:53.000Z</time>
      </trkpt>
      <trkpt lat="43.94276" lon="7.16247">
        <ele>266.79998779297</ele>
        <time>2019-06-01T11:34:00.000Z</time>
      </trkpt>
      <trkpt lat="43.94262" lon="7.16241">
        <ele>267</ele>
        <time>2019-06-01T11:34:03.000Z</time>
      </trkpt>
      <trkpt lat="43.94246" lon="7.16231">
        <ele>266.60000610352</ele>
        <time>2019-06-01T11:34:07.000Z</time>
      </trkpt>
      <trkpt lat="43.9423" lon="7.16217">
        <ele>266.39999389648</ele>
        <time>2019-06-01T11:34:11.000Z</time>
      </trkpt>
      <trkpt lat="43.94207" lon="7.16194">
        <ele>265.79998779297</ele>
        <time>2019-06-01T11:34:17.000Z</time>
      </trkpt>
      <trkpt lat="43.94198" lon="7.16187">
        <ele>265.60000610352</ele>
        <time>2019-06-01T11:34:19.000Z</time>
      </trkpt>
      <trkpt lat="43.94186" lon="7.16176">
        <ele>265.60000610352</ele>
        <time>2019-06-01T11:34:22.000Z</time>
      </trkpt>
      <trkpt lat="43.9417" lon="7.16161">
        <ele>265.79998779297</ele>
        <time>2019-06-01T11:34:26.000Z</time>
      </trkpt>
      <trkpt lat="43.94139" lon="7.16143">
        <ele>265.39999389648</ele>
        <time>2019-06-01T11:34:33.000Z</time>
      </trkpt>
      <trkpt lat="43.94106" lon="7.16137">
        <ele>264.79998779297</ele>
        <time>2019-06-01T11:34:40.000Z</time>
      </trkpt>
      <trkpt lat="43.94095" lon="7.16135">
        <ele>264.60000610352</ele>
        <time>2019-06-01T11:34:42.000Z</time>
      </trkpt>
      <trkpt lat="43.94059" lon="7.16129">
        <ele>264.60000610352</ele>
        <time>2019-06-01T11:34:49.000Z</time>
      </trkpt>
      <trkpt lat="43.94007" lon="7.16114">
        <ele>264.60000610352</ele>
        <time>2019-06-01T11:34:59.000Z</time>
      </trkpt>
      <trkpt lat="43.93971" lon="7.16104">
        <ele>264.60000610352</ele>
        <time>2019-06-01T11:35:06.000Z</time>
      </trkpt>
      <trkpt lat="43.9396" lon="7.16101">
        <ele>264.39999389648</ele>
        <time>2019-06-01T11:35:08.000Z</time>
      </trkpt>
      <trkpt lat="43.93944" lon="7.16102">
        <ele>264.39999389648</ele>
        <time>2019-06-01T11:35:11.000Z</time>
      </trkpt>
      <trkpt lat="43.93917" lon="7.16109">
        <ele>264.20001220703</ele>
        <time>2019-06-01T11:35:17.000Z</time>
      </trkpt>
      <trkpt lat="43.93909" lon="7.16114">
        <ele>264.20001220703</ele>
        <time>2019-06-01T11:35:18.000Z</time>
      </trkpt>
      <trkpt lat="43.93895" lon="7.16127">
        <ele>263.79998779297</ele>
        <time>2019-06-01T11:35:21.000Z</time>
      </trkpt>
      <trkpt lat="43.93891" lon="7.16131">
        <ele>264</ele>
        <time>2019-06-01T11:35:22.000Z</time>
      </trkpt>
      <trkpt lat="43.93886" lon="7.16138">
        <ele>263.79998779297</ele>
        <time>2019-06-01T11:35:23.000Z</time>
      </trkpt>
      <trkpt lat="43.93882" lon="7.16143">
        <ele>263.60000610352</ele>
        <time>2019-06-01T11:35:24.000Z</time>
      </trkpt>
      <trkpt lat="43.93867" lon="7.16169">
        <ele>262.60000610352</ele>
        <time>2019-06-01T11:35:28.000Z</time>
      </trkpt>
      <trkpt lat="43.93859" lon="7.16182">
        <ele>262.60000610352</ele>
        <time>2019-06-01T11:35:30.000Z</time>
      </trkpt>
      <trkpt lat="43.9384" lon="7.16225">
        <ele>261.60000610352</ele>
        <time>2019-06-01T11:35:36.000Z</time>
      </trkpt>
      <trkpt lat="43.93838" lon="7.16233">
        <ele>261.39999389648</ele>
        <time>2019-06-01T11:35:37.000Z</time>
      </trkpt>
      <trkpt lat="43.93832" lon="7.16264">
        <ele>261.20001220703</ele>
        <time>2019-06-01T11:35:41.000Z</time>
      </trkpt>
      <trkpt lat="43.93831" lon="7.16272">
        <ele>261</ele>
        <time>2019-06-01T11:35:42.000Z</time>
      </trkpt>
      <trkpt lat="43.93833" lon="7.16295">
        <ele>260.39999389648</ele>
        <time>2019-06-01T11:35:45.000Z</time>
      </trkpt>
      <trkpt lat="43.93836" lon="7.1632">
        <ele>259.79998779297</ele>
        <time>2019-06-01T11:35:48.000Z</time>
      </trkpt>
      <trkpt lat="43.93838" lon="7.16336">
        <ele>259.39999389648</ele>
        <time>2019-06-01T11:35:50.000Z</time>
      </trkpt>
      <trkpt lat="43.93841" lon="7.1636">
        <ele>258.20001220703</ele>
        <time>2019-06-01T11:35:53.000Z</time>
      </trkpt>
      <trkpt lat="43.93848" lon="7.16415">
        <ele>258</ele>
        <time>2019-06-01T11:36:00.000Z</time>
      </trkpt>
      <trkpt lat="43.93853" lon="7.16463">
        <ele>259</ele>
        <time>2019-06-01T11:36:06.000Z</time>
      </trkpt>
      <trkpt lat="43.93852" lon="7.16471">
        <ele>258.79998779297</ele>
        <time>2019-06-01T11:36:07.000Z</time>
      </trkpt>
      <trkpt lat="43.93849" lon="7.16494">
        <ele>258.79998779297</ele>
        <time>2019-06-01T11:36:10.000Z</time>
      </trkpt>
      <trkpt lat="43.93845" lon="7.16501">
        <ele>258.60000610352</ele>
        <time>2019-06-01T11:36:11.000Z</time>
      </trkpt>
      <trkpt lat="43.93841" lon="7.16507">
        <ele>258.60000610352</ele>
        <time>2019-06-01T11:36:12.000Z</time>
      </trkpt>
      <trkpt lat="43.93822" lon="7.16523">
        <ele>258.60000610352</ele>
        <time>2019-06-01T11:36:16.000Z</time>
      </trkpt>
      <trkpt lat="43.93811" lon="7.16526">
        <ele>259</ele>
        <time>2019-06-01T11:36:18.000Z</time>
      </trkpt>
      <trkpt lat="43.93792" lon="7.16531">
        <ele>257.79998779297</ele>
        <time>2019-06-01T11:36:22.000Z</time>
      </trkpt>
      <trkpt lat="43.93788" lon="7.16532">
        <ele>257.39999389648</ele>
        <time>2019-06-01T11:36:23.000Z</time>
      </trkpt>
      <trkpt lat="43.93772" lon="7.16544">
        <ele>258</ele>
        <time>2019-06-01T11:36:27.000Z</time>
      </trkpt>
      <trkpt lat="43.93765" lon="7.16552">
        <ele>258</ele>
        <time>2019-06-01T11:36:29.000Z</time>
      </trkpt>
      <trkpt lat="43.93759" lon="7.16571">
        <ele>257.79998779297</ele>
        <time>2019-06-01T11:36:32.000Z</time>
      </trkpt>
      <trkpt lat="43.93758" lon="7.16578">
        <ele>257.60000610352</ele>
        <time>2019-06-01T11:36:33.000Z</time>
      </trkpt>
      <trkpt lat="43.93752" lon="7.16616">
        <ele>257.20001220703</ele>
        <time>2019-06-01T11:36:38.000Z</time>
      </trkpt>
      <trkpt lat="43.93751" lon="7.16629">
        <ele>256.60000610352</ele>
        <time>2019-06-01T11:36:40.000Z</time>
      </trkpt>
      <trkpt lat="43.9375" lon="7.16636">
        <ele>256.20001220703</ele>
        <time>2019-06-01T11:36:41.000Z</time>
      </trkpt>
      <trkpt lat="43.93748" lon="7.16642">
        <ele>255.60000610352</ele>
        <time>2019-06-01T11:36:42.000Z</time>
      </trkpt>
      <trkpt lat="43.93747" lon="7.16656">
        <ele>255.60000610352</ele>
        <time>2019-06-01T11:36:44.000Z</time>
      </trkpt>
      <trkpt lat="43.93746" lon="7.16677">
        <ele>256.60000610352</ele>
        <time>2019-06-01T11:36:47.000Z</time>
      </trkpt>
      <trkpt lat="43.93745" lon="7.16684">
        <ele>257</ele>
        <time>2019-06-01T11:36:48.000Z</time>
      </trkpt>
      <trkpt lat="43.93742" lon="7.16696">
        <ele>256.79998779297</ele>
        <time>2019-06-01T11:36:50.000Z</time>
      </trkpt>
      <trkpt lat="43.93738" lon="7.16707">
        <ele>256</ele>
        <time>2019-06-01T11:36:52.000Z</time>
      </trkpt>
      <trkpt lat="43.93732" lon="7.16716">
        <ele>255.19999694824</ele>
        <time>2019-06-01T11:36:54.000Z</time>
      </trkpt>
      <trkpt lat="43.93729" lon="7.1672">
        <ele>254.60000610352</ele>
        <time>2019-06-01T11:36:55.000Z</time>
      </trkpt>
      <trkpt lat="43.93726" lon="7.16725">
        <ele>254.39999389648</ele>
        <time>2019-06-01T11:36:56.000Z</time>
      </trkpt>
      <trkpt lat="43.93721" lon="7.16735">
        <ele>254.19999694824</ele>
        <time>2019-06-01T11:36:58.000Z</time>
      </trkpt>
      <trkpt lat="43.93717" lon="7.16745">
        <ele>253.60000610352</ele>
        <time>2019-06-01T11:37:00.000Z</time>
      </trkpt>
      <trkpt lat="43.93715" lon="7.16751">
        <ele>253.39999389648</ele>
        <time>2019-06-01T11:37:01.000Z</time>
      </trkpt>
      <trkpt lat="43.93715" lon="7.16757">
        <ele>253</ele>
        <time>2019-06-01T11:37:02.000Z</time>
      </trkpt>
      <trkpt lat="43.93714" lon="7.16791">
        <ele>255.39999389648</ele>
        <time>2019-06-01T11:37:07.000Z</time>
      </trkpt>
      <trkpt lat="43.93715" lon="7.16799">
        <ele>256.20001220703</ele>
        <time>2019-06-01T11:37:08.000Z</time>
      </trkpt>
      <trkpt lat="43.93715" lon="7.16806">
        <ele>257</ele>
        <time>2019-06-01T11:37:09.000Z</time>
      </trkpt>
      <trkpt lat="43.93717" lon="7.16822">
        <ele>257.79998779297</ele>
        <time>2019-06-01T11:37:11.000Z</time>
      </trkpt>
      <trkpt lat="43.93717" lon="7.16843">
        <ele>255.60000610352</ele>
        <time>2019-06-01T11:37:14.000Z</time>
      </trkpt>
      <trkpt lat="43.93717" lon="7.16855">
        <ele>253.39999389648</ele>
        <time>2019-06-01T11:37:16.000Z</time>
      </trkpt>
      <trkpt lat="43.93718" lon="7.16867">
        <ele>252</ele>
        <time>2019-06-01T11:37:18.000Z</time>
      </trkpt>
      <trkpt lat="43.93719" lon="7.1689">
        <ele>253.19999694824</ele>
        <time>2019-06-01T11:37:22.000Z</time>
      </trkpt>
      <trkpt lat="43.93719" lon="7.16896">
        <ele>253.39999389648</ele>
        <time>2019-06-01T11:37:23.000Z</time>
      </trkpt>
      <trkpt lat="43.9372" lon="7.16901">
        <ele>254.19999694824</ele>
        <time>2019-06-01T11:37:24.000Z</time>
      </trkpt>
      <trkpt lat="43.93722" lon="7.16951">
        <ele>254.39999389648</ele>
        <time>2019-06-01T11:37:33.000Z</time>
      </trkpt>
      <trkpt lat="43.93723" lon="7.16962">
        <ele>254.19999694824</ele>
        <time>2019-06-01T11:37:35.000Z</time>
      </trkpt>
      <trkpt lat="43.93729" lon="7.16978">
        <ele>255.19999694824</ele>
        <time>2019-06-01T11:37:38.000Z</time>
      </trkpt>
      <trkpt lat="43.93732" lon="7.16984">
        <ele>256.20001220703</ele>
        <time>2019-06-01T11:37:39.000Z</time>
      </trkpt>
      <trkpt lat="43.93738" lon="7.16994">
        <ele>258.60000610352</ele>
        <time>2019-06-01T11:37:41.000Z</time>
      </trkpt>
      <trkpt lat="43.93742" lon="7.16999">
        <ele>260.39999389648</ele>
        <time>2019-06-01T11:37:42.000Z</time>
      </trkpt>
      <trkpt lat="43.93749" lon="7.1701">
        <ele>261.60000610352</ele>
        <time>2019-06-01T11:37:44.000Z</time>
      </trkpt>
      <trkpt lat="43.93755" lon="7.17022">
        <ele>260</ele>
        <time>2019-06-01T11:37:46.000Z</time>
      </trkpt>
      <trkpt lat="43.93758" lon="7.17028">
        <ele>258.39999389648</ele>
        <time>2019-06-01T11:37:47.000Z</time>
      </trkpt>
      <trkpt lat="43.9376" lon="7.17035">
        <ele>257.39999389648</ele>
        <time>2019-06-01T11:37:48.000Z</time>
      </trkpt>
      <trkpt lat="43.93764" lon="7.17045">
        <ele>256.60000610352</ele>
        <time>2019-06-01T11:37:50.000Z</time>
      </trkpt>
      <trkpt lat="43.93766" lon="7.17051">
        <ele>256.20001220703</ele>
        <time>2019-06-01T11:37:51.000Z</time>
      </trkpt>
      <trkpt lat="43.9377" lon="7.17067">
        <ele>255.39999389648</ele>
        <time>2019-06-01T11:37:54.000Z</time>
      </trkpt>
      <trkpt lat="43.93769" lon="7.17079">
        <ele>255.39999389648</ele>
        <time>2019-06-01T11:37:56.000Z</time>
      </trkpt>
      <trkpt lat="43.9376" lon="7.17094">
        <ele>255.60000610352</ele>
        <time>2019-06-01T11:38:00.000Z</time>
      </trkpt>
      <trkpt lat="43.93754" lon="7.17102">
        <ele>255</ele>
        <time>2019-06-01T11:38:03.000Z</time>
      </trkpt>
      <trkpt lat="43.93752" lon="7.17104">
        <ele>254.80000305176</ele>
        <time>2019-06-01T11:38:04.000Z</time>
      </trkpt>
      <trkpt lat="43.93749" lon="7.17106">
        <ele>254.60000610352</ele>
        <time>2019-06-01T11:38:05.000Z</time>
      </trkpt>
      <trkpt lat="43.93741" lon="7.17113">
        <ele>254</ele>
        <time>2019-06-01T11:38:08.000Z</time>
      </trkpt>
      <trkpt lat="43.93731" lon="7.17119">
        <ele>253.60000610352</ele>
        <time>2019-06-01T11:38:11.000Z</time>
      </trkpt>
      <trkpt lat="43.93712" lon="7.17132">
        <ele>254.60000610352</ele>
        <time>2019-06-01T11:38:17.000Z</time>
      </trkpt>
      <trkpt lat="43.93701" lon="7.17142">
        <ele>253.60000610352</ele>
        <time>2019-06-01T11:38:21.000Z</time>
      </trkpt>
      <trkpt lat="43.93683" lon="7.17153">
        <ele>254.19999694824</ele>
        <time>2019-06-01T11:38:27.000Z</time>
      </trkpt>
      <trkpt lat="43.93668" lon="7.17165">
        <ele>254.19999694824</ele>
        <time>2019-06-01T11:38:32.000Z</time>
      </trkpt>
      <trkpt lat="43.93642" lon="7.17178">
        <ele>253.19999694824</ele>
        <time>2019-06-01T11:38:40.000Z</time>
      </trkpt>
      <trkpt lat="43.93625" lon="7.17179">
        <ele>253</ele>
        <time>2019-06-01T11:38:45.000Z</time>
      </trkpt>
      <trkpt lat="43.93616" lon="7.1718">
        <ele>252.19999694824</ele>
        <time>2019-06-01T11:38:48.000Z</time>
      </trkpt>
      <trkpt lat="43.93593" lon="7.17184">
        <ele>253.19999694824</ele>
        <time>2019-06-01T11:38:55.000Z</time>
      </trkpt>
      <trkpt lat="43.93556" lon="7.17193">
        <ele>252</ele>
        <time>2019-06-01T11:39:05.000Z</time>
      </trkpt>
      <trkpt lat="43.93553" lon="7.17193">
        <ele>251.80000305176</ele>
        <time>2019-06-01T11:39:06.000Z</time>
      </trkpt>
      <trkpt lat="43.93527" lon="7.17187">
        <ele>251.39999389648</ele>
        <time>2019-06-01T11:39:13.000Z</time>
      </trkpt>
      <trkpt lat="43.93494" lon="7.17184">
        <ele>252.39999389648</ele>
        <time>2019-06-01T11:39:22.000Z</time>
      </trkpt>
      <trkpt lat="43.93474" lon="7.17186">
        <ele>252.80000305176</ele>
        <time>2019-06-01T11:39:27.000Z</time>
      </trkpt>
      <trkpt lat="43.93463" lon="7.17189">
        <ele>252.39999389648</ele>
        <time>2019-06-01T11:39:30.000Z</time>
      </trkpt>
      <trkpt lat="43.93447" lon="7.17194">
        <ele>251.60000610352</ele>
        <time>2019-06-01T11:39:34.000Z</time>
      </trkpt>
      <trkpt lat="43.93427" lon="7.17204">
        <ele>251.19999694824</ele>
        <time>2019-06-01T11:39:39.000Z</time>
      </trkpt>
      <trkpt lat="43.93412" lon="7.17218">
        <ele>252.80000305176</ele>
        <time>2019-06-01T11:39:43.000Z</time>
      </trkpt>
      <trkpt lat="43.93402" lon="7.17231">
        <ele>253.60000610352</ele>
        <time>2019-06-01T11:39:46.000Z</time>
      </trkpt>
      <trkpt lat="43.93394" lon="7.1724">
        <ele>254.19999694824</ele>
        <time>2019-06-01T11:39:48.000Z</time>
      </trkpt>
      <trkpt lat="43.9338" lon="7.1727">
        <ele>253.60000610352</ele>
        <time>2019-06-01T11:39:54.000Z</time>
      </trkpt>
      <trkpt lat="43.93379" lon="7.17275">
        <ele>253.19999694824</ele>
        <time>2019-06-01T11:39:55.000Z</time>
      </trkpt>
      <trkpt lat="43.93371" lon="7.17301">
        <ele>254</ele>
        <time>2019-06-01T11:40:01.000Z</time>
      </trkpt>
      <trkpt lat="43.9337" lon="7.17305">
        <ele>254.19999694824</ele>
        <time>2019-06-01T11:40:02.000Z</time>
      </trkpt>
      <trkpt lat="43.93358" lon="7.1732">
        <ele>255</ele>
        <time>2019-06-01T11:40:07.000Z</time>
      </trkpt>
      <trkpt lat="43.93355" lon="7.17322">
        <ele>255.19999694824</ele>
        <time>2019-06-01T11:40:08.000Z</time>
      </trkpt>
      <trkpt lat="43.9334" lon="7.17334">
        <ele>254.80000305176</ele>
        <time>2019-06-01T11:40:13.000Z</time>
      </trkpt>
      <trkpt lat="43.93327" lon="7.17343">
        <ele>254</ele>
        <time>2019-06-01T11:40:17.000Z</time>
      </trkpt>
      <trkpt lat="43.93316" lon="7.1735">
        <ele>253</ele>
        <time>2019-06-01T11:40:20.000Z</time>
      </trkpt>
      <trkpt lat="43.93303" lon="7.17361">
        <ele>253.19999694824</ele>
        <time>2019-06-01T11:40:24.000Z</time>
      </trkpt>
      <trkpt lat="43.93272" lon="7.17387">
        <ele>253.60000610352</ele>
        <time>2019-06-01T11:40:33.000Z</time>
      </trkpt>
      <trkpt lat="43.93252" lon="7.17405">
        <ele>254</ele>
        <time>2019-06-01T11:40:39.000Z</time>
      </trkpt>
      <trkpt lat="43.93234" lon="7.17423">
        <ele>253.80000305176</ele>
        <time>2019-06-01T11:40:44.000Z</time>
      </trkpt>
      <trkpt lat="43.93216" lon="7.17457">
        <ele>255</ele>
        <time>2019-06-01T11:40:51.000Z</time>
      </trkpt>
      <trkpt lat="43.93213" lon="7.17462">
        <ele>255.19999694824</ele>
        <time>2019-06-01T11:40:52.000Z</time>
      </trkpt>
      <trkpt lat="43.93209" lon="7.17472">
        <ele>255.19999694824</ele>
        <time>2019-06-01T11:40:54.000Z</time>
      </trkpt>
      <trkpt lat="43.93205" lon="7.17487">
        <ele>255.19999694824</ele>
        <time>2019-06-01T11:40:57.000Z</time>
      </trkpt>
      <trkpt lat="43.93201" lon="7.17509">
        <ele>255.39999389648</ele>
        <time>2019-06-01T11:41:01.000Z</time>
      </trkpt>
      <trkpt lat="43.932" lon="7.17514">
        <ele>255.39999389648</ele>
        <time>2019-06-01T11:41:02.000Z</time>
      </trkpt>
      <trkpt lat="43.9319" lon="7.17555">
        <ele>255.19999694824</ele>
        <time>2019-06-01T11:41:10.000Z</time>
      </trkpt>
      <trkpt lat="43.93177" lon="7.17577">
        <ele>255.19999694824</ele>
        <time>2019-06-01T11:41:16.000Z</time>
      </trkpt>
      <trkpt lat="43.93156" lon="7.17609">
        <ele>255.19999694824</ele>
        <time>2019-06-01T11:41:24.000Z</time>
      </trkpt>
      <trkpt lat="43.93154" lon="7.17613">
        <ele>255.39999389648</ele>
        <time>2019-06-01T11:41:25.000Z</time>
      </trkpt>
      <trkpt lat="43.93146" lon="7.17635">
        <ele>255.80000305176</ele>
        <time>2019-06-01T11:41:29.000Z</time>
      </trkpt>
      <trkpt lat="43.9314" lon="7.17652">
        <ele>256</ele>
        <time>2019-06-01T11:41:32.000Z</time>
      </trkpt>
      <trkpt lat="43.93134" lon="7.17668">
        <ele>255.80000305176</ele>
        <time>2019-06-01T11:41:35.000Z</time>
      </trkpt>
      <trkpt lat="43.93132" lon="7.17688">
        <ele>255.19999694824</ele>
        <time>2019-06-01T11:41:38.000Z</time>
      </trkpt>
      <trkpt lat="43.93129" lon="7.17708">
        <ele>255</ele>
        <time>2019-06-01T11:41:41.000Z</time>
      </trkpt>
      <trkpt lat="43.93128" lon="7.17714">
        <ele>255</ele>
        <time>2019-06-01T11:41:42.000Z</time>
      </trkpt>
      <trkpt lat="43.93121" lon="7.17744">
        <ele>254.19999694824</ele>
        <time>2019-06-01T11:41:47.000Z</time>
      </trkpt>
      <trkpt lat="43.93111" lon="7.17778">
        <ele>254</ele>
        <time>2019-06-01T11:41:53.000Z</time>
      </trkpt>
      <trkpt lat="43.93107" lon="7.17789">
        <ele>253.60000610352</ele>
        <time>2019-06-01T11:41:55.000Z</time>
      </trkpt>
      <trkpt lat="43.93099" lon="7.17805">
        <ele>253</ele>
        <time>2019-06-01T11:41:58.000Z</time>
      </trkpt>
      <trkpt lat="43.93086" lon="7.17831">
        <ele>253.60000610352</ele>
        <time>2019-06-01T11:42:03.000Z</time>
      </trkpt>
      <trkpt lat="43.93064" lon="7.1788">
        <ele>253.19999694824</ele>
        <time>2019-06-01T11:42:12.000Z</time>
      </trkpt>
      <trkpt lat="43.93041" lon="7.17939">
        <ele>253.19999694824</ele>
        <time>2019-06-01T11:42:22.000Z</time>
      </trkpt>
      <trkpt lat="43.93021" lon="7.17991">
        <ele>252</ele>
        <time>2019-06-01T11:42:31.000Z</time>
      </trkpt>
      <trkpt lat="43.93017" lon="7.18002">
        <ele>251.80000305176</ele>
        <time>2019-06-01T11:42:33.000Z</time>
      </trkpt>
      <trkpt lat="43.93" lon="7.18036">
        <ele>251.80000305176</ele>
        <time>2019-06-01T11:42:40.000Z</time>
      </trkpt>
      <trkpt lat="43.92994" lon="7.18044">
        <ele>251.80000305176</ele>
        <time>2019-06-01T11:42:42.000Z</time>
      </trkpt>
      <trkpt lat="43.9298" lon="7.18055">
        <ele>252</ele>
        <time>2019-06-01T11:42:46.000Z</time>
      </trkpt>
      <trkpt lat="43.92948" lon="7.1807">
        <ele>251.39999389648</ele>
        <time>2019-06-01T11:42:54.000Z</time>
      </trkpt>
      <trkpt lat="43.92936" lon="7.18071">
        <ele>250.60000610352</ele>
        <time>2019-06-01T11:42:57.000Z</time>
      </trkpt>
      <trkpt lat="43.92916" lon="7.18072">
        <ele>250.80000305176</ele>
        <time>2019-06-01T11:43:02.000Z</time>
      </trkpt>
      <trkpt lat="43.92884" lon="7.18079">
        <ele>250.80000305176</ele>
        <time>2019-06-01T11:43:10.000Z</time>
      </trkpt>
      <trkpt lat="43.9288" lon="7.18081">
        <ele>250.80000305176</ele>
        <time>2019-06-01T11:43:11.000Z</time>
      </trkpt>
      <trkpt lat="43.92855" lon="7.18094">
        <ele>249.80000305176</ele>
        <time>2019-06-01T11:43:17.000Z</time>
      </trkpt>
      <trkpt lat="43.92822" lon="7.18112">
        <ele>249.60000610352</ele>
        <time>2019-06-01T11:43:25.000Z</time>
      </trkpt>
      <trkpt lat="43.92774" lon="7.18138">
        <ele>249.19999694824</ele>
        <time>2019-06-01T11:43:36.000Z</time>
      </trkpt>
      <trkpt lat="43.92733" lon="7.18164">
        <ele>249.60000610352</ele>
        <time>2019-06-01T11:43:46.000Z</time>
      </trkpt>
      <trkpt lat="43.92722" lon="7.18173">
        <ele>249.60000610352</ele>
        <time>2019-06-01T11:43:49.000Z</time>
      </trkpt>
      <trkpt lat="43.92707" lon="7.18187">
        <ele>249.80000305176</ele>
        <time>2019-06-01T11:43:53.000Z</time>
      </trkpt>
      <trkpt lat="43.9268" lon="7.18215">
        <ele>249.80000305176</ele>
        <time>2019-06-01T11:44:00.000Z</time>
      </trkpt>
      <trkpt lat="43.92669" lon="7.18228">
        <ele>249.80000305176</ele>
        <time>2019-06-01T11:44:03.000Z</time>
      </trkpt>
      <trkpt lat="43.92662" lon="7.18238">
        <ele>249.39999389648</ele>
        <time>2019-06-01T11:44:05.000Z</time>
      </trkpt>
      <trkpt lat="43.92627" lon="7.18283">
        <ele>249.39999389648</ele>
        <time>2019-06-01T11:44:14.000Z</time>
      </trkpt>
      <trkpt lat="43.92609" lon="7.18317">
        <ele>249.19999694824</ele>
        <time>2019-06-01T11:44:20.000Z</time>
      </trkpt>
      <trkpt lat="43.92598" lon="7.18364">
        <ele>248.60000610352</ele>
        <time>2019-06-01T11:44:27.000Z</time>
      </trkpt>
      <trkpt lat="43.92595" lon="7.18377">
        <ele>248.60000610352</ele>
        <time>2019-06-01T11:44:29.000Z</time>
      </trkpt>
      <trkpt lat="43.92594" lon="7.18383">
        <ele>248.39999389648</ele>
        <time>2019-06-01T11:44:30.000Z</time>
      </trkpt>
      <trkpt lat="43.92589" lon="7.18404">
        <ele>248.39999389648</ele>
        <time>2019-06-01T11:44:33.000Z</time>
      </trkpt>
      <trkpt lat="43.92573" lon="7.18452">
        <ele>248.19999694824</ele>
        <time>2019-06-01T11:44:41.000Z</time>
      </trkpt>
      <trkpt lat="43.92565" lon="7.18468">
        <ele>247.39999389648</ele>
        <time>2019-06-01T11:44:44.000Z</time>
      </trkpt>
      <trkpt lat="43.92555" lon="7.18492">
        <ele>247.60000610352</ele>
        <time>2019-06-01T11:44:49.000Z</time>
      </trkpt>
      <trkpt lat="43.92545" lon="7.18535">
        <ele>248.39999389648</ele>
        <time>2019-06-01T11:44:57.000Z</time>
      </trkpt>
      <trkpt lat="43.9254" lon="7.18561">
        <ele>248.60000610352</ele>
        <time>2019-06-01T11:45:02.000Z</time>
      </trkpt>
      <trkpt lat="43.92548" lon="7.1858">
        <ele>248.60000610352</ele>
        <time>2019-06-01T11:45:06.000Z</time>
      </trkpt>
      <trkpt lat="43.9255" lon="7.18585">
        <ele>248.19999694824</ele>
        <time>2019-06-01T11:45:07.000Z</time>
      </trkpt>
      <trkpt lat="43.92553" lon="7.18604">
        <ele>247.80000305176</ele>
        <time>2019-06-01T11:45:10.000Z</time>
      </trkpt>
      <trkpt lat="43.92553" lon="7.18621">
        <ele>247.19999694824</ele>
        <time>2019-06-01T11:45:13.000Z</time>
      </trkpt>
      <trkpt lat="43.92552" lon="7.18625">
        <ele>246.80000305176</ele>
        <time>2019-06-01T11:45:14.000Z</time>
      </trkpt>
      <trkpt lat="43.92549" lon="7.18626">
        <ele>246</ele>
        <time>2019-06-01T11:45:16.000Z</time>
      </trkpt>
      <trkpt lat="43.92548" lon="7.18625">
        <ele>245.80000305176</ele>
        <time>2019-06-01T11:45:17.000Z</time>
      </trkpt>
      <trkpt lat="43.92548" lon="7.18625">
        <ele>245.39999389648</ele>
        <time>2019-06-01T11:45:23.000Z</time>
      </trkpt>
      <trkpt lat="43.92549" lon="7.18623">
        <ele>245.80000305176</ele>
        <time>2019-06-01T11:45:29.000Z</time>
      </trkpt>
      <trkpt lat="43.92549" lon="7.18622">
        <ele>245.39999389648</ele>
        <time>2019-06-01T11:45:36.000Z</time>
      </trkpt>
      <trkpt lat="43.9255" lon="7.18623">
        <ele>245.19999694824</ele>
        <time>2019-06-01T11:45:43.000Z</time>
      </trkpt>
      <trkpt lat="43.9255" lon="7.18623">
        <ele>245.39999389648</ele>
        <time>2019-06-01T11:45:45.000Z</time>
      </trkpt>
    </trkseg>
  </trk>
</gpx>